<?xml version='1.0' encoding='UTF-8'?><gpx version="1.1" creator="JPX - https://github.com/jenetics/jpx" xmlns="http://www.topografix.com/GPX/1/1"><trk><trkseg><trkpt lat="45.7217783" lon="9.604717"><ele>267.0</ele><time>2026-04-26T07:21:43.805Z</time></trkpt><trkpt lat="45.7218587" lon="9.6046812"><ele>267.0</ele><time>2026-04-26T07:21:47.114Z</time></trkpt><trkpt lat="45.7219396" lon="9.6046655"><ele>267.0</ele><time>2026-04-26T07:21:49.121Z</time></trkpt><trkpt lat="45.7222652" lon="9.6050006"><ele>267.0</ele><time>2026-04-26T07:21:52.053Z</time></trkpt><trkpt lat="45.7223095" lon="9.6050941"><ele>267.0</ele><time>2026-04-26T07:21:53.053Z</time></trkpt><trkpt lat="45.7223212" lon="9.6051942"><ele>267.0</ele><time>2026-04-26T07:21:54.053Z</time></trkpt><trkpt lat="45.7223324" lon="9.6053027"><ele>267.0</ele><time>2026-04-26T07:21:55.053Z</time></trkpt><trkpt lat="45.7223283" lon="9.6054248"><ele>267.0</ele><time>2026-04-26T07:21:56.057Z</time></trkpt><trkpt lat="45.7223273" lon="9.6055589"><ele>267.0</ele><time>2026-04-26T07:21:57.054Z</time></trkpt><trkpt lat="45.722321" lon="9.605689"><ele>267.0</ele><time>2026-04-26T07:21:58.053Z</time></trkpt><trkpt lat="45.722317" lon="9.6058106"><ele>267.0</ele><time>2026-04-26T07:21:59.054Z</time></trkpt><trkpt lat="45.7223117" lon="9.6059172"><ele>267.0</ele><time>2026-04-26T07:22:00.055Z</time></trkpt><trkpt lat="45.7223092" lon="9.6060081"><ele>267.0</ele><time>2026-04-26T07:22:01.053Z</time></trkpt><trkpt lat="45.7222603" lon="9.6061226"><ele>267.0</ele><time>2026-04-26T07:22:03.053Z</time></trkpt><trkpt lat="45.7221567" lon="9.6061717"><ele>267.0</ele><time>2026-04-26T07:22:05.054Z</time></trkpt><trkpt lat="45.7220688" lon="9.6061963"><ele>266.6</ele><time>2026-04-26T07:22:07.053Z</time></trkpt><trkpt lat="45.7220186" lon="9.6062827"><ele>266.2</ele><time>2026-04-26T07:22:11.055Z</time></trkpt><trkpt lat="45.7219937" lon="9.6063916"><ele>265.8</ele><time>2026-04-26T07:22:14.087Z</time></trkpt><trkpt lat="45.7219918" lon="9.6065367"><ele>265.4</ele><time>2026-04-26T07:22:15.053Z</time></trkpt><trkpt lat="45.7219961" lon="9.6066434"><ele>265.0</ele><time>2026-04-26T07:22:16.053Z</time></trkpt><trkpt lat="45.7220096" lon="9.6068121"><ele>265.0</ele><time>2026-04-26T07:22:18.054Z</time></trkpt><trkpt lat="45.7220321" lon="9.6069678"><ele>265.0</ele><time>2026-04-26T07:22:20.054Z</time></trkpt><trkpt lat="45.7220556" lon="9.6071405"><ele>265.0</ele><time>2026-04-26T07:22:22.055Z</time></trkpt><trkpt lat="45.7220681" lon="9.6072343"><ele>265.0</ele><time>2026-04-26T07:22:23.054Z</time></trkpt><trkpt lat="45.7220817" lon="9.6073296"><ele>265.0</ele><time>2026-04-26T07:22:24.054Z</time></trkpt><trkpt lat="45.7220918" lon="9.6074236"><ele>265.0</ele><time>2026-04-26T07:22:25.056Z</time></trkpt><trkpt lat="45.7220974" lon="9.6075228"><ele>265.5</ele><time>2026-04-26T07:22:26.054Z</time></trkpt><trkpt lat="45.7221079" lon="9.6076216"><ele>266.0</ele><time>2026-04-26T07:22:27.056Z</time></trkpt><trkpt lat="45.7221214" lon="9.6077215"><ele>266.5</ele><time>2026-04-26T07:22:28.056Z</time></trkpt><trkpt lat="45.7221348" lon="9.6078289"><ele>267.0</ele><time>2026-04-26T07:22:29.057Z</time></trkpt><trkpt lat="45.7221522" lon="9.6079518"><ele>267.5</ele><time>2026-04-26T07:22:30.057Z</time></trkpt><trkpt lat="45.722171" lon="9.6080822"><ele>268.0</ele><time>2026-04-26T07:22:31.057Z</time></trkpt><trkpt lat="45.7221912" lon="9.6082203"><ele>268.0</ele><time>2026-04-26T07:22:32.054Z</time></trkpt><trkpt lat="45.7222097" lon="9.6083568"><ele>268.0</ele><time>2026-04-26T07:22:33.053Z</time></trkpt><trkpt lat="45.7222238" lon="9.608496"><ele>268.0</ele><time>2026-04-26T07:22:34.056Z</time></trkpt><trkpt lat="45.7222403" lon="9.6086385"><ele>268.0</ele><time>2026-04-26T07:22:35.054Z</time></trkpt><trkpt lat="45.7222556" lon="9.6087748"><ele>268.0</ele><time>2026-04-26T07:22:36.054Z</time></trkpt><trkpt lat="45.7222703" lon="9.6089054"><ele>268.16666666666663</ele><time>2026-04-26T07:22:37.054Z</time></trkpt><trkpt lat="45.7222821" lon="9.6090259"><ele>268.3333333333333</ele><time>2026-04-26T07:22:38.055Z</time></trkpt><trkpt lat="45.7222846" lon="9.6091325"><ele>268.5</ele><time>2026-04-26T07:22:39.055Z</time></trkpt><trkpt lat="45.7222707" lon="9.6092227"><ele>268.6666666666667</ele><time>2026-04-26T07:22:40.054Z</time></trkpt><trkpt lat="45.7221787" lon="9.6093236"><ele>268.83333333333337</ele><time>2026-04-26T07:22:42.053Z</time></trkpt><trkpt lat="45.7221023" lon="9.609344"><ele>269.0</ele><time>2026-04-26T07:22:43.054Z</time></trkpt><trkpt lat="45.7220101" lon="9.6093568"><ele>269.0</ele><time>2026-04-26T07:22:44.055Z</time></trkpt><trkpt lat="45.7219121" lon="9.6093731"><ele>269.0</ele><time>2026-04-26T07:22:45.053Z</time></trkpt><trkpt lat="45.7218167" lon="9.6093926"><ele>269.0</ele><time>2026-04-26T07:22:46.054Z</time></trkpt><trkpt lat="45.7217246" lon="9.6094106"><ele>269.0</ele><time>2026-04-26T07:22:47.054Z</time></trkpt><trkpt lat="45.7216392" lon="9.6094196"><ele>269.0</ele><time>2026-04-26T07:22:48.053Z</time></trkpt><trkpt lat="45.721564" lon="9.6094278"><ele>269.0</ele><time>2026-04-26T07:22:49.055Z</time></trkpt><trkpt lat="45.7214989" lon="9.6094341"><ele>268.6666666666667</ele><time>2026-04-26T07:22:50.054Z</time></trkpt><trkpt lat="45.7213987" lon="9.6094474"><ele>268.33333333333337</ele><time>2026-04-26T07:22:52.053Z</time></trkpt><trkpt lat="45.7213463" lon="9.609498"><ele>268.0</ele><time>2026-04-26T07:22:54.053Z</time></trkpt><trkpt lat="45.7213454" lon="9.6096182"><ele>267.6666666666667</ele><time>2026-04-26T07:22:56.054Z</time></trkpt><trkpt lat="45.7213528" lon="9.6097578"><ele>267.3333333333333</ele><time>2026-04-26T07:22:58.053Z</time></trkpt><trkpt lat="45.72136" lon="9.6098651"><ele>267.0</ele><time>2026-04-26T07:23:00.053Z</time></trkpt><trkpt lat="45.7213979" lon="9.6099769"><ele>267.0</ele><time>2026-04-26T07:23:03.063Z</time></trkpt><trkpt lat="45.7214824" lon="9.6100044"><ele>267.0</ele><time>2026-04-26T07:23:05.057Z</time></trkpt><trkpt lat="45.7215744" lon="9.6099994"><ele>267.0</ele><time>2026-04-26T07:23:07.057Z</time></trkpt><trkpt lat="45.721645" lon="9.6100217"><ele>267.0</ele><time>2026-04-26T07:23:09.057Z</time></trkpt><trkpt lat="45.721705" lon="9.6100633"><ele>267.0</ele><time>2026-04-26T07:23:11.058Z</time></trkpt><trkpt lat="45.7217983" lon="9.61014"><ele>267.0</ele><time>2026-04-26T07:23:13.057Z</time></trkpt><trkpt lat="45.721865" lon="9.610175"><ele>267.3333333333333</ele><time>2026-04-26T07:23:14.057Z</time></trkpt><trkpt lat="45.7219433" lon="9.6101917"><ele>267.6666666666667</ele><time>2026-04-26T07:23:15.058Z</time></trkpt><trkpt lat="45.7220233" lon="9.6101783"><ele>268.0</ele><time>2026-04-26T07:23:16.056Z</time></trkpt><trkpt lat="45.7221017" lon="9.61013"><ele>268.33333333333337</ele><time>2026-04-26T07:23:17.053Z</time></trkpt><trkpt lat="45.7221817" lon="9.610065"><ele>268.6666666666667</ele><time>2026-04-26T07:23:18.054Z</time></trkpt><trkpt lat="45.7222683" lon="9.609995"><ele>269.0</ele><time>2026-04-26T07:23:19.054Z</time></trkpt><trkpt lat="45.722355" lon="9.6099333"><ele>269.0</ele><time>2026-04-26T07:23:20.054Z</time></trkpt><trkpt lat="45.7224467" lon="9.6098917"><ele>269.0</ele><time>2026-04-26T07:23:21.053Z</time></trkpt><trkpt lat="45.7225433" lon="9.6098617"><ele>269.0</ele><time>2026-04-26T07:23:22.053Z</time></trkpt><trkpt lat="45.7226467" lon="9.6098383"><ele>269.0</ele><time>2026-04-26T07:23:23.055Z</time></trkpt><trkpt lat="45.7227583" lon="9.6098167"><ele>269.0</ele><time>2026-04-26T07:23:24.058Z</time></trkpt><trkpt lat="45.722875" lon="9.6097983"><ele>269.25</ele><time>2026-04-26T07:23:25.058Z</time></trkpt><trkpt lat="45.722995" lon="9.60978"><ele>269.5</ele><time>2026-04-26T07:23:26.057Z</time></trkpt><trkpt lat="45.7231167" lon="9.6097567"><ele>269.75</ele><time>2026-04-26T07:23:27.057Z</time></trkpt><trkpt lat="45.7232417" lon="9.6097283"><ele>270.0</ele><time>2026-04-26T07:23:28.057Z</time></trkpt><trkpt lat="45.7233683" lon="9.6097"><ele>270.0</ele><time>2026-04-26T07:23:29.056Z</time></trkpt><trkpt lat="45.72349" lon="9.6096733"><ele>270.0</ele><time>2026-04-26T07:23:30.057Z</time></trkpt><trkpt lat="45.7236117" lon="9.6096467"><ele>270.0</ele><time>2026-04-26T07:23:31.056Z</time></trkpt><trkpt lat="45.7237367" lon="9.6096217"><ele>270.0</ele><time>2026-04-26T07:23:32.054Z</time></trkpt><trkpt lat="45.723865" lon="9.6095983"><ele>270.25</ele><time>2026-04-26T07:23:33.053Z</time></trkpt><trkpt lat="45.7239967" lon="9.609575"><ele>270.5</ele><time>2026-04-26T07:23:34.053Z</time></trkpt><trkpt lat="45.7241317" lon="9.60955"><ele>270.75</ele><time>2026-04-26T07:23:35.054Z</time></trkpt><trkpt lat="45.7242667" lon="9.609525"><ele>271.0</ele><time>2026-04-26T07:23:36.053Z</time></trkpt><trkpt lat="45.724405" lon="9.6095033"><ele>270.75</ele><time>2026-04-26T07:23:37.054Z</time></trkpt><trkpt lat="45.7245467" lon="9.6094733"><ele>270.5</ele><time>2026-04-26T07:23:38.054Z</time></trkpt><trkpt lat="45.72469" lon="9.6094467"><ele>270.25</ele><time>2026-04-26T07:23:39.053Z</time></trkpt><trkpt lat="45.7248333" lon="9.6094183"><ele>270.0</ele><time>2026-04-26T07:23:40.053Z</time></trkpt><trkpt lat="45.7249783" lon="9.6093883"><ele>270.0</ele><time>2026-04-26T07:23:41.055Z</time></trkpt><trkpt lat="45.7251217" lon="9.6093617"><ele>270.0</ele><time>2026-04-26T07:23:42.054Z</time></trkpt><trkpt lat="45.7252633" lon="9.6093317"><ele>270.0</ele><time>2026-04-26T07:23:43.054Z</time></trkpt><trkpt lat="45.7254" lon="9.6093067"><ele>270.0</ele><time>2026-04-26T07:23:44.055Z</time></trkpt><trkpt lat="45.72553" lon="9.6092817"><ele>270.0</ele><time>2026-04-26T07:23:45.055Z</time></trkpt><trkpt lat="45.72565" lon="9.6092583"><ele>270.0</ele><time>2026-04-26T07:23:46.053Z</time></trkpt><trkpt lat="45.725765" lon="9.6092433"><ele>270.0</ele><time>2026-04-26T07:23:47.054Z</time></trkpt><trkpt lat="45.7258733" lon="9.6092333"><ele>270.0</ele><time>2026-04-26T07:23:48.053Z</time></trkpt><trkpt lat="45.72598" lon="9.6092217"><ele>270.4</ele><time>2026-04-26T07:23:49.054Z</time></trkpt><trkpt lat="45.726085" lon="9.6092083"><ele>270.8</ele><time>2026-04-26T07:23:50.054Z</time></trkpt><trkpt lat="45.7261883" lon="9.609195"><ele>271.2</ele><time>2026-04-26T07:23:51.053Z</time></trkpt><trkpt lat="45.72629" lon="9.6091867"><ele>271.6</ele><time>2026-04-26T07:23:52.055Z</time></trkpt><trkpt lat="45.726385" lon="9.6091817"><ele>272.0</ele><time>2026-04-26T07:23:53.054Z</time></trkpt><trkpt lat="45.7264767" lon="9.6091783"><ele>271.99999999999994</ele><time>2026-04-26T07:23:54.053Z</time></trkpt><trkpt lat="45.72656" lon="9.60918"><ele>272.0</ele><time>2026-04-26T07:23:55.055Z</time></trkpt><trkpt lat="45.726635" lon="9.609195"><ele>272.0</ele><time>2026-04-26T07:23:56.054Z</time></trkpt><trkpt lat="45.7267033" lon="9.60922"><ele>272.0</ele><time>2026-04-26T07:23:57.054Z</time></trkpt><trkpt lat="45.7267717" lon="9.6092383"><ele>272.0</ele><time>2026-04-26T07:23:58.053Z</time></trkpt><trkpt lat="45.72684" lon="9.6092367"><ele>271.99999999999994</ele><time>2026-04-26T07:23:59.057Z</time></trkpt><trkpt lat="45.726905" lon="9.6092133"><ele>272.0</ele><time>2026-04-26T07:24:00.053Z</time></trkpt><trkpt lat="45.7269717" lon="9.609175"><ele>272.1428571428571</ele><time>2026-04-26T07:24:01.057Z</time></trkpt><trkpt lat="45.7270333" lon="9.609135"><ele>272.2857142857143</ele><time>2026-04-26T07:24:02.054Z</time></trkpt><trkpt lat="45.727095" lon="9.6090967"><ele>272.42857142857144</ele><time>2026-04-26T07:24:03.053Z</time></trkpt><trkpt lat="45.72716" lon="9.6090817"><ele>272.57142857142856</ele><time>2026-04-26T07:24:04.054Z</time></trkpt><trkpt lat="45.7272317" lon="9.609075"><ele>272.7142857142857</ele><time>2026-04-26T07:24:05.054Z</time></trkpt><trkpt lat="45.7273133" lon="9.6090683"><ele>272.85714285714283</ele><time>2026-04-26T07:24:06.057Z</time></trkpt><trkpt lat="45.7274" lon="9.60906"><ele>273.0</ele><time>2026-04-26T07:24:07.054Z</time></trkpt><trkpt lat="45.7274917" lon="9.60905"><ele>273.0</ele><time>2026-04-26T07:24:08.054Z</time></trkpt><trkpt lat="45.7275883" lon="9.6090417"><ele>273.0</ele><time>2026-04-26T07:24:09.053Z</time></trkpt><trkpt lat="45.7276867" lon="9.609035"><ele>273.0</ele><time>2026-04-26T07:24:10.054Z</time></trkpt><trkpt lat="45.7277917" lon="9.6090333"><ele>273.0</ele><time>2026-04-26T07:24:11.054Z</time></trkpt><trkpt lat="45.7279" lon="9.609035"><ele>273.0</ele><time>2026-04-26T07:24:12.053Z</time></trkpt><trkpt lat="45.7280133" lon="9.6090367"><ele>273.25</ele><time>2026-04-26T07:24:13.054Z</time></trkpt><trkpt lat="45.72813" lon="9.6090383"><ele>273.5</ele><time>2026-04-26T07:24:14.054Z</time></trkpt><trkpt lat="45.7282483" lon="9.6090433"><ele>273.75</ele><time>2026-04-26T07:24:15.053Z</time></trkpt><trkpt lat="45.7283667" lon="9.6090433"><ele>274.0</ele><time>2026-04-26T07:24:16.056Z</time></trkpt><trkpt lat="45.728485" lon="9.609045"><ele>274.25</ele><time>2026-04-26T07:24:17.056Z</time></trkpt><trkpt lat="45.7286017" lon="9.6090533"><ele>274.5</ele><time>2026-04-26T07:24:18.053Z</time></trkpt><trkpt lat="45.7287183" lon="9.609055"><ele>274.75</ele><time>2026-04-26T07:24:19.054Z</time></trkpt><trkpt lat="45.7288367" lon="9.6090583"><ele>275.0</ele><time>2026-04-26T07:24:20.054Z</time></trkpt><trkpt lat="45.7289517" lon="9.6090633"><ele>275.0</ele><time>2026-04-26T07:24:21.053Z</time></trkpt><trkpt lat="45.7290633" lon="9.609065"><ele>275.0</ele><time>2026-04-26T07:24:22.053Z</time></trkpt><trkpt lat="45.7291683" lon="9.60907"><ele>275.0</ele><time>2026-04-26T07:24:23.054Z</time></trkpt><trkpt lat="45.7292683" lon="9.609075"><ele>275.0</ele><time>2026-04-26T07:24:24.053Z</time></trkpt><trkpt lat="45.7293683" lon="9.6090783"><ele>275.0</ele><time>2026-04-26T07:24:25.054Z</time></trkpt><trkpt lat="45.7294733" lon="9.6090767"><ele>275.0</ele><time>2026-04-26T07:24:26.054Z</time></trkpt><trkpt lat="45.7295817" lon="9.60908"><ele>275.0</ele><time>2026-04-26T07:24:27.053Z</time></trkpt><trkpt lat="45.7296917" lon="9.6090817"><ele>275.0</ele><time>2026-04-26T07:24:28.053Z</time></trkpt><trkpt lat="45.72981" lon="9.6090817"><ele>275.0</ele><time>2026-04-26T07:24:29.054Z</time></trkpt><trkpt lat="45.7299333" lon="9.6090833"><ele>275.0</ele><time>2026-04-26T07:24:30.054Z</time></trkpt><trkpt lat="45.7300583" lon="9.6090867"><ele>275.0</ele><time>2026-04-26T07:24:31.054Z</time></trkpt><trkpt lat="45.730185" lon="9.609085"><ele>275.0</ele><time>2026-04-26T07:24:32.053Z</time></trkpt><trkpt lat="45.7303067" lon="9.60909"><ele>275.0</ele><time>2026-04-26T07:24:33.054Z</time></trkpt><trkpt lat="45.730425" lon="9.6091"><ele>275.25</ele><time>2026-04-26T07:24:34.054Z</time></trkpt><trkpt lat="45.7305417" lon="9.6090983"><ele>275.5</ele><time>2026-04-26T07:24:35.054Z</time></trkpt><trkpt lat="45.7306583" lon="9.6091033"><ele>275.75</ele><time>2026-04-26T07:24:36.055Z</time></trkpt><trkpt lat="45.73078" lon="9.609105"><ele>276.0</ele><time>2026-04-26T07:24:37.055Z</time></trkpt><trkpt lat="45.7308983" lon="9.6091117"><ele>276.0</ele><time>2026-04-26T07:24:38.055Z</time></trkpt><trkpt lat="45.7310183" lon="9.6091183"><ele>276.0</ele><time>2026-04-26T07:24:39.055Z</time></trkpt><trkpt lat="45.7311383" lon="9.60912"><ele>276.0</ele><time>2026-04-26T07:24:40.055Z</time></trkpt><trkpt lat="45.7312583" lon="9.6091267"><ele>276.0</ele><time>2026-04-26T07:24:41.054Z</time></trkpt><trkpt lat="45.73138" lon="9.6091317"><ele>276.0</ele><time>2026-04-26T07:24:42.056Z</time></trkpt><trkpt lat="45.731505" lon="9.60914"><ele>276.0</ele><time>2026-04-26T07:24:43.055Z</time></trkpt><trkpt lat="45.7316317" lon="9.6091483"><ele>276.0</ele><time>2026-04-26T07:24:44.056Z</time></trkpt><trkpt lat="45.7317617" lon="9.6091567"><ele>276.0</ele><time>2026-04-26T07:24:45.055Z</time></trkpt><trkpt lat="45.7318917" lon="9.6091633"><ele>276.5</ele><time>2026-04-26T07:24:46.055Z</time></trkpt><trkpt lat="45.732025" lon="9.6091683"><ele>277.0</ele><time>2026-04-26T07:24:47.054Z</time></trkpt><trkpt lat="45.7321517" lon="9.6091733"><ele>277.5</ele><time>2026-04-26T07:24:48.055Z</time></trkpt><trkpt lat="45.732275" lon="9.609175"><ele>278.0</ele><time>2026-04-26T07:24:49.055Z</time></trkpt><trkpt lat="45.732395" lon="9.6091733"><ele>278.0</ele><time>2026-04-26T07:24:50.056Z</time></trkpt><trkpt lat="45.7325067" lon="9.6091733"><ele>278.0</ele><time>2026-04-26T07:24:51.055Z</time></trkpt><trkpt lat="45.73261" lon="9.60917"><ele>278.0</ele><time>2026-04-26T07:24:52.055Z</time></trkpt><trkpt lat="45.7327067" lon="9.6091667"><ele>278.0</ele><time>2026-04-26T07:24:53.054Z</time></trkpt><trkpt lat="45.732805" lon="9.609165"><ele>278.0</ele><time>2026-04-26T07:24:54.056Z</time></trkpt><trkpt lat="45.7329067" lon="9.60917"><ele>278.2</ele><time>2026-04-26T07:24:55.056Z</time></trkpt><trkpt lat="45.7330117" lon="9.6091717"><ele>278.4</ele><time>2026-04-26T07:24:56.055Z</time></trkpt><trkpt lat="45.7331183" lon="9.60917"><ele>278.59999999999997</ele><time>2026-04-26T07:24:57.057Z</time></trkpt><trkpt lat="45.7332283" lon="9.6091617"><ele>278.8</ele><time>2026-04-26T07:24:58.057Z</time></trkpt><trkpt lat="45.733345" lon="9.6091517"><ele>279.0</ele><time>2026-04-26T07:24:59.058Z</time></trkpt><trkpt lat="45.7334683" lon="9.6091383"><ele>279.5</ele><time>2026-04-26T07:25:00.057Z</time></trkpt><trkpt lat="45.7335933" lon="9.6091233"><ele>280.0</ele><time>2026-04-26T07:25:01.056Z</time></trkpt><trkpt lat="45.7337183" lon="9.6091067"><ele>280.5</ele><time>2026-04-26T07:25:02.054Z</time></trkpt><trkpt lat="45.7338417" lon="9.60909"><ele>281.0</ele><time>2026-04-26T07:25:03.053Z</time></trkpt><trkpt lat="45.7339633" lon="9.60907"><ele>281.0</ele><time>2026-04-26T07:25:04.054Z</time></trkpt><trkpt lat="45.734075" lon="9.6090517"><ele>281.0</ele><time>2026-04-26T07:25:05.053Z</time></trkpt><trkpt lat="45.7341783" lon="9.6090283"><ele>281.0</ele><time>2026-04-26T07:25:06.054Z</time></trkpt><trkpt lat="45.7342833" lon="9.60901"><ele>281.0</ele><time>2026-04-26T07:25:07.054Z</time></trkpt><trkpt lat="45.7343917" lon="9.6089967"><ele>281.0</ele><time>2026-04-26T07:25:08.053Z</time></trkpt><trkpt lat="45.7345" lon="9.60898"><ele>281.0</ele><time>2026-04-26T07:25:09.054Z</time></trkpt><trkpt lat="45.7346033" lon="9.6089583"><ele>281.0</ele><time>2026-04-26T07:25:10.054Z</time></trkpt><trkpt lat="45.7347" lon="9.60894"><ele>281.0</ele><time>2026-04-26T07:25:11.054Z</time></trkpt><trkpt lat="45.73479" lon="9.6089217"><ele>281.0</ele><time>2026-04-26T07:25:12.054Z</time></trkpt><trkpt lat="45.7348683" lon="9.6089133"><ele>281.0</ele><time>2026-04-26T07:25:13.054Z</time></trkpt><trkpt lat="45.7349383" lon="9.608925"><ele>281.0</ele><time>2026-04-26T07:25:14.054Z</time></trkpt><trkpt lat="45.735025" lon="9.6090183"><ele>281.0</ele><time>2026-04-26T07:25:16.053Z</time></trkpt><trkpt lat="45.7350317" lon="9.609205"><ele>281.0</ele><time>2026-04-26T07:25:18.054Z</time></trkpt><trkpt lat="45.73503" lon="9.6093"><ele>281.0</ele><time>2026-04-26T07:25:19.054Z</time></trkpt><trkpt lat="45.7350283" lon="9.609395"><ele>281.0</ele><time>2026-04-26T07:25:20.054Z</time></trkpt><trkpt lat="45.735035" lon="9.6095767"><ele>281.0</ele><time>2026-04-26T07:25:22.054Z</time></trkpt><trkpt lat="45.7350333" lon="9.609675"><ele>281.1666666666667</ele><time>2026-04-26T07:25:23.054Z</time></trkpt><trkpt lat="45.7350317" lon="9.60977"><ele>281.33333333333337</ele><time>2026-04-26T07:25:24.053Z</time></trkpt><trkpt lat="45.73503" lon="9.609865"><ele>281.5</ele><time>2026-04-26T07:25:25.053Z</time></trkpt><trkpt lat="45.735025" lon="9.609955"><ele>281.6666666666667</ele><time>2026-04-26T07:25:26.054Z</time></trkpt><trkpt lat="45.734985" lon="9.61012"><ele>281.8333333333333</ele><time>2026-04-26T07:25:28.054Z</time></trkpt><trkpt lat="45.734965" lon="9.6102833"><ele>282.0</ele><time>2026-04-26T07:25:30.053Z</time></trkpt><trkpt lat="45.73502" lon="9.6104317"><ele>282.0</ele><time>2026-04-26T07:25:32.055Z</time></trkpt><trkpt lat="45.7350817" lon="9.6104867"><ele>282.0</ele><time>2026-04-26T07:25:33.053Z</time></trkpt><trkpt lat="45.7351483" lon="9.61054"><ele>282.0</ele><time>2026-04-26T07:25:34.053Z</time></trkpt><trkpt lat="45.7352183" lon="9.6106067"><ele>282.0</ele><time>2026-04-26T07:25:35.057Z</time></trkpt><trkpt lat="45.7352933" lon="9.61066"><ele>282.0</ele><time>2026-04-26T07:25:36.057Z</time></trkpt><trkpt lat="45.7353617" lon="9.610705"><ele>282.0</ele><time>2026-04-26T07:25:37.057Z</time></trkpt><trkpt lat="45.73542" lon="9.6107533"><ele>282.2</ele><time>2026-04-26T07:25:38.054Z</time></trkpt><trkpt lat="45.7354917" lon="9.6108867"><ele>282.4</ele><time>2026-04-26T07:25:40.057Z</time></trkpt><trkpt lat="45.7354983" lon="9.6109833"><ele>282.6</ele><time>2026-04-26T07:25:41.055Z</time></trkpt><trkpt lat="45.73549" lon="9.611095"><ele>282.8</ele><time>2026-04-26T07:25:42.057Z</time></trkpt><trkpt lat="45.73547" lon="9.6112283"><ele>283.0</ele><time>2026-04-26T07:25:43.057Z</time></trkpt><trkpt lat="45.7354467" lon="9.6113883"><ele>283.0</ele><time>2026-04-26T07:25:44.054Z</time></trkpt><trkpt lat="45.7354217" lon="9.61155"><ele>283.0</ele><time>2026-04-26T07:25:45.057Z</time></trkpt><trkpt lat="45.7354" lon="9.611705"><ele>283.0</ele><time>2026-04-26T07:25:46.053Z</time></trkpt><trkpt lat="45.7353833" lon="9.61184"><ele>283.0</ele><time>2026-04-26T07:25:47.054Z</time></trkpt><trkpt lat="45.7353717" lon="9.61196"><ele>283.0</ele><time>2026-04-26T07:25:48.053Z</time></trkpt><trkpt lat="45.7353633" lon="9.61206"><ele>283.2</ele><time>2026-04-26T07:25:49.053Z</time></trkpt><trkpt lat="45.7353617" lon="9.6122217"><ele>283.4</ele><time>2026-04-26T07:25:51.057Z</time></trkpt><trkpt lat="45.7354317" lon="9.6123483"><ele>283.59999999999997</ele><time>2026-04-26T07:25:53.057Z</time></trkpt><trkpt lat="45.7355033" lon="9.6123967"><ele>283.8</ele><time>2026-04-26T07:25:54.056Z</time></trkpt><trkpt lat="45.7356033" lon="9.6124183"><ele>284.0</ele><time>2026-04-26T07:25:55.055Z</time></trkpt><trkpt lat="45.7357217" lon="9.6124267"><ele>284.0</ele><time>2026-04-26T07:25:56.055Z</time></trkpt><trkpt lat="45.73584" lon="9.612445"><ele>284.0</ele><time>2026-04-26T07:25:57.057Z</time></trkpt><trkpt lat="45.7359583" lon="9.6124667"><ele>284.0</ele><time>2026-04-26T07:25:58.056Z</time></trkpt><trkpt lat="45.7360767" lon="9.612485"><ele>284.0</ele><time>2026-04-26T07:25:59.056Z</time></trkpt><trkpt lat="45.7361933" lon="9.6125"><ele>284.2</ele><time>2026-04-26T07:26:00.056Z</time></trkpt><trkpt lat="45.7363033" lon="9.6125133"><ele>284.4</ele><time>2026-04-26T07:26:01.055Z</time></trkpt><trkpt lat="45.7364033" lon="9.6125267"><ele>284.6</ele><time>2026-04-26T07:26:02.054Z</time></trkpt><trkpt lat="45.7364933" lon="9.6125367"><ele>284.8</ele><time>2026-04-26T07:26:03.053Z</time></trkpt><trkpt lat="45.736565" lon="9.6125533"><ele>285.0</ele><time>2026-04-26T07:26:04.055Z</time></trkpt><trkpt lat="45.7366517" lon="9.6126117"><ele>285.0</ele><time>2026-04-26T07:26:06.053Z</time></trkpt><trkpt lat="45.7366733" lon="9.6127083"><ele>285.0</ele><time>2026-04-26T07:26:08.058Z</time></trkpt><trkpt lat="45.7366667" lon="9.6128633"><ele>285.0</ele><time>2026-04-26T07:26:10.054Z</time></trkpt><trkpt lat="45.7366567" lon="9.6129733"><ele>285.0</ele><time>2026-04-26T07:26:11.054Z</time></trkpt><trkpt lat="45.7366417" lon="9.6131017"><ele>285.0</ele><time>2026-04-26T07:26:12.054Z</time></trkpt><trkpt lat="45.7366233" lon="9.6132483"><ele>285.0</ele><time>2026-04-26T07:26:13.054Z</time></trkpt><trkpt lat="45.7366017" lon="9.613395"><ele>285.0</ele><time>2026-04-26T07:26:14.055Z</time></trkpt><trkpt lat="45.7365833" lon="9.61354"><ele>285.0</ele><time>2026-04-26T07:26:15.054Z</time></trkpt><trkpt lat="45.7365617" lon="9.6136783"><ele>285.0</ele><time>2026-04-26T07:26:16.055Z</time></trkpt><trkpt lat="45.7365417" lon="9.6138033"><ele>285.0</ele><time>2026-04-26T07:26:17.055Z</time></trkpt><trkpt lat="45.7365167" lon="9.6139233"><ele>285.0</ele><time>2026-04-26T07:26:18.054Z</time></trkpt><trkpt lat="45.7364933" lon="9.6140417"><ele>285.0</ele><time>2026-04-26T07:26:19.054Z</time></trkpt><trkpt lat="45.736465" lon="9.6141733"><ele>285.0</ele><time>2026-04-26T07:26:20.055Z</time></trkpt><trkpt lat="45.7364333" lon="9.6143233"><ele>285.0</ele><time>2026-04-26T07:26:21.054Z</time></trkpt><trkpt lat="45.7363983" lon="9.6144883"><ele>285.0</ele><time>2026-04-26T07:26:22.055Z</time></trkpt><trkpt lat="45.736365" lon="9.6146533"><ele>285.2</ele><time>2026-04-26T07:26:23.056Z</time></trkpt><trkpt lat="45.7363317" lon="9.61481"><ele>285.4</ele><time>2026-04-26T07:26:24.054Z</time></trkpt><trkpt lat="45.736305" lon="9.6149533"><ele>285.6</ele><time>2026-04-26T07:26:25.054Z</time></trkpt><trkpt lat="45.7362783" lon="9.615085"><ele>285.8</ele><time>2026-04-26T07:26:26.055Z</time></trkpt><trkpt lat="45.736255" lon="9.6152067"><ele>286.0</ele><time>2026-04-26T07:26:27.054Z</time></trkpt><trkpt lat="45.7362333" lon="9.61532"><ele>286.16666666666663</ele><time>2026-04-26T07:26:28.054Z</time></trkpt><trkpt lat="45.73621" lon="9.6154283"><ele>286.3333333333333</ele><time>2026-04-26T07:26:29.054Z</time></trkpt><trkpt lat="45.7361867" lon="9.61554"><ele>286.5</ele><time>2026-04-26T07:26:30.054Z</time></trkpt><trkpt lat="45.7361633" lon="9.6156583"><ele>286.6666666666667</ele><time>2026-04-26T07:26:31.057Z</time></trkpt><trkpt lat="45.7361433" lon="9.6157783"><ele>286.83333333333337</ele><time>2026-04-26T07:26:32.054Z</time></trkpt><trkpt lat="45.73612" lon="9.6159033"><ele>287.0</ele><time>2026-04-26T07:26:33.053Z</time></trkpt><trkpt lat="45.7360967" lon="9.61603"><ele>287.0</ele><time>2026-04-26T07:26:34.053Z</time></trkpt><trkpt lat="45.7360683" lon="9.6161683"><ele>287.0</ele><time>2026-04-26T07:26:35.054Z</time></trkpt><trkpt lat="45.7360417" lon="9.61631"><ele>287.0</ele><time>2026-04-26T07:26:36.054Z</time></trkpt><trkpt lat="45.7360133" lon="9.61646"><ele>287.0</ele><time>2026-04-26T07:26:37.057Z</time></trkpt><trkpt lat="45.7359817" lon="9.6166217"><ele>287.0</ele><time>2026-04-26T07:26:38.053Z</time></trkpt><trkpt lat="45.7359533" lon="9.616785"><ele>287.25</ele><time>2026-04-26T07:26:39.053Z</time></trkpt><trkpt lat="45.7359217" lon="9.6169467"><ele>287.5</ele><time>2026-04-26T07:26:40.053Z</time></trkpt><trkpt lat="45.73589" lon="9.6171117"><ele>287.75</ele><time>2026-04-26T07:26:41.055Z</time></trkpt><trkpt lat="45.7358583" lon="9.6172767"><ele>288.0</ele><time>2026-04-26T07:26:42.053Z</time></trkpt><trkpt lat="45.73583" lon="9.6174433"><ele>288.0</ele><time>2026-04-26T07:26:43.054Z</time></trkpt><trkpt lat="45.7358017" lon="9.6176183"><ele>288.0</ele><time>2026-04-26T07:26:44.054Z</time></trkpt><trkpt lat="45.7357717" lon="9.6177967"><ele>288.0</ele><time>2026-04-26T07:26:45.054Z</time></trkpt><trkpt lat="45.73574" lon="9.6179717"><ele>288.0</ele><time>2026-04-26T07:26:46.055Z</time></trkpt><trkpt lat="45.735705" lon="9.61815"><ele>288.0</ele><time>2026-04-26T07:26:47.054Z</time></trkpt><trkpt lat="45.735665" lon="9.6183333"><ele>288.0</ele><time>2026-04-26T07:26:48.053Z</time></trkpt><trkpt lat="45.73562" lon="9.618525"><ele>288.0</ele><time>2026-04-26T07:26:49.054Z</time></trkpt><trkpt lat="45.7355717" lon="9.6187217"><ele>288.0</ele><time>2026-04-26T07:26:50.054Z</time></trkpt><trkpt lat="45.73552" lon="9.6189267"><ele>288.0</ele><time>2026-04-26T07:26:51.054Z</time></trkpt><trkpt lat="45.7354717" lon="9.6191333"><ele>288.0</ele><time>2026-04-26T07:26:52.054Z</time></trkpt><trkpt lat="45.7354267" lon="9.6193417"><ele>288.0</ele><time>2026-04-26T07:26:53.054Z</time></trkpt><trkpt lat="45.7353817" lon="9.6195433"><ele>288.5</ele><time>2026-04-26T07:26:54.053Z</time></trkpt><trkpt lat="45.7353433" lon="9.6197333"><ele>289.0</ele><time>2026-04-26T07:26:55.054Z</time></trkpt><trkpt lat="45.7353067" lon="9.6199117"><ele>289.5</ele><time>2026-04-26T07:26:56.055Z</time></trkpt><trkpt lat="45.73527" lon="9.6200817"><ele>290.0</ele><time>2026-04-26T07:26:57.053Z</time></trkpt><trkpt lat="45.735235" lon="9.620245"><ele>290.5</ele><time>2026-04-26T07:26:58.055Z</time></trkpt><trkpt lat="45.735215" lon="9.62041"><ele>291.0</ele><time>2026-04-26T07:26:59.054Z</time></trkpt><trkpt lat="45.7352117" lon="9.620575"><ele>291.5</ele><time>2026-04-26T07:27:00.053Z</time></trkpt><trkpt lat="45.73523" lon="9.62074"><ele>292.0</ele><time>2026-04-26T07:27:01.055Z</time></trkpt><trkpt lat="45.735265" lon="9.6209033"><ele>292.0</ele><time>2026-04-26T07:27:02.054Z</time></trkpt><trkpt lat="45.73532" lon="9.6210617"><ele>292.0</ele><time>2026-04-26T07:27:03.054Z</time></trkpt><trkpt lat="45.735395" lon="9.6212117"><ele>292.0</ele><time>2026-04-26T07:27:04.054Z</time></trkpt><trkpt lat="45.7354833" lon="9.62136"><ele>292.0</ele><time>2026-04-26T07:27:05.054Z</time></trkpt><trkpt lat="45.7355783" lon="9.6215083"><ele>293.66666666666663</ele><time>2026-04-26T07:27:06.054Z</time></trkpt><trkpt lat="45.7356817" lon="9.62166"><ele>295.3333333333333</ele><time>2026-04-26T07:27:07.054Z</time></trkpt><trkpt lat="45.735785" lon="9.6218183"><ele>297.0</ele><time>2026-04-26T07:27:08.055Z</time></trkpt><trkpt lat="45.7358883" lon="9.6219767"><ele>297.0</ele><time>2026-04-26T07:27:09.053Z</time></trkpt><trkpt lat="45.7359867" lon="9.6221283"><ele>297.0</ele><time>2026-04-26T07:27:10.053Z</time></trkpt><trkpt lat="45.7360767" lon="9.6222733"><ele>297.0</ele><time>2026-04-26T07:27:11.054Z</time></trkpt><trkpt lat="45.73616" lon="9.6224117"><ele>297.0</ele><time>2026-04-26T07:27:12.053Z</time></trkpt><trkpt lat="45.7362317" lon="9.62254"><ele>297.0</ele><time>2026-04-26T07:27:13.054Z</time></trkpt><trkpt lat="45.7362933" lon="9.622665"><ele>297.0</ele><time>2026-04-26T07:27:14.054Z</time></trkpt><trkpt lat="45.7363317" lon="9.62279"><ele>297.0</ele><time>2026-04-26T07:27:15.054Z</time></trkpt><trkpt lat="45.73635" lon="9.622915"><ele>297.0</ele><time>2026-04-26T07:27:16.054Z</time></trkpt><trkpt lat="45.7363567" lon="9.6230367"><ele>297.0</ele><time>2026-04-26T07:27:17.054Z</time></trkpt><trkpt lat="45.7363467" lon="9.6231467"><ele>297.8333333333333</ele><time>2026-04-26T07:27:18.054Z</time></trkpt><trkpt lat="45.7363383" lon="9.6232467"><ele>298.6666666666667</ele><time>2026-04-26T07:27:19.054Z</time></trkpt><trkpt lat="45.7363283" lon="9.62334"><ele>299.5</ele><time>2026-04-26T07:27:20.055Z</time></trkpt><trkpt lat="45.73631" lon="9.6234333"><ele>300.33333333333337</ele><time>2026-04-26T07:27:21.054Z</time></trkpt><trkpt lat="45.7362783" lon="9.62353"><ele>301.1666666666667</ele><time>2026-04-26T07:27:22.054Z</time></trkpt><trkpt lat="45.7362267" lon="9.6236333"><ele>302.0</ele><time>2026-04-26T07:27:23.055Z</time></trkpt><trkpt lat="45.7361667" lon="9.6237467"><ele>302.0</ele><time>2026-04-26T07:27:24.054Z</time></trkpt><trkpt lat="45.7361" lon="9.62388"><ele>302.0</ele><time>2026-04-26T07:27:25.055Z</time></trkpt><trkpt lat="45.7360267" lon="9.6240333"><ele>302.0</ele><time>2026-04-26T07:27:26.054Z</time></trkpt><trkpt lat="45.735955" lon="9.6242"><ele>302.0</ele><time>2026-04-26T07:27:27.053Z</time></trkpt><trkpt lat="45.735885" lon="9.6243733"><ele>302.33333333333337</ele><time>2026-04-26T07:27:28.054Z</time></trkpt><trkpt lat="45.7358183" lon="9.6245633"><ele>302.6666666666667</ele><time>2026-04-26T07:27:29.058Z</time></trkpt><trkpt lat="45.7357567" lon="9.6247683"><ele>303.0</ele><time>2026-04-26T07:27:30.057Z</time></trkpt><trkpt lat="45.7356867" lon="9.624975"><ele>303.0</ele><time>2026-04-26T07:27:31.058Z</time></trkpt><trkpt lat="45.7356183" lon="9.6251833"><ele>303.0</ele><time>2026-04-26T07:27:32.054Z</time></trkpt><trkpt lat="45.73555" lon="9.625395"><ele>303.0</ele><time>2026-04-26T07:27:33.053Z</time></trkpt><trkpt lat="45.7354783" lon="9.6256083"><ele>303.0</ele><time>2026-04-26T07:27:34.055Z</time></trkpt><trkpt lat="45.73541" lon="9.6258233"><ele>303.0</ele><time>2026-04-26T07:27:35.055Z</time></trkpt><trkpt lat="45.7353433" lon="9.626035"><ele>303.0</ele><time>2026-04-26T07:27:36.053Z</time></trkpt><trkpt lat="45.7352733" lon="9.6262467"><ele>300.0</ele><time>2026-04-26T07:27:37.055Z</time></trkpt><trkpt lat="45.7352017" lon="9.6264633"><ele>297.0</ele><time>2026-04-26T07:27:38.054Z</time></trkpt><trkpt lat="45.7351317" lon="9.6266817"><ele>294.0</ele><time>2026-04-26T07:27:39.053Z</time></trkpt><trkpt lat="45.7350583" lon="9.6269033"><ele>293.6666666666667</ele><time>2026-04-26T07:27:40.054Z</time></trkpt><trkpt lat="45.7349867" lon="9.6271233"><ele>293.33333333333337</ele><time>2026-04-26T07:27:41.055Z</time></trkpt><trkpt lat="45.734915" lon="9.6273383"><ele>293.0</ele><time>2026-04-26T07:27:42.054Z</time></trkpt><trkpt lat="45.734845" lon="9.6275467"><ele>293.0</ele><time>2026-04-26T07:27:43.055Z</time></trkpt><trkpt lat="45.73478" lon="9.6277483"><ele>293.0</ele><time>2026-04-26T07:27:44.056Z</time></trkpt><trkpt lat="45.7347167" lon="9.6279383"><ele>293.0</ele><time>2026-04-26T07:27:45.055Z</time></trkpt><trkpt lat="45.734655" lon="9.6281233"><ele>293.0</ele><time>2026-04-26T07:27:46.057Z</time></trkpt><trkpt lat="45.734595" lon="9.6283117"><ele>292.75</ele><time>2026-04-26T07:27:47.054Z</time></trkpt><trkpt lat="45.734535" lon="9.6284983"><ele>292.5</ele><time>2026-04-26T07:27:48.057Z</time></trkpt><trkpt lat="45.7344733" lon="9.6286833"><ele>292.25</ele><time>2026-04-26T07:27:49.056Z</time></trkpt><trkpt lat="45.7344133" lon="9.6288667"><ele>292.0</ele><time>2026-04-26T07:27:50.055Z</time></trkpt><trkpt lat="45.7343533" lon="9.6290467"><ele>292.5</ele><time>2026-04-26T07:27:51.055Z</time></trkpt><trkpt lat="45.734295" lon="9.6292217"><ele>293.0</ele><time>2026-04-26T07:27:52.055Z</time></trkpt><trkpt lat="45.7342433" lon="9.6293917"><ele>293.5</ele><time>2026-04-26T07:27:53.055Z</time></trkpt><trkpt lat="45.7341933" lon="9.629555"><ele>294.0</ele><time>2026-04-26T07:27:54.055Z</time></trkpt><trkpt lat="45.734145" lon="9.6297133"><ele>295.0</ele><time>2026-04-26T07:27:55.054Z</time></trkpt><trkpt lat="45.7340933" lon="9.6298683"><ele>296.0</ele><time>2026-04-26T07:27:56.054Z</time></trkpt><trkpt lat="45.73404" lon="9.6300217"><ele>297.0</ele><time>2026-04-26T07:27:57.055Z</time></trkpt><trkpt lat="45.7339883" lon="9.6301733"><ele>298.0</ele><time>2026-04-26T07:27:58.055Z</time></trkpt><trkpt lat="45.7339383" lon="9.6303267"><ele>298.6</ele><time>2026-04-26T07:27:59.055Z</time></trkpt><trkpt lat="45.7338867" lon="9.6304733"><ele>299.20000000000005</ele><time>2026-04-26T07:28:00.055Z</time></trkpt><trkpt lat="45.73384" lon="9.6306133"><ele>299.8</ele><time>2026-04-26T07:28:01.058Z</time></trkpt><trkpt lat="45.7337967" lon="9.63074"><ele>300.40000000000003</ele><time>2026-04-26T07:28:02.057Z</time></trkpt><trkpt lat="45.73375" lon="9.6308517"><ele>301.0</ele><time>2026-04-26T07:28:03.058Z</time></trkpt><trkpt lat="45.7336983" lon="9.6309517"><ele>301.0</ele><time>2026-04-26T07:28:04.057Z</time></trkpt><trkpt lat="45.73363" lon="9.6310267"><ele>301.0</ele><time>2026-04-26T07:28:05.057Z</time></trkpt><trkpt lat="45.73356" lon="9.6311017"><ele>301.0</ele><time>2026-04-26T07:28:06.058Z</time></trkpt><trkpt lat="45.7335067" lon="9.6311833"><ele>301.0</ele><time>2026-04-26T07:28:07.057Z</time></trkpt><trkpt lat="45.7334717" lon="9.631275"><ele>301.0</ele><time>2026-04-26T07:28:08.058Z</time></trkpt><trkpt lat="45.733455" lon="9.6313817"><ele>301.0</ele><time>2026-04-26T07:28:09.057Z</time></trkpt><trkpt lat="45.73345" lon="9.6315067"><ele>300.6</ele><time>2026-04-26T07:28:10.057Z</time></trkpt><trkpt lat="45.7334417" lon="9.6316433"><ele>300.20000000000005</ele><time>2026-04-26T07:28:11.057Z</time></trkpt><trkpt lat="45.7334183" lon="9.6317967"><ele>299.79999999999995</ele><time>2026-04-26T07:28:12.057Z</time></trkpt><trkpt lat="45.7333817" lon="9.6319533"><ele>299.4</ele><time>2026-04-26T07:28:13.057Z</time></trkpt><trkpt lat="45.7333417" lon="9.6321133"><ele>299.0</ele><time>2026-04-26T07:28:14.057Z</time></trkpt><trkpt lat="45.7332967" lon="9.6322783"><ele>299.0</ele><time>2026-04-26T07:28:15.057Z</time></trkpt><trkpt lat="45.7332483" lon="9.632455"><ele>299.0</ele><time>2026-04-26T07:28:16.057Z</time></trkpt><trkpt lat="45.7331967" lon="9.6326367"><ele>299.0</ele><time>2026-04-26T07:28:17.057Z</time></trkpt><trkpt lat="45.7331383" lon="9.63283"><ele>299.0</ele><time>2026-04-26T07:28:18.054Z</time></trkpt><trkpt lat="45.7330783" lon="9.6330283"><ele>299.33333333333337</ele><time>2026-04-26T07:28:19.054Z</time></trkpt><trkpt lat="45.733015" lon="9.6332283"><ele>299.6666666666667</ele><time>2026-04-26T07:28:20.054Z</time></trkpt><trkpt lat="45.73295" lon="9.6334317"><ele>300.0</ele><time>2026-04-26T07:28:21.053Z</time></trkpt><trkpt lat="45.7328867" lon="9.6336317"><ele>300.0</ele><time>2026-04-26T07:28:22.054Z</time></trkpt><trkpt lat="45.7328283" lon="9.6338233"><ele>300.0</ele><time>2026-04-26T07:28:23.054Z</time></trkpt><trkpt lat="45.7327733" lon="9.6340083"><ele>300.0</ele><time>2026-04-26T07:28:24.053Z</time></trkpt><trkpt lat="45.732725" lon="9.634185"><ele>300.0</ele><time>2026-04-26T07:28:25.054Z</time></trkpt><trkpt lat="45.73268" lon="9.634355"><ele>299.25</ele><time>2026-04-26T07:28:26.054Z</time></trkpt><trkpt lat="45.7326417" lon="9.634515"><ele>298.5</ele><time>2026-04-26T07:28:27.053Z</time></trkpt><trkpt lat="45.732605" lon="9.6346683"><ele>297.75</ele><time>2026-04-26T07:28:28.054Z</time></trkpt><trkpt lat="45.73257" lon="9.6348217"><ele>297.0</ele><time>2026-04-26T07:28:29.058Z</time></trkpt><trkpt lat="45.7325367" lon="9.6349717"><ele>297.0</ele><time>2026-04-26T07:28:30.057Z</time></trkpt><trkpt lat="45.7325033" lon="9.635115"><ele>297.0</ele><time>2026-04-26T07:28:31.058Z</time></trkpt><trkpt lat="45.7324733" lon="9.6352617"><ele>297.0</ele><time>2026-04-26T07:28:32.054Z</time></trkpt><trkpt lat="45.7324467" lon="9.635415"><ele>297.0</ele><time>2026-04-26T07:28:33.054Z</time></trkpt><trkpt lat="45.7324233" lon="9.63558"><ele>297.0</ele><time>2026-04-26T07:28:34.054Z</time></trkpt><trkpt lat="45.7324083" lon="9.6357633"><ele>297.3333333333333</ele><time>2026-04-26T07:28:35.053Z</time></trkpt><trkpt lat="45.7323883" lon="9.6359683"><ele>297.66666666666663</ele><time>2026-04-26T07:28:36.053Z</time></trkpt><trkpt lat="45.7323683" lon="9.6361817"><ele>298.0</ele><time>2026-04-26T07:28:37.054Z</time></trkpt><trkpt lat="45.7323517" lon="9.6364033"><ele>298.3333333333333</ele><time>2026-04-26T07:28:38.055Z</time></trkpt><trkpt lat="45.7323383" lon="9.636625"><ele>298.6666666666667</ele><time>2026-04-26T07:28:39.053Z</time></trkpt><trkpt lat="45.732325" lon="9.6368483"><ele>299.0</ele><time>2026-04-26T07:28:40.056Z</time></trkpt><trkpt lat="45.7323167" lon="9.6370717"><ele>299.33333333333337</ele><time>2026-04-26T07:28:41.058Z</time></trkpt><trkpt lat="45.732305" lon="9.6373017"><ele>299.6666666666667</ele><time>2026-04-26T07:28:42.058Z</time></trkpt><trkpt lat="45.7322933" lon="9.6375333"><ele>300.0</ele><time>2026-04-26T07:28:43.057Z</time></trkpt><trkpt lat="45.7322833" lon="9.6377733"><ele>300.0</ele><time>2026-04-26T07:28:44.054Z</time></trkpt><trkpt lat="45.7322717" lon="9.638015"><ele>300.0</ele><time>2026-04-26T07:28:45.057Z</time></trkpt><trkpt lat="45.732255" lon="9.638255"><ele>300.0</ele><time>2026-04-26T07:28:46.053Z</time></trkpt><trkpt lat="45.73224" lon="9.6384867"><ele>300.0</ele><time>2026-04-26T07:28:47.054Z</time></trkpt><trkpt lat="45.7322267" lon="9.6387017"><ele>300.0</ele><time>2026-04-26T07:28:48.055Z</time></trkpt><trkpt lat="45.732215" lon="9.6389"><ele>300.0</ele><time>2026-04-26T07:28:49.056Z</time></trkpt><trkpt lat="45.7322033" lon="9.639095"><ele>300.0</ele><time>2026-04-26T07:28:50.056Z</time></trkpt><trkpt lat="45.7321917" lon="9.639285"><ele>300.0</ele><time>2026-04-26T07:28:51.056Z</time></trkpt><trkpt lat="45.7321817" lon="9.6394633"><ele>300.0</ele><time>2026-04-26T07:28:52.055Z</time></trkpt><trkpt lat="45.7321717" lon="9.6396283"><ele>300.0</ele><time>2026-04-26T07:28:53.056Z</time></trkpt><trkpt lat="45.73216" lon="9.6397867"><ele>300.0</ele><time>2026-04-26T07:28:54.055Z</time></trkpt><trkpt lat="45.7321517" lon="9.6399467"><ele>300.25</ele><time>2026-04-26T07:28:55.055Z</time></trkpt><trkpt lat="45.73214" lon="9.64012"><ele>300.5</ele><time>2026-04-26T07:28:56.056Z</time></trkpt><trkpt lat="45.7321267" lon="9.6403083"><ele>300.75</ele><time>2026-04-26T07:28:57.056Z</time></trkpt><trkpt lat="45.7321117" lon="9.6405067"><ele>301.0</ele><time>2026-04-26T07:28:58.055Z</time></trkpt><trkpt lat="45.7320983" lon="9.6407067"><ele>301.5</ele><time>2026-04-26T07:28:59.055Z</time></trkpt><trkpt lat="45.732085" lon="9.6409083"><ele>302.0</ele><time>2026-04-26T07:29:00.055Z</time></trkpt><trkpt lat="45.732075" lon="9.6410983"><ele>302.5</ele><time>2026-04-26T07:29:01.058Z</time></trkpt><trkpt lat="45.7320617" lon="9.64129"><ele>303.0</ele><time>2026-04-26T07:29:02.055Z</time></trkpt><trkpt lat="45.7320517" lon="9.6414733"><ele>303.5</ele><time>2026-04-26T07:29:03.057Z</time></trkpt><trkpt lat="45.7320417" lon="9.641645"><ele>304.0</ele><time>2026-04-26T07:29:04.055Z</time></trkpt><trkpt lat="45.7320317" lon="9.6418133"><ele>304.5</ele><time>2026-04-26T07:29:05.056Z</time></trkpt><trkpt lat="45.7320233" lon="9.6419733"><ele>305.0</ele><time>2026-04-26T07:29:06.055Z</time></trkpt><trkpt lat="45.7320133" lon="9.6421317"><ele>305.2</ele><time>2026-04-26T07:29:07.055Z</time></trkpt><trkpt lat="45.7320033" lon="9.6422883"><ele>305.4</ele><time>2026-04-26T07:29:08.055Z</time></trkpt><trkpt lat="45.7319917" lon="9.6424467"><ele>305.6</ele><time>2026-04-26T07:29:09.054Z</time></trkpt><trkpt lat="45.731975" lon="9.6426033"><ele>305.8</ele><time>2026-04-26T07:29:10.055Z</time></trkpt><trkpt lat="45.7319583" lon="9.64276"><ele>306.0</ele><time>2026-04-26T07:29:11.055Z</time></trkpt><trkpt lat="45.7319333" lon="9.6429183"><ele>306.0</ele><time>2026-04-26T07:29:12.055Z</time></trkpt><trkpt lat="45.7319083" lon="9.64308"><ele>306.0</ele><time>2026-04-26T07:29:13.056Z</time></trkpt><trkpt lat="45.7318733" lon="9.6432367"><ele>306.0</ele><time>2026-04-26T07:29:14.056Z</time></trkpt><trkpt lat="45.7318383" lon="9.6433833"><ele>306.0</ele><time>2026-04-26T07:29:15.057Z</time></trkpt><trkpt lat="45.7318" lon="9.64352"><ele>306.0</ele><time>2026-04-26T07:29:16.053Z</time></trkpt><trkpt lat="45.73176" lon="9.6436467"><ele>305.1666666666667</ele><time>2026-04-26T07:29:17.055Z</time></trkpt><trkpt lat="45.7317217" lon="9.643765"><ele>304.3333333333333</ele><time>2026-04-26T07:29:18.056Z</time></trkpt><trkpt lat="45.73168" lon="9.6438767"><ele>303.5</ele><time>2026-04-26T07:29:19.056Z</time></trkpt><trkpt lat="45.73164" lon="9.6439833"><ele>302.66666666666663</ele><time>2026-04-26T07:29:20.056Z</time></trkpt><trkpt lat="45.7316" lon="9.6440817"><ele>301.8333333333333</ele><time>2026-04-26T07:29:21.056Z</time></trkpt><trkpt lat="45.7315617" lon="9.6441733"><ele>301.0</ele><time>2026-04-26T07:29:22.055Z</time></trkpt><trkpt lat="45.7315233" lon="9.64426"><ele>301.0</ele><time>2026-04-26T07:29:23.055Z</time></trkpt><trkpt lat="45.731485" lon="9.6443383"><ele>301.0</ele><time>2026-04-26T07:29:24.056Z</time></trkpt><trkpt lat="45.73142" lon="9.6444783"><ele>301.0</ele><time>2026-04-26T07:29:26.055Z</time></trkpt><trkpt lat="45.73135" lon="9.6446033"><ele>301.0</ele><time>2026-04-26T07:29:28.055Z</time></trkpt><trkpt lat="45.7312683" lon="9.644705"><ele>301.0</ele><time>2026-04-26T07:29:30.056Z</time></trkpt><trkpt lat="45.7311833" lon="9.64485"><ele>301.0</ele><time>2026-04-26T07:29:32.056Z</time></trkpt><trkpt lat="45.731135" lon="9.6449517"><ele>301.0</ele><time>2026-04-26T07:29:33.055Z</time></trkpt><trkpt lat="45.7310767" lon="9.6450683"><ele>301.0</ele><time>2026-04-26T07:29:34.055Z</time></trkpt><trkpt lat="45.7310117" lon="9.645195"><ele>301.0</ele><time>2026-04-26T07:29:35.055Z</time></trkpt><trkpt lat="45.7309417" lon="9.64532"><ele>301.0</ele><time>2026-04-26T07:29:36.055Z</time></trkpt><trkpt lat="45.73087" lon="9.64544"><ele>301.0</ele><time>2026-04-26T07:29:37.058Z</time></trkpt><trkpt lat="45.730795" lon="9.64556"><ele>301.0</ele><time>2026-04-26T07:29:38.056Z</time></trkpt><trkpt lat="45.7307217" lon="9.6456817"><ele>301.0</ele><time>2026-04-26T07:29:39.056Z</time></trkpt><trkpt lat="45.7306467" lon="9.6458017"><ele>301.0</ele><time>2026-04-26T07:29:40.055Z</time></trkpt><trkpt lat="45.730575" lon="9.6459233"><ele>301.0</ele><time>2026-04-26T07:29:41.055Z</time></trkpt><trkpt lat="45.7305067" lon="9.6460483"><ele>301.2</ele><time>2026-04-26T07:29:42.056Z</time></trkpt><trkpt lat="45.73044" lon="9.64617"><ele>301.40000000000003</ele><time>2026-04-26T07:29:43.055Z</time></trkpt><trkpt lat="45.730375" lon="9.6462917"><ele>301.6</ele><time>2026-04-26T07:29:44.056Z</time></trkpt><trkpt lat="45.7303117" lon="9.6464117"><ele>301.8</ele><time>2026-04-26T07:29:45.056Z</time></trkpt><trkpt lat="45.7302517" lon="9.6465283"><ele>302.0</ele><time>2026-04-26T07:29:46.055Z</time></trkpt><trkpt lat="45.7301933" lon="9.6466383"><ele>302.2</ele><time>2026-04-26T07:29:47.055Z</time></trkpt><trkpt lat="45.7301367" lon="9.64674"><ele>302.4</ele><time>2026-04-26T07:29:48.056Z</time></trkpt><trkpt lat="45.73008" lon="9.6468433"><ele>302.6</ele><time>2026-04-26T07:29:49.056Z</time></trkpt><trkpt lat="45.7300217" lon="9.64695"><ele>302.8</ele><time>2026-04-26T07:29:50.055Z</time></trkpt><trkpt lat="45.7299583" lon="9.6470633"><ele>303.0</ele><time>2026-04-26T07:29:51.055Z</time></trkpt><trkpt lat="45.72989" lon="9.64718"><ele>304.0</ele><time>2026-04-26T07:29:52.055Z</time></trkpt><trkpt lat="45.7298217" lon="9.6472983"><ele>305.0</ele><time>2026-04-26T07:29:53.055Z</time></trkpt><trkpt lat="45.729745" lon="9.6474233"><ele>306.0</ele><time>2026-04-26T07:29:54.057Z</time></trkpt><trkpt lat="45.7296683" lon="9.6475483"><ele>307.0</ele><time>2026-04-26T07:29:55.058Z</time></trkpt><trkpt lat="45.7295917" lon="9.6476783"><ele>307.75</ele><time>2026-04-26T07:29:56.058Z</time></trkpt><trkpt lat="45.7295133" lon="9.647815"><ele>308.5</ele><time>2026-04-26T07:29:57.053Z</time></trkpt><trkpt lat="45.7294367" lon="9.6479583"><ele>309.25</ele><time>2026-04-26T07:29:58.054Z</time></trkpt><trkpt lat="45.7293583" lon="9.6481017"><ele>310.0</ele><time>2026-04-26T07:29:59.054Z</time></trkpt><trkpt lat="45.729285" lon="9.6482417"><ele>310.0</ele><time>2026-04-26T07:30:00.054Z</time></trkpt><trkpt lat="45.7292067" lon="9.64838"><ele>310.0</ele><time>2026-04-26T07:30:01.057Z</time></trkpt><trkpt lat="45.7291283" lon="9.6485217"><ele>310.0</ele><time>2026-04-26T07:30:02.054Z</time></trkpt><trkpt lat="45.7290517" lon="9.6486633"><ele>310.0</ele><time>2026-04-26T07:30:03.053Z</time></trkpt><trkpt lat="45.7289733" lon="9.6488033"><ele>310.5</ele><time>2026-04-26T07:30:04.055Z</time></trkpt><trkpt lat="45.72889" lon="9.648945"><ele>311.0</ele><time>2026-04-26T07:30:05.055Z</time></trkpt><trkpt lat="45.728805" lon="9.6490933"><ele>311.5</ele><time>2026-04-26T07:30:06.054Z</time></trkpt><trkpt lat="45.7287217" lon="9.6492483"><ele>312.0</ele><time>2026-04-26T07:30:07.055Z</time></trkpt><trkpt lat="45.7286333" lon="9.6494067"><ele>312.5</ele><time>2026-04-26T07:30:08.054Z</time></trkpt><trkpt lat="45.728545" lon="9.6495683"><ele>313.0</ele><time>2026-04-26T07:30:09.053Z</time></trkpt><trkpt lat="45.7284567" lon="9.6497233"><ele>313.5</ele><time>2026-04-26T07:30:10.054Z</time></trkpt><trkpt lat="45.72837" lon="9.6498667"><ele>314.0</ele><time>2026-04-26T07:30:11.054Z</time></trkpt><trkpt lat="45.728285" lon="9.6499983"><ele>314.0</ele><time>2026-04-26T07:30:12.055Z</time></trkpt><trkpt lat="45.7281983" lon="9.6501217"><ele>314.0</ele><time>2026-04-26T07:30:13.054Z</time></trkpt><trkpt lat="45.7281083" lon="9.6502383"><ele>314.0</ele><time>2026-04-26T07:30:14.055Z</time></trkpt><trkpt lat="45.7280133" lon="9.6503483"><ele>314.0</ele><time>2026-04-26T07:30:15.053Z</time></trkpt><trkpt lat="45.7279133" lon="9.6504467"><ele>314.25</ele><time>2026-04-26T07:30:16.054Z</time></trkpt><trkpt lat="45.72781" lon="9.650535"><ele>314.5</ele><time>2026-04-26T07:30:17.054Z</time></trkpt><trkpt lat="45.7277033" lon="9.65061"><ele>314.75</ele><time>2026-04-26T07:30:18.055Z</time></trkpt><trkpt lat="45.7275917" lon="9.6506767"><ele>315.0</ele><time>2026-04-26T07:30:19.054Z</time></trkpt><trkpt lat="45.7274783" lon="9.6507367"><ele>316.0</ele><time>2026-04-26T07:30:20.055Z</time></trkpt><trkpt lat="45.7273617" lon="9.6508"><ele>317.0</ele><time>2026-04-26T07:30:21.054Z</time></trkpt><trkpt lat="45.7272433" lon="9.650865"><ele>318.0</ele><time>2026-04-26T07:30:22.054Z</time></trkpt><trkpt lat="45.7271183" lon="9.6509333"><ele>319.0</ele><time>2026-04-26T07:30:23.054Z</time></trkpt><trkpt lat="45.7269933" lon="9.65101"><ele>318.25</ele><time>2026-04-26T07:30:24.054Z</time></trkpt><trkpt lat="45.72687" lon="9.6510817"><ele>317.5</ele><time>2026-04-26T07:30:25.055Z</time></trkpt><trkpt lat="45.72675" lon="9.651155"><ele>316.75</ele><time>2026-04-26T07:30:26.054Z</time></trkpt><trkpt lat="45.7266317" lon="9.6512167"><ele>316.0</ele><time>2026-04-26T07:30:27.053Z</time></trkpt><trkpt lat="45.7265183" lon="9.6512783"><ele>315.25</ele><time>2026-04-26T07:30:28.054Z</time></trkpt><trkpt lat="45.7264067" lon="9.6513383"><ele>314.5</ele><time>2026-04-26T07:30:29.055Z</time></trkpt><trkpt lat="45.7262917" lon="9.6514017"><ele>313.75</ele><time>2026-04-26T07:30:30.055Z</time></trkpt><trkpt lat="45.7261783" lon="9.651465"><ele>313.0</ele><time>2026-04-26T07:30:31.054Z</time></trkpt><trkpt lat="45.72606" lon="9.651525"><ele>312.0</ele><time>2026-04-26T07:30:32.054Z</time></trkpt><trkpt lat="45.7259433" lon="9.6515833"><ele>311.0</ele><time>2026-04-26T07:30:33.054Z</time></trkpt><trkpt lat="45.72582" lon="9.6516467"><ele>310.0</ele><time>2026-04-26T07:30:34.054Z</time></trkpt><trkpt lat="45.7256933" lon="9.6517133"><ele>309.0</ele><time>2026-04-26T07:30:35.054Z</time></trkpt><trkpt lat="45.7255667" lon="9.6517817"><ele>309.0</ele><time>2026-04-26T07:30:36.054Z</time></trkpt><trkpt lat="45.7254367" lon="9.6518483"><ele>309.0</ele><time>2026-04-26T07:30:37.054Z</time></trkpt><trkpt lat="45.72531" lon="9.6519183"><ele>309.0</ele><time>2026-04-26T07:30:38.054Z</time></trkpt><trkpt lat="45.7251817" lon="9.6519883"><ele>309.0</ele><time>2026-04-26T07:30:39.058Z</time></trkpt><trkpt lat="45.7250533" lon="9.6520567"><ele>308.25</ele><time>2026-04-26T07:30:40.054Z</time></trkpt><trkpt lat="45.724925" lon="9.652125"><ele>307.5</ele><time>2026-04-26T07:30:41.058Z</time></trkpt><trkpt lat="45.7248017" lon="9.652195"><ele>306.75</ele><time>2026-04-26T07:30:42.058Z</time></trkpt><trkpt lat="45.7246817" lon="9.6522667"><ele>306.0</ele><time>2026-04-26T07:30:43.057Z</time></trkpt><trkpt lat="45.7245633" lon="9.65234"><ele>306.0</ele><time>2026-04-26T07:30:44.057Z</time></trkpt><trkpt lat="45.7244433" lon="9.6524233"><ele>306.0</ele><time>2026-04-26T07:30:45.057Z</time></trkpt><trkpt lat="45.7243267" lon="9.6525167"><ele>306.0</ele><time>2026-04-26T07:30:46.057Z</time></trkpt><trkpt lat="45.724215" lon="9.6526133"><ele>306.0</ele><time>2026-04-26T07:30:47.057Z</time></trkpt><trkpt lat="45.7241133" lon="9.652725"><ele>304.5</ele><time>2026-04-26T07:30:48.056Z</time></trkpt><trkpt lat="45.7240233" lon="9.65285"><ele>303.0</ele><time>2026-04-26T07:30:49.058Z</time></trkpt><trkpt lat="45.7239417" lon="9.652985"><ele>301.5</ele><time>2026-04-26T07:30:50.057Z</time></trkpt><trkpt lat="45.723865" lon="9.6531217"><ele>300.0</ele><time>2026-04-26T07:30:51.057Z</time></trkpt><trkpt lat="45.7237983" lon="9.6532533"><ele>300.0</ele><time>2026-04-26T07:30:52.058Z</time></trkpt><trkpt lat="45.7237367" lon="9.65338"><ele>300.0</ele><time>2026-04-26T07:30:53.057Z</time></trkpt><trkpt lat="45.7236783" lon="9.6535017"><ele>300.0</ele><time>2026-04-26T07:30:54.057Z</time></trkpt><trkpt lat="45.72362" lon="9.6536283"><ele>300.0</ele><time>2026-04-26T07:30:55.057Z</time></trkpt><trkpt lat="45.7235633" lon="9.65376"><ele>300.0</ele><time>2026-04-26T07:30:56.059Z</time></trkpt><trkpt lat="45.7235033" lon="9.6538933"><ele>299.6</ele><time>2026-04-26T07:30:57.057Z</time></trkpt><trkpt lat="45.723445" lon="9.6540217"><ele>299.2</ele><time>2026-04-26T07:30:58.053Z</time></trkpt><trkpt lat="45.7233883" lon="9.6541417"><ele>298.8</ele><time>2026-04-26T07:30:59.054Z</time></trkpt><trkpt lat="45.7233367" lon="9.654255"><ele>298.4</ele><time>2026-04-26T07:31:00.053Z</time></trkpt><trkpt lat="45.7232833" lon="9.6543683"><ele>298.0</ele><time>2026-04-26T07:31:01.054Z</time></trkpt><trkpt lat="45.72323" lon="9.6544817"><ele>298.0</ele><time>2026-04-26T07:31:02.055Z</time></trkpt><trkpt lat="45.7231783" lon="9.6545917"><ele>298.0</ele><time>2026-04-26T07:31:03.053Z</time></trkpt><trkpt lat="45.7231267" lon="9.6546967"><ele>298.0</ele><time>2026-04-26T07:31:04.054Z</time></trkpt><trkpt lat="45.72308" lon="9.6547967"><ele>298.0</ele><time>2026-04-26T07:31:05.055Z</time></trkpt><trkpt lat="45.7230367" lon="9.6548933"><ele>298.0</ele><time>2026-04-26T07:31:06.054Z</time></trkpt><trkpt lat="45.72299" lon="9.6549933"><ele>298.0</ele><time>2026-04-26T07:31:07.055Z</time></trkpt><trkpt lat="45.7229417" lon="9.6551"><ele>298.0</ele><time>2026-04-26T07:31:08.054Z</time></trkpt><trkpt lat="45.72289" lon="9.6552133"><ele>298.0</ele><time>2026-04-26T07:31:09.055Z</time></trkpt><trkpt lat="45.722835" lon="9.6553283"><ele>298.0</ele><time>2026-04-26T07:31:10.054Z</time></trkpt><trkpt lat="45.7227783" lon="9.65544"><ele>298.0</ele><time>2026-04-26T07:31:11.057Z</time></trkpt><trkpt lat="45.7227267" lon="9.6555483"><ele>298.0</ele><time>2026-04-26T07:31:12.057Z</time></trkpt><trkpt lat="45.7226733" lon="9.655655"><ele>297.16666666666663</ele><time>2026-04-26T07:31:13.057Z</time></trkpt><trkpt lat="45.7226233" lon="9.6557567"><ele>296.3333333333333</ele><time>2026-04-26T07:31:14.057Z</time></trkpt><trkpt lat="45.7225783" lon="9.65585"><ele>295.5</ele><time>2026-04-26T07:31:15.057Z</time></trkpt><trkpt lat="45.7225333" lon="9.6559417"><ele>294.6666666666667</ele><time>2026-04-26T07:31:16.053Z</time></trkpt><trkpt lat="45.7224883" lon="9.65603"><ele>293.83333333333337</ele><time>2026-04-26T07:31:17.054Z</time></trkpt><trkpt lat="45.722445" lon="9.6561217"><ele>293.0</ele><time>2026-04-26T07:31:18.053Z</time></trkpt><trkpt lat="45.7224" lon="9.656215"><ele>293.0</ele><time>2026-04-26T07:31:19.056Z</time></trkpt><trkpt lat="45.7223517" lon="9.6563083"><ele>293.0</ele><time>2026-04-26T07:31:20.054Z</time></trkpt><trkpt lat="45.7223083" lon="9.6564033"><ele>293.0</ele><time>2026-04-26T07:31:21.054Z</time></trkpt><trkpt lat="45.7222617" lon="9.6564967"><ele>293.0</ele><time>2026-04-26T07:31:22.054Z</time></trkpt><trkpt lat="45.722215" lon="9.65659"><ele>293.0</ele><time>2026-04-26T07:31:23.054Z</time></trkpt><trkpt lat="45.7221717" lon="9.6566833"><ele>293.0</ele><time>2026-04-26T07:31:24.054Z</time></trkpt><trkpt lat="45.7221267" lon="9.65677"><ele>292.99999999999994</ele><time>2026-04-26T07:31:25.056Z</time></trkpt><trkpt lat="45.7220867" lon="9.6568533"><ele>293.0</ele><time>2026-04-26T07:31:26.054Z</time></trkpt><trkpt lat="45.7220517" lon="9.6569367"><ele>293.0</ele><time>2026-04-26T07:31:27.053Z</time></trkpt><trkpt lat="45.722015" lon="9.657015"><ele>293.0</ele><time>2026-04-26T07:31:28.054Z</time></trkpt><trkpt lat="45.721975" lon="9.6570867"><ele>293.0</ele><time>2026-04-26T07:31:29.055Z</time></trkpt><trkpt lat="45.721935" lon="9.6571633"><ele>292.99999999999994</ele><time>2026-04-26T07:31:30.053Z</time></trkpt><trkpt lat="45.7218917" lon="9.6572417"><ele>293.0</ele><time>2026-04-26T07:31:31.057Z</time></trkpt><trkpt lat="45.721845" lon="9.65733"><ele>293.0</ele><time>2026-04-26T07:31:32.054Z</time></trkpt><trkpt lat="45.7218" lon="9.657425"><ele>293.0</ele><time>2026-04-26T07:31:33.053Z</time></trkpt><trkpt lat="45.7217533" lon="9.6575217"><ele>293.0</ele><time>2026-04-26T07:31:34.054Z</time></trkpt><trkpt lat="45.7217083" lon="9.657615"><ele>293.0</ele><time>2026-04-26T07:31:35.054Z</time></trkpt><trkpt lat="45.7216567" lon="9.6577"><ele>293.0</ele><time>2026-04-26T07:31:36.054Z</time></trkpt><trkpt lat="45.7216017" lon="9.6577767"><ele>293.0</ele><time>2026-04-26T07:31:37.055Z</time></trkpt><trkpt lat="45.721545" lon="9.6578517"><ele>293.33333333333337</ele><time>2026-04-26T07:31:38.056Z</time></trkpt><trkpt lat="45.7214917" lon="9.6579217"><ele>293.6666666666667</ele><time>2026-04-26T07:31:39.056Z</time></trkpt><trkpt lat="45.7214383" lon="9.6579867"><ele>294.0</ele><time>2026-04-26T07:31:40.056Z</time></trkpt><trkpt lat="45.7213533" lon="9.6580917"><ele>294.3333333333333</ele><time>2026-04-26T07:31:42.055Z</time></trkpt><trkpt lat="45.7212867" lon="9.6581733"><ele>294.66666666666663</ele><time>2026-04-26T07:31:44.055Z</time></trkpt><trkpt lat="45.7212083" lon="9.65826"><ele>295.0</ele><time>2026-04-26T07:31:46.055Z</time></trkpt><trkpt lat="45.721105" lon="9.6583667"><ele>294.8333333333333</ele><time>2026-04-26T07:31:48.057Z</time></trkpt><trkpt lat="45.7210517" lon="9.658435"><ele>294.66666666666663</ele><time>2026-04-26T07:31:49.055Z</time></trkpt><trkpt lat="45.7209967" lon="9.65851"><ele>294.5</ele><time>2026-04-26T07:31:50.056Z</time></trkpt><trkpt lat="45.7209333" lon="9.65859"><ele>294.3333333333333</ele><time>2026-04-26T07:31:51.056Z</time></trkpt><trkpt lat="45.720865" lon="9.6586767"><ele>294.1666666666667</ele><time>2026-04-26T07:31:52.056Z</time></trkpt><trkpt lat="45.7208017" lon="9.6587633"><ele>294.0</ele><time>2026-04-26T07:31:53.057Z</time></trkpt><trkpt lat="45.7207433" lon="9.6588567"><ele>294.0</ele><time>2026-04-26T07:31:54.053Z</time></trkpt><trkpt lat="45.720685" lon="9.6589467"><ele>294.0</ele><time>2026-04-26T07:31:55.055Z</time></trkpt><trkpt lat="45.7206283" lon="9.6590367"><ele>294.0</ele><time>2026-04-26T07:31:56.055Z</time></trkpt><trkpt lat="45.7205717" lon="9.6591217"><ele>294.0</ele><time>2026-04-26T07:31:57.053Z</time></trkpt><trkpt lat="45.72052" lon="9.659205"><ele>294.0</ele><time>2026-04-26T07:31:58.054Z</time></trkpt><trkpt lat="45.72047" lon="9.659285"><ele>294.0</ele><time>2026-04-26T07:31:59.054Z</time></trkpt><trkpt lat="45.7204267" lon="9.6593567"><ele>294.0</ele><time>2026-04-26T07:32:00.054Z</time></trkpt><trkpt lat="45.7203833" lon="9.6594233"><ele>294.0</ele><time>2026-04-26T07:32:01.057Z</time></trkpt><trkpt lat="45.7203033" lon="9.6595433"><ele>294.0</ele><time>2026-04-26T07:32:03.054Z</time></trkpt><trkpt lat="45.7202283" lon="9.6596583"><ele>294.0</ele><time>2026-04-26T07:32:05.054Z</time></trkpt><trkpt lat="45.72015" lon="9.6597783"><ele>294.0</ele><time>2026-04-26T07:32:07.055Z</time></trkpt><trkpt lat="45.7201133" lon="9.6598533"><ele>293.6666666666667</ele><time>2026-04-26T07:32:08.054Z</time></trkpt><trkpt lat="45.7200633" lon="9.6599333"><ele>293.3333333333333</ele><time>2026-04-26T07:32:09.053Z</time></trkpt><trkpt lat="45.7200033" lon="9.6600217"><ele>293.0</ele><time>2026-04-26T07:32:10.055Z</time></trkpt><trkpt lat="45.7199317" lon="9.6601017"><ele>292.66666666666663</ele><time>2026-04-26T07:32:11.054Z</time></trkpt><trkpt lat="45.7198667" lon="9.6601817"><ele>292.3333333333333</ele><time>2026-04-26T07:32:12.054Z</time></trkpt><trkpt lat="45.7198" lon="9.6602517"><ele>292.0</ele><time>2026-04-26T07:32:13.054Z</time></trkpt><trkpt lat="45.719735" lon="9.6603217"><ele>292.0</ele><time>2026-04-26T07:32:14.054Z</time></trkpt><trkpt lat="45.7196683" lon="9.6603933"><ele>292.0</ele><time>2026-04-26T07:32:15.053Z</time></trkpt><trkpt lat="45.7196017" lon="9.66046"><ele>292.0</ele><time>2026-04-26T07:32:16.054Z</time></trkpt><trkpt lat="45.7195317" lon="9.660535"><ele>292.0</ele><time>2026-04-26T07:32:17.054Z</time></trkpt><trkpt lat="45.719465" lon="9.6606117"><ele>292.0</ele><time>2026-04-26T07:32:18.053Z</time></trkpt><trkpt lat="45.719405" lon="9.6606933"><ele>292.0</ele><time>2026-04-26T07:32:19.055Z</time></trkpt><trkpt lat="45.7193533" lon="9.6607833"><ele>291.8333333333333</ele><time>2026-04-26T07:32:20.055Z</time></trkpt><trkpt lat="45.7193" lon="9.6608717"><ele>291.66666666666663</ele><time>2026-04-26T07:32:21.055Z</time></trkpt><trkpt lat="45.7192467" lon="9.6609583"><ele>291.5</ele><time>2026-04-26T07:32:22.057Z</time></trkpt><trkpt lat="45.7191933" lon="9.661045"><ele>291.3333333333333</ele><time>2026-04-26T07:32:23.058Z</time></trkpt><trkpt lat="45.7191467" lon="9.6611217"><ele>291.1666666666667</ele><time>2026-04-26T07:32:24.053Z</time></trkpt><trkpt lat="45.7191" lon="9.6611967"><ele>291.0</ele><time>2026-04-26T07:32:25.054Z</time></trkpt><trkpt lat="45.7190517" lon="9.6612633"><ele>290.6666666666667</ele><time>2026-04-26T07:32:26.054Z</time></trkpt><trkpt lat="45.7189467" lon="9.66137"><ele>290.3333333333333</ele><time>2026-04-26T07:32:28.054Z</time></trkpt><trkpt lat="45.71889" lon="9.6614183"><ele>290.0</ele><time>2026-04-26T07:32:29.054Z</time></trkpt><trkpt lat="45.718845" lon="9.661485"><ele>289.66666666666663</ele><time>2026-04-26T07:32:30.054Z</time></trkpt><trkpt lat="45.7188233" lon="9.66157"><ele>289.3333333333333</ele><time>2026-04-26T07:32:31.057Z</time></trkpt><trkpt lat="45.7188233" lon="9.661675"><ele>289.0</ele><time>2026-04-26T07:32:32.055Z</time></trkpt><trkpt lat="45.7188483" lon="9.6617917"><ele>289.0</ele><time>2026-04-26T07:32:33.054Z</time></trkpt><trkpt lat="45.718875" lon="9.6619217"><ele>289.0</ele><time>2026-04-26T07:32:34.055Z</time></trkpt><trkpt lat="45.7188883" lon="9.662065"><ele>289.0</ele><time>2026-04-26T07:32:35.054Z</time></trkpt><trkpt lat="45.718885" lon="9.662225"><ele>289.0</ele><time>2026-04-26T07:32:36.054Z</time></trkpt><trkpt lat="45.718865" lon="9.6623933"><ele>289.0</ele><time>2026-04-26T07:32:37.054Z</time></trkpt><trkpt lat="45.7188333" lon="9.6625717"><ele>288.75</ele><time>2026-04-26T07:32:38.054Z</time></trkpt><trkpt lat="45.7187983" lon="9.6627617"><ele>288.5</ele><time>2026-04-26T07:32:39.053Z</time></trkpt><trkpt lat="45.7187517" lon="9.66296"><ele>288.25</ele><time>2026-04-26T07:32:40.055Z</time></trkpt><trkpt lat="45.7187017" lon="9.6631617"><ele>288.0</ele><time>2026-04-26T07:32:41.055Z</time></trkpt><trkpt lat="45.7186433" lon="9.6633733"><ele>287.6666666666667</ele><time>2026-04-26T07:32:42.054Z</time></trkpt><trkpt lat="45.7185817" lon="9.6635933"><ele>287.33333333333337</ele><time>2026-04-26T07:32:43.055Z</time></trkpt><trkpt lat="45.71852" lon="9.66382"><ele>287.0</ele><time>2026-04-26T07:32:44.056Z</time></trkpt><trkpt lat="45.7184417" lon="9.6640367"><ele>286.6666666666667</ele><time>2026-04-26T07:32:45.054Z</time></trkpt><trkpt lat="45.71837" lon="9.6642367"><ele>286.3333333333333</ele><time>2026-04-26T07:32:46.056Z</time></trkpt><trkpt lat="45.7182967" lon="9.6644333"><ele>286.0</ele><time>2026-04-26T07:32:47.055Z</time></trkpt><trkpt lat="45.7182233" lon="9.6646483"><ele>285.3333333333333</ele><time>2026-04-26T07:32:48.055Z</time></trkpt><trkpt lat="45.7181383" lon="9.6648717"><ele>284.6666666666667</ele><time>2026-04-26T07:32:49.055Z</time></trkpt><trkpt lat="45.718055" lon="9.6651017"><ele>284.0</ele><time>2026-04-26T07:32:50.054Z</time></trkpt><trkpt lat="45.7179717" lon="9.66535"><ele>283.33333333333337</ele><time>2026-04-26T07:32:51.053Z</time></trkpt><trkpt lat="45.717885" lon="9.665605"><ele>282.6666666666667</ele><time>2026-04-26T07:32:52.055Z</time></trkpt><trkpt lat="45.7177983" lon="9.6658633"><ele>282.0</ele><time>2026-04-26T07:32:53.054Z</time></trkpt><trkpt lat="45.717715" lon="9.6661183"><ele>281.3333333333333</ele><time>2026-04-26T07:32:54.054Z</time></trkpt><trkpt lat="45.7176367" lon="9.6663767"><ele>280.66666666666663</ele><time>2026-04-26T07:32:55.054Z</time></trkpt><trkpt lat="45.7175533" lon="9.6666333"><ele>280.0</ele><time>2026-04-26T07:32:56.056Z</time></trkpt><trkpt lat="45.7174667" lon="9.66689"><ele>280.3333333333333</ele><time>2026-04-26T07:32:57.053Z</time></trkpt><trkpt lat="45.71738" lon="9.6671417"><ele>280.6666666666667</ele><time>2026-04-26T07:32:58.054Z</time></trkpt><trkpt lat="45.7172917" lon="9.6674"><ele>281.0</ele><time>2026-04-26T07:32:59.055Z</time></trkpt><trkpt lat="45.7171983" lon="9.6676633"><ele>281.0</ele><time>2026-04-26T07:33:00.054Z</time></trkpt><trkpt lat="45.7171083" lon="9.66793"><ele>281.0</ele><time>2026-04-26T07:33:01.057Z</time></trkpt><trkpt lat="45.71702" lon="9.668205"><ele>281.0</ele><time>2026-04-26T07:33:02.058Z</time></trkpt><trkpt lat="45.71693" lon="9.6684783"><ele>280.0</ele><time>2026-04-26T07:33:03.057Z</time></trkpt><trkpt lat="45.71684" lon="9.6687583"><ele>279.0</ele><time>2026-04-26T07:33:04.057Z</time></trkpt><trkpt lat="45.7167517" lon="9.6690433"><ele>278.0</ele><time>2026-04-26T07:33:05.057Z</time></trkpt><trkpt lat="45.71667" lon="9.6693267"><ele>278.0</ele><time>2026-04-26T07:33:06.057Z</time></trkpt><trkpt lat="45.7165933" lon="9.6696283"><ele>278.0</ele><time>2026-04-26T07:33:07.057Z</time></trkpt><trkpt lat="45.7165217" lon="9.6699417"><ele>278.0</ele><time>2026-04-26T07:33:08.057Z</time></trkpt><trkpt lat="45.716455" lon="9.670265"><ele>278.0</ele><time>2026-04-26T07:33:09.057Z</time></trkpt><trkpt lat="45.7163833" lon="9.6705883"><ele>278.0</ele><time>2026-04-26T07:33:10.057Z</time></trkpt><trkpt lat="45.7163133" lon="9.6709067"><ele>278.0</ele><time>2026-04-26T07:33:11.057Z</time></trkpt><trkpt lat="45.716245" lon="9.671225"><ele>277.5</ele><time>2026-04-26T07:33:12.057Z</time></trkpt><trkpt lat="45.716175" lon="9.6715483"><ele>277.0</ele><time>2026-04-26T07:33:13.057Z</time></trkpt><trkpt lat="45.716095" lon="9.67186"><ele>275.0</ele><time>2026-04-26T07:33:14.057Z</time></trkpt><trkpt lat="45.7160033" lon="9.6721583"><ele>273.0</ele><time>2026-04-26T07:33:15.057Z</time></trkpt><trkpt lat="45.715905" lon="9.6724483"><ele>273.0</ele><time>2026-04-26T07:33:16.057Z</time></trkpt><trkpt lat="45.7158067" lon="9.6727383"><ele>273.0</ele><time>2026-04-26T07:33:17.057Z</time></trkpt><trkpt lat="45.71571" lon="9.6730383"><ele>272.6666666666667</ele><time>2026-04-26T07:33:18.058Z</time></trkpt><trkpt lat="45.7156167" lon="9.6733333"><ele>272.33333333333337</ele><time>2026-04-26T07:33:19.054Z</time></trkpt><trkpt lat="45.715525" lon="9.6736217"><ele>272.0</ele><time>2026-04-26T07:33:20.057Z</time></trkpt><trkpt lat="45.715435" lon="9.6738983"><ele>272.0</ele><time>2026-04-26T07:33:21.057Z</time></trkpt><trkpt lat="45.71535" lon="9.6741533"><ele>272.0</ele><time>2026-04-26T07:33:22.056Z</time></trkpt><trkpt lat="45.7152717" lon="9.6744"><ele>272.0</ele><time>2026-04-26T07:33:23.057Z</time></trkpt><trkpt lat="45.7151983" lon="9.6746433"><ele>272.0</ele><time>2026-04-26T07:33:24.057Z</time></trkpt><trkpt lat="45.7151367" lon="9.6748983"><ele>272.0</ele><time>2026-04-26T07:33:25.057Z</time></trkpt><trkpt lat="45.7150767" lon="9.6751517"><ele>272.0</ele><time>2026-04-26T07:33:26.057Z</time></trkpt><trkpt lat="45.7150183" lon="9.6754083"><ele>272.0</ele><time>2026-04-26T07:33:27.057Z</time></trkpt><trkpt lat="45.7149667" lon="9.6756667"><ele>272.0</ele><time>2026-04-26T07:33:28.055Z</time></trkpt><trkpt lat="45.71492" lon="9.67594"><ele>272.0</ele><time>2026-04-26T07:33:29.057Z</time></trkpt><trkpt lat="45.714865" lon="9.6762167"><ele>272.0</ele><time>2026-04-26T07:33:30.057Z</time></trkpt><trkpt lat="45.714815" lon="9.6765017"><ele>272.0</ele><time>2026-04-26T07:33:31.057Z</time></trkpt><trkpt lat="45.7147633" lon="9.676795"><ele>272.0</ele><time>2026-04-26T07:33:32.055Z</time></trkpt><trkpt lat="45.7147067" lon="9.67709"><ele>272.0</ele><time>2026-04-26T07:33:33.053Z</time></trkpt><trkpt lat="45.7146483" lon="9.6773933"><ele>272.0</ele><time>2026-04-26T07:33:34.055Z</time></trkpt><trkpt lat="45.7145917" lon="9.6776983"><ele>272.0</ele><time>2026-04-26T07:33:35.054Z</time></trkpt><trkpt lat="45.714535" lon="9.6780067"><ele>272.5</ele><time>2026-04-26T07:33:36.054Z</time></trkpt><trkpt lat="45.7144783" lon="9.6783217"><ele>273.0</ele><time>2026-04-26T07:33:37.054Z</time></trkpt><trkpt lat="45.71442" lon="9.6786383"><ele>273.0</ele><time>2026-04-26T07:33:38.054Z</time></trkpt><trkpt lat="45.71436" lon="9.6789583"><ele>273.0</ele><time>2026-04-26T07:33:39.054Z</time></trkpt><trkpt lat="45.7143017" lon="9.67928"><ele>272.5</ele><time>2026-04-26T07:33:40.054Z</time></trkpt><trkpt lat="45.7142433" lon="9.6796"><ele>272.0</ele><time>2026-04-26T07:33:41.057Z</time></trkpt><trkpt lat="45.7141833" lon="9.67992"><ele>272.0</ele><time>2026-04-26T07:33:42.057Z</time></trkpt><trkpt lat="45.714125" lon="9.6802417"><ele>272.0</ele><time>2026-04-26T07:33:43.057Z</time></trkpt><trkpt lat="45.7140667" lon="9.6805617"><ele>271.6666666666667</ele><time>2026-04-26T07:33:44.057Z</time></trkpt><trkpt lat="45.7140033" lon="9.68087"><ele>271.3333333333333</ele><time>2026-04-26T07:33:45.056Z</time></trkpt><trkpt lat="45.7139417" lon="9.6811717"><ele>271.0</ele><time>2026-04-26T07:33:46.056Z</time></trkpt><trkpt lat="45.7138833" lon="9.6814717"><ele>271.0</ele><time>2026-04-26T07:33:47.053Z</time></trkpt><trkpt lat="45.713825" lon="9.68177"><ele>271.0</ele><time>2026-04-26T07:33:48.053Z</time></trkpt><trkpt lat="45.713765" lon="9.6820667"><ele>271.0</ele><time>2026-04-26T07:33:49.053Z</time></trkpt><trkpt lat="45.7137" lon="9.68236"><ele>271.3333333333333</ele><time>2026-04-26T07:33:50.053Z</time></trkpt><trkpt lat="45.7136217" lon="9.6826483"><ele>271.6666666666667</ele><time>2026-04-26T07:33:51.052Z</time></trkpt><trkpt lat="45.7135267" lon="9.6829317"><ele>272.0</ele><time>2026-04-26T07:33:52.052Z</time></trkpt><trkpt lat="45.71342" lon="9.6832117"><ele>272.0</ele><time>2026-04-26T07:33:53.053Z</time></trkpt><trkpt lat="45.713305" lon="9.68349"><ele>272.0</ele><time>2026-04-26T07:33:54.053Z</time></trkpt><trkpt lat="45.71319" lon="9.6837717"><ele>273.5</ele><time>2026-04-26T07:33:55.053Z</time></trkpt><trkpt lat="45.7130717" lon="9.684055"><ele>275.0</ele><time>2026-04-26T07:33:56.054Z</time></trkpt><trkpt lat="45.7129617" lon="9.68434"><ele>276.5</ele><time>2026-04-26T07:33:57.052Z</time></trkpt><trkpt lat="45.7128467" lon="9.6846167"><ele>278.0</ele><time>2026-04-26T07:33:58.053Z</time></trkpt><trkpt lat="45.7127317" lon="9.6848933"><ele>278.0</ele><time>2026-04-26T07:33:59.052Z</time></trkpt><trkpt lat="45.712615" lon="9.6851633"><ele>278.0</ele><time>2026-04-26T07:34:00.053Z</time></trkpt><trkpt lat="45.7124983" lon="9.6854383"><ele>278.0</ele><time>2026-04-26T07:34:01.057Z</time></trkpt><trkpt lat="45.7123833" lon="9.6857033"><ele>277.33333333333337</ele><time>2026-04-26T07:34:02.054Z</time></trkpt><trkpt lat="45.7122733" lon="9.6859683"><ele>276.6666666666667</ele><time>2026-04-26T07:34:03.052Z</time></trkpt><trkpt lat="45.712165" lon="9.6862317"><ele>276.0</ele><time>2026-04-26T07:34:04.053Z</time></trkpt><trkpt lat="45.7120583" lon="9.6864933"><ele>276.0</ele><time>2026-04-26T07:34:05.053Z</time></trkpt><trkpt lat="45.7119467" lon="9.6867617"><ele>276.0</ele><time>2026-04-26T07:34:06.052Z</time></trkpt><trkpt lat="45.7118333" lon="9.6870283"><ele>276.0</ele><time>2026-04-26T07:34:07.054Z</time></trkpt><trkpt lat="45.71171" lon="9.68728"><ele>275.0</ele><time>2026-04-26T07:34:08.053Z</time></trkpt><trkpt lat="45.7115783" lon="9.6875133"><ele>274.0</ele><time>2026-04-26T07:34:09.053Z</time></trkpt><trkpt lat="45.7114433" lon="9.6877267"><ele>273.0</ele><time>2026-04-26T07:34:10.053Z</time></trkpt><trkpt lat="45.7112983" lon="9.6879183"><ele>273.0</ele><time>2026-04-26T07:34:11.056Z</time></trkpt><trkpt lat="45.7111467" lon="9.6880967"><ele>273.0</ele><time>2026-04-26T07:34:12.056Z</time></trkpt><trkpt lat="45.71099" lon="9.688265"><ele>273.0</ele><time>2026-04-26T07:34:13.057Z</time></trkpt><trkpt lat="45.710825" lon="9.6884183"><ele>272.3333333333333</ele><time>2026-04-26T07:34:14.056Z</time></trkpt><trkpt lat="45.71066" lon="9.6885667"><ele>271.66666666666663</ele><time>2026-04-26T07:34:15.056Z</time></trkpt><trkpt lat="45.710495" lon="9.6887133"><ele>271.0</ele><time>2026-04-26T07:34:16.054Z</time></trkpt><trkpt lat="45.7103367" lon="9.6888533"><ele>270.3333333333333</ele><time>2026-04-26T07:34:17.055Z</time></trkpt><trkpt lat="45.7101833" lon="9.6889833"><ele>269.6666666666667</ele><time>2026-04-26T07:34:18.053Z</time></trkpt><trkpt lat="45.7100333" lon="9.689115"><ele>269.0</ele><time>2026-04-26T07:34:19.053Z</time></trkpt><trkpt lat="45.7098833" lon="9.68924"><ele>269.0</ele><time>2026-04-26T07:34:20.054Z</time></trkpt><trkpt lat="45.7097317" lon="9.6893683"><ele>269.0</ele><time>2026-04-26T07:34:21.052Z</time></trkpt><trkpt lat="45.7095767" lon="9.6894967"><ele>269.0</ele><time>2026-04-26T07:34:22.053Z</time></trkpt><trkpt lat="45.7094233" lon="9.6896333"><ele>269.6666666666667</ele><time>2026-04-26T07:34:23.053Z</time></trkpt><trkpt lat="45.70927" lon="9.6897783"><ele>270.3333333333333</ele><time>2026-04-26T07:34:24.056Z</time></trkpt><trkpt lat="45.7091267" lon="9.6899283"><ele>271.0</ele><time>2026-04-26T07:34:25.053Z</time></trkpt><trkpt lat="45.7089883" lon="9.6900933"><ele>270.3333333333333</ele><time>2026-04-26T07:34:26.056Z</time></trkpt><trkpt lat="45.7088567" lon="9.6902667"><ele>269.6666666666667</ele><time>2026-04-26T07:34:27.056Z</time></trkpt><trkpt lat="45.7087333" lon="9.6904467"><ele>269.0</ele><time>2026-04-26T07:34:28.056Z</time></trkpt><trkpt lat="45.708615" lon="9.6906317"><ele>269.0</ele><time>2026-04-26T07:34:29.052Z</time></trkpt><trkpt lat="45.7085" lon="9.6908167"><ele>269.0</ele><time>2026-04-26T07:34:30.056Z</time></trkpt><trkpt lat="45.7083867" lon="9.6909983"><ele>269.0</ele><time>2026-04-26T07:34:31.053Z</time></trkpt><trkpt lat="45.7082767" lon="9.6911783"><ele>269.0</ele><time>2026-04-26T07:34:32.054Z</time></trkpt><trkpt lat="45.7081617" lon="9.691355"><ele>269.0</ele><time>2026-04-26T07:34:33.054Z</time></trkpt><trkpt lat="45.7080417" lon="9.691525"><ele>269.0</ele><time>2026-04-26T07:34:34.053Z</time></trkpt><trkpt lat="45.7079167" lon="9.691695"><ele>269.0</ele><time>2026-04-26T07:34:35.055Z</time></trkpt><trkpt lat="45.7077933" lon="9.69187"><ele>269.0</ele><time>2026-04-26T07:34:36.053Z</time></trkpt><trkpt lat="45.7076733" lon="9.6920533"><ele>269.0</ele><time>2026-04-26T07:34:37.053Z</time></trkpt><trkpt lat="45.7075567" lon="9.69224"><ele>268.0</ele><time>2026-04-26T07:34:38.054Z</time></trkpt><trkpt lat="45.7074433" lon="9.69242"><ele>267.0</ele><time>2026-04-26T07:34:39.053Z</time></trkpt><trkpt lat="45.7073317" lon="9.692595"><ele>266.0</ele><time>2026-04-26T07:34:40.054Z</time></trkpt><trkpt lat="45.7072217" lon="9.6927617"><ele>266.0</ele><time>2026-04-26T07:34:41.054Z</time></trkpt><trkpt lat="45.70711" lon="9.692925"><ele>266.0</ele><time>2026-04-26T07:34:42.053Z</time></trkpt><trkpt lat="45.7069933" lon="9.6930817"><ele>266.0</ele><time>2026-04-26T07:34:43.055Z</time></trkpt><trkpt lat="45.70687" lon="9.69323"><ele>265.6666666666667</ele><time>2026-04-26T07:34:44.054Z</time></trkpt><trkpt lat="45.7067417" lon="9.69337"><ele>265.3333333333333</ele><time>2026-04-26T07:34:45.052Z</time></trkpt><trkpt lat="45.7066067" lon="9.6934983"><ele>265.0</ele><time>2026-04-26T07:34:46.055Z</time></trkpt><trkpt lat="45.70646" lon="9.6936117"><ele>265.3333333333333</ele><time>2026-04-26T07:34:47.053Z</time></trkpt><trkpt lat="45.706305" lon="9.69372"><ele>265.6666666666667</ele><time>2026-04-26T07:34:48.053Z</time></trkpt><trkpt lat="45.7061467" lon="9.6938183"><ele>266.0</ele><time>2026-04-26T07:34:49.053Z</time></trkpt><trkpt lat="45.705985" lon="9.6939117"><ele>266.0</ele><time>2026-04-26T07:34:50.053Z</time></trkpt><trkpt lat="45.70582" lon="9.6939933"><ele>266.0</ele><time>2026-04-26T07:34:51.052Z</time></trkpt><trkpt lat="45.7056583" lon="9.694065"><ele>266.0</ele><time>2026-04-26T07:34:52.054Z</time></trkpt><trkpt lat="45.7055017" lon="9.6941317"><ele>266.0</ele><time>2026-04-26T07:34:53.053Z</time></trkpt><trkpt lat="45.70536" lon="9.6942"><ele>266.0</ele><time>2026-04-26T07:34:54.053Z</time></trkpt><trkpt lat="45.7052267" lon="9.69426"><ele>266.0</ele><time>2026-04-26T07:34:55.053Z</time></trkpt><trkpt lat="45.7051133" lon="9.6943117"><ele>266.0</ele><time>2026-04-26T07:34:56.053Z</time></trkpt><trkpt lat="45.7050133" lon="9.6943417"><ele>266.1666666666667</ele><time>2026-04-26T07:34:57.054Z</time></trkpt><trkpt lat="45.7049283" lon="9.6943467"><ele>266.33333333333337</ele><time>2026-04-26T07:34:58.053Z</time></trkpt><trkpt lat="45.70485" lon="9.6943333"><ele>266.5</ele><time>2026-04-26T07:34:59.053Z</time></trkpt><trkpt lat="45.7047783" lon="9.6942933"><ele>266.6666666666667</ele><time>2026-04-26T07:35:00.053Z</time></trkpt><trkpt lat="45.7047033" lon="9.6942067"><ele>266.8333333333333</ele><time>2026-04-26T07:35:01.054Z</time></trkpt><trkpt lat="45.70462" lon="9.69413"><ele>267.0</ele><time>2026-04-26T07:35:02.053Z</time></trkpt><trkpt lat="45.7045167" lon="9.69409"><ele>266.5</ele><time>2026-04-26T07:35:03.053Z</time></trkpt><trkpt lat="45.704405" lon="9.694085"><ele>266.0</ele><time>2026-04-26T07:35:04.053Z</time></trkpt><trkpt lat="45.7042967" lon="9.6941117"><ele>265.5</ele><time>2026-04-26T07:35:05.053Z</time></trkpt><trkpt lat="45.704195" lon="9.6941767"><ele>265.0</ele><time>2026-04-26T07:35:06.054Z</time></trkpt><trkpt lat="45.7041" lon="9.6942783"><ele>265.0</ele><time>2026-04-26T07:35:07.053Z</time></trkpt><trkpt lat="45.7040283" lon="9.694415"><ele>265.0</ele><time>2026-04-26T07:35:08.053Z</time></trkpt><trkpt lat="45.703985" lon="9.694565"><ele>265.0</ele><time>2026-04-26T07:35:09.053Z</time></trkpt><trkpt lat="45.7039733" lon="9.6947283"><ele>265.0</ele><time>2026-04-26T07:35:10.053Z</time></trkpt><trkpt lat="45.7039933" lon="9.6948883"><ele>265.0</ele><time>2026-04-26T07:35:11.053Z</time></trkpt><trkpt lat="45.7040367" lon="9.6950383"><ele>265.0</ele><time>2026-04-26T07:35:12.054Z</time></trkpt><trkpt lat="45.704085" lon="9.69518"><ele>265.0</ele><time>2026-04-26T07:35:13.053Z</time></trkpt><trkpt lat="45.704115" lon="9.6953133"><ele>265.0</ele><time>2026-04-26T07:35:14.053Z</time></trkpt><trkpt lat="45.70412" lon="9.695445"><ele>265.0</ele><time>2026-04-26T07:35:15.053Z</time></trkpt><trkpt lat="45.7041083" lon="9.6955733"><ele>265.2</ele><time>2026-04-26T07:35:16.053Z</time></trkpt><trkpt lat="45.704065" lon="9.6956867"><ele>265.4</ele><time>2026-04-26T07:35:17.054Z</time></trkpt><trkpt lat="45.7039983" lon="9.6957583"><ele>265.6</ele><time>2026-04-26T07:35:18.053Z</time></trkpt><trkpt lat="45.7039083" lon="9.6958133"><ele>265.8</ele><time>2026-04-26T07:35:19.053Z</time></trkpt><trkpt lat="45.7038183" lon="9.6958333"><ele>266.0</ele><time>2026-04-26T07:35:20.054Z</time></trkpt><trkpt lat="45.7037033" lon="9.69581"><ele>266.0</ele><time>2026-04-26T07:35:21.053Z</time></trkpt><trkpt lat="45.7036017" lon="9.6958067"><ele>266.0</ele><time>2026-04-26T07:35:22.054Z</time></trkpt><trkpt lat="45.7035083" lon="9.695825"><ele>266.0</ele><time>2026-04-26T07:35:23.053Z</time></trkpt><trkpt lat="45.7034217" lon="9.6958783"><ele>266.0</ele><time>2026-04-26T07:35:24.053Z</time></trkpt><trkpt lat="45.7033467" lon="9.69597"><ele>266.0</ele><time>2026-04-26T07:35:25.055Z</time></trkpt><trkpt lat="45.7032767" lon="9.6961017"><ele>265.75</ele><time>2026-04-26T07:35:26.053Z</time></trkpt><trkpt lat="45.7032067" lon="9.69626"><ele>265.5</ele><time>2026-04-26T07:35:27.053Z</time></trkpt><trkpt lat="45.7031217" lon="9.6964283"><ele>265.25</ele><time>2026-04-26T07:35:28.053Z</time></trkpt><trkpt lat="45.7030367" lon="9.6966133"><ele>265.0</ele><time>2026-04-26T07:35:29.053Z</time></trkpt><trkpt lat="45.7029617" lon="9.6968067"><ele>265.0</ele><time>2026-04-26T07:35:30.061Z</time></trkpt><trkpt lat="45.7028933" lon="9.6970033"><ele>265.0</ele><time>2026-04-26T07:35:31.056Z</time></trkpt><trkpt lat="45.70285" lon="9.6972183"><ele>265.0</ele><time>2026-04-26T07:35:32.056Z</time></trkpt><trkpt lat="45.7028367" lon="9.6974433"><ele>265.0</ele><time>2026-04-26T07:35:33.056Z</time></trkpt><trkpt lat="45.702845" lon="9.6976717"><ele>265.0</ele><time>2026-04-26T07:35:34.056Z</time></trkpt><trkpt lat="45.7028667" lon="9.6978933"><ele>265.0</ele><time>2026-04-26T07:35:35.056Z</time></trkpt><trkpt lat="45.7028917" lon="9.6981183"><ele>264.66666666666663</ele><time>2026-04-26T07:35:36.056Z</time></trkpt><trkpt lat="45.7029167" lon="9.698335"><ele>264.3333333333333</ele><time>2026-04-26T07:35:37.056Z</time></trkpt><trkpt lat="45.70294" lon="9.698555"><ele>264.0</ele><time>2026-04-26T07:35:38.056Z</time></trkpt><trkpt lat="45.702965" lon="9.69877"><ele>264.5</ele><time>2026-04-26T07:35:39.056Z</time></trkpt><trkpt lat="45.7029933" lon="9.6989767"><ele>265.0</ele><time>2026-04-26T07:35:40.056Z</time></trkpt><trkpt lat="45.7030217" lon="9.699185"><ele>265.5</ele><time>2026-04-26T07:35:41.056Z</time></trkpt><trkpt lat="45.70305" lon="9.6993917"><ele>266.0</ele><time>2026-04-26T07:35:42.056Z</time></trkpt><trkpt lat="45.7030783" lon="9.6995967"><ele>266.25</ele><time>2026-04-26T07:35:43.056Z</time></trkpt><trkpt lat="45.7031033" lon="9.6997983"><ele>266.5</ele><time>2026-04-26T07:35:44.057Z</time></trkpt><trkpt lat="45.7031283" lon="9.6999967"><ele>266.75</ele><time>2026-04-26T07:35:45.056Z</time></trkpt><trkpt lat="45.7031533" lon="9.7002017"><ele>267.0</ele><time>2026-04-26T07:35:46.056Z</time></trkpt><trkpt lat="45.7031867" lon="9.700405"><ele>267.0</ele><time>2026-04-26T07:35:47.056Z</time></trkpt><trkpt lat="45.7032183" lon="9.7006133"><ele>267.0</ele><time>2026-04-26T07:35:48.056Z</time></trkpt><trkpt lat="45.7032483" lon="9.7008233"><ele>267.0</ele><time>2026-04-26T07:35:49.056Z</time></trkpt><trkpt lat="45.7032817" lon="9.7010317"><ele>267.0</ele><time>2026-04-26T07:35:50.056Z</time></trkpt><trkpt lat="45.7033083" lon="9.70125"><ele>266.3333333333333</ele><time>2026-04-26T07:35:51.056Z</time></trkpt><trkpt lat="45.7033517" lon="9.7014683"><ele>265.66666666666663</ele><time>2026-04-26T07:35:52.056Z</time></trkpt><trkpt lat="45.703395" lon="9.7016933"><ele>265.0</ele><time>2026-04-26T07:35:53.056Z</time></trkpt><trkpt lat="45.7034417" lon="9.70193"><ele>264.3333333333333</ele><time>2026-04-26T07:35:54.056Z</time></trkpt><trkpt lat="45.7034867" lon="9.702175"><ele>263.6666666666667</ele><time>2026-04-26T07:35:55.053Z</time></trkpt><trkpt lat="45.7035283" lon="9.7024317"><ele>263.0</ele><time>2026-04-26T07:35:56.057Z</time></trkpt><trkpt lat="45.703565" lon="9.7027"><ele>264.6666666666667</ele><time>2026-04-26T07:35:57.057Z</time></trkpt><trkpt lat="45.7036" lon="9.7029717"><ele>266.3333333333333</ele><time>2026-04-26T07:35:58.056Z</time></trkpt><trkpt lat="45.7036267" lon="9.7032467"><ele>268.0</ele><time>2026-04-26T07:35:59.056Z</time></trkpt><trkpt lat="45.7036467" lon="9.7035217"><ele>267.66666666666663</ele><time>2026-04-26T07:36:00.056Z</time></trkpt><trkpt lat="45.7036633" lon="9.7037933"><ele>267.3333333333333</ele><time>2026-04-26T07:36:01.056Z</time></trkpt><trkpt lat="45.703675" lon="9.7040633"><ele>267.0</ele><time>2026-04-26T07:36:02.053Z</time></trkpt><trkpt lat="45.7036867" lon="9.7043217"><ele>267.6666666666667</ele><time>2026-04-26T07:36:03.053Z</time></trkpt><trkpt lat="45.703695" lon="9.7045683"><ele>268.33333333333337</ele><time>2026-04-26T07:36:04.053Z</time></trkpt><trkpt lat="45.7037033" lon="9.7048067"><ele>269.0</ele><time>2026-04-26T07:36:05.054Z</time></trkpt><trkpt lat="45.70371" lon="9.705035"><ele>268.6666666666667</ele><time>2026-04-26T07:36:06.053Z</time></trkpt><trkpt lat="45.7037133" lon="9.7052567"><ele>268.3333333333333</ele><time>2026-04-26T07:36:07.055Z</time></trkpt><trkpt lat="45.7037167" lon="9.7054767"><ele>268.0</ele><time>2026-04-26T07:36:08.053Z</time></trkpt><trkpt lat="45.7037217" lon="9.705695"><ele>268.0</ele><time>2026-04-26T07:36:09.052Z</time></trkpt><trkpt lat="45.7037233" lon="9.7059117"><ele>268.0</ele><time>2026-04-26T07:36:10.053Z</time></trkpt><trkpt lat="45.7037167" lon="9.7061317"><ele>268.0</ele><time>2026-04-26T07:36:11.057Z</time></trkpt><trkpt lat="45.70371" lon="9.706355"><ele>268.0</ele><time>2026-04-26T07:36:12.056Z</time></trkpt><trkpt lat="45.7037" lon="9.7065817"><ele>268.0</ele><time>2026-04-26T07:36:13.056Z</time></trkpt><trkpt lat="45.7036917" lon="9.7068117"><ele>268.0</ele><time>2026-04-26T07:36:14.057Z</time></trkpt><trkpt lat="45.7036833" lon="9.7070433"><ele>268.3333333333333</ele><time>2026-04-26T07:36:15.057Z</time></trkpt><trkpt lat="45.7036733" lon="9.70728"><ele>268.6666666666667</ele><time>2026-04-26T07:36:16.056Z</time></trkpt><trkpt lat="45.7036667" lon="9.7075183"><ele>269.0</ele><time>2026-04-26T07:36:17.053Z</time></trkpt><trkpt lat="45.70366" lon="9.707755"><ele>269.0</ele><time>2026-04-26T07:36:18.057Z</time></trkpt><trkpt lat="45.703655" lon="9.7079933"><ele>269.0</ele><time>2026-04-26T07:36:19.054Z</time></trkpt><trkpt lat="45.70365" lon="9.7082333"><ele>269.0</ele><time>2026-04-26T07:36:20.057Z</time></trkpt><trkpt lat="45.7036433" lon="9.7084733"><ele>268.6666666666667</ele><time>2026-04-26T07:36:21.056Z</time></trkpt><trkpt lat="45.7036383" lon="9.7087117"><ele>268.3333333333333</ele><time>2026-04-26T07:36:22.056Z</time></trkpt><trkpt lat="45.7036333" lon="9.7089517"><ele>268.0</ele><time>2026-04-26T07:36:23.056Z</time></trkpt><trkpt lat="45.7036283" lon="9.7091867"><ele>268.0</ele><time>2026-04-26T07:36:24.052Z</time></trkpt><trkpt lat="45.7036233" lon="9.7094183"><ele>268.0</ele><time>2026-04-26T07:36:25.055Z</time></trkpt><trkpt lat="45.7036183" lon="9.70964"><ele>268.0</ele><time>2026-04-26T07:36:26.054Z</time></trkpt><trkpt lat="45.7036217" lon="9.70985"><ele>268.0</ele><time>2026-04-26T07:36:27.053Z</time></trkpt><trkpt lat="45.70363" lon="9.7100483"><ele>268.0</ele><time>2026-04-26T07:36:28.053Z</time></trkpt><trkpt lat="45.7036483" lon="9.710235"><ele>268.0</ele><time>2026-04-26T07:36:29.053Z</time></trkpt><trkpt lat="45.70366" lon="9.7104083"><ele>268.0</ele><time>2026-04-26T07:36:30.053Z</time></trkpt><trkpt lat="45.7036617" lon="9.71057"><ele>268.2</ele><time>2026-04-26T07:36:31.057Z</time></trkpt><trkpt lat="45.7036517" lon="9.7107217"><ele>268.4</ele><time>2026-04-26T07:36:32.056Z</time></trkpt><trkpt lat="45.7036567" lon="9.7108617"><ele>268.59999999999997</ele><time>2026-04-26T07:36:33.056Z</time></trkpt><trkpt lat="45.7036917" lon="9.71098"><ele>268.8</ele><time>2026-04-26T07:36:34.056Z</time></trkpt><trkpt lat="45.7037567" lon="9.7110767"><ele>269.0</ele><time>2026-04-26T07:36:35.057Z</time></trkpt><trkpt lat="45.7038333" lon="9.7111683"><ele>269.25</ele><time>2026-04-26T07:36:36.056Z</time></trkpt><trkpt lat="45.703905" lon="9.7112867"><ele>269.5</ele><time>2026-04-26T07:36:37.057Z</time></trkpt><trkpt lat="45.7039633" lon="9.711435"><ele>269.75</ele><time>2026-04-26T07:36:38.056Z</time></trkpt><trkpt lat="45.7040167" lon="9.7115933"><ele>270.0</ele><time>2026-04-26T07:36:39.056Z</time></trkpt><trkpt lat="45.7040733" lon="9.7117617"><ele>270.25</ele><time>2026-04-26T07:36:40.056Z</time></trkpt><trkpt lat="45.70413" lon="9.7119433"><ele>270.5</ele><time>2026-04-26T07:36:41.057Z</time></trkpt><trkpt lat="45.70418" lon="9.7121333"><ele>270.75</ele><time>2026-04-26T07:36:42.056Z</time></trkpt><trkpt lat="45.7042233" lon="9.7123317"><ele>271.0</ele><time>2026-04-26T07:36:43.056Z</time></trkpt><trkpt lat="45.7042617" lon="9.71253"><ele>271.0</ele><time>2026-04-26T07:36:44.057Z</time></trkpt><trkpt lat="45.7042983" lon="9.7127233"><ele>271.0</ele><time>2026-04-26T07:36:45.058Z</time></trkpt><trkpt lat="45.7043317" lon="9.7129067"><ele>271.0</ele><time>2026-04-26T07:36:46.056Z</time></trkpt><trkpt lat="45.704365" lon="9.71308"><ele>271.0</ele><time>2026-04-26T07:36:47.056Z</time></trkpt><trkpt lat="45.7043967" lon="9.7132417"><ele>270.8</ele><time>2026-04-26T07:36:48.057Z</time></trkpt><trkpt lat="45.7044283" lon="9.713395"><ele>270.6</ele><time>2026-04-26T07:36:49.056Z</time></trkpt><trkpt lat="45.70446" lon="9.7135417"><ele>270.4</ele><time>2026-04-26T07:36:50.056Z</time></trkpt><trkpt lat="45.7044883" lon="9.7136767"><ele>270.2</ele><time>2026-04-26T07:36:51.056Z</time></trkpt><trkpt lat="45.7045167" lon="9.7138017"><ele>270.0</ele><time>2026-04-26T07:36:52.056Z</time></trkpt><trkpt lat="45.7045517" lon="9.7139133"><ele>270.3333333333333</ele><time>2026-04-26T07:36:53.057Z</time></trkpt><trkpt lat="45.70459" lon="9.7140183"><ele>270.6666666666667</ele><time>2026-04-26T07:36:54.057Z</time></trkpt><trkpt lat="45.7046333" lon="9.71412"><ele>271.0</ele><time>2026-04-26T07:36:55.056Z</time></trkpt><trkpt lat="45.704665" lon="9.7142267"><ele>271.33333333333337</ele><time>2026-04-26T07:36:56.056Z</time></trkpt><trkpt lat="45.70469" lon="9.7143383"><ele>271.6666666666667</ele><time>2026-04-26T07:36:57.057Z</time></trkpt><trkpt lat="45.704715" lon="9.7144533"><ele>272.0</ele><time>2026-04-26T07:36:58.056Z</time></trkpt><trkpt lat="45.7047417" lon="9.71457"><ele>272.2</ele><time>2026-04-26T07:36:59.054Z</time></trkpt><trkpt lat="45.704765" lon="9.714685"><ele>272.4</ele><time>2026-04-26T07:37:00.058Z</time></trkpt><trkpt lat="45.704775" lon="9.7148033"><ele>272.6</ele><time>2026-04-26T07:37:01.056Z</time></trkpt><trkpt lat="45.7047683" lon="9.714925"><ele>272.8</ele><time>2026-04-26T07:37:02.057Z</time></trkpt><trkpt lat="45.70475" lon="9.7150617"><ele>273.0</ele><time>2026-04-26T07:37:03.057Z</time></trkpt><trkpt lat="45.7047183" lon="9.7152167"><ele>272.75</ele><time>2026-04-26T07:37:04.053Z</time></trkpt><trkpt lat="45.7046717" lon="9.7153783"><ele>272.5</ele><time>2026-04-26T07:37:05.056Z</time></trkpt><trkpt lat="45.7046117" lon="9.7155467"><ele>272.25</ele><time>2026-04-26T07:37:06.056Z</time></trkpt><trkpt lat="45.704545" lon="9.715715"><ele>272.0</ele><time>2026-04-26T07:37:07.057Z</time></trkpt><trkpt lat="45.70448" lon="9.715885"><ele>272.0</ele><time>2026-04-26T07:37:08.056Z</time></trkpt><trkpt lat="45.70441" lon="9.7160583"><ele>272.0</ele><time>2026-04-26T07:37:09.058Z</time></trkpt><trkpt lat="45.7043433" lon="9.71624"><ele>272.0</ele><time>2026-04-26T07:37:10.056Z</time></trkpt><trkpt lat="45.704275" lon="9.7164233"><ele>272.0</ele><time>2026-04-26T07:37:11.057Z</time></trkpt><trkpt lat="45.7042083" lon="9.7166067"><ele>272.0</ele><time>2026-04-26T07:37:12.056Z</time></trkpt><trkpt lat="45.7041433" lon="9.71679"><ele>272.0</ele><time>2026-04-26T07:37:13.053Z</time></trkpt><trkpt lat="45.70409" lon="9.7169733"><ele>272.0</ele><time>2026-04-26T07:37:14.056Z</time></trkpt><trkpt lat="45.7040483" lon="9.717165"><ele>272.0</ele><time>2026-04-26T07:37:15.056Z</time></trkpt><trkpt lat="45.70403" lon="9.7173683"><ele>272.0</ele><time>2026-04-26T07:37:16.056Z</time></trkpt><trkpt lat="45.70402" lon="9.7175817"><ele>272.0</ele><time>2026-04-26T07:37:17.054Z</time></trkpt><trkpt lat="45.7040133" lon="9.7177967"><ele>272.0</ele><time>2026-04-26T07:37:18.053Z</time></trkpt><trkpt lat="45.7040133" lon="9.7180133"><ele>272.0</ele><time>2026-04-26T07:37:19.053Z</time></trkpt><trkpt lat="45.7040117" lon="9.7182333"><ele>272.0</ele><time>2026-04-26T07:37:20.053Z</time></trkpt><trkpt lat="45.7040083" lon="9.718455"><ele>272.0</ele><time>2026-04-26T07:37:21.053Z</time></trkpt><trkpt lat="45.7040117" lon="9.7186717"><ele>272.25</ele><time>2026-04-26T07:37:22.053Z</time></trkpt><trkpt lat="45.7040083" lon="9.71889"><ele>272.5</ele><time>2026-04-26T07:37:23.053Z</time></trkpt><trkpt lat="45.7040033" lon="9.7191"><ele>272.75</ele><time>2026-04-26T07:37:24.057Z</time></trkpt><trkpt lat="45.7039967" lon="9.7193033"><ele>273.0</ele><time>2026-04-26T07:37:25.056Z</time></trkpt><trkpt lat="45.703985" lon="9.7194983"><ele>272.5</ele><time>2026-04-26T07:37:26.056Z</time></trkpt><trkpt lat="45.70399" lon="9.7196967"><ele>272.0</ele><time>2026-04-26T07:37:27.056Z</time></trkpt><trkpt lat="45.704005" lon="9.7198983"><ele>271.5</ele><time>2026-04-26T07:37:28.057Z</time></trkpt><trkpt lat="45.7040333" lon="9.7200967"><ele>271.0</ele><time>2026-04-26T07:37:29.056Z</time></trkpt><trkpt lat="45.7040667" lon="9.7202883"><ele>270.25</ele><time>2026-04-26T07:37:30.056Z</time></trkpt><trkpt lat="45.7041133" lon="9.7204617"><ele>269.5</ele><time>2026-04-26T07:37:31.056Z</time></trkpt><trkpt lat="45.7041833" lon="9.720615"><ele>268.75</ele><time>2026-04-26T07:37:32.055Z</time></trkpt><trkpt lat="45.7042717" lon="9.720745"><ele>268.0</ele><time>2026-04-26T07:37:33.052Z</time></trkpt><trkpt lat="45.7043733" lon="9.7208533"><ele>268.0</ele><time>2026-04-26T07:37:34.053Z</time></trkpt><trkpt lat="45.7044833" lon="9.72094"><ele>268.0</ele><time>2026-04-26T07:37:35.053Z</time></trkpt><trkpt lat="45.7045933" lon="9.7210167"><ele>268.0</ele><time>2026-04-26T07:37:36.054Z</time></trkpt><trkpt lat="45.704705" lon="9.7210883"><ele>268.0</ele><time>2026-04-26T07:37:37.053Z</time></trkpt><trkpt lat="45.7048167" lon="9.721155"><ele>267.4</ele><time>2026-04-26T07:37:38.053Z</time></trkpt><trkpt lat="45.7049183" lon="9.721215"><ele>266.8</ele><time>2026-04-26T07:37:39.053Z</time></trkpt><trkpt lat="45.7050183" lon="9.7212683"><ele>266.2</ele><time>2026-04-26T07:37:40.055Z</time></trkpt><trkpt lat="45.7051167" lon="9.72132"><ele>265.6</ele><time>2026-04-26T07:37:41.053Z</time></trkpt><trkpt lat="45.7052067" lon="9.72137"><ele>265.0</ele><time>2026-04-26T07:37:42.053Z</time></trkpt><trkpt lat="45.7052817" lon="9.721415"><ele>264.8</ele><time>2026-04-26T07:37:43.053Z</time></trkpt><trkpt lat="45.7053433" lon="9.7214467"><ele>264.6</ele><time>2026-04-26T07:37:44.053Z</time></trkpt><trkpt lat="45.7054383" lon="9.72149"><ele>264.4</ele><time>2026-04-26T07:37:46.053Z</time></trkpt><trkpt lat="45.7054983" lon="9.72155"><ele>264.2</ele><time>2026-04-26T07:37:48.053Z</time></trkpt><trkpt lat="45.7055467" lon="9.7216533"><ele>264.0</ele><time>2026-04-26T07:37:50.053Z</time></trkpt><trkpt lat="45.7055783" lon="9.7218333"><ele>263.6666666666667</ele><time>2026-04-26T07:37:52.056Z</time></trkpt><trkpt lat="45.7055883" lon="9.721945"><ele>263.3333333333333</ele><time>2026-04-26T07:37:53.057Z</time></trkpt><trkpt lat="45.7056" lon="9.7220567"><ele>263.0</ele><time>2026-04-26T07:37:54.056Z</time></trkpt><trkpt lat="45.7056117" lon="9.722175"><ele>262.66666666666663</ele><time>2026-04-26T07:37:55.056Z</time></trkpt><trkpt lat="45.70562" lon="9.7222933"><ele>262.3333333333333</ele><time>2026-04-26T07:37:56.059Z</time></trkpt><trkpt lat="45.7056267" lon="9.7224133"><ele>262.0</ele><time>2026-04-26T07:37:57.056Z</time></trkpt><trkpt lat="45.7056333" lon="9.722535"><ele>262.0</ele><time>2026-04-26T07:37:58.056Z</time></trkpt><trkpt lat="45.7056417" lon="9.722655"><ele>262.0</ele><time>2026-04-26T07:37:59.054Z</time></trkpt><trkpt lat="45.705645" lon="9.7227767"><ele>262.0</ele><time>2026-04-26T07:38:00.054Z</time></trkpt><trkpt lat="45.7056467" lon="9.7228867"><ele>262.0</ele><time>2026-04-26T07:38:01.054Z</time></trkpt><trkpt lat="45.7056467" lon="9.7229867"><ele>262.0</ele><time>2026-04-26T07:38:02.056Z</time></trkpt><trkpt lat="45.7056483" lon="9.7231533"><ele>262.0</ele><time>2026-04-26T07:38:04.053Z</time></trkpt><trkpt lat="45.70565" lon="9.7232967"><ele>262.5</ele><time>2026-04-26T07:38:06.056Z</time></trkpt><trkpt lat="45.7056517" lon="9.723405"><ele>263.0</ele><time>2026-04-26T07:38:08.056Z</time></trkpt><trkpt lat="45.7056517" lon="9.7234983"><ele>263.5</ele><time>2026-04-26T07:38:10.056Z</time></trkpt><trkpt lat="45.7056583" lon="9.7236167"><ele>264.0</ele><time>2026-04-26T07:38:12.053Z</time></trkpt><trkpt lat="45.7056583" lon="9.72378"><ele>264.5</ele><time>2026-04-26T07:38:14.056Z</time></trkpt><trkpt lat="45.7056617" lon="9.7238733"><ele>265.0</ele><time>2026-04-26T07:38:15.056Z</time></trkpt><trkpt lat="45.7056667" lon="9.7239667"><ele>265.0</ele><time>2026-04-26T07:38:16.056Z</time></trkpt><trkpt lat="45.70567" lon="9.7240583"><ele>265.0</ele><time>2026-04-26T07:38:17.056Z</time></trkpt><trkpt lat="45.7056833" lon="9.7242133"><ele>265.0</ele><time>2026-04-26T07:38:19.058Z</time></trkpt><trkpt lat="45.7056917" lon="9.7243083"><ele>265.0</ele><time>2026-04-26T07:38:21.056Z</time></trkpt><trkpt lat="45.7057" lon="9.7244417"><ele>265.0</ele><time>2026-04-26T07:38:24.056Z</time></trkpt><trkpt lat="45.7056933" lon="9.7245517"><ele>265.0</ele><time>2026-04-26T07:38:26.058Z</time></trkpt><trkpt lat="45.705685" lon="9.7246433"><ele>265.2</ele><time>2026-04-26T07:38:28.056Z</time></trkpt><trkpt lat="45.7056783" lon="9.72474"><ele>265.4</ele><time>2026-04-26T07:38:50.056Z</time></trkpt><trkpt lat="45.70568" lon="9.7249017"><ele>265.6</ele><time>2026-04-26T07:38:52.053Z</time></trkpt><trkpt lat="45.7056833" lon="9.7250283"><ele>265.8</ele><time>2026-04-26T07:38:53.057Z</time></trkpt><trkpt lat="45.7056883" lon="9.7251633"><ele>266.0</ele><time>2026-04-26T07:38:54.057Z</time></trkpt><trkpt lat="45.705705" lon="9.7253133"><ele>266.5</ele><time>2026-04-26T07:38:55.056Z</time></trkpt><trkpt lat="45.705735" lon="9.7254817"><ele>267.0</ele><time>2026-04-26T07:38:56.056Z</time></trkpt><trkpt lat="45.7057783" lon="9.7256617"><ele>267.5</ele><time>2026-04-26T07:38:57.056Z</time></trkpt><trkpt lat="45.705835" lon="9.7258433"><ele>268.0</ele><time>2026-04-26T07:38:58.057Z</time></trkpt><trkpt lat="45.7059" lon="9.726035"><ele>267.66666666666663</ele><time>2026-04-26T07:38:59.056Z</time></trkpt><trkpt lat="45.70597" lon="9.7262367"><ele>267.3333333333333</ele><time>2026-04-26T07:39:00.056Z</time></trkpt><trkpt lat="45.70604" lon="9.7264383"><ele>267.0</ele><time>2026-04-26T07:39:01.056Z</time></trkpt><trkpt lat="45.7061117" lon="9.72664"><ele>267.0</ele><time>2026-04-26T07:39:02.056Z</time></trkpt><trkpt lat="45.7061883" lon="9.7268467"><ele>267.0</ele><time>2026-04-26T07:39:03.056Z</time></trkpt><trkpt lat="45.706265" lon="9.7270583"><ele>267.0</ele><time>2026-04-26T07:39:04.056Z</time></trkpt><trkpt lat="45.70635" lon="9.7272783"><ele>267.0</ele><time>2026-04-26T07:39:05.055Z</time></trkpt><trkpt lat="45.7064333" lon="9.7274967"><ele>267.0</ele><time>2026-04-26T07:39:06.057Z</time></trkpt><trkpt lat="45.7065117" lon="9.7277167"><ele>267.0</ele><time>2026-04-26T07:39:07.056Z</time></trkpt><trkpt lat="45.7065967" lon="9.727935"><ele>267.3333333333333</ele><time>2026-04-26T07:39:08.057Z</time></trkpt><trkpt lat="45.7066783" lon="9.7281617"><ele>267.66666666666663</ele><time>2026-04-26T07:39:09.057Z</time></trkpt><trkpt lat="45.7067583" lon="9.728385"><ele>268.0</ele><time>2026-04-26T07:39:10.056Z</time></trkpt><trkpt lat="45.7068383" lon="9.72861"><ele>268.3333333333333</ele><time>2026-04-26T07:39:11.057Z</time></trkpt><trkpt lat="45.7069133" lon="9.728835"><ele>268.6666666666667</ele><time>2026-04-26T07:39:12.057Z</time></trkpt><trkpt lat="45.70699" lon="9.729055"><ele>269.0</ele><time>2026-04-26T07:39:13.056Z</time></trkpt><trkpt lat="45.7070683" lon="9.7292733"><ele>269.0</ele><time>2026-04-26T07:39:14.057Z</time></trkpt><trkpt lat="45.7071433" lon="9.7294833"><ele>269.0</ele><time>2026-04-26T07:39:15.057Z</time></trkpt><trkpt lat="45.7072183" lon="9.72969"><ele>269.0</ele><time>2026-04-26T07:39:16.056Z</time></trkpt><trkpt lat="45.70729" lon="9.7298883"><ele>269.0</ele><time>2026-04-26T07:39:17.056Z</time></trkpt><trkpt lat="45.70736" lon="9.7300833"><ele>269.0</ele><time>2026-04-26T07:39:18.052Z</time></trkpt><trkpt lat="45.70743" lon="9.73028"><ele>269.0</ele><time>2026-04-26T07:39:19.053Z</time></trkpt><trkpt lat="45.7075" lon="9.7304767"><ele>269.33333333333337</ele><time>2026-04-26T07:39:20.054Z</time></trkpt><trkpt lat="45.70757" lon="9.73067"><ele>269.6666666666667</ele><time>2026-04-26T07:39:21.053Z</time></trkpt><trkpt lat="45.70764" lon="9.73086"><ele>270.0</ele><time>2026-04-26T07:39:22.053Z</time></trkpt><trkpt lat="45.70771" lon="9.7310467"><ele>270.5</ele><time>2026-04-26T07:39:23.053Z</time></trkpt><trkpt lat="45.7077767" lon="9.73123"><ele>271.0</ele><time>2026-04-26T07:39:24.052Z</time></trkpt><trkpt lat="45.7078417" lon="9.73141"><ele>271.5</ele><time>2026-04-26T07:39:25.053Z</time></trkpt><trkpt lat="45.7079117" lon="9.73159"><ele>272.0</ele><time>2026-04-26T07:39:26.054Z</time></trkpt><trkpt lat="45.7079767" lon="9.7317717"><ele>272.0</ele><time>2026-04-26T07:39:27.053Z</time></trkpt><trkpt lat="45.7080433" lon="9.731955"><ele>272.0</ele><time>2026-04-26T07:39:28.053Z</time></trkpt><trkpt lat="45.7081117" lon="9.7321383"><ele>272.0</ele><time>2026-04-26T07:39:29.057Z</time></trkpt><trkpt lat="45.70818" lon="9.73232"><ele>272.0</ele><time>2026-04-26T07:39:30.056Z</time></trkpt><trkpt lat="45.7082517" lon="9.7325033"><ele>272.0</ele><time>2026-04-26T07:39:31.056Z</time></trkpt><trkpt lat="45.7083233" lon="9.7326867"><ele>272.0</ele><time>2026-04-26T07:39:32.057Z</time></trkpt><trkpt lat="45.7083933" lon="9.7328733"><ele>272.0</ele><time>2026-04-26T07:39:33.056Z</time></trkpt><trkpt lat="45.7084583" lon="9.7330567"><ele>272.0</ele><time>2026-04-26T07:39:34.056Z</time></trkpt><trkpt lat="45.7085167" lon="9.7332383"><ele>271.75</ele><time>2026-04-26T07:39:35.056Z</time></trkpt><trkpt lat="45.7085683" lon="9.733425"><ele>271.5</ele><time>2026-04-26T07:39:36.056Z</time></trkpt><trkpt lat="45.70862" lon="9.73361"><ele>271.25</ele><time>2026-04-26T07:39:37.056Z</time></trkpt><trkpt lat="45.7086717" lon="9.7337967"><ele>271.0</ele><time>2026-04-26T07:39:38.056Z</time></trkpt><trkpt lat="45.708705" lon="9.7340033"><ele>271.3333333333333</ele><time>2026-04-26T07:39:39.056Z</time></trkpt><trkpt lat="45.7087267" lon="9.7342167"><ele>271.6666666666667</ele><time>2026-04-26T07:39:40.057Z</time></trkpt><trkpt lat="45.708745" lon="9.7344417"><ele>272.0</ele><time>2026-04-26T07:39:41.057Z</time></trkpt><trkpt lat="45.7087667" lon="9.73467"><ele>272.0</ele><time>2026-04-26T07:39:42.056Z</time></trkpt><trkpt lat="45.708785" lon="9.7348967"><ele>272.0</ele><time>2026-04-26T07:39:43.056Z</time></trkpt><trkpt lat="45.70881" lon="9.7351183"><ele>272.0</ele><time>2026-04-26T07:39:44.056Z</time></trkpt><trkpt lat="45.7088317" lon="9.7353333"><ele>272.33333333333337</ele><time>2026-04-26T07:39:45.056Z</time></trkpt><trkpt lat="45.7088517" lon="9.7355467"><ele>272.6666666666667</ele><time>2026-04-26T07:39:46.056Z</time></trkpt><trkpt lat="45.708865" lon="9.73576"><ele>273.0</ele><time>2026-04-26T07:39:47.056Z</time></trkpt><trkpt lat="45.7088833" lon="9.7359767"><ele>272.6666666666667</ele><time>2026-04-26T07:39:48.052Z</time></trkpt><trkpt lat="45.7089117" lon="9.7361917"><ele>272.33333333333337</ele><time>2026-04-26T07:39:49.053Z</time></trkpt><trkpt lat="45.7089467" lon="9.7364033"><ele>272.0</ele><time>2026-04-26T07:39:50.053Z</time></trkpt><trkpt lat="45.7089817" lon="9.736605"><ele>272.0</ele><time>2026-04-26T07:39:51.053Z</time></trkpt><trkpt lat="45.7090217" lon="9.7367983"><ele>272.0</ele><time>2026-04-26T07:39:52.054Z</time></trkpt><trkpt lat="45.7090667" lon="9.73698"><ele>272.0</ele><time>2026-04-26T07:39:53.053Z</time></trkpt><trkpt lat="45.70913" lon="9.73715"><ele>272.0</ele><time>2026-04-26T07:39:54.053Z</time></trkpt><trkpt lat="45.709215" lon="9.7373183"><ele>272.25</ele><time>2026-04-26T07:39:55.053Z</time></trkpt><trkpt lat="45.7093117" lon="9.7374767"><ele>272.5</ele><time>2026-04-26T07:39:56.054Z</time></trkpt><trkpt lat="45.7094083" lon="9.7376333"><ele>272.75</ele><time>2026-04-26T07:39:57.053Z</time></trkpt><trkpt lat="45.7094967" lon="9.7377767"><ele>273.0</ele><time>2026-04-26T07:39:58.053Z</time></trkpt><trkpt lat="45.7095683" lon="9.7378967"><ele>273.8</ele><time>2026-04-26T07:39:59.056Z</time></trkpt><trkpt lat="45.7096283" lon="9.737985"><ele>274.6</ele><time>2026-04-26T07:40:00.057Z</time></trkpt><trkpt lat="45.7096733" lon="9.7380517"><ele>275.4</ele><time>2026-04-26T07:40:01.057Z</time></trkpt><trkpt lat="45.7097533" lon="9.7381633"><ele>276.2</ele><time>2026-04-26T07:40:03.053Z</time></trkpt><trkpt lat="45.7098133" lon="9.7382617"><ele>277.0</ele><time>2026-04-26T07:40:05.053Z</time></trkpt><trkpt lat="45.7098767" lon="9.738385"><ele>277.0</ele><time>2026-04-26T07:40:07.054Z</time></trkpt><trkpt lat="45.7099067" lon="9.7384683"><ele>277.0</ele><time>2026-04-26T07:40:08.054Z</time></trkpt><trkpt lat="45.709935" lon="9.7385633"><ele>277.0</ele><time>2026-04-26T07:40:09.053Z</time></trkpt><trkpt lat="45.70995" lon="9.73867"><ele>277.0</ele><time>2026-04-26T07:40:10.053Z</time></trkpt><trkpt lat="45.7099583" lon="9.7387867"><ele>277.0</ele><time>2026-04-26T07:40:11.056Z</time></trkpt><trkpt lat="45.7099683" lon="9.7389167"><ele>277.0</ele><time>2026-04-26T07:40:12.053Z</time></trkpt><trkpt lat="45.7099733" lon="9.73905"><ele>277.0</ele><time>2026-04-26T07:40:13.054Z</time></trkpt><trkpt lat="45.70998" lon="9.739185"><ele>277.0</ele><time>2026-04-26T07:40:14.053Z</time></trkpt><trkpt lat="45.7099817" lon="9.739315"><ele>277.0</ele><time>2026-04-26T07:40:15.053Z</time></trkpt><trkpt lat="45.7099717" lon="9.7394367"><ele>277.0</ele><time>2026-04-26T07:40:16.053Z</time></trkpt><trkpt lat="45.7099533" lon="9.7395533"><ele>277.0</ele><time>2026-04-26T07:40:17.052Z</time></trkpt><trkpt lat="45.7099267" lon="9.73967"><ele>277.0</ele><time>2026-04-26T07:40:18.054Z</time></trkpt><trkpt lat="45.7098833" lon="9.739805"><ele>277.25</ele><time>2026-04-26T07:40:19.054Z</time></trkpt><trkpt lat="45.709825" lon="9.73995"><ele>277.5</ele><time>2026-04-26T07:40:20.054Z</time></trkpt><trkpt lat="45.7097683" lon="9.7400967"><ele>277.75</ele><time>2026-04-26T07:40:21.054Z</time></trkpt><trkpt lat="45.70971" lon="9.74025"><ele>278.0</ele><time>2026-04-26T07:40:22.054Z</time></trkpt><trkpt lat="45.7096483" lon="9.7404083"><ele>278.5</ele><time>2026-04-26T07:40:23.054Z</time></trkpt><trkpt lat="45.7095817" lon="9.7405783"><ele>279.0</ele><time>2026-04-26T07:40:24.053Z</time></trkpt><trkpt lat="45.7095167" lon="9.7407533"><ele>279.5</ele><time>2026-04-26T07:40:25.054Z</time></trkpt><trkpt lat="45.7094583" lon="9.740935"><ele>280.0</ele><time>2026-04-26T07:40:26.055Z</time></trkpt><trkpt lat="45.7094083" lon="9.7411133"><ele>279.0</ele><time>2026-04-26T07:40:27.053Z</time></trkpt><trkpt lat="45.7093667" lon="9.74128"><ele>278.0</ele><time>2026-04-26T07:40:28.054Z</time></trkpt><trkpt lat="45.7093283" lon="9.74143"><ele>277.0</ele><time>2026-04-26T07:40:29.056Z</time></trkpt><trkpt lat="45.7092933" lon="9.7415717"><ele>276.0</ele><time>2026-04-26T07:40:30.056Z</time></trkpt><trkpt lat="45.709255" lon="9.74171"><ele>275.0</ele><time>2026-04-26T07:40:31.056Z</time></trkpt><trkpt lat="45.7092167" lon="9.74186"><ele>275.25</ele><time>2026-04-26T07:40:32.057Z</time></trkpt><trkpt lat="45.7091767" lon="9.7420167"><ele>275.5</ele><time>2026-04-26T07:40:33.054Z</time></trkpt><trkpt lat="45.7091367" lon="9.7421733"><ele>275.75</ele><time>2026-04-26T07:40:34.053Z</time></trkpt><trkpt lat="45.7090967" lon="9.7423333"><ele>276.0</ele><time>2026-04-26T07:40:35.053Z</time></trkpt><trkpt lat="45.7090583" lon="9.7424867"><ele>276.0</ele><time>2026-04-26T07:40:36.053Z</time></trkpt><trkpt lat="45.7090217" lon="9.7426333"><ele>276.0</ele><time>2026-04-26T07:40:37.054Z</time></trkpt><trkpt lat="45.708985" lon="9.7427683"><ele>276.0</ele><time>2026-04-26T07:40:38.054Z</time></trkpt><trkpt lat="45.7089467" lon="9.7428967"><ele>276.0</ele><time>2026-04-26T07:40:39.053Z</time></trkpt><trkpt lat="45.708905" lon="9.743015"><ele>276.0</ele><time>2026-04-26T07:40:40.057Z</time></trkpt><trkpt lat="45.7088633" lon="9.7431267"><ele>276.0</ele><time>2026-04-26T07:40:41.054Z</time></trkpt><trkpt lat="45.7088233" lon="9.7432333"><ele>276.0</ele><time>2026-04-26T07:40:42.053Z</time></trkpt><trkpt lat="45.7087717" lon="9.7433367"><ele>276.0</ele><time>2026-04-26T07:40:43.053Z</time></trkpt><trkpt lat="45.7087133" lon="9.7434433"><ele>276.0</ele><time>2026-04-26T07:40:44.056Z</time></trkpt><trkpt lat="45.7086517" lon="9.7435583"><ele>276.0</ele><time>2026-04-26T07:40:45.057Z</time></trkpt><trkpt lat="45.7085833" lon="9.7436817"><ele>275.40000000000003</ele><time>2026-04-26T07:40:46.057Z</time></trkpt><trkpt lat="45.7085067" lon="9.743805"><ele>274.8</ele><time>2026-04-26T07:40:47.054Z</time></trkpt><trkpt lat="45.7084333" lon="9.7439217"><ele>274.20000000000005</ele><time>2026-04-26T07:40:48.054Z</time></trkpt><trkpt lat="45.7083683" lon="9.744035"><ele>273.6</ele><time>2026-04-26T07:40:49.054Z</time></trkpt><trkpt lat="45.7083017" lon="9.7441383"><ele>273.0</ele><time>2026-04-26T07:40:50.055Z</time></trkpt><trkpt lat="45.70824" lon="9.74424"><ele>273.0</ele><time>2026-04-26T07:40:51.053Z</time></trkpt><trkpt lat="45.70818" lon="9.744345"><ele>273.0</ele><time>2026-04-26T07:40:52.054Z</time></trkpt><trkpt lat="45.70812" lon="9.7444483"><ele>273.0</ele><time>2026-04-26T07:40:53.053Z</time></trkpt><trkpt lat="45.7080633" lon="9.7445467"><ele>273.0</ele><time>2026-04-26T07:40:54.055Z</time></trkpt><trkpt lat="45.70801" lon="9.74464"><ele>273.0</ele><time>2026-04-26T07:40:55.055Z</time></trkpt><trkpt lat="45.70796" lon="9.74473"><ele>273.0</ele><time>2026-04-26T07:40:56.055Z</time></trkpt><trkpt lat="45.7079117" lon="9.7448183"><ele>273.2</ele><time>2026-04-26T07:40:57.053Z</time></trkpt><trkpt lat="45.70786" lon="9.7449117"><ele>273.4</ele><time>2026-04-26T07:40:58.053Z</time></trkpt><trkpt lat="45.7078083" lon="9.7450133"><ele>273.59999999999997</ele><time>2026-04-26T07:40:59.058Z</time></trkpt><trkpt lat="45.7077583" lon="9.74512"><ele>273.8</ele><time>2026-04-26T07:41:00.056Z</time></trkpt><trkpt lat="45.7077083" lon="9.7452283"><ele>274.0</ele><time>2026-04-26T07:41:01.057Z</time></trkpt><trkpt lat="45.7076533" lon="9.7453467"><ele>274.0</ele><time>2026-04-26T07:41:02.058Z</time></trkpt><trkpt lat="45.707595" lon="9.74547"><ele>274.0</ele><time>2026-04-26T07:41:03.059Z</time></trkpt><trkpt lat="45.707535" lon="9.7455983"><ele>274.0</ele><time>2026-04-26T07:41:04.056Z</time></trkpt><trkpt lat="45.7074717" lon="9.745735"><ele>274.0</ele><time>2026-04-26T07:41:05.056Z</time></trkpt><trkpt lat="45.707405" lon="9.7458817"><ele>274.0</ele><time>2026-04-26T07:41:06.057Z</time></trkpt><trkpt lat="45.7073333" lon="9.746035"><ele>274.0</ele><time>2026-04-26T07:41:07.057Z</time></trkpt><trkpt lat="45.7072617" lon="9.7461967"><ele>274.0</ele><time>2026-04-26T07:41:08.057Z</time></trkpt><trkpt lat="45.7071867" lon="9.7463567"><ele>274.0</ele><time>2026-04-26T07:41:09.057Z</time></trkpt><trkpt lat="45.7071033" lon="9.7465133"><ele>274.0</ele><time>2026-04-26T07:41:10.056Z</time></trkpt><trkpt lat="45.70702" lon="9.7466667"><ele>274.0</ele><time>2026-04-26T07:41:11.056Z</time></trkpt><trkpt lat="45.7069283" lon="9.7468133"><ele>274.0</ele><time>2026-04-26T07:41:12.056Z</time></trkpt><trkpt lat="45.706835" lon="9.7469583"><ele>274.0</ele><time>2026-04-26T07:41:13.056Z</time></trkpt><trkpt lat="45.7067467" lon="9.7471017"><ele>274.0</ele><time>2026-04-26T07:41:14.057Z</time></trkpt><trkpt lat="45.7066567" lon="9.74724"><ele>274.0</ele><time>2026-04-26T07:41:15.057Z</time></trkpt><trkpt lat="45.7065717" lon="9.7473867"><ele>274.0</ele><time>2026-04-26T07:41:16.056Z</time></trkpt><trkpt lat="45.7064933" lon="9.747545"><ele>274.0</ele><time>2026-04-26T07:41:17.054Z</time></trkpt><trkpt lat="45.70642" lon="9.7477283"><ele>274.0</ele><time>2026-04-26T07:41:18.053Z</time></trkpt><trkpt lat="45.7063433" lon="9.7479367"><ele>273.3333333333333</ele><time>2026-04-26T07:41:19.054Z</time></trkpt><trkpt lat="45.7062633" lon="9.7481667"><ele>272.6666666666667</ele><time>2026-04-26T07:41:20.054Z</time></trkpt><trkpt lat="45.7061767" lon="9.7483883"><ele>272.0</ele><time>2026-04-26T07:41:21.053Z</time></trkpt><trkpt lat="45.7061" lon="9.7486017"><ele>270.6666666666667</ele><time>2026-04-26T07:41:22.055Z</time></trkpt><trkpt lat="45.7060433" lon="9.7488183"><ele>269.3333333333333</ele><time>2026-04-26T07:41:23.054Z</time></trkpt><trkpt lat="45.7059967" lon="9.7490317"><ele>268.0</ele><time>2026-04-26T07:41:24.057Z</time></trkpt><trkpt lat="45.7059633" lon="9.7492517"><ele>268.66666666666663</ele><time>2026-04-26T07:41:25.057Z</time></trkpt><trkpt lat="45.7059433" lon="9.74948"><ele>269.3333333333333</ele><time>2026-04-26T07:41:26.057Z</time></trkpt><trkpt lat="45.7059333" lon="9.7497133"><ele>270.0</ele><time>2026-04-26T07:41:27.056Z</time></trkpt><trkpt lat="45.705935" lon="9.7499533"><ele>270.0</ele><time>2026-04-26T07:41:28.056Z</time></trkpt><trkpt lat="45.70594" lon="9.7501967"><ele>270.0</ele><time>2026-04-26T07:41:29.057Z</time></trkpt><trkpt lat="45.70596" lon="9.7504333"><ele>270.0</ele><time>2026-04-26T07:41:30.056Z</time></trkpt><trkpt lat="45.706" lon="9.7506667"><ele>270.0</ele><time>2026-04-26T07:41:31.056Z</time></trkpt><trkpt lat="45.7060583" lon="9.7508983"><ele>270.0</ele><time>2026-04-26T07:41:32.055Z</time></trkpt><trkpt lat="45.7061367" lon="9.7511267"><ele>270.0</ele><time>2026-04-26T07:41:33.057Z</time></trkpt><trkpt lat="45.70622" lon="9.751345"><ele>270.6666666666667</ele><time>2026-04-26T07:41:34.053Z</time></trkpt><trkpt lat="45.7063033" lon="9.75157"><ele>271.33333333333337</ele><time>2026-04-26T07:41:35.054Z</time></trkpt><trkpt lat="45.70639" lon="9.7517983"><ele>272.0</ele><time>2026-04-26T07:41:36.057Z</time></trkpt><trkpt lat="45.7064783" lon="9.7520283"><ele>272.0</ele><time>2026-04-26T07:41:37.057Z</time></trkpt><trkpt lat="45.7065667" lon="9.7522583"><ele>272.0</ele><time>2026-04-26T07:41:38.057Z</time></trkpt><trkpt lat="45.7066483" lon="9.7524867"><ele>272.0</ele><time>2026-04-26T07:41:39.057Z</time></trkpt><trkpt lat="45.7067283" lon="9.7527067"><ele>272.0</ele><time>2026-04-26T07:41:40.056Z</time></trkpt><trkpt lat="45.7068033" lon="9.75292"><ele>272.0</ele><time>2026-04-26T07:41:41.056Z</time></trkpt><trkpt lat="45.70687" lon="9.7531333"><ele>272.0</ele><time>2026-04-26T07:41:42.058Z</time></trkpt><trkpt lat="45.7069267" lon="9.7533567"><ele>274.6666666666667</ele><time>2026-04-26T07:41:43.057Z</time></trkpt><trkpt lat="45.7069633" lon="9.753585"><ele>277.3333333333333</ele><time>2026-04-26T07:41:44.058Z</time></trkpt><trkpt lat="45.7069967" lon="9.7538133"><ele>280.0</ele><time>2026-04-26T07:41:45.058Z</time></trkpt><trkpt lat="45.70703" lon="9.7540417"><ele>280.0</ele><time>2026-04-26T07:41:46.056Z</time></trkpt><trkpt lat="45.7070667" lon="9.754275"><ele>280.0</ele><time>2026-04-26T07:41:47.053Z</time></trkpt><trkpt lat="45.7071017" lon="9.7545067"><ele>280.0</ele><time>2026-04-26T07:41:48.053Z</time></trkpt><trkpt lat="45.7071367" lon="9.7547333"><ele>278.66666666666663</ele><time>2026-04-26T07:41:49.053Z</time></trkpt><trkpt lat="45.7071717" lon="9.75496"><ele>277.3333333333333</ele><time>2026-04-26T07:41:50.054Z</time></trkpt><trkpt lat="45.7072067" lon="9.7551783"><ele>276.0</ele><time>2026-04-26T07:41:51.054Z</time></trkpt><trkpt lat="45.7072383" lon="9.7553933"><ele>275.25</ele><time>2026-04-26T07:41:52.053Z</time></trkpt><trkpt lat="45.70727" lon="9.7556017"><ele>274.5</ele><time>2026-04-26T07:41:53.054Z</time></trkpt><trkpt lat="45.7073017" lon="9.7558067"><ele>273.75</ele><time>2026-04-26T07:41:54.057Z</time></trkpt><trkpt lat="45.7073317" lon="9.7559917"><ele>273.0</ele><time>2026-04-26T07:41:55.056Z</time></trkpt><trkpt lat="45.7073617" lon="9.7561567"><ele>272.8</ele><time>2026-04-26T07:41:56.057Z</time></trkpt><trkpt lat="45.70739" lon="9.7563067"><ele>272.6</ele><time>2026-04-26T07:41:57.057Z</time></trkpt><trkpt lat="45.70741" lon="9.7564583"><ele>272.4</ele><time>2026-04-26T07:41:58.055Z</time></trkpt><trkpt lat="45.707415" lon="9.756605"><ele>272.2</ele><time>2026-04-26T07:41:59.054Z</time></trkpt><trkpt lat="45.7074117" lon="9.7567467"><ele>272.0</ele><time>2026-04-26T07:42:00.054Z</time></trkpt><trkpt lat="45.7073983" lon="9.75688"><ele>271.83333333333337</ele><time>2026-04-26T07:42:01.054Z</time></trkpt><trkpt lat="45.7073883" lon="9.7570033"><ele>271.6666666666667</ele><time>2026-04-26T07:42:02.056Z</time></trkpt><trkpt lat="45.70739" lon="9.75711"><ele>271.5</ele><time>2026-04-26T07:42:03.054Z</time></trkpt><trkpt lat="45.7074167" lon="9.757195"><ele>271.3333333333333</ele><time>2026-04-26T07:42:04.055Z</time></trkpt><trkpt lat="45.7074683" lon="9.7572517"><ele>271.16666666666663</ele><time>2026-04-26T07:42:05.055Z</time></trkpt><trkpt lat="45.7075433" lon="9.7573117"><ele>271.0</ele><time>2026-04-26T07:42:06.055Z</time></trkpt><trkpt lat="45.7076167" lon="9.7573967"><ele>271.0</ele><time>2026-04-26T07:42:07.054Z</time></trkpt><trkpt lat="45.7076767" lon="9.7575217"><ele>271.0</ele><time>2026-04-26T07:42:08.055Z</time></trkpt><trkpt lat="45.7077133" lon="9.7576633"><ele>271.0</ele><time>2026-04-26T07:42:09.055Z</time></trkpt><trkpt lat="45.7077383" lon="9.7578067"><ele>271.0</ele><time>2026-04-26T07:42:10.055Z</time></trkpt><trkpt lat="45.7077717" lon="9.7579517"><ele>271.0</ele><time>2026-04-26T07:42:11.055Z</time></trkpt><trkpt lat="45.7078067" lon="9.7581033"><ele>271.40000000000003</ele><time>2026-04-26T07:42:12.054Z</time></trkpt><trkpt lat="45.7078317" lon="9.758245"><ele>271.8</ele><time>2026-04-26T07:42:13.055Z</time></trkpt><trkpt lat="45.707845" lon="9.75837"><ele>272.20000000000005</ele><time>2026-04-26T07:42:14.054Z</time></trkpt><trkpt lat="45.707855" lon="9.7584883"><ele>272.6</ele><time>2026-04-26T07:42:15.053Z</time></trkpt><trkpt lat="45.7078667" lon="9.7586183"><ele>273.0</ele><time>2026-04-26T07:42:16.055Z</time></trkpt><trkpt lat="45.7078817" lon="9.75877"><ele>273.0</ele><time>2026-04-26T07:42:17.058Z</time></trkpt><trkpt lat="45.7078983" lon="9.75894"><ele>273.0</ele><time>2026-04-26T07:42:18.053Z</time></trkpt><trkpt lat="45.7079117" lon="9.7591183"><ele>273.0</ele><time>2026-04-26T07:42:19.054Z</time></trkpt><trkpt lat="45.707915" lon="9.7592983"><ele>273.0</ele><time>2026-04-26T07:42:20.054Z</time></trkpt><trkpt lat="45.707905" lon="9.7594717"><ele>272.75</ele><time>2026-04-26T07:42:21.053Z</time></trkpt><trkpt lat="45.707875" lon="9.7596333"><ele>272.5</ele><time>2026-04-26T07:42:22.057Z</time></trkpt><trkpt lat="45.70782" lon="9.7597717"><ele>272.25</ele><time>2026-04-26T07:42:23.057Z</time></trkpt><trkpt lat="45.7077417" lon="9.7598917"><ele>272.0</ele><time>2026-04-26T07:42:24.056Z</time></trkpt><trkpt lat="45.707645" lon="9.7599867"><ele>272.0</ele><time>2026-04-26T07:42:25.057Z</time></trkpt><trkpt lat="45.707535" lon="9.7600667"><ele>272.0</ele><time>2026-04-26T07:42:26.057Z</time></trkpt><trkpt lat="45.7074167" lon="9.760135"><ele>272.0</ele><time>2026-04-26T07:42:27.053Z</time></trkpt><trkpt lat="45.7072883" lon="9.7601883"><ele>272.0</ele><time>2026-04-26T07:42:28.053Z</time></trkpt><trkpt lat="45.7071617" lon="9.76024"><ele>272.0</ele><time>2026-04-26T07:42:29.056Z</time></trkpt><trkpt lat="45.7070367" lon="9.7602933"><ele>272.0</ele><time>2026-04-26T07:42:30.056Z</time></trkpt><trkpt lat="45.7069117" lon="9.76034"><ele>272.0</ele><time>2026-04-26T07:42:31.057Z</time></trkpt><trkpt lat="45.706785" lon="9.7603767"><ele>272.0</ele><time>2026-04-26T07:42:32.053Z</time></trkpt><trkpt lat="45.706655" lon="9.7603933"><ele>272.0</ele><time>2026-04-26T07:42:33.053Z</time></trkpt><trkpt lat="45.70652" lon="9.76039"><ele>272.0</ele><time>2026-04-26T07:42:34.054Z</time></trkpt><trkpt lat="45.7063783" lon="9.7603817"><ele>272.0</ele><time>2026-04-26T07:42:35.054Z</time></trkpt><trkpt lat="45.706235" lon="9.7603733"><ele>272.0</ele><time>2026-04-26T07:42:36.054Z</time></trkpt><trkpt lat="45.7060867" lon="9.7603567"><ele>271.33333333333337</ele><time>2026-04-26T07:42:37.053Z</time></trkpt><trkpt lat="45.7059383" lon="9.760345"><ele>270.6666666666667</ele><time>2026-04-26T07:42:38.054Z</time></trkpt><trkpt lat="45.705785" lon="9.7603383"><ele>270.0</ele><time>2026-04-26T07:42:39.053Z</time></trkpt><trkpt lat="45.7056333" lon="9.7603433"><ele>270.0</ele><time>2026-04-26T07:42:40.054Z</time></trkpt><trkpt lat="45.7054767" lon="9.7603483"><ele>270.0</ele><time>2026-04-26T07:42:41.057Z</time></trkpt><trkpt lat="45.7053233" lon="9.76036"><ele>270.0</ele><time>2026-04-26T07:42:42.052Z</time></trkpt><trkpt lat="45.7051683" lon="9.7603817"><ele>269.3333333333333</ele><time>2026-04-26T07:42:43.054Z</time></trkpt><trkpt lat="45.7050167" lon="9.76041"><ele>268.66666666666663</ele><time>2026-04-26T07:42:44.054Z</time></trkpt><trkpt lat="45.7048617" lon="9.7604383"><ele>268.0</ele><time>2026-04-26T07:42:45.056Z</time></trkpt><trkpt lat="45.7047067" lon="9.7604633"><ele>268.0</ele><time>2026-04-26T07:42:46.054Z</time></trkpt><trkpt lat="45.70455" lon="9.7604833"><ele>268.0</ele><time>2026-04-26T07:42:47.054Z</time></trkpt><trkpt lat="45.7043867" lon="9.7605033"><ele>268.0</ele><time>2026-04-26T07:42:48.053Z</time></trkpt><trkpt lat="45.704215" lon="9.7605283"><ele>267.66666666666663</ele><time>2026-04-26T07:42:49.057Z</time></trkpt><trkpt lat="45.704035" lon="9.760555"><ele>267.3333333333333</ele><time>2026-04-26T07:42:50.057Z</time></trkpt><trkpt lat="45.7038517" lon="9.76058"><ele>267.0</ele><time>2026-04-26T07:42:51.056Z</time></trkpt><trkpt lat="45.7036667" lon="9.7606"><ele>265.0</ele><time>2026-04-26T07:42:52.058Z</time></trkpt><trkpt lat="45.7034817" lon="9.760615"><ele>263.0</ele><time>2026-04-26T07:42:53.057Z</time></trkpt><trkpt lat="45.7032983" lon="9.7606283"><ele>261.0</ele><time>2026-04-26T07:42:54.056Z</time></trkpt><trkpt lat="45.7031167" lon="9.7606383"><ele>261.0</ele><time>2026-04-26T07:42:55.057Z</time></trkpt><trkpt lat="45.7029417" lon="9.76065"><ele>261.0</ele><time>2026-04-26T07:42:56.056Z</time></trkpt><trkpt lat="45.702775" lon="9.7606617"><ele>261.0</ele><time>2026-04-26T07:42:57.056Z</time></trkpt><trkpt lat="45.702615" lon="9.7606783"><ele>261.3333333333333</ele><time>2026-04-26T07:42:58.053Z</time></trkpt><trkpt lat="45.7024583" lon="9.7606967"><ele>261.66666666666663</ele><time>2026-04-26T07:42:59.053Z</time></trkpt><trkpt lat="45.7023083" lon="9.7607233"><ele>262.0</ele><time>2026-04-26T07:43:00.053Z</time></trkpt><trkpt lat="45.702165" lon="9.7607517"><ele>262.0</ele><time>2026-04-26T07:43:01.054Z</time></trkpt><trkpt lat="45.7020317" lon="9.76079"><ele>262.0</ele><time>2026-04-26T07:43:02.054Z</time></trkpt><trkpt lat="45.7019117" lon="9.76083"><ele>262.0</ele><time>2026-04-26T07:43:03.055Z</time></trkpt><trkpt lat="45.7018017" lon="9.7608683"><ele>262.0</ele><time>2026-04-26T07:43:04.053Z</time></trkpt><trkpt lat="45.701705" lon="9.7609067"><ele>262.16666666666663</ele><time>2026-04-26T07:43:05.054Z</time></trkpt><trkpt lat="45.70162" lon="9.7609417"><ele>262.3333333333333</ele><time>2026-04-26T07:43:06.053Z</time></trkpt><trkpt lat="45.7015467" lon="9.7609733"><ele>262.5</ele><time>2026-04-26T07:43:07.055Z</time></trkpt><trkpt lat="45.70148" lon="9.7610033"><ele>262.6666666666667</ele><time>2026-04-26T07:43:08.054Z</time></trkpt><trkpt lat="45.7014167" lon="9.7610333"><ele>262.83333333333337</ele><time>2026-04-26T07:43:09.053Z</time></trkpt><trkpt lat="45.701345" lon="9.7610617"><ele>263.0</ele><time>2026-04-26T07:43:10.057Z</time></trkpt><trkpt lat="45.7012567" lon="9.761085"><ele>262.5</ele><time>2026-04-26T07:43:11.056Z</time></trkpt><trkpt lat="45.701155" lon="9.761115"><ele>262.0</ele><time>2026-04-26T07:43:12.056Z</time></trkpt><trkpt lat="45.70104" lon="9.76115"><ele>261.5</ele><time>2026-04-26T07:43:13.056Z</time></trkpt><trkpt lat="45.7009133" lon="9.7611833"><ele>261.0</ele><time>2026-04-26T07:43:14.056Z</time></trkpt><trkpt lat="45.700785" lon="9.761225"><ele>260.75</ele><time>2026-04-26T07:43:15.057Z</time></trkpt><trkpt lat="45.7006517" lon="9.7612767"><ele>260.5</ele><time>2026-04-26T07:43:16.057Z</time></trkpt><trkpt lat="45.7005067" lon="9.7613283"><ele>260.25</ele><time>2026-04-26T07:43:17.057Z</time></trkpt><trkpt lat="45.7003533" lon="9.7613933"><ele>260.0</ele><time>2026-04-26T07:43:18.056Z</time></trkpt><trkpt lat="45.700195" lon="9.7614517"><ele>260.0</ele><time>2026-04-26T07:43:19.058Z</time></trkpt><trkpt lat="45.7000333" lon="9.7615133"><ele>260.0</ele><time>2026-04-26T07:43:20.057Z</time></trkpt><trkpt lat="45.6998683" lon="9.7615767"><ele>260.0</ele><time>2026-04-26T07:43:21.056Z</time></trkpt><trkpt lat="45.6997017" lon="9.7616433"><ele>260.0</ele><time>2026-04-26T07:43:22.057Z</time></trkpt><trkpt lat="45.6995367" lon="9.7617117"><ele>260.0</ele><time>2026-04-26T07:43:23.058Z</time></trkpt><trkpt lat="45.6993717" lon="9.761775"><ele>260.0</ele><time>2026-04-26T07:43:24.056Z</time></trkpt><trkpt lat="45.6992083" lon="9.761835"><ele>259.6666666666667</ele><time>2026-04-26T07:43:25.056Z</time></trkpt><trkpt lat="45.6990417" lon="9.7618983"><ele>259.3333333333333</ele><time>2026-04-26T07:43:26.056Z</time></trkpt><trkpt lat="45.698875" lon="9.7619567"><ele>259.0</ele><time>2026-04-26T07:43:27.056Z</time></trkpt><trkpt lat="45.6987133" lon="9.7620133"><ele>259.66666666666663</ele><time>2026-04-26T07:43:28.054Z</time></trkpt><trkpt lat="45.6985567" lon="9.7620767"><ele>260.3333333333333</ele><time>2026-04-26T07:43:29.053Z</time></trkpt><trkpt lat="45.698405" lon="9.7621433"><ele>261.0</ele><time>2026-04-26T07:43:30.053Z</time></trkpt><trkpt lat="45.6982567" lon="9.7622083"><ele>261.0</ele><time>2026-04-26T07:43:31.055Z</time></trkpt><trkpt lat="45.69811" lon="9.7622717"><ele>261.0</ele><time>2026-04-26T07:43:32.053Z</time></trkpt><trkpt lat="45.6979633" lon="9.7623317"><ele>261.0</ele><time>2026-04-26T07:43:33.057Z</time></trkpt><trkpt lat="45.6978183" lon="9.7623933"><ele>260.3333333333333</ele><time>2026-04-26T07:43:34.057Z</time></trkpt><trkpt lat="45.6976733" lon="9.7624533"><ele>259.66666666666663</ele><time>2026-04-26T07:43:35.053Z</time></trkpt><trkpt lat="45.6975267" lon="9.7625117"><ele>259.0</ele><time>2026-04-26T07:43:36.057Z</time></trkpt><trkpt lat="45.6973817" lon="9.7625667"><ele>259.0</ele><time>2026-04-26T07:43:37.057Z</time></trkpt><trkpt lat="45.6972333" lon="9.7626233"><ele>259.0</ele><time>2026-04-26T07:43:38.055Z</time></trkpt><trkpt lat="45.6970833" lon="9.7626833"><ele>259.0</ele><time>2026-04-26T07:43:39.053Z</time></trkpt><trkpt lat="45.6969333" lon="9.7627417"><ele>258.75</ele><time>2026-04-26T07:43:40.057Z</time></trkpt><trkpt lat="45.69679" lon="9.7628033"><ele>258.5</ele><time>2026-04-26T07:43:41.056Z</time></trkpt><trkpt lat="45.696655" lon="9.7628617"><ele>258.25</ele><time>2026-04-26T07:43:42.057Z</time></trkpt><trkpt lat="45.696525" lon="9.762915"><ele>258.0</ele><time>2026-04-26T07:43:43.058Z</time></trkpt><trkpt lat="45.6964033" lon="9.7629667"><ele>258.0</ele><time>2026-04-26T07:43:44.057Z</time></trkpt><trkpt lat="45.6962867" lon="9.7630183"><ele>258.0</ele><time>2026-04-26T07:43:45.057Z</time></trkpt><trkpt lat="45.6961767" lon="9.7630733"><ele>258.0</ele><time>2026-04-26T07:43:46.056Z</time></trkpt><trkpt lat="45.6960667" lon="9.7631467"><ele>258.0</ele><time>2026-04-26T07:43:47.057Z</time></trkpt><trkpt lat="45.6959533" lon="9.7632333"><ele>258.25</ele><time>2026-04-26T07:43:48.056Z</time></trkpt><trkpt lat="45.69584" lon="9.763325"><ele>258.5</ele><time>2026-04-26T07:43:49.057Z</time></trkpt><trkpt lat="45.6957233" lon="9.763415"><ele>258.75</ele><time>2026-04-26T07:43:50.057Z</time></trkpt><trkpt lat="45.695605" lon="9.7635033"><ele>259.0</ele><time>2026-04-26T07:43:51.057Z</time></trkpt><trkpt lat="45.69549" lon="9.7636"><ele>258.5</ele><time>2026-04-26T07:43:52.056Z</time></trkpt><trkpt lat="45.6953717" lon="9.7636933"><ele>258.0</ele><time>2026-04-26T07:43:53.057Z</time></trkpt><trkpt lat="45.6952533" lon="9.7637817"><ele>257.5</ele><time>2026-04-26T07:43:54.056Z</time></trkpt><trkpt lat="45.6951367" lon="9.7638733"><ele>257.0</ele><time>2026-04-26T07:43:55.057Z</time></trkpt><trkpt lat="45.6950233" lon="9.7639683"><ele>257.0</ele><time>2026-04-26T07:43:56.056Z</time></trkpt><trkpt lat="45.694905" lon="9.76406"><ele>257.0</ele><time>2026-04-26T07:43:57.057Z</time></trkpt><trkpt lat="45.69479" lon="9.764155"><ele>257.0</ele><time>2026-04-26T07:43:58.057Z</time></trkpt><trkpt lat="45.6946767" lon="9.7642483"><ele>257.0</ele><time>2026-04-26T07:43:59.057Z</time></trkpt><trkpt lat="45.6945567" lon="9.7643433"><ele>256.75</ele><time>2026-04-26T07:44:00.057Z</time></trkpt><trkpt lat="45.6944383" lon="9.7644383"><ele>256.5</ele><time>2026-04-26T07:44:01.056Z</time></trkpt><trkpt lat="45.6943183" lon="9.7645367"><ele>256.25</ele><time>2026-04-26T07:44:02.057Z</time></trkpt><trkpt lat="45.6941933" lon="9.76463"><ele>256.0</ele><time>2026-04-26T07:44:03.056Z</time></trkpt><trkpt lat="45.69407" lon="9.7647267"><ele>256.0</ele><time>2026-04-26T07:44:04.056Z</time></trkpt><trkpt lat="45.69395" lon="9.7648267"><ele>256.0</ele><time>2026-04-26T07:44:05.056Z</time></trkpt><trkpt lat="45.6938317" lon="9.7649267"><ele>256.0</ele><time>2026-04-26T07:44:06.057Z</time></trkpt><trkpt lat="45.693715" lon="9.76502"><ele>256.0</ele><time>2026-04-26T07:44:07.057Z</time></trkpt><trkpt lat="45.6936" lon="9.765115"><ele>255.0</ele><time>2026-04-26T07:44:08.056Z</time></trkpt><trkpt lat="45.6934817" lon="9.7652083"><ele>254.0</ele><time>2026-04-26T07:44:09.057Z</time></trkpt><trkpt lat="45.693365" lon="9.7653017"><ele>253.0</ele><time>2026-04-26T07:44:10.057Z</time></trkpt><trkpt lat="45.6932483" lon="9.7653933"><ele>252.0</ele><time>2026-04-26T07:44:11.057Z</time></trkpt><trkpt lat="45.6931317" lon="9.7654867"><ele>252.0</ele><time>2026-04-26T07:44:12.057Z</time></trkpt><trkpt lat="45.6930133" lon="9.76558"><ele>252.0</ele><time>2026-04-26T07:44:13.056Z</time></trkpt><trkpt lat="45.6928917" lon="9.7656767"><ele>252.0</ele><time>2026-04-26T07:44:14.054Z</time></trkpt><trkpt lat="45.6927667" lon="9.7657783"><ele>252.0</ele><time>2026-04-26T07:44:15.058Z</time></trkpt><trkpt lat="45.69264" lon="9.76588"><ele>252.0</ele><time>2026-04-26T07:44:16.054Z</time></trkpt><trkpt lat="45.6925133" lon="9.7659817"><ele>252.0</ele><time>2026-04-26T07:44:17.055Z</time></trkpt><trkpt lat="45.6923833" lon="9.76608"><ele>252.0</ele><time>2026-04-26T07:44:18.053Z</time></trkpt><trkpt lat="45.692255" lon="9.76618"><ele>252.0</ele><time>2026-04-26T07:44:19.059Z</time></trkpt><trkpt lat="45.69213" lon="9.766275"><ele>252.0</ele><time>2026-04-26T07:44:20.058Z</time></trkpt><trkpt lat="45.6920083" lon="9.76637"><ele>252.0</ele><time>2026-04-26T07:44:21.056Z</time></trkpt><trkpt lat="45.6918867" lon="9.7664633"><ele>252.0</ele><time>2026-04-26T07:44:22.056Z</time></trkpt><trkpt lat="45.6917683" lon="9.7665567"><ele>252.0</ele><time>2026-04-26T07:44:23.056Z</time></trkpt><trkpt lat="45.691655" lon="9.7666467"><ele>251.5</ele><time>2026-04-26T07:44:24.057Z</time></trkpt><trkpt lat="45.691545" lon="9.7667383"><ele>251.0</ele><time>2026-04-26T07:44:25.056Z</time></trkpt><trkpt lat="45.6914367" lon="9.7668117"><ele>250.5</ele><time>2026-04-26T07:44:26.057Z</time></trkpt><trkpt lat="45.6913317" lon="9.7668717"><ele>250.0</ele><time>2026-04-26T07:44:27.056Z</time></trkpt><trkpt lat="45.6912233" lon="9.7669133"><ele>250.0</ele><time>2026-04-26T07:44:28.056Z</time></trkpt><trkpt lat="45.69111" lon="9.7669283"><ele>250.0</ele><time>2026-04-26T07:44:29.057Z</time></trkpt><trkpt lat="45.6909883" lon="9.766915"><ele>250.0</ele><time>2026-04-26T07:44:30.057Z</time></trkpt><trkpt lat="45.6908633" lon="9.7668867"><ele>250.0</ele><time>2026-04-26T07:44:31.057Z</time></trkpt><trkpt lat="45.6907383" lon="9.76685"><ele>250.0</ele><time>2026-04-26T07:44:32.056Z</time></trkpt><trkpt lat="45.6906183" lon="9.7668083"><ele>250.0</ele><time>2026-04-26T07:44:33.056Z</time></trkpt><trkpt lat="45.690505" lon="9.7667583"><ele>250.0</ele><time>2026-04-26T07:44:34.057Z</time></trkpt><trkpt lat="45.6903917" lon="9.76671"><ele>250.0</ele><time>2026-04-26T07:44:35.054Z</time></trkpt><trkpt lat="45.6902733" lon="9.7666667"><ele>249.75</ele><time>2026-04-26T07:44:36.054Z</time></trkpt><trkpt lat="45.690155" lon="9.766615"><ele>249.5</ele><time>2026-04-26T07:44:37.054Z</time></trkpt><trkpt lat="45.6900367" lon="9.7665633"><ele>249.25</ele><time>2026-04-26T07:44:38.057Z</time></trkpt><trkpt lat="45.6899167" lon="9.7665133"><ele>249.0</ele><time>2026-04-26T07:44:39.057Z</time></trkpt><trkpt lat="45.6897933" lon="9.7664633"><ele>249.0</ele><time>2026-04-26T07:44:40.056Z</time></trkpt><trkpt lat="45.6896717" lon="9.7664183"><ele>249.0</ele><time>2026-04-26T07:44:41.057Z</time></trkpt><trkpt lat="45.68955" lon="9.7663817"><ele>249.0</ele><time>2026-04-26T07:44:42.053Z</time></trkpt><trkpt lat="45.6894317" lon="9.76635"><ele>249.0</ele><time>2026-04-26T07:44:43.057Z</time></trkpt><trkpt lat="45.6893167" lon="9.7663267"><ele>248.5</ele><time>2026-04-26T07:44:44.057Z</time></trkpt><trkpt lat="45.6892033" lon="9.76632"><ele>248.0</ele><time>2026-04-26T07:44:45.057Z</time></trkpt><trkpt lat="45.68909" lon="9.7663217"><ele>247.5</ele><time>2026-04-26T07:44:46.056Z</time></trkpt><trkpt lat="45.6889783" lon="9.766335"><ele>247.0</ele><time>2026-04-26T07:44:47.057Z</time></trkpt><trkpt lat="45.6888683" lon="9.7663567"><ele>247.0</ele><time>2026-04-26T07:44:48.056Z</time></trkpt><trkpt lat="45.6887583" lon="9.76639"><ele>247.0</ele><time>2026-04-26T07:44:49.056Z</time></trkpt><trkpt lat="45.68865" lon="9.7664283"><ele>247.0</ele><time>2026-04-26T07:44:50.057Z</time></trkpt><trkpt lat="45.6885367" lon="9.7664683"><ele>247.0</ele><time>2026-04-26T07:44:51.057Z</time></trkpt><trkpt lat="45.6884167" lon="9.7665117"><ele>246.75</ele><time>2026-04-26T07:44:52.056Z</time></trkpt><trkpt lat="45.688295" lon="9.7665583"><ele>246.5</ele><time>2026-04-26T07:44:53.056Z</time></trkpt><trkpt lat="45.6881683" lon="9.7666033"><ele>246.25</ele><time>2026-04-26T07:44:54.056Z</time></trkpt><trkpt lat="45.6880417" lon="9.7666567"><ele>246.0</ele><time>2026-04-26T07:44:55.058Z</time></trkpt><trkpt lat="45.6879133" lon="9.766705"><ele>246.0</ele><time>2026-04-26T07:44:56.056Z</time></trkpt><trkpt lat="45.6877867" lon="9.7667433"><ele>246.0</ele><time>2026-04-26T07:44:57.056Z</time></trkpt><trkpt lat="45.6876617" lon="9.7667633"><ele>246.0</ele><time>2026-04-26T07:44:58.057Z</time></trkpt><trkpt lat="45.68754" lon="9.7667733"><ele>246.0</ele><time>2026-04-26T07:44:59.053Z</time></trkpt><trkpt lat="45.68742" lon="9.7667717"><ele>245.5</ele><time>2026-04-26T07:45:00.056Z</time></trkpt><trkpt lat="45.6873017" lon="9.7667583"><ele>245.0</ele><time>2026-04-26T07:45:01.056Z</time></trkpt><trkpt lat="45.6871867" lon="9.76673"><ele>244.5</ele><time>2026-04-26T07:45:02.057Z</time></trkpt><trkpt lat="45.6870717" lon="9.7666867"><ele>244.0</ele><time>2026-04-26T07:45:03.056Z</time></trkpt><trkpt lat="45.6869583" lon="9.766635"><ele>244.6</ele><time>2026-04-26T07:45:04.054Z</time></trkpt><trkpt lat="45.6868433" lon="9.7665767"><ele>245.2</ele><time>2026-04-26T07:45:05.054Z</time></trkpt><trkpt lat="45.686735" lon="9.7665133"><ele>245.79999999999998</ele><time>2026-04-26T07:45:06.054Z</time></trkpt><trkpt lat="45.686635" lon="9.76645"><ele>246.39999999999998</ele><time>2026-04-26T07:45:07.055Z</time></trkpt><trkpt lat="45.6865433" lon="9.7663967"><ele>247.0</ele><time>2026-04-26T07:45:08.054Z</time></trkpt><trkpt lat="45.6864533" lon="9.766345"><ele>247.0</ele><time>2026-04-26T07:45:09.053Z</time></trkpt><trkpt lat="45.6863683" lon="9.7662933"><ele>247.0</ele><time>2026-04-26T07:45:10.053Z</time></trkpt><trkpt lat="45.68628" lon="9.76624"><ele>247.0</ele><time>2026-04-26T07:45:11.057Z</time></trkpt><trkpt lat="45.6861917" lon="9.7661867"><ele>247.0</ele><time>2026-04-26T07:45:12.053Z</time></trkpt><trkpt lat="45.6861" lon="9.7661367"><ele>247.0</ele><time>2026-04-26T07:45:13.055Z</time></trkpt><trkpt lat="45.6860083" lon="9.766085"><ele>246.39999999999998</ele><time>2026-04-26T07:45:14.054Z</time></trkpt><trkpt lat="45.6859167" lon="9.7660317"><ele>245.79999999999998</ele><time>2026-04-26T07:45:15.053Z</time></trkpt><trkpt lat="45.685825" lon="9.76598"><ele>245.2</ele><time>2026-04-26T07:45:16.053Z</time></trkpt><trkpt lat="45.68573" lon="9.765925"><ele>244.6</ele><time>2026-04-26T07:45:17.054Z</time></trkpt><trkpt lat="45.6856367" lon="9.7658683"><ele>244.0</ele><time>2026-04-26T07:45:18.054Z</time></trkpt><trkpt lat="45.6855467" lon="9.765815"><ele>243.99999999999997</ele><time>2026-04-26T07:45:19.056Z</time></trkpt><trkpt lat="45.6854633" lon="9.76577"><ele>244.0</ele><time>2026-04-26T07:45:20.057Z</time></trkpt><trkpt lat="45.68538" lon="9.7657267"><ele>244.0</ele><time>2026-04-26T07:45:21.058Z</time></trkpt><trkpt lat="45.685305" lon="9.7656883"><ele>244.0</ele><time>2026-04-26T07:45:22.056Z</time></trkpt><trkpt lat="45.6852383" lon="9.7656517"><ele>243.99999999999997</ele><time>2026-04-26T07:45:23.057Z</time></trkpt><trkpt lat="45.68514" lon="9.76562"><ele>244.0</ele><time>2026-04-26T07:45:25.057Z</time></trkpt><trkpt lat="45.6850717" lon="9.7655833"><ele>243.39999999999998</ele><time>2026-04-26T07:45:27.055Z</time></trkpt><trkpt lat="45.68498" lon="9.7655167"><ele>242.79999999999998</ele><time>2026-04-26T07:45:29.054Z</time></trkpt><trkpt lat="45.6849183" lon="9.7654967"><ele>242.20000000000002</ele><time>2026-04-26T07:45:30.056Z</time></trkpt><trkpt lat="45.6848" lon="9.7655817"><ele>241.60000000000002</ele><time>2026-04-26T07:45:32.057Z</time></trkpt><trkpt lat="45.684765" lon="9.7656883"><ele>241.0</ele><time>2026-04-26T07:45:33.057Z</time></trkpt><trkpt lat="45.6847483" lon="9.7658417"><ele>241.0</ele><time>2026-04-26T07:45:34.057Z</time></trkpt><trkpt lat="45.68473" lon="9.765985"><ele>241.00000000000003</ele><time>2026-04-26T07:45:35.056Z</time></trkpt><trkpt lat="45.6847067" lon="9.76614"><ele>241.00000000000003</ele><time>2026-04-26T07:45:36.057Z</time></trkpt><trkpt lat="45.684685" lon="9.7662933"><ele>241.0</ele><time>2026-04-26T07:45:37.058Z</time></trkpt><trkpt lat="45.6846567" lon="9.766445"><ele>241.0</ele><time>2026-04-26T07:45:38.056Z</time></trkpt><trkpt lat="45.6846383" lon="9.7665883"><ele>241.4</ele><time>2026-04-26T07:45:39.054Z</time></trkpt><trkpt lat="45.6846167" lon="9.7667367"><ele>241.8</ele><time>2026-04-26T07:45:40.053Z</time></trkpt><trkpt lat="45.6845933" lon="9.7668767"><ele>242.20000000000002</ele><time>2026-04-26T07:45:41.054Z</time></trkpt><trkpt lat="45.6845767" lon="9.7670033"><ele>242.60000000000002</ele><time>2026-04-26T07:45:42.054Z</time></trkpt><trkpt lat="45.68455" lon="9.767125"><ele>243.0</ele><time>2026-04-26T07:45:43.057Z</time></trkpt><trkpt lat="45.68453" lon="9.7672367"><ele>243.16666666666666</ele><time>2026-04-26T07:45:44.054Z</time></trkpt><trkpt lat="45.6845083" lon="9.7673333"><ele>243.33333333333331</ele><time>2026-04-26T07:45:45.057Z</time></trkpt><trkpt lat="45.684495" lon="9.7674267"><ele>243.5</ele><time>2026-04-26T07:45:46.057Z</time></trkpt><trkpt lat="45.68447" lon="9.76759"><ele>243.66666666666666</ele><time>2026-04-26T07:45:48.054Z</time></trkpt><trkpt lat="45.6844467" lon="9.7677133"><ele>243.83333333333331</ele><time>2026-04-26T07:45:50.054Z</time></trkpt><trkpt lat="45.6844083" lon="9.7678033"><ele>244.0</ele><time>2026-04-26T07:46:23.054Z</time></trkpt><trkpt lat="45.6843583" lon="9.7679267"><ele>243.2</ele><time>2026-04-26T07:46:25.057Z</time></trkpt><trkpt lat="45.6843317" lon="9.76803"><ele>242.39999999999998</ele><time>2026-04-26T07:46:26.057Z</time></trkpt><trkpt lat="45.6843117" lon="9.76816"><ele>241.6</ele><time>2026-04-26T07:46:27.057Z</time></trkpt><trkpt lat="45.6842967" lon="9.7683"><ele>240.8</ele><time>2026-04-26T07:46:28.057Z</time></trkpt><trkpt lat="45.6842733" lon="9.7684533"><ele>240.0</ele><time>2026-04-26T07:46:29.053Z</time></trkpt><trkpt lat="45.6842533" lon="9.7686133"><ele>240.0</ele><time>2026-04-26T07:46:30.053Z</time></trkpt><trkpt lat="45.6842467" lon="9.7687833"><ele>240.0</ele><time>2026-04-26T07:46:31.054Z</time></trkpt><trkpt lat="45.6842467" lon="9.7689583"><ele>240.0</ele><time>2026-04-26T07:46:32.057Z</time></trkpt><trkpt lat="45.6842617" lon="9.7691433"><ele>240.0</ele><time>2026-04-26T07:46:33.057Z</time></trkpt><trkpt lat="45.6842917" lon="9.7693283"><ele>240.0</ele><time>2026-04-26T07:46:34.057Z</time></trkpt><trkpt lat="45.68433" lon="9.7695217"><ele>240.0</ele><time>2026-04-26T07:46:35.057Z</time></trkpt><trkpt lat="45.68437" lon="9.7697167"><ele>240.0</ele><time>2026-04-26T07:46:36.058Z</time></trkpt><trkpt lat="45.6844117" lon="9.76992"><ele>240.0</ele><time>2026-04-26T07:46:37.057Z</time></trkpt><trkpt lat="45.68445" lon="9.7701283"><ele>240.33333333333331</ele><time>2026-04-26T07:46:38.058Z</time></trkpt><trkpt lat="45.6844833" lon="9.7703433"><ele>240.66666666666666</ele><time>2026-04-26T07:46:39.058Z</time></trkpt><trkpt lat="45.6845067" lon="9.7705633"><ele>241.0</ele><time>2026-04-26T07:46:40.057Z</time></trkpt><trkpt lat="45.6845133" lon="9.7707883"><ele>241.0</ele><time>2026-04-26T07:46:41.057Z</time></trkpt><trkpt lat="45.6845133" lon="9.77101"><ele>241.0</ele><time>2026-04-26T07:46:42.057Z</time></trkpt><trkpt lat="45.684505" lon="9.77123"><ele>241.0</ele><time>2026-04-26T07:46:43.057Z</time></trkpt><trkpt lat="45.684485" lon="9.77145"><ele>241.0</ele><time>2026-04-26T07:46:44.057Z</time></trkpt><trkpt lat="45.684455" lon="9.7716717"><ele>241.0</ele><time>2026-04-26T07:46:45.057Z</time></trkpt><trkpt lat="45.6844133" lon="9.77189"><ele>241.0</ele><time>2026-04-26T07:46:46.056Z</time></trkpt><trkpt lat="45.6843583" lon="9.7721083"><ele>240.33333333333331</ele><time>2026-04-26T07:46:47.053Z</time></trkpt><trkpt lat="45.6843017" lon="9.772325"><ele>239.66666666666669</ele><time>2026-04-26T07:46:48.053Z</time></trkpt><trkpt lat="45.6842417" lon="9.7725417"><ele>239.0</ele><time>2026-04-26T07:46:49.055Z</time></trkpt><trkpt lat="45.6841833" lon="9.7727567"><ele>239.0</ele><time>2026-04-26T07:46:50.055Z</time></trkpt><trkpt lat="45.6841283" lon="9.772965"><ele>239.0</ele><time>2026-04-26T07:46:51.053Z</time></trkpt><trkpt lat="45.6840783" lon="9.773165"><ele>239.0</ele><time>2026-04-26T07:46:52.054Z</time></trkpt><trkpt lat="45.6840267" lon="9.7733617"><ele>238.75</ele><time>2026-04-26T07:46:53.054Z</time></trkpt><trkpt lat="45.6839783" lon="9.7735567"><ele>238.5</ele><time>2026-04-26T07:46:54.057Z</time></trkpt><trkpt lat="45.68393" lon="9.773755"><ele>238.25</ele><time>2026-04-26T07:46:55.056Z</time></trkpt><trkpt lat="45.6838833" lon="9.77396"><ele>238.0</ele><time>2026-04-26T07:46:56.057Z</time></trkpt><trkpt lat="45.6838317" lon="9.7741733"><ele>237.66666666666666</ele><time>2026-04-26T07:46:57.057Z</time></trkpt><trkpt lat="45.6837817" lon="9.77439"><ele>237.33333333333331</ele><time>2026-04-26T07:46:58.056Z</time></trkpt><trkpt lat="45.6837333" lon="9.7746067"><ele>237.0</ele><time>2026-04-26T07:46:59.056Z</time></trkpt><trkpt lat="45.6836867" lon="9.7748283"><ele>237.0</ele><time>2026-04-26T07:47:00.057Z</time></trkpt><trkpt lat="45.6836417" lon="9.775045"><ele>237.0</ele><time>2026-04-26T07:47:01.057Z</time></trkpt><trkpt lat="45.6835983" lon="9.7752567"><ele>237.0</ele><time>2026-04-26T07:47:02.058Z</time></trkpt><trkpt lat="45.683565" lon="9.7754633"><ele>236.75</ele><time>2026-04-26T07:47:03.057Z</time></trkpt><trkpt lat="45.683535" lon="9.7756617"><ele>236.5</ele><time>2026-04-26T07:47:04.057Z</time></trkpt><trkpt lat="45.68351" lon="9.77585"><ele>236.25</ele><time>2026-04-26T07:47:05.057Z</time></trkpt><trkpt lat="45.683485" lon="9.77601"><ele>236.0</ele><time>2026-04-26T07:47:06.056Z</time></trkpt><trkpt lat="45.683455" lon="9.77615"><ele>236.00000000000003</ele><time>2026-04-26T07:47:07.056Z</time></trkpt><trkpt lat="45.6834083" lon="9.77627"><ele>236.0</ele><time>2026-04-26T07:47:08.058Z</time></trkpt><trkpt lat="45.6833467" lon="9.7763783"><ele>236.0</ele><time>2026-04-26T07:47:09.057Z</time></trkpt><trkpt lat="45.6832967" lon="9.7764833"><ele>236.0</ele><time>2026-04-26T07:47:10.057Z</time></trkpt><trkpt lat="45.6832633" lon="9.776595"><ele>236.00000000000003</ele><time>2026-04-26T07:47:11.057Z</time></trkpt><trkpt lat="45.683255" lon="9.7767067"><ele>236.0</ele><time>2026-04-26T07:47:12.056Z</time></trkpt><trkpt lat="45.6832917" lon="9.77684"><ele>235.8</ele><time>2026-04-26T07:47:13.057Z</time></trkpt><trkpt lat="45.68331" lon="9.7769767"><ele>235.60000000000002</ele><time>2026-04-26T07:47:14.057Z</time></trkpt><trkpt lat="45.68331" lon="9.7771233"><ele>235.4</ele><time>2026-04-26T07:47:15.057Z</time></trkpt><trkpt lat="45.6833" lon="9.777275"><ele>235.2</ele><time>2026-04-26T07:47:16.057Z</time></trkpt><trkpt lat="45.683285" lon="9.7774333"><ele>235.0</ele><time>2026-04-26T07:47:17.053Z</time></trkpt><trkpt lat="45.68327" lon="9.7775933"><ele>235.2</ele><time>2026-04-26T07:47:18.054Z</time></trkpt><trkpt lat="45.6832533" lon="9.7777533"><ele>235.4</ele><time>2026-04-26T07:47:19.055Z</time></trkpt><trkpt lat="45.6832317" lon="9.77791"><ele>235.60000000000002</ele><time>2026-04-26T07:47:20.054Z</time></trkpt><trkpt lat="45.6832133" lon="9.7780633"><ele>235.8</ele><time>2026-04-26T07:47:21.054Z</time></trkpt><trkpt lat="45.6831933" lon="9.7782167"><ele>236.0</ele><time>2026-04-26T07:47:22.054Z</time></trkpt><trkpt lat="45.6831717" lon="9.7783767"><ele>235.75</ele><time>2026-04-26T07:47:23.055Z</time></trkpt><trkpt lat="45.68315" lon="9.778545"><ele>235.5</ele><time>2026-04-26T07:47:24.057Z</time></trkpt><trkpt lat="45.6831283" lon="9.7787167"><ele>235.25</ele><time>2026-04-26T07:47:25.057Z</time></trkpt><trkpt lat="45.683105" lon="9.7788917"><ele>235.0</ele><time>2026-04-26T07:47:26.057Z</time></trkpt><trkpt lat="45.6830817" lon="9.7790633"><ele>235.0</ele><time>2026-04-26T07:47:27.056Z</time></trkpt><trkpt lat="45.6830617" lon="9.779235"><ele>235.0</ele><time>2026-04-26T07:47:28.057Z</time></trkpt><trkpt lat="45.6830367" lon="9.7794133"><ele>235.0</ele><time>2026-04-26T07:47:29.057Z</time></trkpt><trkpt lat="45.6830133" lon="9.7795883"><ele>235.0</ele><time>2026-04-26T07:47:30.056Z</time></trkpt><trkpt lat="45.68299" lon="9.779765"><ele>235.25</ele><time>2026-04-26T07:47:31.057Z</time></trkpt><trkpt lat="45.6829667" lon="9.779945"><ele>235.5</ele><time>2026-04-26T07:47:32.057Z</time></trkpt><trkpt lat="45.6829417" lon="9.78013"><ele>235.75</ele><time>2026-04-26T07:47:33.057Z</time></trkpt><trkpt lat="45.682915" lon="9.7803133"><ele>236.0</ele><time>2026-04-26T07:47:34.057Z</time></trkpt><trkpt lat="45.6828933" lon="9.7804967"><ele>236.0</ele><time>2026-04-26T07:47:35.056Z</time></trkpt><trkpt lat="45.68287" lon="9.7806767"><ele>236.0</ele><time>2026-04-26T07:47:36.057Z</time></trkpt><trkpt lat="45.682855" lon="9.7808433"><ele>236.0</ele><time>2026-04-26T07:47:37.054Z</time></trkpt><trkpt lat="45.682835" lon="9.781005"><ele>236.0</ele><time>2026-04-26T07:47:38.057Z</time></trkpt><trkpt lat="45.682815" lon="9.781165"><ele>236.0</ele><time>2026-04-26T07:47:39.053Z</time></trkpt><trkpt lat="45.6828" lon="9.7813167"><ele>236.00000000000003</ele><time>2026-04-26T07:47:40.057Z</time></trkpt><trkpt lat="45.6827867" lon="9.7814683"><ele>236.00000000000003</ele><time>2026-04-26T07:47:41.057Z</time></trkpt><trkpt lat="45.6827783" lon="9.7816133"><ele>236.0</ele><time>2026-04-26T07:47:42.059Z</time></trkpt><trkpt lat="45.6827717" lon="9.7817483"><ele>236.0</ele><time>2026-04-26T07:47:43.057Z</time></trkpt><trkpt lat="45.6827683" lon="9.7818783"><ele>235.57142857142856</ele><time>2026-04-26T07:47:44.057Z</time></trkpt><trkpt lat="45.6827633" lon="9.782005"><ele>235.14285714285717</ele><time>2026-04-26T07:47:45.057Z</time></trkpt><trkpt lat="45.68275" lon="9.7821133"><ele>234.71428571428572</ele><time>2026-04-26T07:47:46.057Z</time></trkpt><trkpt lat="45.6827317" lon="9.782205"><ele>234.28571428571428</ele><time>2026-04-26T07:47:47.058Z</time></trkpt><trkpt lat="45.6826917" lon="9.7822783"><ele>233.85714285714283</ele><time>2026-04-26T07:47:48.057Z</time></trkpt><trkpt lat="45.6826317" lon="9.7823267"><ele>233.42857142857144</ele><time>2026-04-26T07:47:49.057Z</time></trkpt><trkpt lat="45.6825583" lon="9.7823683"><ele>233.0</ele><time>2026-04-26T07:47:50.057Z</time></trkpt><trkpt lat="45.6824817" lon="9.782415"><ele>233.00000000000003</ele><time>2026-04-26T07:47:51.056Z</time></trkpt><trkpt lat="45.682405" lon="9.78248"><ele>233.0</ele><time>2026-04-26T07:47:52.056Z</time></trkpt><trkpt lat="45.6823433" lon="9.78257"><ele>233.0</ele><time>2026-04-26T07:47:53.057Z</time></trkpt><trkpt lat="45.682305" lon="9.7826783"><ele>233.0</ele><time>2026-04-26T07:47:54.056Z</time></trkpt><trkpt lat="45.682305" lon="9.7827983"><ele>233.00000000000003</ele><time>2026-04-26T07:47:55.057Z</time></trkpt><trkpt lat="45.68233" lon="9.782905"><ele>233.0</ele><time>2026-04-26T07:47:56.057Z</time></trkpt><trkpt lat="45.6823783" lon="9.7830033"><ele>233.00000000000003</ele><time>2026-04-26T07:47:57.056Z</time></trkpt><trkpt lat="45.6824417" lon="9.78308"><ele>233.0</ele><time>2026-04-26T07:47:58.057Z</time></trkpt><trkpt lat="45.6825183" lon="9.7831283"><ele>233.0</ele><time>2026-04-26T07:47:59.057Z</time></trkpt><trkpt lat="45.682605" lon="9.7831567"><ele>233.0</ele><time>2026-04-26T07:48:00.057Z</time></trkpt><trkpt lat="45.6826883" lon="9.7832"><ele>233.00000000000003</ele><time>2026-04-26T07:48:01.057Z</time></trkpt><trkpt lat="45.6827617" lon="9.783265"><ele>233.0</ele><time>2026-04-26T07:48:02.057Z</time></trkpt><trkpt lat="45.6828183" lon="9.783355"><ele>233.4</ele><time>2026-04-26T07:48:03.056Z</time></trkpt><trkpt lat="45.6828567" lon="9.7834617"><ele>233.8</ele><time>2026-04-26T07:48:04.058Z</time></trkpt><trkpt lat="45.6828833" lon="9.78358"><ele>234.2</ele><time>2026-04-26T07:48:05.056Z</time></trkpt><trkpt lat="45.68289" lon="9.7837183"><ele>234.6</ele><time>2026-04-26T07:48:06.057Z</time></trkpt><trkpt lat="45.682895" lon="9.7838683"><ele>235.0</ele><time>2026-04-26T07:48:07.057Z</time></trkpt><trkpt lat="45.682905" lon="9.7840217"><ele>235.0</ele><time>2026-04-26T07:48:08.057Z</time></trkpt><trkpt lat="45.6829217" lon="9.7841817"><ele>235.0</ele><time>2026-04-26T07:48:09.056Z</time></trkpt><trkpt lat="45.68294" lon="9.7843483"><ele>235.0</ele><time>2026-04-26T07:48:10.056Z</time></trkpt><trkpt lat="45.6829567" lon="9.7845183"><ele>235.0</ele><time>2026-04-26T07:48:11.057Z</time></trkpt><trkpt lat="45.6829733" lon="9.7847"><ele>234.75</ele><time>2026-04-26T07:48:12.057Z</time></trkpt><trkpt lat="45.6829933" lon="9.7848883"><ele>234.5</ele><time>2026-04-26T07:48:13.054Z</time></trkpt><trkpt lat="45.6830167" lon="9.78508"><ele>234.25</ele><time>2026-04-26T07:48:14.057Z</time></trkpt><trkpt lat="45.6830367" lon="9.78527"><ele>234.0</ele><time>2026-04-26T07:48:15.057Z</time></trkpt><trkpt lat="45.683055" lon="9.7854633"><ele>234.0</ele><time>2026-04-26T07:48:16.057Z</time></trkpt><trkpt lat="45.6830683" lon="9.7856583"><ele>234.0</ele><time>2026-04-26T07:48:17.056Z</time></trkpt><trkpt lat="45.6830833" lon="9.78585"><ele>234.0</ele><time>2026-04-26T07:48:18.057Z</time></trkpt><trkpt lat="45.6831017" lon="9.786035"><ele>234.0</ele><time>2026-04-26T07:48:19.056Z</time></trkpt><trkpt lat="45.6831217" lon="9.78621"><ele>234.5</ele><time>2026-04-26T07:48:20.056Z</time></trkpt><trkpt lat="45.683135" lon="9.786375"><ele>235.0</ele><time>2026-04-26T07:48:21.054Z</time></trkpt><trkpt lat="45.683145" lon="9.7865333"><ele>235.5</ele><time>2026-04-26T07:48:22.057Z</time></trkpt><trkpt lat="45.68314" lon="9.786695"><ele>236.0</ele><time>2026-04-26T07:48:23.057Z</time></trkpt><trkpt lat="45.6831167" lon="9.786855"><ele>236.0</ele><time>2026-04-26T07:48:24.056Z</time></trkpt><trkpt lat="45.68307" lon="9.7870067"><ele>236.0</ele><time>2026-04-26T07:48:25.057Z</time></trkpt><trkpt lat="45.6830083" lon="9.787155"><ele>236.0</ele><time>2026-04-26T07:48:26.057Z</time></trkpt><trkpt lat="45.682935" lon="9.787305"><ele>236.0</ele><time>2026-04-26T07:48:27.056Z</time></trkpt><trkpt lat="45.68287" lon="9.78747"><ele>236.0</ele><time>2026-04-26T07:48:28.057Z</time></trkpt><trkpt lat="45.6828233" lon="9.787655"><ele>236.0</ele><time>2026-04-26T07:48:29.057Z</time></trkpt><trkpt lat="45.6827767" lon="9.7878417"><ele>236.0</ele><time>2026-04-26T07:48:30.06Z</time></trkpt><trkpt lat="45.68271" lon="9.78803"><ele>236.0</ele><time>2026-04-26T07:48:31.059Z</time></trkpt><trkpt lat="45.682625" lon="9.7882133"><ele>234.66666666666669</ele><time>2026-04-26T07:48:32.057Z</time></trkpt><trkpt lat="45.6825267" lon="9.7884"><ele>233.33333333333331</ele><time>2026-04-26T07:48:33.057Z</time></trkpt><trkpt lat="45.6824233" lon="9.788605"><ele>232.0</ele><time>2026-04-26T07:48:34.056Z</time></trkpt><trkpt lat="45.6823133" lon="9.7888217"><ele>232.0</ele><time>2026-04-26T07:48:35.057Z</time></trkpt><trkpt lat="45.6822033" lon="9.7890433"><ele>232.0</ele><time>2026-04-26T07:48:36.058Z</time></trkpt><trkpt lat="45.68209" lon="9.7892633"><ele>232.0</ele><time>2026-04-26T07:48:37.057Z</time></trkpt><trkpt lat="45.681975" lon="9.7894867"><ele>231.66666666666666</ele><time>2026-04-26T07:48:38.058Z</time></trkpt><trkpt lat="45.6818583" lon="9.78971"><ele>231.33333333333331</ele><time>2026-04-26T07:48:39.056Z</time></trkpt><trkpt lat="45.681745" lon="9.7899317"><ele>231.0</ele><time>2026-04-26T07:48:40.053Z</time></trkpt><trkpt lat="45.681635" lon="9.7901467"><ele>231.0</ele><time>2026-04-26T07:48:41.054Z</time></trkpt><trkpt lat="45.6815283" lon="9.7903583"><ele>231.0</ele><time>2026-04-26T07:48:42.053Z</time></trkpt><trkpt lat="45.6814217" lon="9.7905633"><ele>231.0</ele><time>2026-04-26T07:48:43.054Z</time></trkpt><trkpt lat="45.6813183" lon="9.7907717"><ele>231.0</ele><time>2026-04-26T07:48:44.055Z</time></trkpt><trkpt lat="45.6812217" lon="9.7909833"><ele>231.0</ele><time>2026-04-26T07:48:45.058Z</time></trkpt><trkpt lat="45.6811233" lon="9.79119"><ele>231.0</ele><time>2026-04-26T07:48:46.057Z</time></trkpt><trkpt lat="45.6810217" lon="9.7913933"><ele>230.66666666666669</ele><time>2026-04-26T07:48:47.053Z</time></trkpt><trkpt lat="45.6809183" lon="9.7915983"><ele>230.33333333333334</ele><time>2026-04-26T07:48:48.057Z</time></trkpt><trkpt lat="45.680815" lon="9.7918083"><ele>230.0</ele><time>2026-04-26T07:48:49.054Z</time></trkpt><trkpt lat="45.6807117" lon="9.7920183"><ele>230.0</ele><time>2026-04-26T07:48:50.057Z</time></trkpt><trkpt lat="45.6806083" lon="9.79223"><ele>230.0</ele><time>2026-04-26T07:48:51.058Z</time></trkpt><trkpt lat="45.6805017" lon="9.792445"><ele>230.0</ele><time>2026-04-26T07:48:52.057Z</time></trkpt><trkpt lat="45.6803933" lon="9.7926583"><ele>230.0</ele><time>2026-04-26T07:48:53.057Z</time></trkpt><trkpt lat="45.6802833" lon="9.792875"><ele>230.0</ele><time>2026-04-26T07:48:54.057Z</time></trkpt><trkpt lat="45.6801717" lon="9.7930917"><ele>230.0</ele><time>2026-04-26T07:48:55.057Z</time></trkpt><trkpt lat="45.6800617" lon="9.79331"><ele>229.66666666666669</ele><time>2026-04-26T07:48:56.057Z</time></trkpt><trkpt lat="45.679955" lon="9.79352"><ele>229.33333333333331</ele><time>2026-04-26T07:48:57.057Z</time></trkpt><trkpt lat="45.6798517" lon="9.7937317"><ele>229.0</ele><time>2026-04-26T07:48:58.056Z</time></trkpt><trkpt lat="45.67975" lon="9.7939383"><ele>229.0</ele><time>2026-04-26T07:48:59.057Z</time></trkpt><trkpt lat="45.679645" lon="9.7941433"><ele>229.0</ele><time>2026-04-26T07:49:00.057Z</time></trkpt><trkpt lat="45.6795417" lon="9.7943467"><ele>229.0</ele><time>2026-04-26T07:49:01.057Z</time></trkpt><trkpt lat="45.67944" lon="9.79455"><ele>229.0</ele><time>2026-04-26T07:49:02.057Z</time></trkpt><trkpt lat="45.67934" lon="9.794755"><ele>229.0</ele><time>2026-04-26T07:49:03.057Z</time></trkpt><trkpt lat="45.6792383" lon="9.7949583"><ele>229.0</ele><time>2026-04-26T07:49:04.057Z</time></trkpt><trkpt lat="45.679135" lon="9.7951633"><ele>229.66666666666666</ele><time>2026-04-26T07:49:05.056Z</time></trkpt><trkpt lat="45.679035" lon="9.7953683"><ele>230.33333333333331</ele><time>2026-04-26T07:49:06.057Z</time></trkpt><trkpt lat="45.6789367" lon="9.7955683"><ele>231.0</ele><time>2026-04-26T07:49:07.057Z</time></trkpt><trkpt lat="45.6788417" lon="9.79576"><ele>231.0</ele><time>2026-04-26T07:49:08.058Z</time></trkpt><trkpt lat="45.6787517" lon="9.7959417"><ele>231.0</ele><time>2026-04-26T07:49:09.057Z</time></trkpt><trkpt lat="45.678665" lon="9.796115"><ele>231.0</ele><time>2026-04-26T07:49:10.057Z</time></trkpt><trkpt lat="45.6785817" lon="9.7962817"><ele>231.0</ele><time>2026-04-26T07:49:11.057Z</time></trkpt><trkpt lat="45.6785067" lon="9.79644"><ele>230.66666666666666</ele><time>2026-04-26T07:49:12.057Z</time></trkpt><trkpt lat="45.6784417" lon="9.79658"><ele>230.33333333333331</ele><time>2026-04-26T07:49:13.057Z</time></trkpt><trkpt lat="45.67839" lon="9.79669"><ele>230.0</ele><time>2026-04-26T07:49:14.057Z</time></trkpt><trkpt lat="45.6783383" lon="9.7967717"><ele>229.66666666666666</ele><time>2026-04-26T07:49:15.057Z</time></trkpt><trkpt lat="45.6782767" lon="9.7968333"><ele>229.33333333333331</ele><time>2026-04-26T07:49:17.055Z</time></trkpt><trkpt lat="45.678215" lon="9.796815"><ele>229.0</ele><time>2026-04-26T07:49:20.055Z</time></trkpt><trkpt lat="45.678095" lon="9.7967983"><ele>229.0</ele><time>2026-04-26T07:49:22.055Z</time></trkpt><trkpt lat="45.678025" lon="9.79679"><ele>228.99999999999997</ele><time>2026-04-26T07:49:23.055Z</time></trkpt><trkpt lat="45.6779467" lon="9.7968133"><ele>228.99999999999997</ele><time>2026-04-26T07:49:24.055Z</time></trkpt><trkpt lat="45.6778517" lon="9.7968733"><ele>229.0</ele><time>2026-04-26T07:49:25.057Z</time></trkpt><trkpt lat="45.6777617" lon="9.7969933"><ele>229.0</ele><time>2026-04-26T07:49:26.058Z</time></trkpt><trkpt lat="45.6777217" lon="9.7971833"><ele>229.25</ele><time>2026-04-26T07:49:27.057Z</time></trkpt><trkpt lat="45.6777083" lon="9.7973767"><ele>229.5</ele><time>2026-04-26T07:49:28.056Z</time></trkpt><trkpt lat="45.6776867" lon="9.7975867"><ele>229.75</ele><time>2026-04-26T07:49:29.057Z</time></trkpt><trkpt lat="45.67765" lon="9.79779"><ele>230.0</ele><time>2026-04-26T07:49:30.057Z</time></trkpt><trkpt lat="45.6776017" lon="9.7980033"><ele>230.0</ele><time>2026-04-26T07:49:31.054Z</time></trkpt><trkpt lat="45.677545" lon="9.7982217"><ele>230.0</ele><time>2026-04-26T07:49:32.057Z</time></trkpt><trkpt lat="45.67748" lon="9.7984417"><ele>230.0</ele><time>2026-04-26T07:49:33.057Z</time></trkpt><trkpt lat="45.6774033" lon="9.7986567"><ele>229.33333333333334</ele><time>2026-04-26T07:49:34.057Z</time></trkpt><trkpt lat="45.6773133" lon="9.7988683"><ele>228.66666666666669</ele><time>2026-04-26T07:49:35.058Z</time></trkpt><trkpt lat="45.6772083" lon="9.7990833"><ele>228.0</ele><time>2026-04-26T07:49:36.057Z</time></trkpt><trkpt lat="45.6771033" lon="9.7993033"><ele>228.0</ele><time>2026-04-26T07:49:37.057Z</time></trkpt><trkpt lat="45.676995" lon="9.7995267"><ele>228.0</ele><time>2026-04-26T07:49:38.057Z</time></trkpt><trkpt lat="45.67689" lon="9.79974"><ele>228.0</ele><time>2026-04-26T07:49:39.057Z</time></trkpt><trkpt lat="45.6767917" lon="9.7999417"><ele>228.0</ele><time>2026-04-26T07:49:40.057Z</time></trkpt><trkpt lat="45.6767" lon="9.80013"><ele>228.0</ele><time>2026-04-26T07:49:41.057Z</time></trkpt><trkpt lat="45.6766117" lon="9.8003167"><ele>228.0</ele><time>2026-04-26T07:49:42.058Z</time></trkpt><trkpt lat="45.67652" lon="9.8004983"><ele>228.0</ele><time>2026-04-26T07:49:43.057Z</time></trkpt><trkpt lat="45.676425" lon="9.8006767"><ele>228.0</ele><time>2026-04-26T07:49:44.057Z</time></trkpt><trkpt lat="45.6763267" lon="9.8008633"><ele>228.0</ele><time>2026-04-26T07:49:45.057Z</time></trkpt><trkpt lat="45.6762317" lon="9.80106"><ele>228.0</ele><time>2026-04-26T07:49:46.057Z</time></trkpt><trkpt lat="45.6761383" lon="9.801255"><ele>228.0</ele><time>2026-04-26T07:49:47.057Z</time></trkpt><trkpt lat="45.6760417" lon="9.80145"><ele>228.0</ele><time>2026-04-26T07:49:48.054Z</time></trkpt><trkpt lat="45.6759467" lon="9.8016417"><ele>228.0</ele><time>2026-04-26T07:49:49.058Z</time></trkpt><trkpt lat="45.67585" lon="9.8018317"><ele>228.0</ele><time>2026-04-26T07:49:50.057Z</time></trkpt><trkpt lat="45.6757533" lon="9.8020183"><ele>228.0</ele><time>2026-04-26T07:49:51.058Z</time></trkpt><trkpt lat="45.6756633" lon="9.802205"><ele>228.0</ele><time>2026-04-26T07:49:52.057Z</time></trkpt><trkpt lat="45.6755783" lon="9.8023967"><ele>228.0</ele><time>2026-04-26T07:49:53.057Z</time></trkpt><trkpt lat="45.6755" lon="9.8026017"><ele>228.0</ele><time>2026-04-26T07:49:54.056Z</time></trkpt><trkpt lat="45.675425" lon="9.8028183"><ele>228.0</ele><time>2026-04-26T07:49:55.057Z</time></trkpt><trkpt lat="45.6753533" lon="9.8030417"><ele>228.0</ele><time>2026-04-26T07:49:56.057Z</time></trkpt><trkpt lat="45.675285" lon="9.803275"><ele>228.0</ele><time>2026-04-26T07:49:57.058Z</time></trkpt><trkpt lat="45.6752217" lon="9.8035033"><ele>228.0</ele><time>2026-04-26T07:49:58.057Z</time></trkpt><trkpt lat="45.67516" lon="9.8037217"><ele>228.0</ele><time>2026-04-26T07:49:59.057Z</time></trkpt><trkpt lat="45.6751033" lon="9.8039333"><ele>228.0</ele><time>2026-04-26T07:50:00.057Z</time></trkpt><trkpt lat="45.6750433" lon="9.804145"><ele>228.0</ele><time>2026-04-26T07:50:01.057Z</time></trkpt><trkpt lat="45.6749883" lon="9.80436"><ele>228.0</ele><time>2026-04-26T07:50:02.057Z</time></trkpt><trkpt lat="45.674935" lon="9.8045633"><ele>228.0</ele><time>2026-04-26T07:50:03.058Z</time></trkpt><trkpt lat="45.6748883" lon="9.8047483"><ele>228.0</ele><time>2026-04-26T07:50:04.057Z</time></trkpt><trkpt lat="45.6748417" lon="9.80492"><ele>228.0</ele><time>2026-04-26T07:50:05.057Z</time></trkpt><trkpt lat="45.6747983" lon="9.8050783"><ele>228.0</ele><time>2026-04-26T07:50:06.057Z</time></trkpt><trkpt lat="45.6747567" lon="9.8052267"><ele>228.0</ele><time>2026-04-26T07:50:07.057Z</time></trkpt><trkpt lat="45.6747167" lon="9.8053683"><ele>228.0</ele><time>2026-04-26T07:50:08.058Z</time></trkpt><trkpt lat="45.6746733" lon="9.8055033"><ele>228.0</ele><time>2026-04-26T07:50:09.057Z</time></trkpt><trkpt lat="45.6746317" lon="9.8056333"><ele>228.16666666666666</ele><time>2026-04-26T07:50:10.058Z</time></trkpt><trkpt lat="45.67459" lon="9.8057533"><ele>228.33333333333331</ele><time>2026-04-26T07:50:11.054Z</time></trkpt><trkpt lat="45.6745467" lon="9.805855"><ele>228.5</ele><time>2026-04-26T07:50:12.057Z</time></trkpt><trkpt lat="45.6745" lon="9.805935"><ele>228.66666666666666</ele><time>2026-04-26T07:50:13.062Z</time></trkpt><trkpt lat="45.6744483" lon="9.8060017"><ele>228.83333333333331</ele><time>2026-04-26T07:50:14.057Z</time></trkpt><trkpt lat="45.6743917" lon="9.80606"><ele>229.0</ele><time>2026-04-26T07:50:15.057Z</time></trkpt><trkpt lat="45.674335" lon="9.806135"><ele>229.0</ele><time>2026-04-26T07:50:16.057Z</time></trkpt><trkpt lat="45.674285" lon="9.8062367"><ele>228.99999999999997</ele><time>2026-04-26T07:50:17.058Z</time></trkpt><trkpt lat="45.6742417" lon="9.8063567"><ele>228.99999999999997</ele><time>2026-04-26T07:50:18.053Z</time></trkpt><trkpt lat="45.6741967" lon="9.8064933"><ele>229.0</ele><time>2026-04-26T07:50:19.057Z</time></trkpt><trkpt lat="45.6741467" lon="9.8066233"><ele>229.0</ele><time>2026-04-26T07:50:20.057Z</time></trkpt><trkpt lat="45.674095" lon="9.8067417"><ele>229.2</ele><time>2026-04-26T07:50:21.057Z</time></trkpt><trkpt lat="45.6740333" lon="9.8068467"><ele>229.39999999999998</ele><time>2026-04-26T07:50:22.057Z</time></trkpt><trkpt lat="45.6739583" lon="9.8069467"><ele>229.6</ele><time>2026-04-26T07:50:23.057Z</time></trkpt><trkpt lat="45.6738767" lon="9.807055"><ele>229.8</ele><time>2026-04-26T07:50:24.059Z</time></trkpt><trkpt lat="45.6737883" lon="9.807175"><ele>230.0</ele><time>2026-04-26T07:50:25.057Z</time></trkpt><trkpt lat="45.6736933" lon="9.8073083"><ele>230.0</ele><time>2026-04-26T07:50:26.058Z</time></trkpt><trkpt lat="45.6735967" lon="9.8074567"><ele>230.0</ele><time>2026-04-26T07:50:27.057Z</time></trkpt><trkpt lat="45.6734933" lon="9.807615"><ele>230.0</ele><time>2026-04-26T07:50:28.057Z</time></trkpt><trkpt lat="45.6733767" lon="9.8077883"><ele>230.0</ele><time>2026-04-26T07:50:29.057Z</time></trkpt><trkpt lat="45.6732483" lon="9.8079683"><ele>230.0</ele><time>2026-04-26T07:50:30.057Z</time></trkpt><trkpt lat="45.673115" lon="9.80815"><ele>230.0</ele><time>2026-04-26T07:50:31.057Z</time></trkpt><trkpt lat="45.672975" lon="9.8083333"><ele>230.33333333333334</ele><time>2026-04-26T07:50:32.054Z</time></trkpt><trkpt lat="45.6728283" lon="9.8085233"><ele>230.66666666666669</ele><time>2026-04-26T07:50:33.057Z</time></trkpt><trkpt lat="45.67268" lon="9.8087133"><ele>231.0</ele><time>2026-04-26T07:50:34.053Z</time></trkpt><trkpt lat="45.672535" lon="9.8089033"><ele>231.33333333333331</ele><time>2026-04-26T07:50:35.057Z</time></trkpt><trkpt lat="45.672395" lon="9.8090867"><ele>231.66666666666666</ele><time>2026-04-26T07:50:36.058Z</time></trkpt><trkpt lat="45.6722617" lon="9.8092617"><ele>232.0</ele><time>2026-04-26T07:50:37.057Z</time></trkpt><trkpt lat="45.672135" lon="9.8094283"><ele>232.0</ele><time>2026-04-26T07:50:38.057Z</time></trkpt><trkpt lat="45.672015" lon="9.8095883"><ele>232.0</ele><time>2026-04-26T07:50:39.057Z</time></trkpt><trkpt lat="45.6718967" lon="9.8097467"><ele>232.0</ele><time>2026-04-26T07:50:40.057Z</time></trkpt><trkpt lat="45.6717817" lon="9.8099033"><ele>231.5</ele><time>2026-04-26T07:50:41.055Z</time></trkpt><trkpt lat="45.6716717" lon="9.8100567"><ele>231.0</ele><time>2026-04-26T07:50:42.056Z</time></trkpt><trkpt lat="45.6715683" lon="9.8102033"><ele>230.5</ele><time>2026-04-26T07:50:43.057Z</time></trkpt><trkpt lat="45.67147" lon="9.81034"><ele>230.0</ele><time>2026-04-26T07:50:44.058Z</time></trkpt><trkpt lat="45.671375" lon="9.8104667"><ele>229.8</ele><time>2026-04-26T07:50:45.057Z</time></trkpt><trkpt lat="45.6712883" lon="9.8105917"><ele>229.6</ele><time>2026-04-26T07:50:46.057Z</time></trkpt><trkpt lat="45.6712117" lon="9.8107033"><ele>229.39999999999998</ele><time>2026-04-26T07:50:47.057Z</time></trkpt><trkpt lat="45.671145" lon="9.8108033"><ele>229.2</ele><time>2026-04-26T07:50:48.053Z</time></trkpt><trkpt lat="45.6710867" lon="9.8108833"><ele>229.0</ele><time>2026-04-26T07:50:49.054Z</time></trkpt><trkpt lat="45.67104" lon="9.8109467"><ele>229.2</ele><time>2026-04-26T07:50:50.054Z</time></trkpt><trkpt lat="45.6709767" lon="9.8110217"><ele>229.39999999999998</ele><time>2026-04-26T07:50:52.054Z</time></trkpt><trkpt lat="45.6709167" lon="9.8110633"><ele>229.6</ele><time>2026-04-26T07:50:55.055Z</time></trkpt><trkpt lat="45.670845" lon="9.8111517"><ele>229.8</ele><time>2026-04-26T07:51:07.058Z</time></trkpt><trkpt lat="45.670775" lon="9.81125"><ele>230.0</ele><time>2026-04-26T07:51:08.057Z</time></trkpt><trkpt lat="45.67069" lon="9.8113617"><ele>230.0</ele><time>2026-04-26T07:51:09.057Z</time></trkpt><trkpt lat="45.6705933" lon="9.8114933"><ele>230.0</ele><time>2026-04-26T07:51:10.058Z</time></trkpt><trkpt lat="45.6704867" lon="9.8116333"><ele>230.0</ele><time>2026-04-26T07:51:11.057Z</time></trkpt><trkpt lat="45.6703717" lon="9.811785"><ele>230.0</ele><time>2026-04-26T07:51:12.058Z</time></trkpt><trkpt lat="45.6702467" lon="9.8119483"><ele>229.33333333333334</ele><time>2026-04-26T07:51:13.056Z</time></trkpt><trkpt lat="45.6701167" lon="9.8121217"><ele>228.66666666666669</ele><time>2026-04-26T07:51:14.057Z</time></trkpt><trkpt lat="45.6699817" lon="9.8123017"><ele>228.0</ele><time>2026-04-26T07:51:15.056Z</time></trkpt><trkpt lat="45.6698433" lon="9.81249"><ele>227.33333333333331</ele><time>2026-04-26T07:51:16.056Z</time></trkpt><trkpt lat="45.6697017" lon="9.812685"><ele>226.66666666666666</ele><time>2026-04-26T07:51:17.058Z</time></trkpt><trkpt lat="45.6695567" lon="9.8128867"><ele>226.0</ele><time>2026-04-26T07:51:18.054Z</time></trkpt><trkpt lat="45.66941" lon="9.8130917"><ele>225.66666666666666</ele><time>2026-04-26T07:51:19.054Z</time></trkpt><trkpt lat="45.6692633" lon="9.8132983"><ele>225.33333333333331</ele><time>2026-04-26T07:51:20.055Z</time></trkpt><trkpt lat="45.6691167" lon="9.8135"><ele>225.0</ele><time>2026-04-26T07:51:21.053Z</time></trkpt><trkpt lat="45.668975" lon="9.8136917"><ele>225.0</ele><time>2026-04-26T07:51:22.053Z</time></trkpt><trkpt lat="45.6688433" lon="9.8138733"><ele>225.0</ele><time>2026-04-26T07:51:23.054Z</time></trkpt><trkpt lat="45.66872" lon="9.8140483"><ele>225.0</ele><time>2026-04-26T07:51:24.053Z</time></trkpt><trkpt lat="45.6686083" lon="9.8142083"><ele>225.0</ele><time>2026-04-26T07:51:25.055Z</time></trkpt><trkpt lat="45.668505" lon="9.8143617"><ele>225.0</ele><time>2026-04-26T07:51:26.054Z</time></trkpt><trkpt lat="45.6684117" lon="9.8145083"><ele>225.0</ele><time>2026-04-26T07:51:27.053Z</time></trkpt><trkpt lat="45.6683283" lon="9.8146517"><ele>225.0</ele><time>2026-04-26T07:51:28.056Z</time></trkpt><trkpt lat="45.6682533" lon="9.8147783"><ele>225.0</ele><time>2026-04-26T07:51:29.054Z</time></trkpt><trkpt lat="45.6681767" lon="9.8148867"><ele>225.0</ele><time>2026-04-26T07:51:30.057Z</time></trkpt><trkpt lat="45.6680883" lon="9.8149717"><ele>225.0</ele><time>2026-04-26T07:51:31.057Z</time></trkpt><trkpt lat="45.667995" lon="9.8150433"><ele>225.0</ele><time>2026-04-26T07:51:32.055Z</time></trkpt><trkpt lat="45.6679083" lon="9.8151267"><ele>225.0</ele><time>2026-04-26T07:51:33.053Z</time></trkpt><trkpt lat="45.6678417" lon="9.8152417"><ele>225.0</ele><time>2026-04-26T07:51:34.057Z</time></trkpt><trkpt lat="45.6677983" lon="9.8153783"><ele>225.0</ele><time>2026-04-26T07:51:35.057Z</time></trkpt><trkpt lat="45.6677567" lon="9.81551"><ele>225.0</ele><time>2026-04-26T07:51:36.057Z</time></trkpt><trkpt lat="45.6677" lon="9.8156217"><ele>225.0</ele><time>2026-04-26T07:51:37.055Z</time></trkpt><trkpt lat="45.6676267" lon="9.815725"><ele>225.0</ele><time>2026-04-26T07:51:38.055Z</time></trkpt><trkpt lat="45.66754" lon="9.8158433"><ele>225.66666666666669</ele><time>2026-04-26T07:51:39.053Z</time></trkpt><trkpt lat="45.6674417" lon="9.815985"><ele>226.33333333333334</ele><time>2026-04-26T07:51:40.056Z</time></trkpt><trkpt lat="45.6673383" lon="9.8161433"><ele>227.0</ele><time>2026-04-26T07:51:41.056Z</time></trkpt><trkpt lat="45.6672267" lon="9.8163133"><ele>227.0</ele><time>2026-04-26T07:51:42.056Z</time></trkpt><trkpt lat="45.66711" lon="9.8164983"><ele>227.0</ele><time>2026-04-26T07:51:43.056Z</time></trkpt><trkpt lat="45.6669917" lon="9.8166867"><ele>227.0</ele><time>2026-04-26T07:51:44.056Z</time></trkpt><trkpt lat="45.6668717" lon="9.816875"><ele>225.66666666666669</ele><time>2026-04-26T07:51:45.057Z</time></trkpt><trkpt lat="45.6667483" lon="9.817065"><ele>224.33333333333331</ele><time>2026-04-26T07:51:46.056Z</time></trkpt><trkpt lat="45.6666267" lon="9.8172567"><ele>223.0</ele><time>2026-04-26T07:51:47.056Z</time></trkpt><trkpt lat="45.6665067" lon="9.81745"><ele>223.0</ele><time>2026-04-26T07:51:48.052Z</time></trkpt><trkpt lat="45.66639" lon="9.8176433"><ele>223.0</ele><time>2026-04-26T07:51:49.053Z</time></trkpt><trkpt lat="45.66628" lon="9.8178267"><ele>223.0</ele><time>2026-04-26T07:51:50.054Z</time></trkpt><trkpt lat="45.6661733" lon="9.8180017"><ele>223.0</ele><time>2026-04-26T07:51:51.053Z</time></trkpt><trkpt lat="45.6660767" lon="9.8181583"><ele>223.0</ele><time>2026-04-26T07:51:52.055Z</time></trkpt><trkpt lat="45.6659883" lon="9.8182967"><ele>223.0</ele><time>2026-04-26T07:51:53.053Z</time></trkpt><trkpt lat="45.6659067" lon="9.8184183"><ele>223.0</ele><time>2026-04-26T07:51:54.054Z</time></trkpt><trkpt lat="45.66583" lon="9.8185283"><ele>223.33333333333331</ele><time>2026-04-26T07:51:55.053Z</time></trkpt><trkpt lat="45.6657633" lon="9.818625"><ele>223.66666666666666</ele><time>2026-04-26T07:51:56.053Z</time></trkpt><trkpt lat="45.6657083" lon="9.8187067"><ele>224.0</ele><time>2026-04-26T07:51:57.053Z</time></trkpt><trkpt lat="45.6656633" lon="9.8187767"><ele>224.33333333333331</ele><time>2026-04-26T07:51:58.053Z</time></trkpt><trkpt lat="45.66561" lon="9.81887"><ele>224.66666666666666</ele><time>2026-04-26T07:52:00.056Z</time></trkpt><trkpt lat="45.6655517" lon="9.818975"><ele>225.0</ele><time>2026-04-26T07:52:11.06Z</time></trkpt><trkpt lat="45.6655067" lon="9.8190633"><ele>225.0</ele><time>2026-04-26T07:52:12.056Z</time></trkpt><trkpt lat="45.6654383" lon="9.8191817"><ele>225.0</ele><time>2026-04-26T07:52:13.055Z</time></trkpt><trkpt lat="45.66536" lon="9.81932"><ele>225.0</ele><time>2026-04-26T07:52:14.056Z</time></trkpt><trkpt lat="45.6652667" lon="9.819475"><ele>225.0</ele><time>2026-04-26T07:52:15.056Z</time></trkpt><trkpt lat="45.665165" lon="9.8196333"><ele>224.66666666666669</ele><time>2026-04-26T07:52:16.056Z</time></trkpt><trkpt lat="45.6650567" lon="9.819805"><ele>224.33333333333334</ele><time>2026-04-26T07:52:17.055Z</time></trkpt><trkpt lat="45.664945" lon="9.81999"><ele>224.0</ele><time>2026-04-26T07:52:18.053Z</time></trkpt><trkpt lat="45.6648317" lon="9.8201867"><ele>224.0</ele><time>2026-04-26T07:52:19.053Z</time></trkpt><trkpt lat="45.664715" lon="9.8203883"><ele>224.0</ele><time>2026-04-26T07:52:20.053Z</time></trkpt><trkpt lat="45.66459" lon="9.82059"><ele>224.0</ele><time>2026-04-26T07:52:21.052Z</time></trkpt><trkpt lat="45.66446" lon="9.8207983"><ele>224.0</ele><time>2026-04-26T07:52:22.052Z</time></trkpt><trkpt lat="45.6643233" lon="9.82101"><ele>224.0</ele><time>2026-04-26T07:52:23.054Z</time></trkpt><trkpt lat="45.6641833" lon="9.8212333"><ele>224.0</ele><time>2026-04-26T07:52:24.053Z</time></trkpt><trkpt lat="45.6640433" lon="9.8214567"><ele>224.0</ele><time>2026-04-26T07:52:25.053Z</time></trkpt><trkpt lat="45.6639133" lon="9.8216767"><ele>224.0</ele><time>2026-04-26T07:52:26.054Z</time></trkpt><trkpt lat="45.66379" lon="9.8218917"><ele>224.0</ele><time>2026-04-26T07:52:27.053Z</time></trkpt><trkpt lat="45.6636733" lon="9.8220983"><ele>223.66666666666669</ele><time>2026-04-26T07:52:28.053Z</time></trkpt><trkpt lat="45.6635533" lon="9.8222983"><ele>223.33333333333331</ele><time>2026-04-26T07:52:29.056Z</time></trkpt><trkpt lat="45.6634283" lon="9.8224983"><ele>223.0</ele><time>2026-04-26T07:52:30.057Z</time></trkpt><trkpt lat="45.663305" lon="9.8226917"><ele>223.0</ele><time>2026-04-26T07:52:31.053Z</time></trkpt><trkpt lat="45.66318" lon="9.822885"><ele>223.0</ele><time>2026-04-26T07:52:32.058Z</time></trkpt><trkpt lat="45.6630567" lon="9.8230817"><ele>223.0</ele><time>2026-04-26T07:52:33.056Z</time></trkpt><trkpt lat="45.6629283" lon="9.8232767"><ele>223.0</ele><time>2026-04-26T07:52:34.056Z</time></trkpt><trkpt lat="45.6627967" lon="9.823475"><ele>223.0</ele><time>2026-04-26T07:52:35.057Z</time></trkpt><trkpt lat="45.6626617" lon="9.823675"><ele>223.0</ele><time>2026-04-26T07:52:36.056Z</time></trkpt><trkpt lat="45.6625233" lon="9.823875"><ele>224.66666666666666</ele><time>2026-04-26T07:52:37.056Z</time></trkpt><trkpt lat="45.66238" lon="9.8240767"><ele>226.33333333333331</ele><time>2026-04-26T07:52:38.056Z</time></trkpt><trkpt lat="45.6622367" lon="9.8242817"><ele>228.0</ele><time>2026-04-26T07:52:39.057Z</time></trkpt><trkpt lat="45.66209" lon="9.8244867"><ele>227.66666666666669</ele><time>2026-04-26T07:52:40.056Z</time></trkpt><trkpt lat="45.6619433" lon="9.82469"><ele>227.33333333333334</ele><time>2026-04-26T07:52:41.057Z</time></trkpt><trkpt lat="45.6617967" lon="9.8248967"><ele>227.0</ele><time>2026-04-26T07:52:42.056Z</time></trkpt><trkpt lat="45.6616467" lon="9.8251017"><ele>228.0</ele><time>2026-04-26T07:52:43.056Z</time></trkpt><trkpt lat="45.6614967" lon="9.825305"><ele>229.0</ele><time>2026-04-26T07:52:44.056Z</time></trkpt><trkpt lat="45.661345" lon="9.8255083"><ele>230.0</ele><time>2026-04-26T07:52:45.056Z</time></trkpt><trkpt lat="45.661195" lon="9.8257117"><ele>229.66666666666669</ele><time>2026-04-26T07:52:46.056Z</time></trkpt><trkpt lat="45.661045" lon="9.8259167"><ele>229.33333333333331</ele><time>2026-04-26T07:52:47.053Z</time></trkpt><trkpt lat="45.6608967" lon="9.8261183"><ele>229.0</ele><time>2026-04-26T07:52:48.053Z</time></trkpt><trkpt lat="45.6607517" lon="9.8263217"><ele>229.0</ele><time>2026-04-26T07:52:49.053Z</time></trkpt><trkpt lat="45.6606083" lon="9.8265217"><ele>229.0</ele><time>2026-04-26T07:52:50.053Z</time></trkpt><trkpt lat="45.660465" lon="9.82672"><ele>229.0</ele><time>2026-04-26T07:52:51.056Z</time></trkpt><trkpt lat="45.66032" lon="9.8269183"><ele>229.0</ele><time>2026-04-26T07:52:52.054Z</time></trkpt><trkpt lat="45.6601767" lon="9.827115"><ele>229.0</ele><time>2026-04-26T07:52:53.054Z</time></trkpt><trkpt lat="45.6600367" lon="9.82731"><ele>229.0</ele><time>2026-04-26T07:52:54.054Z</time></trkpt><trkpt lat="45.6599" lon="9.8274967"><ele>228.66666666666666</ele><time>2026-04-26T07:52:55.053Z</time></trkpt><trkpt lat="45.6597683" lon="9.8276817"><ele>228.33333333333331</ele><time>2026-04-26T07:52:56.053Z</time></trkpt><trkpt lat="45.65964" lon="9.82787"><ele>228.0</ele><time>2026-04-26T07:52:57.054Z</time></trkpt><trkpt lat="45.65951" lon="9.8280567"><ele>227.66666666666669</ele><time>2026-04-26T07:52:58.053Z</time></trkpt><trkpt lat="45.6593783" lon="9.8282383"><ele>227.33333333333334</ele><time>2026-04-26T07:52:59.056Z</time></trkpt><trkpt lat="45.6592517" lon="9.828415"><ele>227.0</ele><time>2026-04-26T07:53:00.056Z</time></trkpt><trkpt lat="45.659125" lon="9.8285767"><ele>227.0</ele><time>2026-04-26T07:53:01.056Z</time></trkpt><trkpt lat="45.6590067" lon="9.8287283"><ele>227.0</ele><time>2026-04-26T07:53:02.056Z</time></trkpt><trkpt lat="45.6589033" lon="9.8288667"><ele>227.0</ele><time>2026-04-26T07:53:03.056Z</time></trkpt><trkpt lat="45.6588217" lon="9.8289817"><ele>227.0</ele><time>2026-04-26T07:53:04.056Z</time></trkpt><trkpt lat="45.658755" lon="9.8290717"><ele>227.0</ele><time>2026-04-26T07:53:05.056Z</time></trkpt><trkpt lat="45.6586967" lon="9.829135"><ele>227.0</ele><time>2026-04-26T07:53:06.056Z</time></trkpt><trkpt lat="45.65859" lon="9.8291767"><ele>227.0</ele><time>2026-04-26T07:53:08.056Z</time></trkpt><trkpt lat="45.6584967" lon="9.8292067"><ele>227.0</ele><time>2026-04-26T07:53:10.056Z</time></trkpt><trkpt lat="45.6584167" lon="9.8293033"><ele>227.0</ele><time>2026-04-26T07:53:12.056Z</time></trkpt><trkpt lat="45.6583433" lon="9.8294117"><ele>227.2</ele><time>2026-04-26T07:53:14.056Z</time></trkpt><trkpt lat="45.658275" lon="9.829505"><ele>227.39999999999998</ele><time>2026-04-26T07:53:16.056Z</time></trkpt><trkpt lat="45.6582283" lon="9.8295767"><ele>227.60000000000002</ele><time>2026-04-26T07:53:18.053Z</time></trkpt><trkpt lat="45.6581783" lon="9.8296517"><ele>227.8</ele><time>2026-04-26T07:53:21.053Z</time></trkpt><trkpt lat="45.6580871" lon="9.829498"><ele>228.0</ele><time>2026-04-26T08:18:03.891Z</time></trkpt><trkpt lat="45.658205" lon="9.82972"><ele>228.0</ele><time>2026-04-26T08:18:10.325Z</time></trkpt><trkpt lat="45.65813" lon="9.8297117"><ele>228.0</ele><time>2026-04-26T08:18:14.321Z</time></trkpt><trkpt lat="45.65807" lon="9.829745"><ele>228.0</ele><time>2026-04-26T08:18:26.054Z</time></trkpt><trkpt lat="45.6581167" lon="9.8296083"><ele>228.0</ele><time>2026-04-26T08:19:19.054Z</time></trkpt><trkpt lat="45.6580683" lon="9.829685"><ele>228.0</ele><time>2026-04-26T08:19:23.057Z</time></trkpt><trkpt lat="45.6580283" lon="9.8297917"><ele>228.0</ele><time>2026-04-26T08:19:25.057Z</time></trkpt><trkpt lat="45.6579783" lon="9.8299317"><ele>228.0</ele><time>2026-04-26T08:19:28.053Z</time></trkpt><trkpt lat="45.6578967" lon="9.8300583"><ele>228.0</ele><time>2026-04-26T08:19:30.054Z</time></trkpt><trkpt lat="45.6578517" lon="9.8301217"><ele>228.0</ele><time>2026-04-26T08:19:31.054Z</time></trkpt><trkpt lat="45.657805" lon="9.8301867"><ele>228.0</ele><time>2026-04-26T08:19:32.054Z</time></trkpt><trkpt lat="45.6577583" lon="9.8302633"><ele>228.0</ele><time>2026-04-26T08:19:33.054Z</time></trkpt><trkpt lat="45.657715" lon="9.8303417"><ele>228.0</ele><time>2026-04-26T08:19:34.055Z</time></trkpt><trkpt lat="45.6576733" lon="9.83042"><ele>228.0</ele><time>2026-04-26T08:19:35.054Z</time></trkpt><trkpt lat="45.6576333" lon="9.8305"><ele>228.0</ele><time>2026-04-26T08:19:36.054Z</time></trkpt><trkpt lat="45.65759" lon="9.8305883"><ele>228.0</ele><time>2026-04-26T08:19:37.054Z</time></trkpt><trkpt lat="45.6575417" lon="9.8306867"><ele>228.0</ele><time>2026-04-26T08:19:38.055Z</time></trkpt><trkpt lat="45.6574833" lon="9.8307883"><ele>228.0</ele><time>2026-04-26T08:19:39.055Z</time></trkpt><trkpt lat="45.65742" lon="9.8308933"><ele>228.0</ele><time>2026-04-26T08:19:40.053Z</time></trkpt><trkpt lat="45.6573483" lon="9.831"><ele>228.0</ele><time>2026-04-26T08:19:41.054Z</time></trkpt><trkpt lat="45.6572733" lon="9.8311133"><ele>228.0</ele><time>2026-04-26T08:19:42.054Z</time></trkpt><trkpt lat="45.657205" lon="9.8312283"><ele>228.0</ele><time>2026-04-26T08:19:43.055Z</time></trkpt><trkpt lat="45.657135" lon="9.8313367"><ele>228.0</ele><time>2026-04-26T08:19:44.054Z</time></trkpt><trkpt lat="45.6570683" lon="9.8314367"><ele>228.0</ele><time>2026-04-26T08:19:45.057Z</time></trkpt><trkpt lat="45.6570067" lon="9.83153"><ele>227.66666666666666</ele><time>2026-04-26T08:19:46.056Z</time></trkpt><trkpt lat="45.6569417" lon="9.83162"><ele>227.33333333333331</ele><time>2026-04-26T08:19:47.057Z</time></trkpt><trkpt lat="45.6568783" lon="9.8317"><ele>227.0</ele><time>2026-04-26T08:19:48.057Z</time></trkpt><trkpt lat="45.656815" lon="9.83178"><ele>226.66666666666666</ele><time>2026-04-26T08:19:49.057Z</time></trkpt><trkpt lat="45.65675" lon="9.8318533"><ele>226.33333333333331</ele><time>2026-04-26T08:19:50.057Z</time></trkpt><trkpt lat="45.6566867" lon="9.8319217"><ele>226.0</ele><time>2026-04-26T08:19:51.057Z</time></trkpt><trkpt lat="45.6566267" lon="9.8319883"><ele>226.0</ele><time>2026-04-26T08:19:52.057Z</time></trkpt><trkpt lat="45.656575" lon="9.8320583"><ele>226.00000000000003</ele><time>2026-04-26T08:19:53.057Z</time></trkpt><trkpt lat="45.6564983" lon="9.8321683"><ele>226.00000000000003</ele><time>2026-04-26T08:19:55.056Z</time></trkpt><trkpt lat="45.6564483" lon="9.8322417"><ele>226.0</ele><time>2026-04-26T08:20:03.057Z</time></trkpt><trkpt lat="45.6563633" lon="9.8323633"><ele>226.0</ele><time>2026-04-26T08:20:05.056Z</time></trkpt><trkpt lat="45.6562967" lon="9.83246"><ele>226.0</ele><time>2026-04-26T08:20:06.057Z</time></trkpt><trkpt lat="45.6562267" lon="9.832565"><ele>226.00000000000003</ele><time>2026-04-26T08:20:07.056Z</time></trkpt><trkpt lat="45.6561567" lon="9.832675"><ele>226.00000000000003</ele><time>2026-04-26T08:20:08.057Z</time></trkpt><trkpt lat="45.6560817" lon="9.8327933"><ele>226.0</ele><time>2026-04-26T08:20:09.057Z</time></trkpt><trkpt lat="45.6560017" lon="9.8329167"><ele>226.0</ele><time>2026-04-26T08:20:10.057Z</time></trkpt><trkpt lat="45.6559217" lon="9.8330467"><ele>226.0</ele><time>2026-04-26T08:20:11.057Z</time></trkpt><trkpt lat="45.655845" lon="9.8331783"><ele>226.0</ele><time>2026-04-26T08:20:12.053Z</time></trkpt><trkpt lat="45.65577" lon="9.8333167"><ele>226.0</ele><time>2026-04-26T08:20:13.055Z</time></trkpt><trkpt lat="45.655695" lon="9.83346"><ele>226.0</ele><time>2026-04-26T08:20:14.054Z</time></trkpt><trkpt lat="45.6556217" lon="9.8336083"><ele>226.0</ele><time>2026-04-26T08:20:15.054Z</time></trkpt><trkpt lat="45.6555483" lon="9.8337567"><ele>226.0</ele><time>2026-04-26T08:20:16.054Z</time></trkpt><trkpt lat="45.65548" lon="9.8339133"><ele>226.0</ele><time>2026-04-26T08:20:17.054Z</time></trkpt><trkpt lat="45.6554133" lon="9.8340783"><ele>226.0</ele><time>2026-04-26T08:20:18.054Z</time></trkpt><trkpt lat="45.6553467" lon="9.8342533"><ele>225.0</ele><time>2026-04-26T08:20:19.054Z</time></trkpt><trkpt lat="45.6552767" lon="9.8344383"><ele>224.0</ele><time>2026-04-26T08:20:20.056Z</time></trkpt><trkpt lat="45.6552083" lon="9.8346283"><ele>223.0</ele><time>2026-04-26T08:20:21.054Z</time></trkpt><trkpt lat="45.6551383" lon="9.8348217"><ele>222.0</ele><time>2026-04-26T08:20:22.057Z</time></trkpt><trkpt lat="45.6550633" lon="9.8350167"><ele>221.66666666666669</ele><time>2026-04-26T08:20:23.058Z</time></trkpt><trkpt lat="45.654985" lon="9.8352167"><ele>221.33333333333334</ele><time>2026-04-26T08:20:24.057Z</time></trkpt><trkpt lat="45.654905" lon="9.8354133"><ele>221.0</ele><time>2026-04-26T08:20:25.057Z</time></trkpt><trkpt lat="45.6548217" lon="9.8356167"><ele>221.0</ele><time>2026-04-26T08:20:26.059Z</time></trkpt><trkpt lat="45.6547383" lon="9.8358233"><ele>221.0</ele><time>2026-04-26T08:20:27.057Z</time></trkpt><trkpt lat="45.654655" lon="9.83604"><ele>221.0</ele><time>2026-04-26T08:20:28.057Z</time></trkpt><trkpt lat="45.6545717" lon="9.8362567"><ele>221.0</ele><time>2026-04-26T08:20:29.054Z</time></trkpt><trkpt lat="45.6544883" lon="9.8364733"><ele>221.0</ele><time>2026-04-26T08:20:30.057Z</time></trkpt><trkpt lat="45.654405" lon="9.836695"><ele>221.0</ele><time>2026-04-26T08:20:31.057Z</time></trkpt><trkpt lat="45.6543233" lon="9.8369233"><ele>221.0</ele><time>2026-04-26T08:20:32.057Z</time></trkpt><trkpt lat="45.6542367" lon="9.8371533"><ele>221.0</ele><time>2026-04-26T08:20:33.057Z</time></trkpt><trkpt lat="45.6541533" lon="9.8373883"><ele>221.0</ele><time>2026-04-26T08:20:34.054Z</time></trkpt><trkpt lat="45.6540683" lon="9.8376183"><ele>221.66666666666669</ele><time>2026-04-26T08:20:35.054Z</time></trkpt><trkpt lat="45.6539833" lon="9.8378517"><ele>222.33333333333331</ele><time>2026-04-26T08:20:36.058Z</time></trkpt><trkpt lat="45.6538983" lon="9.838085"><ele>223.0</ele><time>2026-04-26T08:20:37.056Z</time></trkpt><trkpt lat="45.6538117" lon="9.8383167"><ele>223.0</ele><time>2026-04-26T08:20:38.057Z</time></trkpt><trkpt lat="45.6537233" lon="9.83855"><ele>223.0</ele><time>2026-04-26T08:20:39.057Z</time></trkpt><trkpt lat="45.6536317" lon="9.8387883"><ele>223.0</ele><time>2026-04-26T08:20:40.057Z</time></trkpt><trkpt lat="45.6535417" lon="9.8390217"><ele>222.66666666666666</ele><time>2026-04-26T08:20:41.056Z</time></trkpt><trkpt lat="45.6534517" lon="9.8392567"><ele>222.33333333333331</ele><time>2026-04-26T08:20:42.053Z</time></trkpt><trkpt lat="45.653365" lon="9.83949"><ele>222.0</ele><time>2026-04-26T08:20:43.054Z</time></trkpt><trkpt lat="45.6532783" lon="9.8397267"><ele>222.0</ele><time>2026-04-26T08:20:44.055Z</time></trkpt><trkpt lat="45.6531933" lon="9.8399667"><ele>222.0</ele><time>2026-04-26T08:20:45.054Z</time></trkpt><trkpt lat="45.653105" lon="9.84021"><ele>222.0</ele><time>2026-04-26T08:20:46.054Z</time></trkpt><trkpt lat="45.65302" lon="9.8404517"><ele>221.66666666666669</ele><time>2026-04-26T08:20:47.056Z</time></trkpt><trkpt lat="45.6529383" lon="9.8406967"><ele>221.33333333333334</ele><time>2026-04-26T08:20:48.054Z</time></trkpt><trkpt lat="45.6528617" lon="9.8409483"><ele>221.0</ele><time>2026-04-26T08:20:49.056Z</time></trkpt><trkpt lat="45.6527933" lon="9.8412017"><ele>220.33333333333334</ele><time>2026-04-26T08:20:50.056Z</time></trkpt><trkpt lat="45.6527267" lon="9.84146"><ele>219.66666666666669</ele><time>2026-04-26T08:20:51.052Z</time></trkpt><trkpt lat="45.652665" lon="9.84172"><ele>219.0</ele><time>2026-04-26T08:20:52.054Z</time></trkpt><trkpt lat="45.6526067" lon="9.8419767"><ele>219.0</ele><time>2026-04-26T08:20:53.053Z</time></trkpt><trkpt lat="45.6525533" lon="9.84223"><ele>219.0</ele><time>2026-04-26T08:20:54.053Z</time></trkpt><trkpt lat="45.6525017" lon="9.8424817"><ele>219.0</ele><time>2026-04-26T08:20:55.056Z</time></trkpt><trkpt lat="45.65245" lon="9.842735"><ele>219.0</ele><time>2026-04-26T08:20:56.056Z</time></trkpt><trkpt lat="45.6524017" lon="9.8429867"><ele>219.0</ele><time>2026-04-26T08:20:57.056Z</time></trkpt><trkpt lat="45.65235" lon="9.8432367"><ele>219.0</ele><time>2026-04-26T08:20:58.056Z</time></trkpt><trkpt lat="45.6522983" lon="9.8434867"><ele>219.33333333333331</ele><time>2026-04-26T08:20:59.056Z</time></trkpt><trkpt lat="45.6522467" lon="9.843735"><ele>219.66666666666666</ele><time>2026-04-26T08:21:00.056Z</time></trkpt><trkpt lat="45.6521967" lon="9.84398"><ele>220.0</ele><time>2026-04-26T08:21:01.056Z</time></trkpt><trkpt lat="45.6521533" lon="9.844215"><ele>220.66666666666666</ele><time>2026-04-26T08:21:02.056Z</time></trkpt><trkpt lat="45.6521133" lon="9.8444367"><ele>221.33333333333331</ele><time>2026-04-26T08:21:03.055Z</time></trkpt><trkpt lat="45.6520767" lon="9.8446533"><ele>222.0</ele><time>2026-04-26T08:21:04.056Z</time></trkpt><trkpt lat="45.6520417" lon="9.8448583"><ele>222.0</ele><time>2026-04-26T08:21:05.056Z</time></trkpt><trkpt lat="45.6520083" lon="9.8450567"><ele>222.0</ele><time>2026-04-26T08:21:06.056Z</time></trkpt><trkpt lat="45.6519733" lon="9.84525"><ele>222.0</ele><time>2026-04-26T08:21:07.057Z</time></trkpt><trkpt lat="45.6519383" lon="9.8454367"><ele>222.0</ele><time>2026-04-26T08:21:08.058Z</time></trkpt><trkpt lat="45.6519067" lon="9.8456133"><ele>221.5</ele><time>2026-04-26T08:21:09.056Z</time></trkpt><trkpt lat="45.6518767" lon="9.8457833"><ele>221.0</ele><time>2026-04-26T08:21:10.056Z</time></trkpt><trkpt lat="45.6518483" lon="9.8459467"><ele>220.5</ele><time>2026-04-26T08:21:11.058Z</time></trkpt><trkpt lat="45.6518167" lon="9.8461017"><ele>220.0</ele><time>2026-04-26T08:21:12.056Z</time></trkpt><trkpt lat="45.6517817" lon="9.84625"><ele>220.0</ele><time>2026-04-26T08:21:13.056Z</time></trkpt><trkpt lat="45.6517483" lon="9.8463933"><ele>220.0</ele><time>2026-04-26T08:21:14.057Z</time></trkpt><trkpt lat="45.651715" lon="9.8465367"><ele>220.0</ele><time>2026-04-26T08:21:15.056Z</time></trkpt><trkpt lat="45.6516867" lon="9.84667"><ele>220.0</ele><time>2026-04-26T08:21:16.056Z</time></trkpt><trkpt lat="45.6516583" lon="9.84679"><ele>220.0</ele><time>2026-04-26T08:21:17.053Z</time></trkpt><trkpt lat="45.6516317" lon="9.8469033"><ele>220.16666666666666</ele><time>2026-04-26T08:21:18.053Z</time></trkpt><trkpt lat="45.651605" lon="9.8470117"><ele>220.33333333333331</ele><time>2026-04-26T08:21:19.053Z</time></trkpt><trkpt lat="45.651575" lon="9.8471117"><ele>220.5</ele><time>2026-04-26T08:21:20.054Z</time></trkpt><trkpt lat="45.6515383" lon="9.8472483"><ele>220.66666666666669</ele><time>2026-04-26T08:21:22.052Z</time></trkpt><trkpt lat="45.6514933" lon="9.8473267"><ele>220.83333333333334</ele><time>2026-04-26T08:21:33.053Z</time></trkpt><trkpt lat="45.65145" lon="9.84743"><ele>221.0</ele><time>2026-04-26T08:21:36.056Z</time></trkpt><trkpt lat="45.651395" lon="9.8476367"><ele>220.5</ele><time>2026-04-26T08:21:38.053Z</time></trkpt><trkpt lat="45.6513383" lon="9.8477867"><ele>220.0</ele><time>2026-04-26T08:21:39.056Z</time></trkpt><trkpt lat="45.65125" lon="9.8480417"><ele>219.5</ele><time>2026-04-26T08:21:40.054Z</time></trkpt><trkpt lat="45.651205" lon="9.8482083"><ele>219.0</ele><time>2026-04-26T08:21:41.054Z</time></trkpt><trkpt lat="45.6511617" lon="9.848395"><ele>218.25</ele><time>2026-04-26T08:21:42.056Z</time></trkpt><trkpt lat="45.651115" lon="9.8485633"><ele>217.5</ele><time>2026-04-26T08:21:43.054Z</time></trkpt><trkpt lat="45.65107" lon="9.848725"><ele>216.75</ele><time>2026-04-26T08:21:44.053Z</time></trkpt><trkpt lat="45.6510133" lon="9.84889"><ele>216.0</ele><time>2026-04-26T08:21:45.054Z</time></trkpt><trkpt lat="45.6509633" lon="9.8490483"><ele>216.0</ele><time>2026-04-26T08:21:46.056Z</time></trkpt><trkpt lat="45.6509167" lon="9.8492083"><ele>216.0</ele><time>2026-04-26T08:21:47.054Z</time></trkpt><trkpt lat="45.650875" lon="9.8493767"><ele>216.0</ele><time>2026-04-26T08:21:48.053Z</time></trkpt><trkpt lat="45.650845" lon="9.8495533"><ele>216.0</ele><time>2026-04-26T08:21:49.053Z</time></trkpt><trkpt lat="45.6508217" lon="9.8497083"><ele>216.0</ele><time>2026-04-26T08:21:50.056Z</time></trkpt><trkpt lat="45.6508033" lon="9.84985"><ele>216.0</ele><time>2026-04-26T08:21:51.053Z</time></trkpt><trkpt lat="45.6507883" lon="9.8499883"><ele>216.0</ele><time>2026-04-26T08:21:52.053Z</time></trkpt><trkpt lat="45.6507733" lon="9.85011"><ele>216.0</ele><time>2026-04-26T08:21:53.053Z</time></trkpt><trkpt lat="45.6507583" lon="9.8502233"><ele>216.0</ele><time>2026-04-26T08:21:54.053Z</time></trkpt><trkpt lat="45.6507433" lon="9.8503283"><ele>216.0</ele><time>2026-04-26T08:21:55.056Z</time></trkpt><trkpt lat="45.6507333" lon="9.8504233"><ele>216.20000000000002</ele><time>2026-04-26T08:21:56.056Z</time></trkpt><trkpt lat="45.650725" lon="9.8505617"><ele>216.40000000000003</ele><time>2026-04-26T08:21:58.056Z</time></trkpt><trkpt lat="45.65071" lon="9.850655"><ele>216.6</ele><time>2026-04-26T08:22:01.056Z</time></trkpt><trkpt lat="45.6506667" lon="9.8507917"><ele>216.8</ele><time>2026-04-26T08:22:09.052Z</time></trkpt><trkpt lat="45.6506367" lon="9.85096"><ele>217.0</ele><time>2026-04-26T08:22:11.055Z</time></trkpt><trkpt lat="45.650615" lon="9.8510817"><ele>217.0</ele><time>2026-04-26T08:22:12.053Z</time></trkpt><trkpt lat="45.650585" lon="9.8512217"><ele>217.0</ele><time>2026-04-26T08:22:13.056Z</time></trkpt><trkpt lat="45.6505583" lon="9.8514"><ele>217.0</ele><time>2026-04-26T08:22:14.056Z</time></trkpt><trkpt lat="45.650525" lon="9.8515767"><ele>217.0</ele><time>2026-04-26T08:22:15.053Z</time></trkpt><trkpt lat="45.6504833" lon="9.8517583"><ele>216.5</ele><time>2026-04-26T08:22:16.054Z</time></trkpt><trkpt lat="45.6504333" lon="9.8519367"><ele>216.0</ele><time>2026-04-26T08:22:17.053Z</time></trkpt><trkpt lat="45.6503733" lon="9.85211"><ele>215.5</ele><time>2026-04-26T08:22:18.054Z</time></trkpt><trkpt lat="45.6503117" lon="9.85227"><ele>215.0</ele><time>2026-04-26T08:22:19.053Z</time></trkpt><trkpt lat="45.6502433" lon="9.852425"><ele>214.25</ele><time>2026-04-26T08:22:20.054Z</time></trkpt><trkpt lat="45.6501717" lon="9.85257"><ele>213.5</ele><time>2026-04-26T08:22:21.053Z</time></trkpt><trkpt lat="45.6500967" lon="9.8527067"><ele>212.75</ele><time>2026-04-26T08:22:22.053Z</time></trkpt><trkpt lat="45.650015" lon="9.8528317"><ele>212.0</ele><time>2026-04-26T08:22:23.053Z</time></trkpt><trkpt lat="45.649925" lon="9.8529467"><ele>212.0</ele><time>2026-04-26T08:22:24.056Z</time></trkpt><trkpt lat="45.6498283" lon="9.8530517"><ele>212.0</ele><time>2026-04-26T08:22:25.053Z</time></trkpt><trkpt lat="45.6497333" lon="9.8531483"><ele>212.0</ele><time>2026-04-26T08:22:26.056Z</time></trkpt><trkpt lat="45.6496383" lon="9.8532367"><ele>212.0</ele><time>2026-04-26T08:22:27.056Z</time></trkpt><trkpt lat="45.6495467" lon="9.8533133"><ele>212.00000000000003</ele><time>2026-04-26T08:22:28.056Z</time></trkpt><trkpt lat="45.6494633" lon="9.8533767"><ele>212.0</ele><time>2026-04-26T08:22:29.057Z</time></trkpt><trkpt lat="45.6493867" lon="9.8534317"><ele>212.0</ele><time>2026-04-26T08:22:30.056Z</time></trkpt><trkpt lat="45.6493167" lon="9.8534767"><ele>212.0</ele><time>2026-04-26T08:22:31.056Z</time></trkpt><trkpt lat="45.649255" lon="9.8535183"><ele>212.00000000000003</ele><time>2026-04-26T08:22:32.056Z</time></trkpt><trkpt lat="45.6491917" lon="9.8535583"><ele>212.0</ele><time>2026-04-26T08:22:33.053Z</time></trkpt><trkpt lat="45.6491217" lon="9.8535983"><ele>211.8</ele><time>2026-04-26T08:22:34.056Z</time></trkpt><trkpt lat="45.6490433" lon="9.853645"><ele>211.6</ele><time>2026-04-26T08:22:35.056Z</time></trkpt><trkpt lat="45.6489567" lon="9.8537033"><ele>211.4</ele><time>2026-04-26T08:22:36.056Z</time></trkpt><trkpt lat="45.6488617" lon="9.85377"><ele>211.20000000000002</ele><time>2026-04-26T08:22:37.055Z</time></trkpt><trkpt lat="45.648755" lon="9.8538433"><ele>211.0</ele><time>2026-04-26T08:22:38.056Z</time></trkpt><trkpt lat="45.6486267" lon="9.8539167"><ele>210.0</ele><time>2026-04-26T08:22:39.056Z</time></trkpt><trkpt lat="45.6484883" lon="9.854"><ele>209.0</ele><time>2026-04-26T08:22:40.057Z</time></trkpt><trkpt lat="45.648345" lon="9.854095"><ele>208.0</ele><time>2026-04-26T08:22:41.057Z</time></trkpt><trkpt lat="45.6481933" lon="9.854185"><ele>208.0</ele><time>2026-04-26T08:22:42.056Z</time></trkpt><trkpt lat="45.6480367" lon="9.8542717"><ele>208.0</ele><time>2026-04-26T08:22:43.056Z</time></trkpt><trkpt lat="45.6478767" lon="9.8543533"><ele>208.0</ele><time>2026-04-26T08:22:44.056Z</time></trkpt><trkpt lat="45.64771" lon="9.8544367"><ele>207.0</ele><time>2026-04-26T08:22:45.056Z</time></trkpt><trkpt lat="45.6475433" lon="9.8545267"><ele>206.0</ele><time>2026-04-26T08:22:46.056Z</time></trkpt><trkpt lat="45.6473767" lon="9.854625"><ele>205.0</ele><time>2026-04-26T08:22:47.053Z</time></trkpt><trkpt lat="45.6472133" lon="9.8547217"><ele>205.0</ele><time>2026-04-26T08:22:48.053Z</time></trkpt><trkpt lat="45.64705" lon="9.854815"><ele>205.0</ele><time>2026-04-26T08:22:49.054Z</time></trkpt><trkpt lat="45.64689" lon="9.85491"><ele>205.0</ele><time>2026-04-26T08:22:50.054Z</time></trkpt><trkpt lat="45.6467283" lon="9.8550067"><ele>205.0</ele><time>2026-04-26T08:22:51.053Z</time></trkpt><trkpt lat="45.6465683" lon="9.855105"><ele>205.0</ele><time>2026-04-26T08:22:52.054Z</time></trkpt><trkpt lat="45.64641" lon="9.8552117"><ele>205.0</ele><time>2026-04-26T08:22:53.053Z</time></trkpt><trkpt lat="45.646255" lon="9.85533"><ele>205.0</ele><time>2026-04-26T08:22:54.056Z</time></trkpt><trkpt lat="45.6461033" lon="9.855465"><ele>205.0</ele><time>2026-04-26T08:22:55.056Z</time></trkpt><trkpt lat="45.6459583" lon="9.8556117"><ele>205.0</ele><time>2026-04-26T08:22:56.056Z</time></trkpt><trkpt lat="45.6458183" lon="9.8557617"><ele>205.0</ele><time>2026-04-26T08:22:57.056Z</time></trkpt><trkpt lat="45.6456867" lon="9.855905"><ele>205.0</ele><time>2026-04-26T08:22:58.056Z</time></trkpt><trkpt lat="45.645565" lon="9.8560467"><ele>205.0</ele><time>2026-04-26T08:22:59.056Z</time></trkpt><trkpt lat="45.645455" lon="9.8561817"><ele>204.5</ele><time>2026-04-26T08:23:00.056Z</time></trkpt><trkpt lat="45.6453517" lon="9.8562983"><ele>204.0</ele><time>2026-04-26T08:23:01.056Z</time></trkpt><trkpt lat="45.6452483" lon="9.8563917"><ele>203.5</ele><time>2026-04-26T08:23:02.056Z</time></trkpt><trkpt lat="45.6451317" lon="9.8564417"><ele>203.0</ele><time>2026-04-26T08:23:03.053Z</time></trkpt><trkpt lat="45.6450067" lon="9.8564617"><ele>203.0</ele><time>2026-04-26T08:23:04.056Z</time></trkpt><trkpt lat="45.6448733" lon="9.8564433"><ele>203.0</ele><time>2026-04-26T08:23:05.053Z</time></trkpt><trkpt lat="45.644735" lon="9.8563817"><ele>203.0</ele><time>2026-04-26T08:23:06.056Z</time></trkpt><trkpt lat="45.6446017" lon="9.8562867"><ele>203.0</ele><time>2026-04-26T08:23:07.056Z</time></trkpt><trkpt lat="45.644465" lon="9.85617"><ele>202.66666666666669</ele><time>2026-04-26T08:23:08.056Z</time></trkpt><trkpt lat="45.6443233" lon="9.856045"><ele>202.33333333333331</ele><time>2026-04-26T08:23:09.056Z</time></trkpt><trkpt lat="45.644175" lon="9.8559217"><ele>202.0</ele><time>2026-04-26T08:23:10.056Z</time></trkpt><trkpt lat="45.644025" lon="9.8557983"><ele>201.66666666666666</ele><time>2026-04-26T08:23:11.056Z</time></trkpt><trkpt lat="45.6438767" lon="9.8556783"><ele>201.33333333333331</ele><time>2026-04-26T08:23:12.056Z</time></trkpt><trkpt lat="45.6437233" lon="9.8555483"><ele>201.0</ele><time>2026-04-26T08:23:13.054Z</time></trkpt><trkpt lat="45.6435683" lon="9.8554067"><ele>200.66666666666669</ele><time>2026-04-26T08:23:14.054Z</time></trkpt><trkpt lat="45.6433967" lon="9.85526"><ele>200.33333333333334</ele><time>2026-04-26T08:23:15.053Z</time></trkpt><trkpt lat="45.6432183" lon="9.85512"><ele>200.0</ele><time>2026-04-26T08:23:16.056Z</time></trkpt><trkpt lat="45.6430433" lon="9.854985"><ele>199.66666666666669</ele><time>2026-04-26T08:23:17.054Z</time></trkpt><trkpt lat="45.6428667" lon="9.8548483"><ele>199.33333333333331</ele><time>2026-04-26T08:23:18.053Z</time></trkpt><trkpt lat="45.6426883" lon="9.854715"><ele>199.0</ele><time>2026-04-26T08:23:19.053Z</time></trkpt><trkpt lat="45.64251" lon="9.8545917"><ele>199.0</ele><time>2026-04-26T08:23:20.055Z</time></trkpt><trkpt lat="45.64233" lon="9.85447"><ele>199.0</ele><time>2026-04-26T08:23:21.053Z</time></trkpt><trkpt lat="45.6421467" lon="9.854355"><ele>199.0</ele><time>2026-04-26T08:23:22.054Z</time></trkpt><trkpt lat="45.6419633" lon="9.854245"><ele>199.33333333333331</ele><time>2026-04-26T08:23:23.054Z</time></trkpt><trkpt lat="45.641775" lon="9.8541383"><ele>199.66666666666669</ele><time>2026-04-26T08:23:24.058Z</time></trkpt><trkpt lat="45.6415883" lon="9.85404"><ele>200.0</ele><time>2026-04-26T08:23:25.056Z</time></trkpt><trkpt lat="45.6414017" lon="9.8539483"><ele>200.0</ele><time>2026-04-26T08:23:26.056Z</time></trkpt><trkpt lat="45.64122" lon="9.853865"><ele>200.0</ele><time>2026-04-26T08:23:27.056Z</time></trkpt><trkpt lat="45.6410467" lon="9.85379"><ele>200.0</ele><time>2026-04-26T08:23:28.056Z</time></trkpt><trkpt lat="45.640885" lon="9.8537317"><ele>199.5</ele><time>2026-04-26T08:23:29.056Z</time></trkpt><trkpt lat="45.6407333" lon="9.85369"><ele>199.0</ele><time>2026-04-26T08:23:30.056Z</time></trkpt><trkpt lat="45.6405917" lon="9.8536533"><ele>198.5</ele><time>2026-04-26T08:23:31.056Z</time></trkpt><trkpt lat="45.6404517" lon="9.8536033"><ele>198.0</ele><time>2026-04-26T08:23:32.057Z</time></trkpt><trkpt lat="45.6403033" lon="9.8535383"><ele>198.33333333333331</ele><time>2026-04-26T08:23:33.056Z</time></trkpt><trkpt lat="45.640145" lon="9.8534683"><ele>198.66666666666666</ele><time>2026-04-26T08:23:34.056Z</time></trkpt><trkpt lat="45.6399767" lon="9.8534"><ele>199.0</ele><time>2026-04-26T08:23:35.056Z</time></trkpt><trkpt lat="45.6398" lon="9.8533317"><ele>198.33333333333331</ele><time>2026-04-26T08:23:36.057Z</time></trkpt><trkpt lat="45.6396133" lon="9.8532683"><ele>197.66666666666669</ele><time>2026-04-26T08:23:37.056Z</time></trkpt><trkpt lat="45.63942" lon="9.853225"><ele>197.0</ele><time>2026-04-26T08:23:38.056Z</time></trkpt><trkpt lat="45.639225" lon="9.8531833"><ele>197.0</ele><time>2026-04-26T08:23:39.056Z</time></trkpt><trkpt lat="45.63903" lon="9.85314"><ele>197.0</ele><time>2026-04-26T08:23:40.057Z</time></trkpt><trkpt lat="45.6388367" lon="9.8530983"><ele>197.0</ele><time>2026-04-26T08:23:41.056Z</time></trkpt><trkpt lat="45.638645" lon="9.8530633"><ele>197.0</ele><time>2026-04-26T08:23:42.056Z</time></trkpt><trkpt lat="45.6384567" lon="9.8530283"><ele>197.0</ele><time>2026-04-26T08:23:43.058Z</time></trkpt><trkpt lat="45.6382783" lon="9.8529967"><ele>197.0</ele><time>2026-04-26T08:23:44.057Z</time></trkpt><trkpt lat="45.6381133" lon="9.8529667"><ele>197.0</ele><time>2026-04-26T08:23:45.057Z</time></trkpt><trkpt lat="45.6379683" lon="9.852925"><ele>197.0</ele><time>2026-04-26T08:23:46.056Z</time></trkpt><trkpt lat="45.6378367" lon="9.8528633"><ele>197.0</ele><time>2026-04-26T08:23:47.054Z</time></trkpt><trkpt lat="45.6377217" lon="9.8527817"><ele>197.0</ele><time>2026-04-26T08:23:48.054Z</time></trkpt><trkpt lat="45.6376167" lon="9.85268"><ele>196.25</ele><time>2026-04-26T08:23:49.053Z</time></trkpt><trkpt lat="45.6375133" lon="9.8525783"><ele>195.5</ele><time>2026-04-26T08:23:50.055Z</time></trkpt><trkpt lat="45.6374067" lon="9.8525133"><ele>194.75</ele><time>2026-04-26T08:23:51.053Z</time></trkpt><trkpt lat="45.6373" lon="9.85249"><ele>194.0</ele><time>2026-04-26T08:23:52.054Z</time></trkpt><trkpt lat="45.6371983" lon="9.8525217"><ele>194.0</ele><time>2026-04-26T08:23:53.054Z</time></trkpt><trkpt lat="45.6371267" lon="9.8526133"><ele>194.0</ele><time>2026-04-26T08:23:54.056Z</time></trkpt><trkpt lat="45.637095" lon="9.8527517"><ele>194.0</ele><time>2026-04-26T08:23:55.056Z</time></trkpt><trkpt lat="45.63709" lon="9.852905"><ele>194.0</ele><time>2026-04-26T08:23:56.056Z</time></trkpt><trkpt lat="45.63712" lon="9.8530667"><ele>194.0</ele><time>2026-04-26T08:23:57.057Z</time></trkpt><trkpt lat="45.637155" lon="9.8532367"><ele>194.0</ele><time>2026-04-26T08:23:58.056Z</time></trkpt><trkpt lat="45.6371783" lon="9.8534233"><ele>194.0</ele><time>2026-04-26T08:23:59.057Z</time></trkpt><trkpt lat="45.63718" lon="9.853625"><ele>194.0</ele><time>2026-04-26T08:24:00.056Z</time></trkpt><trkpt lat="45.637165" lon="9.85384"><ele>194.0</ele><time>2026-04-26T08:24:01.056Z</time></trkpt><trkpt lat="45.6371367" lon="9.854065"><ele>194.0</ele><time>2026-04-26T08:24:02.056Z</time></trkpt><trkpt lat="45.6370933" lon="9.8542933"><ele>194.0</ele><time>2026-04-26T08:24:03.056Z</time></trkpt><trkpt lat="45.6370433" lon="9.8545267"><ele>194.0</ele><time>2026-04-26T08:24:04.057Z</time></trkpt><trkpt lat="45.636985" lon="9.854765"><ele>194.0</ele><time>2026-04-26T08:24:05.056Z</time></trkpt><trkpt lat="45.6369183" lon="9.855005"><ele>194.0</ele><time>2026-04-26T08:24:06.056Z</time></trkpt><trkpt lat="45.63684" lon="9.8552417"><ele>194.0</ele><time>2026-04-26T08:24:07.057Z</time></trkpt><trkpt lat="45.6367533" lon="9.8554783"><ele>194.66666666666669</ele><time>2026-04-26T08:24:08.056Z</time></trkpt><trkpt lat="45.6366633" lon="9.8557183"><ele>195.33333333333331</ele><time>2026-04-26T08:24:09.056Z</time></trkpt><trkpt lat="45.63657" lon="9.85596"><ele>196.0</ele><time>2026-04-26T08:24:10.056Z</time></trkpt><trkpt lat="45.6364717" lon="9.8561983"><ele>196.33333333333331</ele><time>2026-04-26T08:24:11.056Z</time></trkpt><trkpt lat="45.6363717" lon="9.85644"><ele>196.66666666666669</ele><time>2026-04-26T08:24:12.057Z</time></trkpt><trkpt lat="45.636265" lon="9.8566783"><ele>197.0</ele><time>2026-04-26T08:24:13.057Z</time></trkpt><trkpt lat="45.6361533" lon="9.8569133"><ele>197.0</ele><time>2026-04-26T08:24:14.056Z</time></trkpt><trkpt lat="45.6360317" lon="9.8571433"><ele>197.0</ele><time>2026-04-26T08:24:15.056Z</time></trkpt><trkpt lat="45.6359033" lon="9.8573633"><ele>197.0</ele><time>2026-04-26T08:24:16.145Z</time></trkpt><trkpt lat="45.6357717" lon="9.8575717"><ele>197.33333333333334</ele><time>2026-04-26T08:24:17.054Z</time></trkpt><trkpt lat="45.6356383" lon="9.8577667"><ele>197.66666666666669</ele><time>2026-04-26T08:24:18.053Z</time></trkpt><trkpt lat="45.63551" lon="9.8579517"><ele>198.0</ele><time>2026-04-26T08:24:19.053Z</time></trkpt><trkpt lat="45.63538" lon="9.8581183"><ele>197.66666666666669</ele><time>2026-04-26T08:24:20.053Z</time></trkpt><trkpt lat="45.6352467" lon="9.8582717"><ele>197.33333333333334</ele><time>2026-04-26T08:24:21.053Z</time></trkpt><trkpt lat="45.63511" lon="9.8584133"><ele>197.0</ele><time>2026-04-26T08:24:22.053Z</time></trkpt><trkpt lat="45.6349683" lon="9.8585483"><ele>197.66666666666669</ele><time>2026-04-26T08:24:23.054Z</time></trkpt><trkpt lat="45.6348233" lon="9.8586817"><ele>198.33333333333331</ele><time>2026-04-26T08:24:24.054Z</time></trkpt><trkpt lat="45.6346783" lon="9.8588133"><ele>199.0</ele><time>2026-04-26T08:24:25.056Z</time></trkpt><trkpt lat="45.6345367" lon="9.8589383"><ele>199.0</ele><time>2026-04-26T08:24:26.057Z</time></trkpt><trkpt lat="45.6343983" lon="9.859055"><ele>199.0</ele><time>2026-04-26T08:24:27.06Z</time></trkpt><trkpt lat="45.634265" lon="9.85917"><ele>199.0</ele><time>2026-04-26T08:24:28.056Z</time></trkpt><trkpt lat="45.6341317" lon="9.859285"><ele>198.66666666666666</ele><time>2026-04-26T08:24:29.054Z</time></trkpt><trkpt lat="45.6339967" lon="9.8593983"><ele>198.33333333333331</ele><time>2026-04-26T08:24:30.056Z</time></trkpt><trkpt lat="45.633865" lon="9.8595167"><ele>198.0</ele><time>2026-04-26T08:24:31.054Z</time></trkpt><trkpt lat="45.6337367" lon="9.85964"><ele>197.0</ele><time>2026-04-26T08:24:32.057Z</time></trkpt><trkpt lat="45.6336017" lon="9.859765"><ele>196.0</ele><time>2026-04-26T08:24:33.056Z</time></trkpt><trkpt lat="45.63347" lon="9.859905"><ele>195.0</ele><time>2026-04-26T08:24:34.057Z</time></trkpt><trkpt lat="45.6333383" lon="9.8600517"><ele>195.33333333333331</ele><time>2026-04-26T08:24:35.056Z</time></trkpt><trkpt lat="45.6332167" lon="9.8602033"><ele>195.66666666666666</ele><time>2026-04-26T08:24:36.056Z</time></trkpt><trkpt lat="45.6331067" lon="9.8603633"><ele>196.0</ele><time>2026-04-26T08:24:37.056Z</time></trkpt><trkpt lat="45.6330083" lon="9.8605267"><ele>196.0</ele><time>2026-04-26T08:24:38.056Z</time></trkpt><trkpt lat="45.6329217" lon="9.8606883"><ele>196.0</ele><time>2026-04-26T08:24:39.056Z</time></trkpt><trkpt lat="45.6328417" lon="9.8608467"><ele>196.0</ele><time>2026-04-26T08:24:40.057Z</time></trkpt><trkpt lat="45.632775" lon="9.860995"><ele>196.0</ele><time>2026-04-26T08:24:41.056Z</time></trkpt><trkpt lat="45.63272" lon="9.86113"><ele>195.99999999999997</ele><time>2026-04-26T08:24:42.056Z</time></trkpt><trkpt lat="45.63268" lon="9.8612467"><ele>196.0</ele><time>2026-04-26T08:24:43.056Z</time></trkpt><trkpt lat="45.63265" lon="9.8613367"><ele>196.0</ele><time>2026-04-26T08:24:44.057Z</time></trkpt><trkpt lat="45.6326117" lon="9.8614333"><ele>196.0</ele><time>2026-04-26T08:24:46.056Z</time></trkpt><trkpt lat="45.6325667" lon="9.861505"><ele>195.99999999999997</ele><time>2026-04-26T08:24:50.055Z</time></trkpt><trkpt lat="45.632495" lon="9.8615683"><ele>196.0</ele><time>2026-04-26T08:24:54.056Z</time></trkpt><trkpt lat="45.6324" lon="9.8616483"><ele>195.99999999999997</ele><time>2026-04-26T08:24:56.056Z</time></trkpt><trkpt lat="45.6323383" lon="9.861715"><ele>196.0</ele><time>2026-04-26T08:24:57.053Z</time></trkpt><trkpt lat="45.6322833" lon="9.8618067"><ele>196.0</ele><time>2026-04-26T08:24:58.057Z</time></trkpt><trkpt lat="45.6322517" lon="9.8619267"><ele>196.0</ele><time>2026-04-26T08:24:59.056Z</time></trkpt><trkpt lat="45.6322433" lon="9.86206"><ele>195.99999999999997</ele><time>2026-04-26T08:25:00.056Z</time></trkpt><trkpt lat="45.632255" lon="9.8621833"><ele>196.0</ele><time>2026-04-26T08:25:01.056Z</time></trkpt><trkpt lat="45.6322533" lon="9.8622967"><ele>196.4</ele><time>2026-04-26T08:25:02.056Z</time></trkpt><trkpt lat="45.632235" lon="9.8624117"><ele>196.8</ele><time>2026-04-26T08:25:03.057Z</time></trkpt><trkpt lat="45.6321983" lon="9.8625333"><ele>197.20000000000002</ele><time>2026-04-26T08:25:04.056Z</time></trkpt><trkpt lat="45.6321217" lon="9.8626633"><ele>197.60000000000002</ele><time>2026-04-26T08:25:05.058Z</time></trkpt><trkpt lat="45.6320117" lon="9.8628083"><ele>198.0</ele><time>2026-04-26T08:25:06.056Z</time></trkpt><trkpt lat="45.6319083" lon="9.8629583"><ele>198.66666666666669</ele><time>2026-04-26T08:25:07.057Z</time></trkpt><trkpt lat="45.631805" lon="9.8631267"><ele>199.33333333333334</ele><time>2026-04-26T08:25:08.057Z</time></trkpt><trkpt lat="45.6317117" lon="9.8633017"><ele>200.0</ele><time>2026-04-26T08:25:09.056Z</time></trkpt><trkpt lat="45.6316267" lon="9.8634833"><ele>200.0</ele><time>2026-04-26T08:25:10.056Z</time></trkpt><trkpt lat="45.6315517" lon="9.8636717"><ele>200.0</ele><time>2026-04-26T08:25:11.057Z</time></trkpt><trkpt lat="45.6314833" lon="9.863855"><ele>200.0</ele><time>2026-04-26T08:25:12.056Z</time></trkpt><trkpt lat="45.6314233" lon="9.8640267"><ele>200.0</ele><time>2026-04-26T08:25:13.056Z</time></trkpt><trkpt lat="45.6313717" lon="9.8641967"><ele>200.0</ele><time>2026-04-26T08:25:14.056Z</time></trkpt><trkpt lat="45.6313267" lon="9.864375"><ele>200.0</ele><time>2026-04-26T08:25:15.057Z</time></trkpt><trkpt lat="45.63128" lon="9.86457"><ele>200.0</ele><time>2026-04-26T08:25:16.056Z</time></trkpt><trkpt lat="45.6312267" lon="9.8647817"><ele>200.0</ele><time>2026-04-26T08:25:17.054Z</time></trkpt><trkpt lat="45.6311733" lon="9.86501"><ele>200.66666666666669</ele><time>2026-04-26T08:25:18.054Z</time></trkpt><trkpt lat="45.631115" lon="9.8652517"><ele>201.33333333333331</ele><time>2026-04-26T08:25:19.053Z</time></trkpt><trkpt lat="45.6310583" lon="9.8655017"><ele>202.0</ele><time>2026-04-26T08:25:20.055Z</time></trkpt><trkpt lat="45.6309983" lon="9.86576"><ele>202.0</ele><time>2026-04-26T08:25:21.054Z</time></trkpt><trkpt lat="45.6309383" lon="9.8660283"><ele>202.0</ele><time>2026-04-26T08:25:22.054Z</time></trkpt><trkpt lat="45.6308783" lon="9.866305"><ele>202.0</ele><time>2026-04-26T08:25:23.054Z</time></trkpt><trkpt lat="45.6308167" lon="9.86659"><ele>202.33333333333331</ele><time>2026-04-26T08:25:24.056Z</time></trkpt><trkpt lat="45.630755" lon="9.866875"><ele>202.66666666666669</ele><time>2026-04-26T08:25:25.056Z</time></trkpt><trkpt lat="45.6306933" lon="9.867165"><ele>203.0</ele><time>2026-04-26T08:25:26.056Z</time></trkpt><trkpt lat="45.6306317" lon="9.8674583"><ele>203.0</ele><time>2026-04-26T08:25:27.058Z</time></trkpt><trkpt lat="45.63057" lon="9.8677567"><ele>203.0</ele><time>2026-04-26T08:25:28.056Z</time></trkpt><trkpt lat="45.6305067" lon="9.868055"><ele>203.0</ele><time>2026-04-26T08:25:29.056Z</time></trkpt><trkpt lat="45.630445" lon="9.8683567"><ele>202.66666666666669</ele><time>2026-04-26T08:25:30.057Z</time></trkpt><trkpt lat="45.630385" lon="9.86866"><ele>202.33333333333331</ele><time>2026-04-26T08:25:31.057Z</time></trkpt><trkpt lat="45.63033" lon="9.8689683"><ele>202.0</ele><time>2026-04-26T08:25:32.058Z</time></trkpt><trkpt lat="45.6302817" lon="9.86928"><ele>202.0</ele><time>2026-04-26T08:25:33.057Z</time></trkpt><trkpt lat="45.6302367" lon="9.869595"><ele>202.0</ele><time>2026-04-26T08:25:34.056Z</time></trkpt><trkpt lat="45.6301933" lon="9.86991"><ele>202.0</ele><time>2026-04-26T08:25:35.056Z</time></trkpt><trkpt lat="45.6301517" lon="9.8702283"><ele>201.0</ele><time>2026-04-26T08:25:36.057Z</time></trkpt><trkpt lat="45.6301033" lon="9.870545"><ele>200.0</ele><time>2026-04-26T08:25:37.056Z</time></trkpt><trkpt lat="45.6300583" lon="9.870865"><ele>200.5</ele><time>2026-04-26T08:25:38.057Z</time></trkpt><trkpt lat="45.6300083" lon="9.871185"><ele>201.0</ele><time>2026-04-26T08:25:39.057Z</time></trkpt><trkpt lat="45.6299617" lon="9.8715033"><ele>201.0</ele><time>2026-04-26T08:25:40.057Z</time></trkpt><trkpt lat="45.6299167" lon="9.871825"><ele>201.0</ele><time>2026-04-26T08:25:41.056Z</time></trkpt><trkpt lat="45.6298683" lon="9.8721433"><ele>201.0</ele><time>2026-04-26T08:25:42.057Z</time></trkpt><trkpt lat="45.6298233" lon="9.8724617"><ele>201.0</ele><time>2026-04-26T08:25:43.057Z</time></trkpt><trkpt lat="45.6297733" lon="9.8727817"><ele>201.66666666666669</ele><time>2026-04-26T08:25:44.056Z</time></trkpt><trkpt lat="45.6297317" lon="9.8730917"><ele>202.33333333333334</ele><time>2026-04-26T08:25:45.056Z</time></trkpt><trkpt lat="45.6296883" lon="9.8734017"><ele>203.0</ele><time>2026-04-26T08:25:46.057Z</time></trkpt><trkpt lat="45.6296483" lon="9.8737083"><ele>203.33333333333334</ele><time>2026-04-26T08:25:47.058Z</time></trkpt><trkpt lat="45.62961" lon="9.8740167"><ele>203.66666666666669</ele><time>2026-04-26T08:25:48.056Z</time></trkpt><trkpt lat="45.6295767" lon="9.8743233"><ele>204.0</ele><time>2026-04-26T08:25:49.059Z</time></trkpt><trkpt lat="45.62955" lon="9.87463"><ele>204.0</ele><time>2026-04-26T08:25:50.057Z</time></trkpt><trkpt lat="45.6295283" lon="9.87494"><ele>204.0</ele><time>2026-04-26T08:25:51.057Z</time></trkpt><trkpt lat="45.629505" lon="9.8752533"><ele>204.0</ele><time>2026-04-26T08:25:52.057Z</time></trkpt><trkpt lat="45.6294883" lon="9.8755667"><ele>204.33333333333331</ele><time>2026-04-26T08:25:53.057Z</time></trkpt><trkpt lat="45.62948" lon="9.8758783"><ele>204.66666666666666</ele><time>2026-04-26T08:25:54.058Z</time></trkpt><trkpt lat="45.629475" lon="9.8761917"><ele>205.0</ele><time>2026-04-26T08:25:55.057Z</time></trkpt><trkpt lat="45.629475" lon="9.8765017"><ele>205.0</ele><time>2026-04-26T08:25:56.057Z</time></trkpt><trkpt lat="45.62948" lon="9.8768117"><ele>205.0</ele><time>2026-04-26T08:25:57.058Z</time></trkpt><trkpt lat="45.6294917" lon="9.8771217"><ele>205.0</ele><time>2026-04-26T08:25:58.057Z</time></trkpt><trkpt lat="45.6295083" lon="9.8774217"><ele>205.33333333333331</ele><time>2026-04-26T08:25:59.057Z</time></trkpt><trkpt lat="45.6295283" lon="9.87771"><ele>205.66666666666669</ele><time>2026-04-26T08:26:00.056Z</time></trkpt><trkpt lat="45.6295517" lon="9.877985"><ele>206.0</ele><time>2026-04-26T08:26:01.056Z</time></trkpt><trkpt lat="45.6295733" lon="9.8782483"><ele>206.33333333333334</ele><time>2026-04-26T08:26:02.057Z</time></trkpt><trkpt lat="45.6295933" lon="9.8784983"><ele>206.66666666666669</ele><time>2026-04-26T08:26:03.057Z</time></trkpt><trkpt lat="45.6296117" lon="9.8787233"><ele>207.0</ele><time>2026-04-26T08:26:04.056Z</time></trkpt><trkpt lat="45.62963" lon="9.8789233"><ele>207.0</ele><time>2026-04-26T08:26:05.056Z</time></trkpt><trkpt lat="45.6296433" lon="9.879105"><ele>207.0</ele><time>2026-04-26T08:26:06.056Z</time></trkpt><trkpt lat="45.62965" lon="9.8792617"><ele>207.0</ele><time>2026-04-26T08:26:07.056Z</time></trkpt><trkpt lat="45.6296417" lon="9.879405"><ele>207.0</ele><time>2026-04-26T08:26:08.056Z</time></trkpt><trkpt lat="45.629615" lon="9.8795383"><ele>207.0</ele><time>2026-04-26T08:26:09.056Z</time></trkpt><trkpt lat="45.62957" lon="9.8796667"><ele>207.2</ele><time>2026-04-26T08:26:10.056Z</time></trkpt><trkpt lat="45.6295183" lon="9.8798017"><ele>207.39999999999998</ele><time>2026-04-26T08:26:11.056Z</time></trkpt><trkpt lat="45.6294917" lon="9.8799433"><ele>207.60000000000002</ele><time>2026-04-26T08:26:12.056Z</time></trkpt><trkpt lat="45.6295017" lon="9.8800833"><ele>207.8</ele><time>2026-04-26T08:26:13.056Z</time></trkpt><trkpt lat="45.6295483" lon="9.8802183"><ele>208.0</ele><time>2026-04-26T08:26:14.056Z</time></trkpt><trkpt lat="45.6296233" lon="9.8803333"><ele>208.0</ele><time>2026-04-26T08:26:15.056Z</time></trkpt><trkpt lat="45.6296867" lon="9.88045"><ele>208.0</ele><time>2026-04-26T08:26:16.057Z</time></trkpt><trkpt lat="45.6297317" lon="9.8805717"><ele>208.0</ele><time>2026-04-26T08:26:17.056Z</time></trkpt><trkpt lat="45.62976" lon="9.8807067"><ele>208.0</ele><time>2026-04-26T08:26:18.058Z</time></trkpt><trkpt lat="45.6297783" lon="9.88085"><ele>208.0</ele><time>2026-04-26T08:26:19.057Z</time></trkpt><trkpt lat="45.6298017" lon="9.8810033"><ele>207.5</ele><time>2026-04-26T08:26:20.057Z</time></trkpt><trkpt lat="45.6298433" lon="9.88116"><ele>207.0</ele><time>2026-04-26T08:26:21.056Z</time></trkpt><trkpt lat="45.6299067" lon="9.8813133"><ele>206.5</ele><time>2026-04-26T08:26:22.056Z</time></trkpt><trkpt lat="45.6299967" lon="9.8814633"><ele>206.0</ele><time>2026-04-26T08:26:23.054Z</time></trkpt><trkpt lat="45.63011" lon="9.8816183"><ele>206.33333333333334</ele><time>2026-04-26T08:26:24.053Z</time></trkpt><trkpt lat="45.6302367" lon="9.881775"><ele>206.66666666666669</ele><time>2026-04-26T08:26:25.056Z</time></trkpt><trkpt lat="45.630375" lon="9.8819317"><ele>207.0</ele><time>2026-04-26T08:26:26.058Z</time></trkpt><trkpt lat="45.6305217" lon="9.8820933"><ele>207.0</ele><time>2026-04-26T08:26:27.056Z</time></trkpt><trkpt lat="45.6306733" lon="9.8822633"><ele>207.0</ele><time>2026-04-26T08:26:28.056Z</time></trkpt><trkpt lat="45.63083" lon="9.882435"><ele>207.0</ele><time>2026-04-26T08:26:29.057Z</time></trkpt><trkpt lat="45.63099" lon="9.8826"><ele>207.66666666666669</ele><time>2026-04-26T08:26:30.057Z</time></trkpt><trkpt lat="45.63115" lon="9.88276"><ele>208.33333333333334</ele><time>2026-04-26T08:26:31.057Z</time></trkpt><trkpt lat="45.63131" lon="9.8829133"><ele>209.0</ele><time>2026-04-26T08:26:32.057Z</time></trkpt><trkpt lat="45.6314717" lon="9.8830533"><ele>209.0</ele><time>2026-04-26T08:26:33.056Z</time></trkpt><trkpt lat="45.6316283" lon="9.88319"><ele>209.0</ele><time>2026-04-26T08:26:34.056Z</time></trkpt><trkpt lat="45.6317783" lon="9.88332"><ele>209.0</ele><time>2026-04-26T08:26:35.057Z</time></trkpt><trkpt lat="45.631925" lon="9.8834383"><ele>209.0</ele><time>2026-04-26T08:26:36.057Z</time></trkpt><trkpt lat="45.632075" lon="9.883555"><ele>209.0</ele><time>2026-04-26T08:26:37.056Z</time></trkpt><trkpt lat="45.6322283" lon="9.88367"><ele>209.0</ele><time>2026-04-26T08:26:38.057Z</time></trkpt><trkpt lat="45.6323883" lon="9.88379"><ele>209.0</ele><time>2026-04-26T08:26:39.057Z</time></trkpt><trkpt lat="45.6325517" lon="9.883905"><ele>209.0</ele><time>2026-04-26T08:26:40.057Z</time></trkpt><trkpt lat="45.6327133" lon="9.884015"><ele>209.0</ele><time>2026-04-26T08:26:41.056Z</time></trkpt><trkpt lat="45.632875" lon="9.8841217"><ele>209.66666666666669</ele><time>2026-04-26T08:26:42.056Z</time></trkpt><trkpt lat="45.6330317" lon="9.8842233"><ele>210.33333333333331</ele><time>2026-04-26T08:26:43.056Z</time></trkpt><trkpt lat="45.6331817" lon="9.884315"><ele>211.0</ele><time>2026-04-26T08:26:44.056Z</time></trkpt><trkpt lat="45.6333283" lon="9.8844017"><ele>211.33333333333331</ele><time>2026-04-26T08:26:45.057Z</time></trkpt><trkpt lat="45.6334733" lon="9.88448"><ele>211.66666666666669</ele><time>2026-04-26T08:26:46.058Z</time></trkpt><trkpt lat="45.633625" lon="9.8845617"><ele>212.0</ele><time>2026-04-26T08:26:47.056Z</time></trkpt><trkpt lat="45.6337783" lon="9.88464"><ele>212.0</ele><time>2026-04-26T08:26:48.056Z</time></trkpt><trkpt lat="45.6339417" lon="9.8847183"><ele>212.0</ele><time>2026-04-26T08:26:49.057Z</time></trkpt><trkpt lat="45.634115" lon="9.8847983"><ele>212.0</ele><time>2026-04-26T08:26:50.057Z</time></trkpt><trkpt lat="45.634295" lon="9.88488"><ele>212.0</ele><time>2026-04-26T08:26:51.056Z</time></trkpt><trkpt lat="45.6344817" lon="9.8849583"><ele>212.0</ele><time>2026-04-26T08:26:52.057Z</time></trkpt><trkpt lat="45.6346717" lon="9.885035"><ele>212.0</ele><time>2026-04-26T08:26:53.056Z</time></trkpt><trkpt lat="45.6348633" lon="9.8851067"><ele>212.0</ele><time>2026-04-26T08:26:54.058Z</time></trkpt><trkpt lat="45.6350567" lon="9.8851767"><ele>212.0</ele><time>2026-04-26T08:26:55.056Z</time></trkpt><trkpt lat="45.6352483" lon="9.8852417"><ele>212.0</ele><time>2026-04-26T08:26:56.058Z</time></trkpt><trkpt lat="45.63544" lon="9.8853017"><ele>212.33333333333334</ele><time>2026-04-26T08:26:57.057Z</time></trkpt><trkpt lat="45.6356333" lon="9.885355"><ele>212.66666666666669</ele><time>2026-04-26T08:26:58.057Z</time></trkpt><trkpt lat="45.6358233" lon="9.8854033"><ele>213.0</ele><time>2026-04-26T08:26:59.056Z</time></trkpt><trkpt lat="45.6360083" lon="9.8854517"><ele>213.0</ele><time>2026-04-26T08:27:00.056Z</time></trkpt><trkpt lat="45.6361833" lon="9.8854983"><ele>213.0</ele><time>2026-04-26T08:27:01.058Z</time></trkpt><trkpt lat="45.6363533" lon="9.8855383"><ele>213.0</ele><time>2026-04-26T08:27:02.057Z</time></trkpt><trkpt lat="45.63652" lon="9.8855633"><ele>213.0</ele><time>2026-04-26T08:27:03.056Z</time></trkpt><trkpt lat="45.6366733" lon="9.8855867"><ele>213.0</ele><time>2026-04-26T08:27:04.057Z</time></trkpt><trkpt lat="45.63682" lon="9.8856083"><ele>213.0</ele><time>2026-04-26T08:27:05.057Z</time></trkpt><trkpt lat="45.6369567" lon="9.88562"><ele>213.0</ele><time>2026-04-26T08:27:06.057Z</time></trkpt><trkpt lat="45.63708" lon="9.8856267"><ele>213.16666666666666</ele><time>2026-04-26T08:27:07.057Z</time></trkpt><trkpt lat="45.6371833" lon="9.885635"><ele>213.33333333333331</ele><time>2026-04-26T08:27:08.057Z</time></trkpt><trkpt lat="45.6372683" lon="9.885645"><ele>213.5</ele><time>2026-04-26T08:27:09.057Z</time></trkpt><trkpt lat="45.6373417" lon="9.8856617"><ele>213.66666666666666</ele><time>2026-04-26T08:27:10.056Z</time></trkpt><trkpt lat="45.6374117" lon="9.88569"><ele>213.83333333333331</ele><time>2026-04-26T08:27:11.056Z</time></trkpt><trkpt lat="45.63748" lon="9.88575"><ele>214.0</ele><time>2026-04-26T08:27:12.057Z</time></trkpt><trkpt lat="45.6375483" lon="9.88584"><ele>214.2</ele><time>2026-04-26T08:27:13.056Z</time></trkpt><trkpt lat="45.6376217" lon="9.8859333"><ele>214.39999999999998</ele><time>2026-04-26T08:27:14.057Z</time></trkpt><trkpt lat="45.6376933" lon="9.8860183"><ele>214.6</ele><time>2026-04-26T08:27:15.056Z</time></trkpt><trkpt lat="45.6377583" lon="9.8861083"><ele>214.8</ele><time>2026-04-26T08:27:16.057Z</time></trkpt><trkpt lat="45.6378133" lon="9.8862067"><ele>215.0</ele><time>2026-04-26T08:27:17.057Z</time></trkpt><trkpt lat="45.6378517" lon="9.8863233"><ele>215.33333333333334</ele><time>2026-04-26T08:27:18.053Z</time></trkpt><trkpt lat="45.6378783" lon="9.8864467"><ele>215.66666666666669</ele><time>2026-04-26T08:27:19.055Z</time></trkpt><trkpt lat="45.6379" lon="9.8865717"><ele>216.0</ele><time>2026-04-26T08:27:20.054Z</time></trkpt><trkpt lat="45.63792" lon="9.8866983"><ele>216.33333333333331</ele><time>2026-04-26T08:27:21.053Z</time></trkpt><trkpt lat="45.6379383" lon="9.8868233"><ele>216.66666666666666</ele><time>2026-04-26T08:27:22.053Z</time></trkpt><trkpt lat="45.637955" lon="9.8869433"><ele>217.0</ele><time>2026-04-26T08:27:23.055Z</time></trkpt><trkpt lat="45.63797" lon="9.8870517"><ele>216.99999999999997</ele><time>2026-04-26T08:27:24.054Z</time></trkpt><trkpt lat="45.63798" lon="9.8871517"><ele>217.0</ele><time>2026-04-26T08:27:25.054Z</time></trkpt><trkpt lat="45.63799" lon="9.8872433"><ele>217.0</ele><time>2026-04-26T08:27:26.054Z</time></trkpt><trkpt lat="45.6380083" lon="9.8874133"><ele>217.0</ele><time>2026-04-26T08:27:28.054Z</time></trkpt><trkpt lat="45.6380183" lon="9.887565"><ele>216.99999999999997</ele><time>2026-04-26T08:27:30.057Z</time></trkpt><trkpt lat="45.6380233" lon="9.8876833"><ele>217.0</ele><time>2026-04-26T08:27:32.057Z</time></trkpt><trkpt lat="45.6380383" lon="9.8878217"><ele>216.99999999999997</ele><time>2026-04-26T08:27:34.056Z</time></trkpt><trkpt lat="45.638065" lon="9.88794"><ele>217.0</ele><time>2026-04-26T08:27:36.057Z</time></trkpt><trkpt lat="45.63809" lon="9.88808"><ele>217.0</ele><time>2026-04-26T08:27:38.057Z</time></trkpt><trkpt lat="45.6381117" lon="9.8881767"><ele>217.0</ele><time>2026-04-26T08:27:39.054Z</time></trkpt><trkpt lat="45.6381367" lon="9.88828"><ele>216.99999999999997</ele><time>2026-04-26T08:27:40.055Z</time></trkpt><trkpt lat="45.6381583" lon="9.8884033"><ele>217.0</ele><time>2026-04-26T08:27:41.057Z</time></trkpt><trkpt lat="45.6381783" lon="9.8885417"><ele>216.99999999999997</ele><time>2026-04-26T08:27:42.058Z</time></trkpt><trkpt lat="45.6381967" lon="9.8886783"><ele>217.0</ele><time>2026-04-26T08:27:43.054Z</time></trkpt><trkpt lat="45.6382033" lon="9.8888083"><ele>217.0</ele><time>2026-04-26T08:27:44.056Z</time></trkpt><trkpt lat="45.6381933" lon="9.8889283"><ele>217.0</ele><time>2026-04-26T08:27:45.054Z</time></trkpt><trkpt lat="45.638165" lon="9.8890433"><ele>216.99999999999997</ele><time>2026-04-26T08:27:46.056Z</time></trkpt><trkpt lat="45.6381533" lon="9.88915"><ele>217.0</ele><time>2026-04-26T08:27:47.057Z</time></trkpt><trkpt lat="45.6381633" lon="9.8892667"><ele>217.2</ele><time>2026-04-26T08:27:48.056Z</time></trkpt><trkpt lat="45.63821" lon="9.889375"><ele>217.39999999999998</ele><time>2026-04-26T08:27:49.053Z</time></trkpt><trkpt lat="45.6382583" lon="9.8895083"><ele>217.60000000000002</ele><time>2026-04-26T08:27:50.054Z</time></trkpt><trkpt lat="45.638305" lon="9.8896633"><ele>217.8</ele><time>2026-04-26T08:27:51.053Z</time></trkpt><trkpt lat="45.6383417" lon="9.8898367"><ele>218.0</ele><time>2026-04-26T08:27:52.054Z</time></trkpt><trkpt lat="45.6383733" lon="9.89002"><ele>218.25</ele><time>2026-04-26T08:27:53.055Z</time></trkpt><trkpt lat="45.6384033" lon="9.89022"><ele>218.5</ele><time>2026-04-26T08:27:54.055Z</time></trkpt><trkpt lat="45.638435" lon="9.8904267"><ele>218.75</ele><time>2026-04-26T08:27:55.055Z</time></trkpt><trkpt lat="45.6384667" lon="9.8906383"><ele>219.0</ele><time>2026-04-26T08:27:56.054Z</time></trkpt><trkpt lat="45.6384967" lon="9.8908517"><ele>219.25</ele><time>2026-04-26T08:27:57.054Z</time></trkpt><trkpt lat="45.6385267" lon="9.8910667"><ele>219.5</ele><time>2026-04-26T08:27:58.054Z</time></trkpt><trkpt lat="45.638555" lon="9.8912667"><ele>219.75</ele><time>2026-04-26T08:27:59.054Z</time></trkpt><trkpt lat="45.6385833" lon="9.8914533"><ele>220.0</ele><time>2026-04-26T08:28:00.054Z</time></trkpt><trkpt lat="45.6386117" lon="9.89164"><ele>220.5</ele><time>2026-04-26T08:28:01.054Z</time></trkpt><trkpt lat="45.63864" lon="9.891825"><ele>221.0</ele><time>2026-04-26T08:28:02.054Z</time></trkpt><trkpt lat="45.6386667" lon="9.8920117"><ele>221.5</ele><time>2026-04-26T08:28:03.053Z</time></trkpt><trkpt lat="45.638695" lon="9.8921983"><ele>222.0</ele><time>2026-04-26T08:28:04.057Z</time></trkpt><trkpt lat="45.6387267" lon="9.8923967"><ele>222.33333333333331</ele><time>2026-04-26T08:28:05.056Z</time></trkpt><trkpt lat="45.6387617" lon="9.89261"><ele>222.66666666666666</ele><time>2026-04-26T08:28:06.054Z</time></trkpt><trkpt lat="45.6387983" lon="9.89283"><ele>223.0</ele><time>2026-04-26T08:28:07.056Z</time></trkpt><trkpt lat="45.6388333" lon="9.893055"><ele>223.0</ele><time>2026-04-26T08:28:08.054Z</time></trkpt><trkpt lat="45.6388667" lon="9.8932867"><ele>223.0</ele><time>2026-04-26T08:28:09.054Z</time></trkpt><trkpt lat="45.6388983" lon="9.8935167"><ele>223.0</ele><time>2026-04-26T08:28:10.056Z</time></trkpt><trkpt lat="45.6389317" lon="9.893745"><ele>222.66666666666666</ele><time>2026-04-26T08:28:11.056Z</time></trkpt><trkpt lat="45.638965" lon="9.89397"><ele>222.33333333333331</ele><time>2026-04-26T08:28:12.056Z</time></trkpt><trkpt lat="45.6389983" lon="9.894195"><ele>222.0</ele><time>2026-04-26T08:28:13.056Z</time></trkpt><trkpt lat="45.6390317" lon="9.8944117"><ele>222.0</ele><time>2026-04-26T08:28:14.055Z</time></trkpt><trkpt lat="45.639065" lon="9.8946183"><ele>222.0</ele><time>2026-04-26T08:28:15.053Z</time></trkpt><trkpt lat="45.639095" lon="9.8948183"><ele>222.0</ele><time>2026-04-26T08:28:16.053Z</time></trkpt><trkpt lat="45.639125" lon="9.8950117"><ele>222.0</ele><time>2026-04-26T08:28:17.055Z</time></trkpt><trkpt lat="45.639155" lon="9.8952"><ele>222.5</ele><time>2026-04-26T08:28:18.054Z</time></trkpt><trkpt lat="45.639185" lon="9.8953867"><ele>223.0</ele><time>2026-04-26T08:28:19.054Z</time></trkpt><trkpt lat="45.639215" lon="9.89557"><ele>223.5</ele><time>2026-04-26T08:28:20.055Z</time></trkpt><trkpt lat="45.6392467" lon="9.895745"><ele>224.0</ele><time>2026-04-26T08:28:21.053Z</time></trkpt><trkpt lat="45.6392767" lon="9.8959133"><ele>223.79999999999998</ele><time>2026-04-26T08:28:22.054Z</time></trkpt><trkpt lat="45.6393033" lon="9.8960683"><ele>223.59999999999997</ele><time>2026-04-26T08:28:23.054Z</time></trkpt><trkpt lat="45.6393267" lon="9.8961983"><ele>223.4</ele><time>2026-04-26T08:28:24.054Z</time></trkpt><trkpt lat="45.639345" lon="9.8963033"><ele>223.2</ele><time>2026-04-26T08:28:25.055Z</time></trkpt><trkpt lat="45.6393833" lon="9.89643"><ele>223.0</ele><time>2026-04-26T08:28:27.054Z</time></trkpt><trkpt lat="45.6394017" lon="9.89657"><ele>223.0</ele><time>2026-04-26T08:28:29.057Z</time></trkpt><trkpt lat="45.639435" lon="9.8967483"><ele>223.0</ele><time>2026-04-26T08:28:31.053Z</time></trkpt><trkpt lat="45.6394567" lon="9.8968533"><ele>223.0</ele><time>2026-04-26T08:28:32.054Z</time></trkpt><trkpt lat="45.6394733" lon="9.8969767"><ele>223.0</ele><time>2026-04-26T08:28:33.057Z</time></trkpt><trkpt lat="45.6394917" lon="9.8971217"><ele>223.0</ele><time>2026-04-26T08:28:34.057Z</time></trkpt><trkpt lat="45.63952" lon="9.8972833"><ele>223.25</ele><time>2026-04-26T08:28:35.057Z</time></trkpt><trkpt lat="45.63955" lon="9.8974633"><ele>223.5</ele><time>2026-04-26T08:28:36.054Z</time></trkpt><trkpt lat="45.6395833" lon="9.8976617"><ele>223.75</ele><time>2026-04-26T08:28:37.057Z</time></trkpt><trkpt lat="45.6396183" lon="9.8978667"><ele>224.0</ele><time>2026-04-26T08:28:38.054Z</time></trkpt><trkpt lat="45.6396517" lon="9.898075"><ele>224.25</ele><time>2026-04-26T08:28:39.053Z</time></trkpt><trkpt lat="45.639685" lon="9.8982833"><ele>224.5</ele><time>2026-04-26T08:28:40.053Z</time></trkpt><trkpt lat="45.63972" lon="9.89849"><ele>224.75</ele><time>2026-04-26T08:28:41.057Z</time></trkpt><trkpt lat="45.6397533" lon="9.8986933"><ele>225.0</ele><time>2026-04-26T08:28:42.054Z</time></trkpt><trkpt lat="45.639785" lon="9.8988883"><ele>225.5</ele><time>2026-04-26T08:28:43.057Z</time></trkpt><trkpt lat="45.6398133" lon="9.8990767"><ele>226.0</ele><time>2026-04-26T08:28:44.057Z</time></trkpt><trkpt lat="45.639845" lon="9.899255"><ele>226.5</ele><time>2026-04-26T08:28:45.056Z</time></trkpt><trkpt lat="45.6398767" lon="9.8994317"><ele>227.0</ele><time>2026-04-26T08:28:46.057Z</time></trkpt><trkpt lat="45.639905" lon="9.8996067"><ele>227.0</ele><time>2026-04-26T08:28:47.054Z</time></trkpt><trkpt lat="45.6399383" lon="9.899775"><ele>227.0</ele><time>2026-04-26T08:28:48.054Z</time></trkpt><trkpt lat="45.6399667" lon="9.89995"><ele>227.0</ele><time>2026-04-26T08:28:49.054Z</time></trkpt><trkpt lat="45.6399967" lon="9.90012"><ele>227.0</ele><time>2026-04-26T08:28:50.054Z</time></trkpt><trkpt lat="45.6400233" lon="9.9002933"><ele>227.0</ele><time>2026-04-26T08:28:51.054Z</time></trkpt><trkpt lat="45.6400533" lon="9.90046"><ele>227.0</ele><time>2026-04-26T08:28:52.054Z</time></trkpt><trkpt lat="45.6400833" lon="9.9006233"><ele>227.0</ele><time>2026-04-26T08:28:53.054Z</time></trkpt><trkpt lat="45.6401117" lon="9.9007833"><ele>227.0</ele><time>2026-04-26T08:28:54.054Z</time></trkpt><trkpt lat="45.6401367" lon="9.90094"><ele>227.25</ele><time>2026-04-26T08:28:55.054Z</time></trkpt><trkpt lat="45.640165" lon="9.9010967"><ele>227.5</ele><time>2026-04-26T08:28:56.054Z</time></trkpt><trkpt lat="45.64019" lon="9.9012567"><ele>227.75</ele><time>2026-04-26T08:28:57.053Z</time></trkpt><trkpt lat="45.6402183" lon="9.901415"><ele>228.0</ele><time>2026-04-26T08:28:58.055Z</time></trkpt><trkpt lat="45.6402467" lon="9.9015717"><ele>228.0</ele><time>2026-04-26T08:28:59.058Z</time></trkpt><trkpt lat="45.640275" lon="9.9017267"><ele>228.0</ele><time>2026-04-26T08:29:00.057Z</time></trkpt><trkpt lat="45.6403017" lon="9.9018783"><ele>228.0</ele><time>2026-04-26T08:29:01.056Z</time></trkpt><trkpt lat="45.6403283" lon="9.9020267"><ele>228.0</ele><time>2026-04-26T08:29:02.054Z</time></trkpt><trkpt lat="45.6403467" lon="9.9021717"><ele>228.0</ele><time>2026-04-26T08:29:03.057Z</time></trkpt><trkpt lat="45.6403717" lon="9.902305"><ele>228.0</ele><time>2026-04-26T08:29:04.056Z</time></trkpt><trkpt lat="45.6403967" lon="9.9024317"><ele>228.0</ele><time>2026-04-26T08:29:05.057Z</time></trkpt><trkpt lat="45.6404183" lon="9.9025617"><ele>228.0</ele><time>2026-04-26T08:29:06.056Z</time></trkpt><trkpt lat="45.64044" lon="9.902695"><ele>228.0</ele><time>2026-04-26T08:29:07.057Z</time></trkpt><trkpt lat="45.6404683" lon="9.9028217"><ele>228.0</ele><time>2026-04-26T08:29:08.057Z</time></trkpt><trkpt lat="45.6405017" lon="9.9029467"><ele>228.0</ele><time>2026-04-26T08:29:09.057Z</time></trkpt><trkpt lat="45.6405333" lon="9.903075"><ele>228.0</ele><time>2026-04-26T08:29:10.054Z</time></trkpt><trkpt lat="45.6405567" lon="9.9032033"><ele>228.0</ele><time>2026-04-26T08:29:11.057Z</time></trkpt><trkpt lat="45.640585" lon="9.9033283"><ele>228.0</ele><time>2026-04-26T08:29:12.057Z</time></trkpt><trkpt lat="45.6406133" lon="9.9034567"><ele>228.0</ele><time>2026-04-26T08:29:13.057Z</time></trkpt><trkpt lat="45.6406417" lon="9.9035883"><ele>228.0</ele><time>2026-04-26T08:29:14.057Z</time></trkpt><trkpt lat="45.6406683" lon="9.90372"><ele>228.0</ele><time>2026-04-26T08:29:15.054Z</time></trkpt><trkpt lat="45.640695" lon="9.90385"><ele>228.0</ele><time>2026-04-26T08:29:16.053Z</time></trkpt><trkpt lat="45.6407217" lon="9.9039667"><ele>228.0</ele><time>2026-04-26T08:29:17.057Z</time></trkpt><trkpt lat="45.6407517" lon="9.9040717"><ele>228.0</ele><time>2026-04-26T08:29:18.053Z</time></trkpt><trkpt lat="45.6407767" lon="9.9041817"><ele>228.0</ele><time>2026-04-26T08:29:19.054Z</time></trkpt><trkpt lat="45.6407967" lon="9.9042833"><ele>228.0</ele><time>2026-04-26T08:29:20.054Z</time></trkpt><trkpt lat="45.6408083" lon="9.9043817"><ele>228.0</ele><time>2026-04-26T08:29:21.056Z</time></trkpt><trkpt lat="45.6408183" lon="9.90449"><ele>228.0</ele><time>2026-04-26T08:29:22.056Z</time></trkpt><trkpt lat="45.640835" lon="9.9046033"><ele>228.0</ele><time>2026-04-26T08:29:23.053Z</time></trkpt><trkpt lat="45.6408767" lon="9.9047083"><ele>228.0</ele><time>2026-04-26T08:29:24.053Z</time></trkpt><trkpt lat="45.64091" lon="9.9048117"><ele>228.0</ele><time>2026-04-26T08:29:25.057Z</time></trkpt><trkpt lat="45.6409317" lon="9.904915"><ele>228.0</ele><time>2026-04-26T08:29:26.058Z</time></trkpt><trkpt lat="45.640945" lon="9.90501"><ele>228.0</ele><time>2026-04-26T08:29:27.053Z</time></trkpt><trkpt lat="45.64096" lon="9.9051"><ele>228.0</ele><time>2026-04-26T08:29:28.054Z</time></trkpt><trkpt lat="45.6409917" lon="9.90527"><ele>228.0</ele><time>2026-04-26T08:29:30.054Z</time></trkpt><trkpt lat="45.6410183" lon="9.9054333"><ele>228.0</ele><time>2026-04-26T08:29:32.055Z</time></trkpt><trkpt lat="45.6410433" lon="9.9055917"><ele>228.0</ele><time>2026-04-26T08:29:34.057Z</time></trkpt><trkpt lat="45.6410633" lon="9.9057517"><ele>228.0</ele><time>2026-04-26T08:29:36.057Z</time></trkpt><trkpt lat="45.6410967" lon="9.905915"><ele>228.0</ele><time>2026-04-26T08:29:38.057Z</time></trkpt><trkpt lat="45.6411333" lon="9.906065"><ele>228.0</ele><time>2026-04-26T08:29:40.055Z</time></trkpt><trkpt lat="45.6411583" lon="9.9061933"><ele>228.0</ele><time>2026-04-26T08:29:42.057Z</time></trkpt><trkpt lat="45.6411933" lon="9.906295"><ele>228.0</ele><time>2026-04-26T08:29:44.055Z</time></trkpt><trkpt lat="45.6412267" lon="9.9064"><ele>228.0</ele><time>2026-04-26T08:29:46.056Z</time></trkpt><trkpt lat="45.641255" lon="9.90655"><ele>228.0</ele><time>2026-04-26T08:29:48.053Z</time></trkpt><trkpt lat="45.6412867" lon="9.9067167"><ele>228.0</ele><time>2026-04-26T08:29:50.054Z</time></trkpt><trkpt lat="45.6413217" lon="9.9068933"><ele>228.0</ele><time>2026-04-26T08:29:52.054Z</time></trkpt><trkpt lat="45.6413417" lon="9.9069983"><ele>227.83333333333334</ele><time>2026-04-26T08:29:53.056Z</time></trkpt><trkpt lat="45.6413667" lon="9.90711"><ele>227.66666666666669</ele><time>2026-04-26T08:29:54.057Z</time></trkpt><trkpt lat="45.6413933" lon="9.907225"><ele>227.5</ele><time>2026-04-26T08:29:55.057Z</time></trkpt><trkpt lat="45.6414183" lon="9.9073417"><ele>227.33333333333334</ele><time>2026-04-26T08:29:56.055Z</time></trkpt><trkpt lat="45.64144" lon="9.9074567"><ele>227.16666666666669</ele><time>2026-04-26T08:29:57.053Z</time></trkpt><trkpt lat="45.641465" lon="9.9075717"><ele>227.0</ele><time>2026-04-26T08:29:58.057Z</time></trkpt><trkpt lat="45.6414917" lon="9.9076883"><ele>227.33333333333334</ele><time>2026-04-26T08:29:59.054Z</time></trkpt><trkpt lat="45.6415167" lon="9.9078033"><ele>227.66666666666669</ele><time>2026-04-26T08:30:00.055Z</time></trkpt><trkpt lat="45.6415483" lon="9.9079167"><ele>228.0</ele><time>2026-04-26T08:30:01.057Z</time></trkpt><trkpt lat="45.6415783" lon="9.9080167"><ele>228.33333333333331</ele><time>2026-04-26T08:30:02.057Z</time></trkpt><trkpt lat="45.64161" lon="9.9081017"><ele>228.66666666666666</ele><time>2026-04-26T08:30:03.057Z</time></trkpt><trkpt lat="45.6417017" lon="9.90822"><ele>229.0</ele><time>2026-04-26T08:30:05.056Z</time></trkpt><trkpt lat="45.6417617" lon="9.9082833"><ele>229.0</ele><time>2026-04-26T08:30:06.056Z</time></trkpt><trkpt lat="45.64183" lon="9.9083433"><ele>228.99999999999997</ele><time>2026-04-26T08:30:07.057Z</time></trkpt><trkpt lat="45.6419117" lon="9.9083833"><ele>228.99999999999997</ele><time>2026-04-26T08:30:08.056Z</time></trkpt><trkpt lat="45.6420117" lon="9.9084"><ele>229.0</ele><time>2026-04-26T08:30:09.055Z</time></trkpt><trkpt lat="45.64214" lon="9.9084083"><ele>229.0</ele><time>2026-04-26T08:30:10.056Z</time></trkpt><trkpt lat="45.6422783" lon="9.90844"><ele>229.0</ele><time>2026-04-26T08:30:11.056Z</time></trkpt><trkpt lat="45.6424317" lon="9.9084817"><ele>229.0</ele><time>2026-04-26T08:30:12.056Z</time></trkpt><trkpt lat="45.6425883" lon="9.908535"><ele>229.0</ele><time>2026-04-26T08:30:13.056Z</time></trkpt><trkpt lat="45.6427467" lon="9.908585"><ele>229.25</ele><time>2026-04-26T08:30:14.057Z</time></trkpt><trkpt lat="45.6429017" lon="9.9086283"><ele>229.5</ele><time>2026-04-26T08:30:15.057Z</time></trkpt><trkpt lat="45.64305" lon="9.9086683"><ele>229.75</ele><time>2026-04-26T08:30:16.056Z</time></trkpt><trkpt lat="45.643185" lon="9.908705"><ele>230.0</ele><time>2026-04-26T08:30:17.057Z</time></trkpt><trkpt lat="45.6433117" lon="9.9087433"><ele>230.0</ele><time>2026-04-26T08:30:18.057Z</time></trkpt><trkpt lat="45.643435" lon="9.9087767"><ele>230.0</ele><time>2026-04-26T08:30:19.058Z</time></trkpt><trkpt lat="45.6435533" lon="9.9088117"><ele>230.0</ele><time>2026-04-26T08:30:20.057Z</time></trkpt><trkpt lat="45.64367" lon="9.9088483"><ele>230.0</ele><time>2026-04-26T08:30:21.059Z</time></trkpt><trkpt lat="45.6437933" lon="9.908885"><ele>230.5</ele><time>2026-04-26T08:30:22.056Z</time></trkpt><trkpt lat="45.6439167" lon="9.9089233"><ele>231.0</ele><time>2026-04-26T08:30:23.056Z</time></trkpt><trkpt lat="45.644045" lon="9.9089583"><ele>231.5</ele><time>2026-04-26T08:30:24.056Z</time></trkpt><trkpt lat="45.64417" lon="9.908995"><ele>232.0</ele><time>2026-04-26T08:30:25.056Z</time></trkpt><trkpt lat="45.6443" lon="9.9090367"><ele>232.0</ele><time>2026-04-26T08:30:26.057Z</time></trkpt><trkpt lat="45.6444333" lon="9.9090783"><ele>232.0</ele><time>2026-04-26T08:30:27.057Z</time></trkpt><trkpt lat="45.6445717" lon="9.90912"><ele>232.0</ele><time>2026-04-26T08:30:28.053Z</time></trkpt><trkpt lat="45.644715" lon="9.9091633"><ele>232.0</ele><time>2026-04-26T08:30:29.055Z</time></trkpt><trkpt lat="45.6448667" lon="9.909205"><ele>231.33333333333331</ele><time>2026-04-26T08:30:30.054Z</time></trkpt><trkpt lat="45.6450283" lon="9.9092467"><ele>230.66666666666669</ele><time>2026-04-26T08:30:31.054Z</time></trkpt><trkpt lat="45.645205" lon="9.9092983"><ele>230.0</ele><time>2026-04-26T08:30:32.054Z</time></trkpt><trkpt lat="45.6453917" lon="9.909355"><ele>231.33333333333334</ele><time>2026-04-26T08:30:33.054Z</time></trkpt><trkpt lat="45.6455717" lon="9.909415"><ele>232.66666666666669</ele><time>2026-04-26T08:30:34.055Z</time></trkpt><trkpt lat="45.645745" lon="9.9094683"><ele>234.0</ele><time>2026-04-26T08:30:35.054Z</time></trkpt><trkpt lat="45.645915" lon="9.9095183"><ele>234.0</ele><time>2026-04-26T08:30:36.054Z</time></trkpt><trkpt lat="45.646075" lon="9.9095633"><ele>234.0</ele><time>2026-04-26T08:30:37.054Z</time></trkpt><trkpt lat="45.646225" lon="9.9096033"><ele>234.0</ele><time>2026-04-26T08:30:38.055Z</time></trkpt><trkpt lat="45.6463667" lon="9.9096417"><ele>234.5</ele><time>2026-04-26T08:30:39.055Z</time></trkpt><trkpt lat="45.6465017" lon="9.9096767"><ele>235.0</ele><time>2026-04-26T08:30:40.054Z</time></trkpt><trkpt lat="45.64664" lon="9.9097083"><ele>235.5</ele><time>2026-04-26T08:30:41.056Z</time></trkpt><trkpt lat="45.6467883" lon="9.9097267"><ele>236.0</ele><time>2026-04-26T08:30:42.054Z</time></trkpt><trkpt lat="45.64695" lon="9.9097167"><ele>236.0</ele><time>2026-04-26T08:30:43.057Z</time></trkpt><trkpt lat="45.647125" lon="9.9096783"><ele>236.0</ele><time>2026-04-26T08:30:44.057Z</time></trkpt><trkpt lat="45.647315" lon="9.9096317"><ele>236.0</ele><time>2026-04-26T08:30:45.06Z</time></trkpt><trkpt lat="45.6475133" lon="9.9095933"><ele>236.0</ele><time>2026-04-26T08:30:46.056Z</time></trkpt><trkpt lat="45.647715" lon="9.9095533"><ele>236.0</ele><time>2026-04-26T08:30:47.055Z</time></trkpt><trkpt lat="45.6479183" lon="9.9095117"><ele>236.0</ele><time>2026-04-26T08:30:48.058Z</time></trkpt><trkpt lat="45.6481217" lon="9.9094667"><ele>237.0</ele><time>2026-04-26T08:30:49.057Z</time></trkpt><trkpt lat="45.6483217" lon="9.9094183"><ele>238.0</ele><time>2026-04-26T08:30:50.057Z</time></trkpt><trkpt lat="45.648515" lon="9.909375"><ele>239.0</ele><time>2026-04-26T08:30:51.057Z</time></trkpt><trkpt lat="45.648705" lon="9.9093317"><ele>239.66666666666669</ele><time>2026-04-26T08:30:52.057Z</time></trkpt><trkpt lat="45.648885" lon="9.90929"><ele>240.33333333333331</ele><time>2026-04-26T08:30:53.056Z</time></trkpt><trkpt lat="45.6490533" lon="9.9092483"><ele>241.0</ele><time>2026-04-26T08:30:54.057Z</time></trkpt><trkpt lat="45.649215" lon="9.9092233"><ele>241.25</ele><time>2026-04-26T08:30:55.057Z</time></trkpt><trkpt lat="45.649365" lon="9.9092317"><ele>241.5</ele><time>2026-04-26T08:30:56.057Z</time></trkpt><trkpt lat="45.649505" lon="9.909285"><ele>241.75</ele><time>2026-04-26T08:30:57.057Z</time></trkpt><trkpt lat="45.6496283" lon="9.909365"><ele>242.0</ele><time>2026-04-26T08:30:58.054Z</time></trkpt><trkpt lat="45.64972" lon="9.909485"><ele>242.75</ele><time>2026-04-26T08:30:59.055Z</time></trkpt><trkpt lat="45.6497833" lon="9.9096283"><ele>243.5</ele><time>2026-04-26T08:31:00.055Z</time></trkpt><trkpt lat="45.64981" lon="9.9098"><ele>244.25</ele><time>2026-04-26T08:31:01.054Z</time></trkpt><trkpt lat="45.6498083" lon="9.9099833"><ele>245.0</ele><time>2026-04-26T08:31:02.054Z</time></trkpt><trkpt lat="45.6497983" lon="9.9101683"><ele>245.0</ele><time>2026-04-26T08:31:03.054Z</time></trkpt><trkpt lat="45.6498033" lon="9.910355"><ele>245.0</ele><time>2026-04-26T08:31:04.054Z</time></trkpt><trkpt lat="45.6498467" lon="9.910535"><ele>245.0</ele><time>2026-04-26T08:31:05.054Z</time></trkpt><trkpt lat="45.6499133" lon="9.9106983"><ele>245.0</ele><time>2026-04-26T08:31:06.054Z</time></trkpt><trkpt lat="45.6499983" lon="9.9108383"><ele>246.0</ele><time>2026-04-26T08:31:07.053Z</time></trkpt><trkpt lat="45.6500883" lon="9.91097"><ele>247.0</ele><time>2026-04-26T08:31:08.055Z</time></trkpt><trkpt lat="45.6502017" lon="9.9110833"><ele>248.0</ele><time>2026-04-26T08:31:09.055Z</time></trkpt><trkpt lat="45.6503367" lon="9.9112033"><ele>249.0</ele><time>2026-04-26T08:31:10.054Z</time></trkpt><trkpt lat="45.6504917" lon="9.9113217"><ele>249.0</ele><time>2026-04-26T08:31:11.056Z</time></trkpt><trkpt lat="45.65065" lon="9.9114483"><ele>249.0</ele><time>2026-04-26T08:31:12.054Z</time></trkpt><trkpt lat="45.6508083" lon="9.9115867"><ele>249.0</ele><time>2026-04-26T08:31:13.056Z</time></trkpt><trkpt lat="45.6509617" lon="9.9117317"><ele>249.33333333333331</ele><time>2026-04-26T08:31:14.056Z</time></trkpt><trkpt lat="45.65111" lon="9.9118867"><ele>249.66666666666666</ele><time>2026-04-26T08:31:15.055Z</time></trkpt><trkpt lat="45.6512583" lon="9.9120517"><ele>250.0</ele><time>2026-04-26T08:31:16.054Z</time></trkpt><trkpt lat="45.6514067" lon="9.9122317"><ele>250.0</ele><time>2026-04-26T08:31:17.056Z</time></trkpt><trkpt lat="45.6515483" lon="9.91241"><ele>250.0</ele><time>2026-04-26T08:31:18.056Z</time></trkpt><trkpt lat="45.651685" lon="9.91258"><ele>250.0</ele><time>2026-04-26T08:31:19.056Z</time></trkpt><trkpt lat="45.6518117" lon="9.9127433"><ele>245.66666666666666</ele><time>2026-04-26T08:31:20.056Z</time></trkpt><trkpt lat="45.6519283" lon="9.9129133"><ele>241.33333333333331</ele><time>2026-04-26T08:31:21.056Z</time></trkpt><trkpt lat="45.65202" lon="9.9130867"><ele>237.0</ele><time>2026-04-26T08:31:22.056Z</time></trkpt><trkpt lat="45.6520767" lon="9.91329"><ele>242.66666666666669</ele><time>2026-04-26T08:31:23.055Z</time></trkpt><trkpt lat="45.6521333" lon="9.9134983"><ele>248.33333333333334</ele><time>2026-04-26T08:31:24.056Z</time></trkpt><trkpt lat="45.6522" lon="9.9137033"><ele>254.0</ele><time>2026-04-26T08:31:25.057Z</time></trkpt><trkpt lat="45.6522767" lon="9.9139033"><ele>254.0</ele><time>2026-04-26T08:31:26.056Z</time></trkpt><trkpt lat="45.6523583" lon="9.9141"><ele>254.0</ele><time>2026-04-26T08:31:27.056Z</time></trkpt><trkpt lat="45.6524383" lon="9.9142917"><ele>254.0</ele><time>2026-04-26T08:31:28.056Z</time></trkpt><trkpt lat="45.652515" lon="9.9144733"><ele>252.75</ele><time>2026-04-26T08:31:29.056Z</time></trkpt><trkpt lat="45.6525833" lon="9.914655"><ele>251.5</ele><time>2026-04-26T08:31:30.057Z</time></trkpt><trkpt lat="45.6526567" lon="9.9148283"><ele>250.25</ele><time>2026-04-26T08:31:31.053Z</time></trkpt><trkpt lat="45.6527283" lon="9.9149933"><ele>249.0</ele><time>2026-04-26T08:31:32.054Z</time></trkpt><trkpt lat="45.6527967" lon="9.9151517"><ele>249.0</ele><time>2026-04-26T08:31:33.053Z</time></trkpt><trkpt lat="45.65286" lon="9.9153033"><ele>249.0</ele><time>2026-04-26T08:31:34.056Z</time></trkpt><trkpt lat="45.652925" lon="9.915445"><ele>249.0</ele><time>2026-04-26T08:31:35.056Z</time></trkpt><trkpt lat="45.6529883" lon="9.91558"><ele>249.0</ele><time>2026-04-26T08:31:36.056Z</time></trkpt><trkpt lat="45.6530583" lon="9.915715"><ele>249.0</ele><time>2026-04-26T08:31:37.057Z</time></trkpt><trkpt lat="45.6531417" lon="9.9158433"><ele>249.0</ele><time>2026-04-26T08:31:38.056Z</time></trkpt><trkpt lat="45.65323" lon="9.9159683"><ele>249.0</ele><time>2026-04-26T08:31:39.056Z</time></trkpt><trkpt lat="45.6533233" lon="9.9160883"><ele>249.0</ele><time>2026-04-26T08:31:40.056Z</time></trkpt><trkpt lat="45.6534183" lon="9.9162033"><ele>247.25</ele><time>2026-04-26T08:31:41.056Z</time></trkpt><trkpt lat="45.653515" lon="9.9163117"><ele>245.5</ele><time>2026-04-26T08:31:42.055Z</time></trkpt><trkpt lat="45.6536033" lon="9.9164283"><ele>243.75</ele><time>2026-04-26T08:31:43.056Z</time></trkpt><trkpt lat="45.65367" lon="9.916565"><ele>242.0</ele><time>2026-04-26T08:31:44.056Z</time></trkpt><trkpt lat="45.653715" lon="9.916725"><ele>247.25</ele><time>2026-04-26T08:31:45.055Z</time></trkpt><trkpt lat="45.6537417" lon="9.9168983"><ele>252.5</ele><time>2026-04-26T08:31:46.056Z</time></trkpt><trkpt lat="45.6537583" lon="9.917085"><ele>257.75</ele><time>2026-04-26T08:31:47.056Z</time></trkpt><trkpt lat="45.6537683" lon="9.91729"><ele>263.0</ele><time>2026-04-26T08:31:48.056Z</time></trkpt><trkpt lat="45.6537767" lon="9.9175067"><ele>260.75</ele><time>2026-04-26T08:31:49.053Z</time></trkpt><trkpt lat="45.6537817" lon="9.91773"><ele>258.5</ele><time>2026-04-26T08:31:50.056Z</time></trkpt><trkpt lat="45.653785" lon="9.9179433"><ele>256.25</ele><time>2026-04-26T08:31:51.056Z</time></trkpt><trkpt lat="45.653785" lon="9.9181467"><ele>254.0</ele><time>2026-04-26T08:31:52.053Z</time></trkpt><trkpt lat="45.653785" lon="9.9183383"><ele>252.0</ele><time>2026-04-26T08:31:53.053Z</time></trkpt><trkpt lat="45.65379" lon="9.91852"><ele>250.0</ele><time>2026-04-26T08:31:54.057Z</time></trkpt><trkpt lat="45.6538067" lon="9.9186867"><ele>248.0</ele><time>2026-04-26T08:31:55.053Z</time></trkpt><trkpt lat="45.65384" lon="9.918835"><ele>246.0</ele><time>2026-04-26T08:31:56.056Z</time></trkpt><trkpt lat="45.6538917" lon="9.9189817"><ele>246.0</ele><time>2026-04-26T08:31:57.056Z</time></trkpt><trkpt lat="45.65395" lon="9.9191317"><ele>246.0</ele><time>2026-04-26T08:31:58.053Z</time></trkpt><trkpt lat="45.654015" lon="9.9192717"><ele>246.0</ele><time>2026-04-26T08:31:59.053Z</time></trkpt><trkpt lat="45.6540883" lon="9.9194117"><ele>246.0</ele><time>2026-04-26T08:32:00.053Z</time></trkpt><trkpt lat="45.6541783" lon="9.9195517"><ele>247.0</ele><time>2026-04-26T08:32:01.053Z</time></trkpt><trkpt lat="45.6542817" lon="9.9196967"><ele>248.0</ele><time>2026-04-26T08:32:02.053Z</time></trkpt><trkpt lat="45.6543983" lon="9.919845"><ele>249.0</ele><time>2026-04-26T08:32:03.054Z</time></trkpt><trkpt lat="45.65452" lon="9.9199933"><ele>242.33333333333331</ele><time>2026-04-26T08:32:04.054Z</time></trkpt><trkpt lat="45.6546433" lon="9.9201367"><ele>235.66666666666666</ele><time>2026-04-26T08:32:05.053Z</time></trkpt><trkpt lat="45.6547583" lon="9.92028"><ele>229.0</ele><time>2026-04-26T08:32:06.053Z</time></trkpt><trkpt lat="45.6548633" lon="9.9204283"><ele>229.0</ele><time>2026-04-26T08:32:07.053Z</time></trkpt><trkpt lat="45.6549617" lon="9.9205767"><ele>229.0</ele><time>2026-04-26T08:32:08.055Z</time></trkpt><trkpt lat="45.6550533" lon="9.920725"><ele>229.0</ele><time>2026-04-26T08:32:09.054Z</time></trkpt><trkpt lat="45.6551383" lon="9.9208683"><ele>229.0</ele><time>2026-04-26T08:32:10.053Z</time></trkpt><trkpt lat="45.6552183" lon="9.9210067"><ele>231.2</ele><time>2026-04-26T08:32:11.054Z</time></trkpt><trkpt lat="45.6552933" lon="9.921135"><ele>233.39999999999998</ele><time>2026-04-26T08:32:12.053Z</time></trkpt><trkpt lat="45.6553667" lon="9.9212583"><ele>235.6</ele><time>2026-04-26T08:32:13.055Z</time></trkpt><trkpt lat="45.6554367" lon="9.9213767"><ele>237.8</ele><time>2026-04-26T08:32:14.053Z</time></trkpt><trkpt lat="45.6555033" lon="9.92149"><ele>240.0</ele><time>2026-04-26T08:32:15.056Z</time></trkpt><trkpt lat="45.6555683" lon="9.9216033"><ele>240.0</ele><time>2026-04-26T08:32:16.057Z</time></trkpt><trkpt lat="45.6556317" lon="9.9217217"><ele>240.0</ele><time>2026-04-26T08:32:17.055Z</time></trkpt><trkpt lat="45.6556917" lon="9.9218433"><ele>240.0</ele><time>2026-04-26T08:32:18.056Z</time></trkpt><trkpt lat="45.655755" lon="9.9219733"><ele>240.0</ele><time>2026-04-26T08:32:19.056Z</time></trkpt><trkpt lat="45.6558167" lon="9.9220983"><ele>240.0</ele><time>2026-04-26T08:32:20.056Z</time></trkpt><trkpt lat="45.6558783" lon="9.9222183"><ele>238.33333333333334</ele><time>2026-04-26T08:32:21.056Z</time></trkpt><trkpt lat="45.6559383" lon="9.9223317"><ele>236.66666666666669</ele><time>2026-04-26T08:32:22.058Z</time></trkpt><trkpt lat="45.655995" lon="9.9224367"><ele>235.0</ele><time>2026-04-26T08:32:23.057Z</time></trkpt><trkpt lat="45.6560483" lon="9.92253"><ele>233.33333333333334</ele><time>2026-04-26T08:32:24.055Z</time></trkpt><trkpt lat="45.656095" lon="9.92261"><ele>231.66666666666669</ele><time>2026-04-26T08:32:25.056Z</time></trkpt><trkpt lat="45.65614" lon="9.9226783"><ele>230.0</ele><time>2026-04-26T08:32:26.056Z</time></trkpt><trkpt lat="45.6562117" lon="9.9227983"><ele>230.00000000000003</ele><time>2026-04-26T08:32:28.057Z</time></trkpt><trkpt lat="45.6562683" lon="9.9229383"><ele>230.0</ele><time>2026-04-26T08:32:30.053Z</time></trkpt><trkpt lat="45.6562917" lon="9.9230333"><ele>230.0</ele><time>2026-04-26T08:32:31.053Z</time></trkpt><trkpt lat="45.6563167" lon="9.9231317"><ele>230.0</ele><time>2026-04-26T08:32:32.056Z</time></trkpt><trkpt lat="45.6563617" lon="9.9232167"><ele>230.00000000000003</ele><time>2026-04-26T08:32:33.053Z</time></trkpt><trkpt lat="45.656425" lon="9.9232733"><ele>230.0</ele><time>2026-04-26T08:32:34.053Z</time></trkpt><trkpt lat="45.656495" lon="9.923325"><ele>230.0</ele><time>2026-04-26T08:32:35.053Z</time></trkpt><trkpt lat="45.6565717" lon="9.9233833"><ele>230.0</ele><time>2026-04-26T08:32:36.053Z</time></trkpt><trkpt lat="45.656655" lon="9.923465"><ele>230.0</ele><time>2026-04-26T08:32:37.054Z</time></trkpt><trkpt lat="45.6567383" lon="9.92357"><ele>230.0</ele><time>2026-04-26T08:32:38.054Z</time></trkpt><trkpt lat="45.6568233" lon="9.9236917"><ele>230.0</ele><time>2026-04-26T08:32:39.053Z</time></trkpt><trkpt lat="45.65691" lon="9.9238217"><ele>230.8</ele><time>2026-04-26T08:32:40.053Z</time></trkpt><trkpt lat="45.6569917" lon="9.923945"><ele>231.6</ele><time>2026-04-26T08:32:41.056Z</time></trkpt><trkpt lat="45.6570617" lon="9.9240617"><ele>232.39999999999998</ele><time>2026-04-26T08:32:42.056Z</time></trkpt><trkpt lat="45.6571267" lon="9.9241617"><ele>233.2</ele><time>2026-04-26T08:32:43.056Z</time></trkpt><trkpt lat="45.6571883" lon="9.9242517"><ele>234.0</ele><time>2026-04-26T08:32:44.056Z</time></trkpt><trkpt lat="45.6572467" lon="9.924345"><ele>232.0</ele><time>2026-04-26T08:32:45.056Z</time></trkpt><trkpt lat="45.6573067" lon="9.9244283"><ele>230.0</ele><time>2026-04-26T08:32:46.056Z</time></trkpt><trkpt lat="45.657365" lon="9.9245033"><ele>228.0</ele><time>2026-04-26T08:32:47.057Z</time></trkpt><trkpt lat="45.6574267" lon="9.9245767"><ele>226.0</ele><time>2026-04-26T08:32:48.056Z</time></trkpt><trkpt lat="45.6574933" lon="9.9246583"><ele>224.0</ele><time>2026-04-26T08:32:49.056Z</time></trkpt><trkpt lat="45.6575833" lon="9.924745"><ele>222.0</ele><time>2026-04-26T08:32:50.056Z</time></trkpt><trkpt lat="45.65769" lon="9.924835"><ele>221.0</ele><time>2026-04-26T08:32:51.056Z</time></trkpt><trkpt lat="45.6578033" lon="9.9249317"><ele>220.0</ele><time>2026-04-26T08:32:52.056Z</time></trkpt><trkpt lat="45.6579083" lon="9.92503"><ele>219.0</ele><time>2026-04-26T08:32:53.056Z</time></trkpt><trkpt lat="45.6579967" lon="9.9251133"><ele>218.0</ele><time>2026-04-26T08:32:54.056Z</time></trkpt><trkpt lat="45.6580733" lon="9.92518"><ele>218.0</ele><time>2026-04-26T08:32:55.056Z</time></trkpt><trkpt lat="45.6581433" lon="9.9252467"><ele>218.0</ele><time>2026-04-26T08:32:56.056Z</time></trkpt><trkpt lat="45.6582083" lon="9.9253067"><ele>218.0</ele><time>2026-04-26T08:32:57.056Z</time></trkpt><trkpt lat="45.658265" lon="9.9253683"><ele>218.0</ele><time>2026-04-26T08:32:58.054Z</time></trkpt><trkpt lat="45.6583217" lon="9.9254183"><ele>218.0</ele><time>2026-04-26T08:32:59.053Z</time></trkpt><trkpt lat="45.65838" lon="9.9254633"><ele>218.0</ele><time>2026-04-26T08:33:00.053Z</time></trkpt><trkpt lat="45.65844" lon="9.9255183"><ele>218.0</ele><time>2026-04-26T08:33:01.054Z</time></trkpt><trkpt lat="45.658505" lon="9.925575"><ele>218.0</ele><time>2026-04-26T08:33:02.055Z</time></trkpt><trkpt lat="45.658575" lon="9.9256383"><ele>218.0</ele><time>2026-04-26T08:33:03.053Z</time></trkpt><trkpt lat="45.65866" lon="9.92571"><ele>218.0</ele><time>2026-04-26T08:33:04.054Z</time></trkpt><trkpt lat="45.6587567" lon="9.9257933"><ele>218.0</ele><time>2026-04-26T08:33:05.053Z</time></trkpt><trkpt lat="45.658855" lon="9.9258783"><ele>218.0</ele><time>2026-04-26T08:33:06.053Z</time></trkpt><trkpt lat="45.6589517" lon="9.9259717"><ele>217.8</ele><time>2026-04-26T08:33:07.057Z</time></trkpt><trkpt lat="45.6590467" lon="9.92605"><ele>217.60000000000002</ele><time>2026-04-26T08:33:08.057Z</time></trkpt><trkpt lat="45.6591433" lon="9.9261333"><ele>217.39999999999998</ele><time>2026-04-26T08:33:09.053Z</time></trkpt><trkpt lat="45.65924" lon="9.92622"><ele>217.2</ele><time>2026-04-26T08:33:10.053Z</time></trkpt><trkpt lat="45.659335" lon="9.9263033"><ele>217.0</ele><time>2026-04-26T08:33:11.056Z</time></trkpt><trkpt lat="45.6594283" lon="9.9263883"><ele>217.0</ele><time>2026-04-26T08:33:12.056Z</time></trkpt><trkpt lat="45.6595183" lon="9.9264767"><ele>217.0</ele><time>2026-04-26T08:33:13.056Z</time></trkpt><trkpt lat="45.6596017" lon="9.926575"><ele>217.0</ele><time>2026-04-26T08:33:14.057Z</time></trkpt><trkpt lat="45.659675" lon="9.9266767"><ele>217.0</ele><time>2026-04-26T08:33:15.056Z</time></trkpt><trkpt lat="45.6597417" lon="9.9267833"><ele>217.0</ele><time>2026-04-26T08:33:16.056Z</time></trkpt><trkpt lat="45.6597933" lon="9.9268967"><ele>217.33333333333331</ele><time>2026-04-26T08:33:17.056Z</time></trkpt><trkpt lat="45.6598333" lon="9.9270067"><ele>217.66666666666666</ele><time>2026-04-26T08:33:18.057Z</time></trkpt><trkpt lat="45.65987" lon="9.9271083"><ele>218.0</ele><time>2026-04-26T08:33:19.056Z</time></trkpt><trkpt lat="45.6599133" lon="9.9272033"><ele>218.33333333333331</ele><time>2026-04-26T08:33:20.057Z</time></trkpt><trkpt lat="45.659975" lon="9.9273017"><ele>218.66666666666666</ele><time>2026-04-26T08:33:21.056Z</time></trkpt><trkpt lat="45.660045" lon="9.9274133"><ele>219.0</ele><time>2026-04-26T08:33:22.056Z</time></trkpt><trkpt lat="45.660135" lon="9.9275283"><ele>219.75</ele><time>2026-04-26T08:33:23.056Z</time></trkpt><trkpt lat="45.66024" lon="9.927635"><ele>220.5</ele><time>2026-04-26T08:33:24.056Z</time></trkpt><trkpt lat="45.6603433" lon="9.9277367"><ele>221.25</ele><time>2026-04-26T08:33:25.056Z</time></trkpt><trkpt lat="45.6604417" lon="9.9278233"><ele>222.0</ele><time>2026-04-26T08:33:26.055Z</time></trkpt><trkpt lat="45.6605417" lon="9.9279067"><ele>222.5</ele><time>2026-04-26T08:33:27.056Z</time></trkpt><trkpt lat="45.6606567" lon="9.92799"><ele>223.0</ele><time>2026-04-26T08:33:28.056Z</time></trkpt><trkpt lat="45.6607833" lon="9.92808"><ele>223.5</ele><time>2026-04-26T08:33:29.054Z</time></trkpt><trkpt lat="45.6609067" lon="9.9281733"><ele>224.0</ele><time>2026-04-26T08:33:30.053Z</time></trkpt><trkpt lat="45.6610233" lon="9.9282533"><ele>224.2</ele><time>2026-04-26T08:33:31.053Z</time></trkpt><trkpt lat="45.6611317" lon="9.92832"><ele>224.39999999999998</ele><time>2026-04-26T08:33:32.053Z</time></trkpt><trkpt lat="45.6612367" lon="9.92838"><ele>224.6</ele><time>2026-04-26T08:33:33.053Z</time></trkpt><trkpt lat="45.6613267" lon="9.9284383"><ele>224.8</ele><time>2026-04-26T08:33:34.053Z</time></trkpt><trkpt lat="45.6614117" lon="9.9284867"><ele>225.0</ele><time>2026-04-26T08:33:35.055Z</time></trkpt><trkpt lat="45.6614917" lon="9.9285367"><ele>225.16666666666666</ele><time>2026-04-26T08:33:36.054Z</time></trkpt><trkpt lat="45.6615717" lon="9.9285833"><ele>225.33333333333331</ele><time>2026-04-26T08:33:37.054Z</time></trkpt><trkpt lat="45.6616433" lon="9.9286417"><ele>225.5</ele><time>2026-04-26T08:33:38.054Z</time></trkpt><trkpt lat="45.661705" lon="9.9287033"><ele>225.66666666666666</ele><time>2026-04-26T08:33:39.056Z</time></trkpt><trkpt lat="45.6617633" lon="9.928775"><ele>225.83333333333331</ele><time>2026-04-26T08:33:40.056Z</time></trkpt><trkpt lat="45.6618217" lon="9.92885"><ele>226.0</ele><time>2026-04-26T08:33:41.056Z</time></trkpt><trkpt lat="45.66188" lon="9.9289367"><ele>226.0</ele><time>2026-04-26T08:33:42.056Z</time></trkpt><trkpt lat="45.6619433" lon="9.9290317"><ele>226.00000000000003</ele><time>2026-04-26T08:33:43.057Z</time></trkpt><trkpt lat="45.6620067" lon="9.9291367"><ele>226.00000000000003</ele><time>2026-04-26T08:33:44.056Z</time></trkpt><trkpt lat="45.662085" lon="9.92924"><ele>226.0</ele><time>2026-04-26T08:33:45.056Z</time></trkpt><trkpt lat="45.6621717" lon="9.92935"><ele>226.0</ele><time>2026-04-26T08:33:46.056Z</time></trkpt><trkpt lat="45.6622683" lon="9.92946"><ele>228.5</ele><time>2026-04-26T08:33:47.054Z</time></trkpt><trkpt lat="45.66238" lon="9.9295767"><ele>231.0</ele><time>2026-04-26T08:33:48.055Z</time></trkpt><trkpt lat="45.662505" lon="9.9297"><ele>233.5</ele><time>2026-04-26T08:33:49.055Z</time></trkpt><trkpt lat="45.662635" lon="9.92983"><ele>236.0</ele><time>2026-04-26T08:33:50.055Z</time></trkpt><trkpt lat="45.66277" lon="9.9299667"><ele>237.66666666666669</ele><time>2026-04-26T08:33:51.055Z</time></trkpt><trkpt lat="45.6629067" lon="9.9301067"><ele>239.33333333333331</ele><time>2026-04-26T08:33:52.055Z</time></trkpt><trkpt lat="45.663045" lon="9.9302467"><ele>241.0</ele><time>2026-04-26T08:33:53.054Z</time></trkpt><trkpt lat="45.66318" lon="9.930385"><ele>241.0</ele><time>2026-04-26T08:33:54.054Z</time></trkpt><trkpt lat="45.6633133" lon="9.93052"><ele>241.0</ele><time>2026-04-26T08:33:55.054Z</time></trkpt><trkpt lat="45.663445" lon="9.9306517"><ele>241.0</ele><time>2026-04-26T08:33:56.056Z</time></trkpt><trkpt lat="45.6635683" lon="9.9307667"><ele>240.0</ele><time>2026-04-26T08:33:57.056Z</time></trkpt><trkpt lat="45.66369" lon="9.930855"><ele>239.0</ele><time>2026-04-26T08:33:58.054Z</time></trkpt><trkpt lat="45.6638117" lon="9.9309233"><ele>238.0</ele><time>2026-04-26T08:33:59.054Z</time></trkpt><trkpt lat="45.66394" lon="9.9309767"><ele>237.0</ele><time>2026-04-26T08:34:00.057Z</time></trkpt><trkpt lat="45.6640717" lon="9.9310133"><ele>237.0</ele><time>2026-04-26T08:34:01.056Z</time></trkpt><trkpt lat="45.6642017" lon="9.9310483"><ele>237.0</ele><time>2026-04-26T08:34:02.056Z</time></trkpt><trkpt lat="45.664325" lon="9.931075"><ele>237.0</ele><time>2026-04-26T08:34:03.057Z</time></trkpt><trkpt lat="45.664435" lon="9.9311067"><ele>237.0</ele><time>2026-04-26T08:34:04.053Z</time></trkpt><trkpt lat="45.6645333" lon="9.9311483"><ele>235.83333333333334</ele><time>2026-04-26T08:34:05.056Z</time></trkpt><trkpt lat="45.6646133" lon="9.9312017"><ele>234.66666666666669</ele><time>2026-04-26T08:34:06.056Z</time></trkpt><trkpt lat="45.66468" lon="9.9312717"><ele>233.5</ele><time>2026-04-26T08:34:07.053Z</time></trkpt><trkpt lat="45.6647367" lon="9.9313567"><ele>232.33333333333334</ele><time>2026-04-26T08:34:08.054Z</time></trkpt><trkpt lat="45.6648033" lon="9.931435"><ele>231.16666666666669</ele><time>2026-04-26T08:34:09.056Z</time></trkpt><trkpt lat="45.6648783" lon="9.9315117"><ele>230.0</ele><time>2026-04-26T08:34:10.056Z</time></trkpt><trkpt lat="45.6649617" lon="9.931585"><ele>230.0</ele><time>2026-04-26T08:34:11.056Z</time></trkpt><trkpt lat="45.66504" lon="9.9316683"><ele>230.0</ele><time>2026-04-26T08:34:12.056Z</time></trkpt><trkpt lat="45.6651167" lon="9.93177"><ele>230.0</ele><time>2026-04-26T08:34:13.056Z</time></trkpt><trkpt lat="45.6651817" lon="9.931875"><ele>230.0</ele><time>2026-04-26T08:34:14.056Z</time></trkpt><trkpt lat="45.6652333" lon="9.9319717"><ele>230.0</ele><time>2026-04-26T08:34:15.056Z</time></trkpt><trkpt lat="45.6652767" lon="9.93206"><ele>229.83333333333334</ele><time>2026-04-26T08:34:16.056Z</time></trkpt><trkpt lat="45.66532" lon="9.932145"><ele>229.66666666666669</ele><time>2026-04-26T08:34:17.054Z</time></trkpt><trkpt lat="45.665365" lon="9.9322217"><ele>229.5</ele><time>2026-04-26T08:34:18.053Z</time></trkpt><trkpt lat="45.665415" lon="9.9323083"><ele>229.33333333333331</ele><time>2026-04-26T08:34:19.056Z</time></trkpt><trkpt lat="45.6654733" lon="9.932405"><ele>229.16666666666666</ele><time>2026-04-26T08:34:20.053Z</time></trkpt><trkpt lat="45.6655383" lon="9.932505"><ele>229.0</ele><time>2026-04-26T08:34:21.053Z</time></trkpt><trkpt lat="45.6656083" lon="9.9326017"><ele>229.0</ele><time>2026-04-26T08:34:22.054Z</time></trkpt><trkpt lat="45.66568" lon="9.9326983"><ele>228.99999999999997</ele><time>2026-04-26T08:34:23.053Z</time></trkpt><trkpt lat="45.66575" lon="9.93279"><ele>228.99999999999997</ele><time>2026-04-26T08:34:24.056Z</time></trkpt><trkpt lat="45.6658133" lon="9.9328833"><ele>229.0</ele><time>2026-04-26T08:34:25.057Z</time></trkpt><trkpt lat="45.6658767" lon="9.9329783"><ele>229.0</ele><time>2026-04-26T08:34:26.056Z</time></trkpt><trkpt lat="45.6659367" lon="9.933075"><ele>229.0</ele><time>2026-04-26T08:34:27.057Z</time></trkpt><trkpt lat="45.6659983" lon="9.93317"><ele>228.99999999999997</ele><time>2026-04-26T08:34:28.057Z</time></trkpt><trkpt lat="45.66606" lon="9.9332667"><ele>228.99999999999997</ele><time>2026-04-26T08:34:29.056Z</time></trkpt><trkpt lat="45.6661283" lon="9.9333683"><ele>229.0</ele><time>2026-04-26T08:34:30.056Z</time></trkpt><trkpt lat="45.6661967" lon="9.9334767"><ele>229.0</ele><time>2026-04-26T08:34:31.056Z</time></trkpt><trkpt lat="45.66627" lon="9.9335933"><ele>229.5</ele><time>2026-04-26T08:34:32.056Z</time></trkpt><trkpt lat="45.6663483" lon="9.9337217"><ele>230.0</ele><time>2026-04-26T08:34:33.056Z</time></trkpt><trkpt lat="45.666435" lon="9.9338583"><ele>230.5</ele><time>2026-04-26T08:34:34.056Z</time></trkpt><trkpt lat="45.66653" lon="9.9339983"><ele>231.0</ele><time>2026-04-26T08:34:35.056Z</time></trkpt><trkpt lat="45.6666233" lon="9.93414"><ele>231.0</ele><time>2026-04-26T08:34:36.056Z</time></trkpt><trkpt lat="45.666715" lon="9.9342817"><ele>231.0</ele><time>2026-04-26T08:34:37.054Z</time></trkpt><trkpt lat="45.6668083" lon="9.9344233"><ele>231.0</ele><time>2026-04-26T08:34:38.057Z</time></trkpt><trkpt lat="45.66689" lon="9.9345567"><ele>231.0</ele><time>2026-04-26T08:34:39.056Z</time></trkpt><trkpt lat="45.6669683" lon="9.9346783"><ele>231.20000000000002</ele><time>2026-04-26T08:34:40.057Z</time></trkpt><trkpt lat="45.6670417" lon="9.93479"><ele>231.40000000000003</ele><time>2026-04-26T08:34:41.056Z</time></trkpt><trkpt lat="45.6671083" lon="9.9348933"><ele>231.6</ele><time>2026-04-26T08:34:42.056Z</time></trkpt><trkpt lat="45.6671717" lon="9.9349917"><ele>231.8</ele><time>2026-04-26T08:34:43.056Z</time></trkpt><trkpt lat="45.66723" lon="9.9350817"><ele>232.0</ele><time>2026-04-26T08:34:44.056Z</time></trkpt><trkpt lat="45.6672833" lon="9.935165"><ele>231.99999999999997</ele><time>2026-04-26T08:34:45.056Z</time></trkpt><trkpt lat="45.6673333" lon="9.9352383"><ele>232.0</ele><time>2026-04-26T08:34:46.056Z</time></trkpt><trkpt lat="45.66738" lon="9.93531"><ele>232.0</ele><time>2026-04-26T08:34:47.053Z</time></trkpt><trkpt lat="45.6674267" lon="9.93538"><ele>232.0</ele><time>2026-04-26T08:34:48.054Z</time></trkpt><trkpt lat="45.6674717" lon="9.9354483"><ele>231.99999999999997</ele><time>2026-04-26T08:34:49.054Z</time></trkpt><trkpt lat="45.6675533" lon="9.9355767"><ele>232.0</ele><time>2026-04-26T08:34:51.054Z</time></trkpt><trkpt lat="45.6676283" lon="9.9356833"><ele>232.0</ele><time>2026-04-26T08:34:53.06Z</time></trkpt><trkpt lat="45.6676767" lon="9.9357783"><ele>232.0</ele><time>2026-04-26T08:34:55.054Z</time></trkpt><trkpt lat="45.667705" lon="9.9358967"><ele>232.0</ele><time>2026-04-26T08:34:57.053Z</time></trkpt><trkpt lat="45.6677367" lon="9.93608"><ele>232.0</ele><time>2026-04-26T08:34:59.053Z</time></trkpt><trkpt lat="45.66777" lon="9.9361933"><ele>232.0</ele><time>2026-04-26T08:35:00.056Z</time></trkpt><trkpt lat="45.6678083" lon="9.93632"><ele>232.25</ele><time>2026-04-26T08:35:01.056Z</time></trkpt><trkpt lat="45.6678533" lon="9.9364467"><ele>232.5</ele><time>2026-04-26T08:35:02.056Z</time></trkpt><trkpt lat="45.6679017" lon="9.936585"><ele>232.75</ele><time>2026-04-26T08:35:03.053Z</time></trkpt><trkpt lat="45.667955" lon="9.9367383"><ele>233.0</ele><time>2026-04-26T08:35:04.053Z</time></trkpt><trkpt lat="45.6680117" lon="9.9369017"><ele>233.25</ele><time>2026-04-26T08:35:05.054Z</time></trkpt><trkpt lat="45.668065" lon="9.9370633"><ele>233.5</ele><time>2026-04-26T08:35:06.056Z</time></trkpt><trkpt lat="45.668115" lon="9.9372167"><ele>233.75</ele><time>2026-04-26T08:35:07.058Z</time></trkpt><trkpt lat="45.6681583" lon="9.93737"><ele>234.0</ele><time>2026-04-26T08:35:08.058Z</time></trkpt><trkpt lat="45.6682033" lon="9.9375183"><ele>233.75</ele><time>2026-04-26T08:35:09.056Z</time></trkpt><trkpt lat="45.6682517" lon="9.9376767"><ele>233.5</ele><time>2026-04-26T08:35:10.055Z</time></trkpt><trkpt lat="45.6683017" lon="9.9378433"><ele>233.25</ele><time>2026-04-26T08:35:11.056Z</time></trkpt><trkpt lat="45.6683583" lon="9.93801"><ele>233.0</ele><time>2026-04-26T08:35:12.058Z</time></trkpt><trkpt lat="45.6684167" lon="9.93817"><ele>233.0</ele><time>2026-04-26T08:35:13.057Z</time></trkpt><trkpt lat="45.6684683" lon="9.938315"><ele>233.0</ele><time>2026-04-26T08:35:14.056Z</time></trkpt><trkpt lat="45.6685133" lon="9.9384517"><ele>233.0</ele><time>2026-04-26T08:35:15.053Z</time></trkpt><trkpt lat="45.6685567" lon="9.93858"><ele>233.0</ele><time>2026-04-26T08:35:16.054Z</time></trkpt><trkpt lat="45.6685983" lon="9.9387083"><ele>233.0</ele><time>2026-04-26T08:35:17.054Z</time></trkpt><trkpt lat="45.66864" lon="9.9388383"><ele>233.00000000000003</ele><time>2026-04-26T08:35:18.054Z</time></trkpt><trkpt lat="45.66868" lon="9.9389683"><ele>233.0</ele><time>2026-04-26T08:35:19.055Z</time></trkpt><trkpt lat="45.6687183" lon="9.9390867"><ele>233.0</ele><time>2026-04-26T08:35:20.054Z</time></trkpt><trkpt lat="45.66875" lon="9.9392"><ele>233.0</ele><time>2026-04-26T08:35:21.054Z</time></trkpt><trkpt lat="45.6687767" lon="9.9393"><ele>233.00000000000003</ele><time>2026-04-26T08:35:22.056Z</time></trkpt><trkpt lat="45.6688" lon="9.939385"><ele>233.0</ele><time>2026-04-26T08:35:23.054Z</time></trkpt><trkpt lat="45.6688433" lon="9.9395133"><ele>232.8</ele><time>2026-04-26T08:35:25.056Z</time></trkpt><trkpt lat="45.6688683" lon="9.9396367"><ele>232.60000000000002</ele><time>2026-04-26T08:35:27.056Z</time></trkpt><trkpt lat="45.6688933" lon="9.9397983"><ele>232.39999999999998</ele><time>2026-04-26T08:35:29.057Z</time></trkpt><trkpt lat="45.6689017" lon="9.9399133"><ele>232.2</ele><time>2026-04-26T08:35:30.056Z</time></trkpt><trkpt lat="45.668905" lon="9.9400617"><ele>232.0</ele><time>2026-04-26T08:35:31.057Z</time></trkpt><trkpt lat="45.6689017" lon="9.94024"><ele>231.75</ele><time>2026-04-26T08:35:32.057Z</time></trkpt><trkpt lat="45.6688883" lon="9.940435"><ele>231.5</ele><time>2026-04-26T08:35:33.056Z</time></trkpt><trkpt lat="45.6688767" lon="9.9406467"><ele>231.25</ele><time>2026-04-26T08:35:34.053Z</time></trkpt><trkpt lat="45.6688667" lon="9.9408683"><ele>231.0</ele><time>2026-04-26T08:35:35.053Z</time></trkpt><trkpt lat="45.6688517" lon="9.9410883"><ele>229.5</ele><time>2026-04-26T08:35:36.053Z</time></trkpt><trkpt lat="45.668845" lon="9.9412933"><ele>228.0</ele><time>2026-04-26T08:35:37.054Z</time></trkpt><trkpt lat="45.6688417" lon="9.941485"><ele>226.5</ele><time>2026-04-26T08:35:38.054Z</time></trkpt><trkpt lat="45.6688433" lon="9.9416583"><ele>225.0</ele><time>2026-04-26T08:35:39.054Z</time></trkpt><trkpt lat="45.6688617" lon="9.941825"><ele>221.75</ele><time>2026-04-26T08:35:40.053Z</time></trkpt><trkpt lat="45.6689017" lon="9.9419867"><ele>218.5</ele><time>2026-04-26T08:35:41.057Z</time></trkpt><trkpt lat="45.6689733" lon="9.9421467"><ele>215.25</ele><time>2026-04-26T08:35:42.056Z</time></trkpt><trkpt lat="45.6690667" lon="9.9423117"><ele>212.0</ele><time>2026-04-26T08:35:43.056Z</time></trkpt><trkpt lat="45.6691717" lon="9.9424817"><ele>214.33333333333334</ele><time>2026-04-26T08:35:44.057Z</time></trkpt><trkpt lat="45.6692817" lon="9.94265"><ele>216.66666666666669</ele><time>2026-04-26T08:35:45.056Z</time></trkpt><trkpt lat="45.6693917" lon="9.9428233"><ele>219.0</ele><time>2026-04-26T08:35:46.058Z</time></trkpt><trkpt lat="45.6695083" lon="9.9429983"><ele>219.0</ele><time>2026-04-26T08:35:47.054Z</time></trkpt><trkpt lat="45.6696367" lon="9.943165"><ele>219.0</ele><time>2026-04-26T08:35:48.055Z</time></trkpt><trkpt lat="45.6697733" lon="9.9433233"><ele>219.0</ele><time>2026-04-26T08:35:49.054Z</time></trkpt><trkpt lat="45.6699183" lon="9.943465"><ele>221.33333333333331</ele><time>2026-04-26T08:35:50.054Z</time></trkpt><trkpt lat="45.6700567" lon="9.9436067"><ele>223.66666666666666</ele><time>2026-04-26T08:35:51.053Z</time></trkpt><trkpt lat="45.6701833" lon="9.94375"><ele>226.0</ele><time>2026-04-26T08:35:52.054Z</time></trkpt><trkpt lat="45.6702983" lon="9.9438983"><ele>226.0</ele><time>2026-04-26T08:35:53.054Z</time></trkpt><trkpt lat="45.6704017" lon="9.9440517"><ele>226.0</ele><time>2026-04-26T08:35:54.057Z</time></trkpt><trkpt lat="45.6704933" lon="9.9442117"><ele>226.0</ele><time>2026-04-26T08:35:55.057Z</time></trkpt><trkpt lat="45.6705683" lon="9.9443833"><ele>226.0</ele><time>2026-04-26T08:35:56.057Z</time></trkpt><trkpt lat="45.6706383" lon="9.9445567"><ele>222.25</ele><time>2026-04-26T08:35:57.056Z</time></trkpt><trkpt lat="45.6707183" lon="9.9447217"><ele>218.5</ele><time>2026-04-26T08:35:58.056Z</time></trkpt><trkpt lat="45.6708083" lon="9.9448767"><ele>214.75</ele><time>2026-04-26T08:35:59.056Z</time></trkpt><trkpt lat="45.6709117" lon="9.9450167"><ele>211.0</ele><time>2026-04-26T08:36:00.056Z</time></trkpt><trkpt lat="45.6710283" lon="9.9451317"><ele>209.75</ele><time>2026-04-26T08:36:01.054Z</time></trkpt><trkpt lat="45.6711483" lon="9.9452283"><ele>208.5</ele><time>2026-04-26T08:36:02.056Z</time></trkpt><trkpt lat="45.6712667" lon="9.94532"><ele>207.25</ele><time>2026-04-26T08:36:03.056Z</time></trkpt><trkpt lat="45.6713867" lon="9.9454033"><ele>206.0</ele><time>2026-04-26T08:36:04.056Z</time></trkpt><trkpt lat="45.6715033" lon="9.945485"><ele>206.0</ele><time>2026-04-26T08:36:05.056Z</time></trkpt><trkpt lat="45.6716133" lon="9.94557"><ele>206.0</ele><time>2026-04-26T08:36:06.053Z</time></trkpt><trkpt lat="45.671715" lon="9.945655"><ele>206.0</ele><time>2026-04-26T08:36:07.056Z</time></trkpt><trkpt lat="45.6718033" lon="9.9457533"><ele>206.0</ele><time>2026-04-26T08:36:08.056Z</time></trkpt><trkpt lat="45.6718733" lon="9.9458767"><ele>205.60000000000002</ele><time>2026-04-26T08:36:09.054Z</time></trkpt><trkpt lat="45.6719283" lon="9.9460133"><ele>205.2</ele><time>2026-04-26T08:36:10.055Z</time></trkpt><trkpt lat="45.671955" lon="9.946165"><ele>204.8</ele><time>2026-04-26T08:36:11.057Z</time></trkpt><trkpt lat="45.6719467" lon="9.94632"><ele>204.39999999999998</ele><time>2026-04-26T08:36:12.056Z</time></trkpt><trkpt lat="45.6719133" lon="9.946465"><ele>204.0</ele><time>2026-04-26T08:36:13.057Z</time></trkpt><trkpt lat="45.671855" lon="9.94661"><ele>204.75</ele><time>2026-04-26T08:36:14.056Z</time></trkpt><trkpt lat="45.6717817" lon="9.946755"><ele>205.5</ele><time>2026-04-26T08:36:15.057Z</time></trkpt><trkpt lat="45.6717067" lon="9.9469033"><ele>206.25</ele><time>2026-04-26T08:36:16.058Z</time></trkpt><trkpt lat="45.67163" lon="9.947055"><ele>207.0</ele><time>2026-04-26T08:36:17.053Z</time></trkpt><trkpt lat="45.671565" lon="9.9472"><ele>207.0</ele><time>2026-04-26T08:36:18.055Z</time></trkpt><trkpt lat="45.6715083" lon="9.9473333"><ele>207.0</ele><time>2026-04-26T08:36:19.054Z</time></trkpt><trkpt lat="45.6714583" lon="9.9474617"><ele>207.0</ele><time>2026-04-26T08:36:20.054Z</time></trkpt><trkpt lat="45.6714133" lon="9.9475933"><ele>207.0</ele><time>2026-04-26T08:36:21.053Z</time></trkpt><trkpt lat="45.67137" lon="9.9477317"><ele>207.0</ele><time>2026-04-26T08:36:22.054Z</time></trkpt><trkpt lat="45.6713333" lon="9.9478867"><ele>206.75</ele><time>2026-04-26T08:36:23.055Z</time></trkpt><trkpt lat="45.6713017" lon="9.94804"><ele>206.5</ele><time>2026-04-26T08:36:24.054Z</time></trkpt><trkpt lat="45.67124" lon="9.9481817"><ele>206.25</ele><time>2026-04-26T08:36:25.056Z</time></trkpt><trkpt lat="45.6712117" lon="9.9483517"><ele>206.0</ele><time>2026-04-26T08:36:26.056Z</time></trkpt><trkpt lat="45.67118" lon="9.9485133"><ele>206.0</ele><time>2026-04-26T08:36:27.056Z</time></trkpt><trkpt lat="45.6711583" lon="9.9486767"><ele>206.0</ele><time>2026-04-26T08:36:28.057Z</time></trkpt><trkpt lat="45.6711417" lon="9.9488333"><ele>206.0</ele><time>2026-04-26T08:36:29.056Z</time></trkpt><trkpt lat="45.6711317" lon="9.9489867"><ele>206.0</ele><time>2026-04-26T08:36:30.057Z</time></trkpt><trkpt lat="45.6711217" lon="9.9491433"><ele>206.0</ele><time>2026-04-26T08:36:31.058Z</time></trkpt><trkpt lat="45.6711117" lon="9.9493183"><ele>205.75</ele><time>2026-04-26T08:36:32.058Z</time></trkpt><trkpt lat="45.671105" lon="9.9494983"><ele>205.5</ele><time>2026-04-26T08:36:33.056Z</time></trkpt><trkpt lat="45.6711033" lon="9.9496833"><ele>205.25</ele><time>2026-04-26T08:36:34.057Z</time></trkpt><trkpt lat="45.67111" lon="9.94987"><ele>205.0</ele><time>2026-04-26T08:36:35.056Z</time></trkpt><trkpt lat="45.6711067" lon="9.9500617"><ele>205.0</ele><time>2026-04-26T08:36:36.056Z</time></trkpt><trkpt lat="45.6711067" lon="9.9502517"><ele>205.0</ele><time>2026-04-26T08:36:37.057Z</time></trkpt><trkpt lat="45.6711067" lon="9.950445"><ele>205.0</ele><time>2026-04-26T08:36:38.054Z</time></trkpt><trkpt lat="45.671105" lon="9.9506367"><ele>205.0</ele><time>2026-04-26T08:36:39.053Z</time></trkpt><trkpt lat="45.6711067" lon="9.9508217"><ele>205.0</ele><time>2026-04-26T08:36:40.057Z</time></trkpt><trkpt lat="45.6711033" lon="9.9509933"><ele>205.0</ele><time>2026-04-26T08:36:41.058Z</time></trkpt><trkpt lat="45.6711033" lon="9.9511467"><ele>205.0</ele><time>2026-04-26T08:36:42.056Z</time></trkpt><trkpt lat="45.6711067" lon="9.95128"><ele>205.0</ele><time>2026-04-26T08:36:43.056Z</time></trkpt><trkpt lat="45.6711083" lon="9.9514067"><ele>205.0</ele><time>2026-04-26T08:36:44.057Z</time></trkpt><trkpt lat="45.6711067" lon="9.951515"><ele>204.99999999999997</ele><time>2026-04-26T08:36:45.057Z</time></trkpt><trkpt lat="45.6711067" lon="9.95161"><ele>205.0</ele><time>2026-04-26T08:36:46.057Z</time></trkpt><trkpt lat="45.6711067" lon="9.95176"><ele>205.0</ele><time>2026-04-26T08:36:48.053Z</time></trkpt><trkpt lat="45.6710783" lon="9.9519"><ele>205.0</ele><time>2026-04-26T08:36:50.054Z</time></trkpt><trkpt lat="45.6710283" lon="9.9520167"><ele>204.99999999999997</ele><time>2026-04-26T08:36:52.054Z</time></trkpt><trkpt lat="45.6709817" lon="9.9520833"><ele>205.0</ele><time>2026-04-26T08:36:53.054Z</time></trkpt><trkpt lat="45.67094" lon="9.9521533"><ele>205.2</ele><time>2026-04-26T08:36:54.057Z</time></trkpt><trkpt lat="45.6709167" lon="9.9522883"><ele>205.4</ele><time>2026-04-26T08:36:56.057Z</time></trkpt><trkpt lat="45.6709983" lon="9.9524483"><ele>205.60000000000002</ele><time>2026-04-26T08:36:58.056Z</time></trkpt><trkpt lat="45.6710417" lon="9.9525533"><ele>205.8</ele><time>2026-04-26T08:36:59.054Z</time></trkpt><trkpt lat="45.671065" lon="9.952665"><ele>206.0</ele><time>2026-04-26T08:37:00.058Z</time></trkpt><trkpt lat="45.6710717" lon="9.9527833"><ele>205.25</ele><time>2026-04-26T08:37:01.054Z</time></trkpt><trkpt lat="45.671065" lon="9.9529167"><ele>204.5</ele><time>2026-04-26T08:37:02.057Z</time></trkpt><trkpt lat="45.6710583" lon="9.95307"><ele>203.75</ele><time>2026-04-26T08:37:03.058Z</time></trkpt><trkpt lat="45.6710517" lon="9.9532417"><ele>203.0</ele><time>2026-04-26T08:37:04.056Z</time></trkpt><trkpt lat="45.67104" lon="9.9534267"><ele>202.75</ele><time>2026-04-26T08:37:05.057Z</time></trkpt><trkpt lat="45.6710283" lon="9.9536217"><ele>202.5</ele><time>2026-04-26T08:37:06.056Z</time></trkpt><trkpt lat="45.6710167" lon="9.9538267"><ele>202.25</ele><time>2026-04-26T08:37:07.056Z</time></trkpt><trkpt lat="45.6709933" lon="9.9540317"><ele>202.0</ele><time>2026-04-26T08:37:08.057Z</time></trkpt><trkpt lat="45.67097" lon="9.9542267"><ele>202.0</ele><time>2026-04-26T08:37:09.056Z</time></trkpt><trkpt lat="45.6709433" lon="9.95441"><ele>202.0</ele><time>2026-04-26T08:37:10.057Z</time></trkpt><trkpt lat="45.670915" lon="9.9545767"><ele>202.0</ele><time>2026-04-26T08:37:11.058Z</time></trkpt><trkpt lat="45.670885" lon="9.954725"><ele>202.0</ele><time>2026-04-26T08:37:12.056Z</time></trkpt><trkpt lat="45.6708433" lon="9.9548517"><ele>202.0</ele><time>2026-04-26T08:37:13.056Z</time></trkpt><trkpt lat="45.6707867" lon="9.954955"><ele>202.0</ele><time>2026-04-26T08:37:14.057Z</time></trkpt><trkpt lat="45.6707167" lon="9.9550367"><ele>202.0</ele><time>2026-04-26T08:37:15.057Z</time></trkpt><trkpt lat="45.6706317" lon="9.9551"><ele>202.0</ele><time>2026-04-26T08:37:16.057Z</time></trkpt><trkpt lat="45.6705367" lon="9.9551467"><ele>202.0</ele><time>2026-04-26T08:37:17.054Z</time></trkpt><trkpt lat="45.67043" lon="9.9551817"><ele>202.0</ele><time>2026-04-26T08:37:18.054Z</time></trkpt><trkpt lat="45.67032" lon="9.9552083"><ele>202.0</ele><time>2026-04-26T08:37:19.053Z</time></trkpt><trkpt lat="45.6702133" lon="9.9552233"><ele>202.0</ele><time>2026-04-26T08:37:20.054Z</time></trkpt><trkpt lat="45.670105" lon="9.9552333"><ele>202.0</ele><time>2026-04-26T08:37:21.055Z</time></trkpt><trkpt lat="45.669995" lon="9.9552433"><ele>202.0</ele><time>2026-04-26T08:37:22.053Z</time></trkpt><trkpt lat="45.66989" lon="9.9552583"><ele>201.66666666666666</ele><time>2026-04-26T08:37:23.057Z</time></trkpt><trkpt lat="45.6697933" lon="9.955285"><ele>201.33333333333331</ele><time>2026-04-26T08:37:24.057Z</time></trkpt><trkpt lat="45.669715" lon="9.95532"><ele>201.0</ele><time>2026-04-26T08:37:25.057Z</time></trkpt><trkpt lat="45.66965" lon="9.9553633"><ele>200.66666666666669</ele><time>2026-04-26T08:37:26.057Z</time></trkpt><trkpt lat="45.6695867" lon="9.955425"><ele>200.33333333333334</ele><time>2026-04-26T08:37:27.057Z</time></trkpt><trkpt lat="45.66952" lon="9.9554983"><ele>200.0</ele><time>2026-04-26T08:37:28.053Z</time></trkpt><trkpt lat="45.6694467" lon="9.95558"><ele>199.6</ele><time>2026-04-26T08:37:29.055Z</time></trkpt><trkpt lat="45.66937" lon="9.9556683"><ele>199.2</ele><time>2026-04-26T08:37:30.055Z</time></trkpt><trkpt lat="45.6692933" lon="9.9557617"><ele>198.8</ele><time>2026-04-26T08:37:31.055Z</time></trkpt><trkpt lat="45.669215" lon="9.9558517"><ele>198.4</ele><time>2026-04-26T08:37:32.056Z</time></trkpt><trkpt lat="45.6691417" lon="9.9559367"><ele>198.0</ele><time>2026-04-26T08:37:33.053Z</time></trkpt><trkpt lat="45.66907" lon="9.9560117"><ele>198.0</ele><time>2026-04-26T08:37:34.054Z</time></trkpt><trkpt lat="45.6690117" lon="9.956075"><ele>198.0</ele><time>2026-04-26T08:37:35.055Z</time></trkpt><trkpt lat="45.66896" lon="9.9561283"><ele>198.0</ele><time>2026-04-26T08:37:36.057Z</time></trkpt><trkpt lat="45.668875" lon="9.9562317"><ele>198.0</ele><time>2026-04-26T08:37:38.055Z</time></trkpt><trkpt lat="45.668795" lon="9.956315"><ele>198.0</ele><time>2026-04-26T08:37:40.053Z</time></trkpt><trkpt lat="45.66871" lon="9.9564017"><ele>198.0</ele><time>2026-04-26T08:37:42.057Z</time></trkpt><trkpt lat="45.66861" lon="9.9565183"><ele>198.0</ele><time>2026-04-26T08:37:44.057Z</time></trkpt><trkpt lat="45.6685133" lon="9.9566267"><ele>198.0</ele><time>2026-04-26T08:37:46.057Z</time></trkpt><trkpt lat="45.668455" lon="9.9566883"><ele>198.0</ele><time>2026-04-26T08:37:47.057Z</time></trkpt><trkpt lat="45.6683883" lon="9.95676"><ele>198.0</ele><time>2026-04-26T08:37:48.056Z</time></trkpt><trkpt lat="45.6683133" lon="9.95684"><ele>198.0</ele><time>2026-04-26T08:37:49.054Z</time></trkpt><trkpt lat="45.6682383" lon="9.9569217"><ele>198.0</ele><time>2026-04-26T08:37:50.054Z</time></trkpt><trkpt lat="45.668165" lon="9.9569933"><ele>198.0</ele><time>2026-04-26T08:37:51.056Z</time></trkpt><trkpt lat="45.6681083" lon="9.9570583"><ele>198.0</ele><time>2026-04-26T08:37:52.053Z</time></trkpt><trkpt lat="45.6680317" lon="9.9571783"><ele>198.0</ele><time>2026-04-26T08:37:54.054Z</time></trkpt><trkpt lat="45.6679733" lon="9.957325"><ele>198.0</ele><time>2026-04-26T08:37:56.058Z</time></trkpt><trkpt lat="45.6679517" lon="9.95741"><ele>198.0</ele><time>2026-04-26T08:37:57.057Z</time></trkpt><trkpt lat="45.6679283" lon="9.9575"><ele>198.0</ele><time>2026-04-26T08:37:58.056Z</time></trkpt><trkpt lat="45.6679033" lon="9.9576067"><ele>198.0</ele><time>2026-04-26T08:37:59.054Z</time></trkpt><trkpt lat="45.6678783" lon="9.957715"><ele>198.0</ele><time>2026-04-26T08:38:00.055Z</time></trkpt><trkpt lat="45.667855" lon="9.9578117"><ele>198.0</ele><time>2026-04-26T08:38:01.054Z</time></trkpt><trkpt lat="45.667835" lon="9.9578983"><ele>198.0</ele><time>2026-04-26T08:38:02.055Z</time></trkpt><trkpt lat="45.6677917" lon="9.958045"><ele>197.8</ele><time>2026-04-26T08:38:04.057Z</time></trkpt><trkpt lat="45.667725" lon="9.95815"><ele>197.60000000000002</ele><time>2026-04-26T08:38:06.056Z</time></trkpt><trkpt lat="45.66767" lon="9.9582367"><ele>197.39999999999998</ele><time>2026-04-26T08:38:08.057Z</time></trkpt><trkpt lat="45.6676217" lon="9.958315"><ele>197.2</ele><time>2026-04-26T08:38:11.056Z</time></trkpt><trkpt lat="45.6675717" lon="9.9583883"><ele>197.0</ele><time>2026-04-26T08:38:13.057Z</time></trkpt><trkpt lat="45.66747" lon="9.9584967"><ele>196.66666666666669</ele><time>2026-04-26T08:38:15.053Z</time></trkpt><trkpt lat="45.66741" lon="9.9585583"><ele>196.33333333333334</ele><time>2026-04-26T08:38:16.053Z</time></trkpt><trkpt lat="45.66735" lon="9.9586333"><ele>196.0</ele><time>2026-04-26T08:38:17.054Z</time></trkpt><trkpt lat="45.667285" lon="9.9587133"><ele>195.66666666666669</ele><time>2026-04-26T08:38:18.055Z</time></trkpt><trkpt lat="45.66721" lon="9.9587933"><ele>195.33333333333334</ele><time>2026-04-26T08:38:19.057Z</time></trkpt><trkpt lat="45.6671317" lon="9.9588733"><ele>195.0</ele><time>2026-04-26T08:38:20.057Z</time></trkpt><trkpt lat="45.66705" lon="9.9589533"><ele>195.0</ele><time>2026-04-26T08:38:21.058Z</time></trkpt><trkpt lat="45.66697" lon="9.9590383"><ele>195.0</ele><time>2026-04-26T08:38:22.056Z</time></trkpt><trkpt lat="45.6668833" lon="9.9591167"><ele>195.0</ele><time>2026-04-26T08:38:23.055Z</time></trkpt><trkpt lat="45.6667967" lon="9.9591917"><ele>195.0</ele><time>2026-04-26T08:38:24.054Z</time></trkpt><trkpt lat="45.6667133" lon="9.95927"><ele>195.0</ele><time>2026-04-26T08:38:25.057Z</time></trkpt><trkpt lat="45.6666167" lon="9.9593283"><ele>194.5</ele><time>2026-04-26T08:38:26.057Z</time></trkpt><trkpt lat="45.6665233" lon="9.959375"><ele>194.0</ele><time>2026-04-26T08:38:27.054Z</time></trkpt><trkpt lat="45.666435" lon="9.959395"><ele>193.5</ele><time>2026-04-26T08:38:28.055Z</time></trkpt><trkpt lat="45.6663583" lon="9.9594067"><ele>193.0</ele><time>2026-04-26T08:38:29.056Z</time></trkpt><trkpt lat="45.6662917" lon="9.9594033"><ele>192.5</ele><time>2026-04-26T08:38:30.056Z</time></trkpt><trkpt lat="45.6661867" lon="9.9593867"><ele>192.0</ele><time>2026-04-26T08:38:32.054Z</time></trkpt><trkpt lat="45.6660967" lon="9.9593533"><ele>192.0</ele><time>2026-04-26T08:38:34.053Z</time></trkpt><trkpt lat="45.6660217" lon="9.9593367"><ele>192.0</ele><time>2026-04-26T08:38:36.055Z</time></trkpt><trkpt lat="45.6659533" lon="9.9592983"><ele>192.0</ele><time>2026-04-26T08:38:38.054Z</time></trkpt><trkpt lat="45.665875" lon="9.959255"><ele>192.0</ele><time>2026-04-26T08:38:40.056Z</time></trkpt><trkpt lat="45.6657883" lon="9.9591567"><ele>192.0</ele><time>2026-04-26T08:38:42.056Z</time></trkpt><trkpt lat="45.66575" lon="9.9590817"><ele>192.0</ele><time>2026-04-26T08:38:43.057Z</time></trkpt><trkpt lat="45.6657267" lon="9.9589867"><ele>191.83333333333334</ele><time>2026-04-26T08:38:44.057Z</time></trkpt><trkpt lat="45.6657117" lon="9.95887"><ele>191.66666666666666</ele><time>2026-04-26T08:38:45.056Z</time></trkpt><trkpt lat="45.6657067" lon="9.9587483"><ele>191.5</ele><time>2026-04-26T08:38:46.057Z</time></trkpt><trkpt lat="45.6657083" lon="9.958625"><ele>191.33333333333331</ele><time>2026-04-26T08:38:47.056Z</time></trkpt><trkpt lat="45.6657117" lon="9.9585017"><ele>191.16666666666666</ele><time>2026-04-26T08:38:48.057Z</time></trkpt><trkpt lat="45.665715" lon="9.9583883"><ele>191.0</ele><time>2026-04-26T08:38:49.057Z</time></trkpt><trkpt lat="45.6657233" lon="9.958285"><ele>191.0</ele><time>2026-04-26T08:38:50.058Z</time></trkpt><trkpt lat="45.66574" lon="9.9581833"><ele>191.0</ele><time>2026-04-26T08:38:51.056Z</time></trkpt><trkpt lat="45.66576" lon="9.95809"><ele>191.0</ele><time>2026-04-26T08:38:52.057Z</time></trkpt><trkpt lat="45.665785" lon="9.958"><ele>191.0</ele><time>2026-04-26T08:38:53.056Z</time></trkpt><trkpt lat="45.6658117" lon="9.9579167"><ele>191.0</ele><time>2026-04-26T08:38:54.056Z</time></trkpt><trkpt lat="45.66584" lon="9.957835"><ele>191.0</ele><time>2026-04-26T08:38:55.056Z</time></trkpt><trkpt lat="45.66587" lon="9.9577533"><ele>191.0</ele><time>2026-04-26T08:38:56.054Z</time></trkpt><trkpt lat="45.665915" lon="9.9576167"><ele>190.60000000000002</ele><time>2026-04-26T08:38:58.057Z</time></trkpt><trkpt lat="45.6659483" lon="9.9575067"><ele>190.2</ele><time>2026-04-26T08:39:00.056Z</time></trkpt><trkpt lat="45.6660017" lon="9.9574083"><ele>189.8</ele><time>2026-04-26T08:39:02.058Z</time></trkpt><trkpt lat="45.666095" lon="9.9573133"><ele>189.39999999999998</ele><time>2026-04-26T08:39:04.056Z</time></trkpt><trkpt lat="45.6661683" lon="9.9572017"><ele>189.0</ele><time>2026-04-26T08:39:06.057Z</time></trkpt><trkpt lat="45.666175" lon="9.9571117"><ele>189.0</ele><time>2026-04-26T08:39:08.054Z</time></trkpt><trkpt lat="45.66612" lon="9.95702"><ele>189.0</ele><time>2026-04-26T08:39:10.056Z</time></trkpt><trkpt lat="45.6660333" lon="9.956935"><ele>189.0</ele><time>2026-04-26T08:39:12.057Z</time></trkpt><trkpt lat="45.665935" lon="9.956845"><ele>189.0</ele><time>2026-04-26T08:39:14.058Z</time></trkpt><trkpt lat="45.6658333" lon="9.9567533"><ele>189.0</ele><time>2026-04-26T08:39:16.056Z</time></trkpt><trkpt lat="45.6657283" lon="9.95667"><ele>188.5</ele><time>2026-04-26T08:39:18.053Z</time></trkpt><trkpt lat="45.6656733" lon="9.95662"><ele>188.0</ele><time>2026-04-26T08:39:19.055Z</time></trkpt><trkpt lat="45.66561" lon="9.9565683"><ele>187.5</ele><time>2026-04-26T08:39:20.054Z</time></trkpt><trkpt lat="45.6655433" lon="9.9565117"><ele>187.0</ele><time>2026-04-26T08:39:21.053Z</time></trkpt><trkpt lat="45.66548" lon="9.9564583"><ele>186.5</ele><time>2026-04-26T08:39:22.054Z</time></trkpt><trkpt lat="45.66538" lon="9.95638"><ele>186.0</ele><time>2026-04-26T08:39:24.054Z</time></trkpt><trkpt lat="45.665305" lon="9.9563067"><ele>186.5</ele><time>2026-04-26T08:39:26.055Z</time></trkpt><trkpt lat="45.665235" lon="9.95624"><ele>187.0</ele><time>2026-04-26T08:39:28.053Z</time></trkpt><trkpt lat="45.66516" lon="9.9561767"><ele>187.5</ele><time>2026-04-26T08:39:30.059Z</time></trkpt><trkpt lat="45.6650783" lon="9.9561233"><ele>188.0</ele><time>2026-04-26T08:39:32.057Z</time></trkpt><trkpt lat="45.6650083" lon="9.956095"><ele>188.5</ele><time>2026-04-26T08:39:40.056Z</time></trkpt><trkpt lat="45.6649367" lon="9.9560717"><ele>189.0</ele><time>2026-04-26T08:39:42.057Z</time></trkpt><trkpt lat="45.664855" lon="9.956105"><ele>189.0</ele><time>2026-04-26T08:39:44.057Z</time></trkpt><trkpt lat="45.664755" lon="9.9561917"><ele>189.0</ele><time>2026-04-26T08:39:46.056Z</time></trkpt><trkpt lat="45.6647017" lon="9.95625"><ele>189.0</ele><time>2026-04-26T08:39:47.057Z</time></trkpt><trkpt lat="45.664645" lon="9.9563133"><ele>189.0</ele><time>2026-04-26T08:39:48.053Z</time></trkpt><trkpt lat="45.6645933" lon="9.9563883"><ele>189.0</ele><time>2026-04-26T08:39:49.054Z</time></trkpt><trkpt lat="45.6645467" lon="9.956475"><ele>189.0</ele><time>2026-04-26T08:39:50.055Z</time></trkpt><trkpt lat="45.6645133" lon="9.9565583"><ele>189.0</ele><time>2026-04-26T08:39:51.053Z</time></trkpt><trkpt lat="45.6644617" lon="9.95669"><ele>189.0</ele><time>2026-04-26T08:39:53.055Z</time></trkpt><trkpt lat="45.6644133" lon="9.9568"><ele>189.0</ele><time>2026-04-26T08:39:55.054Z</time></trkpt><trkpt lat="45.66437" lon="9.9569133"><ele>189.0</ele><time>2026-04-26T08:39:57.055Z</time></trkpt><trkpt lat="45.66428" lon="9.9569967"><ele>189.0</ele><time>2026-04-26T08:39:59.06Z</time></trkpt><trkpt lat="45.6642083" lon="9.95704"><ele>189.0</ele><time>2026-04-26T08:40:00.058Z</time></trkpt><trkpt lat="45.6641317" lon="9.9570517"><ele>189.0</ele><time>2026-04-26T08:40:01.057Z</time></trkpt><trkpt lat="45.6640617" lon="9.9570467"><ele>189.0</ele><time>2026-04-26T08:40:02.057Z</time></trkpt><trkpt lat="45.6639517" lon="9.9570133"><ele>189.0</ele><time>2026-04-26T08:40:04.054Z</time></trkpt><trkpt lat="45.6638633" lon="9.9569917"><ele>189.0</ele><time>2026-04-26T08:40:06.053Z</time></trkpt><trkpt lat="45.6637917" lon="9.956975"><ele>189.0</ele><time>2026-04-26T08:40:08.057Z</time></trkpt><trkpt lat="45.66371" lon="9.9569733"><ele>189.0</ele><time>2026-04-26T08:40:10.054Z</time></trkpt><trkpt lat="45.663595" lon="9.9569717"><ele>189.0</ele><time>2026-04-26T08:40:12.057Z</time></trkpt><trkpt lat="45.663525" lon="9.9569517"><ele>189.0</ele><time>2026-04-26T08:40:13.056Z</time></trkpt><trkpt lat="45.6634633" lon="9.95693"><ele>189.0</ele><time>2026-04-26T08:40:14.057Z</time></trkpt><trkpt lat="45.6633617" lon="9.9569083"><ele>189.0</ele><time>2026-04-26T08:40:16.056Z</time></trkpt><trkpt lat="45.6632867" lon="9.95694"><ele>189.0</ele><time>2026-04-26T08:40:18.053Z</time></trkpt><trkpt lat="45.6632433" lon="9.9570383"><ele>189.0</ele><time>2026-04-26T08:40:20.055Z</time></trkpt><trkpt lat="45.66326" lon="9.9571733"><ele>189.0</ele><time>2026-04-26T08:40:22.055Z</time></trkpt><trkpt lat="45.6632667" lon="9.957315"><ele>189.0</ele><time>2026-04-26T08:40:24.054Z</time></trkpt><trkpt lat="45.6632367" lon="9.9574483"><ele>189.0</ele><time>2026-04-26T08:40:26.056Z</time></trkpt><trkpt lat="45.6632033" lon="9.9575283"><ele>189.0</ele><time>2026-04-26T08:40:27.054Z</time></trkpt><trkpt lat="45.6631517" lon="9.9576233"><ele>189.0</ele><time>2026-04-26T08:40:28.054Z</time></trkpt><trkpt lat="45.6630883" lon="9.957735"><ele>189.0</ele><time>2026-04-26T08:40:29.058Z</time></trkpt><trkpt lat="45.6630133" lon="9.9578667"><ele>189.0</ele><time>2026-04-26T08:40:30.057Z</time></trkpt><trkpt lat="45.6629333" lon="9.9580133"><ele>189.0</ele><time>2026-04-26T08:40:31.056Z</time></trkpt><trkpt lat="45.66285" lon="9.9581683"><ele>189.0</ele><time>2026-04-26T08:40:32.057Z</time></trkpt><trkpt lat="45.6627567" lon="9.958325"><ele>189.25</ele><time>2026-04-26T08:40:33.057Z</time></trkpt><trkpt lat="45.6626667" lon="9.9584783"><ele>189.5</ele><time>2026-04-26T08:40:34.057Z</time></trkpt><trkpt lat="45.662585" lon="9.9586167"><ele>189.75</ele><time>2026-04-26T08:40:35.057Z</time></trkpt><trkpt lat="45.6625133" lon="9.9587333"><ele>190.0</ele><time>2026-04-26T08:40:36.056Z</time></trkpt><trkpt lat="45.6624517" lon="9.9588383"><ele>190.0</ele><time>2026-04-26T08:40:37.056Z</time></trkpt><trkpt lat="45.6623917" lon="9.958945"><ele>190.0</ele><time>2026-04-26T08:40:38.057Z</time></trkpt><trkpt lat="45.6623267" lon="9.9590567"><ele>190.0</ele><time>2026-04-26T08:40:39.057Z</time></trkpt><trkpt lat="45.66226" lon="9.9591717"><ele>190.0</ele><time>2026-04-26T08:40:40.057Z</time></trkpt><trkpt lat="45.6621933" lon="9.9592817"><ele>190.0</ele><time>2026-04-26T08:40:41.057Z</time></trkpt><trkpt lat="45.6621267" lon="9.959395"><ele>190.4</ele><time>2026-04-26T08:40:42.057Z</time></trkpt><trkpt lat="45.6620583" lon="9.959505"><ele>190.8</ele><time>2026-04-26T08:40:43.057Z</time></trkpt><trkpt lat="45.6619883" lon="9.9596217"><ele>191.2</ele><time>2026-04-26T08:40:44.057Z</time></trkpt><trkpt lat="45.6619167" lon="9.9597517"><ele>191.6</ele><time>2026-04-26T08:40:45.058Z</time></trkpt><trkpt lat="45.6618417" lon="9.9598917"><ele>192.0</ele><time>2026-04-26T08:40:46.056Z</time></trkpt><trkpt lat="45.6617517" lon="9.96004"><ele>190.66666666666666</ele><time>2026-04-26T08:40:47.054Z</time></trkpt><trkpt lat="45.6616483" lon="9.9602033"><ele>189.33333333333331</ele><time>2026-04-26T08:40:48.054Z</time></trkpt><trkpt lat="45.6615383" lon="9.9603767"><ele>188.0</ele><time>2026-04-26T08:40:49.054Z</time></trkpt><trkpt lat="45.6614267" lon="9.960555"><ele>188.0</ele><time>2026-04-26T08:40:50.055Z</time></trkpt><trkpt lat="45.6613183" lon="9.960735"><ele>188.0</ele><time>2026-04-26T08:40:51.053Z</time></trkpt><trkpt lat="45.6612133" lon="9.96091"><ele>188.0</ele><time>2026-04-26T08:40:52.053Z</time></trkpt><trkpt lat="45.6611167" lon="9.9610667"><ele>188.5</ele><time>2026-04-26T08:40:53.054Z</time></trkpt><trkpt lat="45.6610317" lon="9.9612067"><ele>189.0</ele><time>2026-04-26T08:40:54.054Z</time></trkpt><trkpt lat="45.660955" lon="9.961335"><ele>189.5</ele><time>2026-04-26T08:40:55.054Z</time></trkpt><trkpt lat="45.6608833" lon="9.9614583"><ele>190.0</ele><time>2026-04-26T08:40:56.053Z</time></trkpt><trkpt lat="45.6608117" lon="9.9615817"><ele>190.0</ele><time>2026-04-26T08:40:57.052Z</time></trkpt><trkpt lat="45.660735" lon="9.9617067"><ele>190.0</ele><time>2026-04-26T08:40:58.053Z</time></trkpt><trkpt lat="45.66066" lon="9.9618333"><ele>190.0</ele><time>2026-04-26T08:40:59.057Z</time></trkpt><trkpt lat="45.6605833" lon="9.9619583"><ele>190.0</ele><time>2026-04-26T08:41:00.057Z</time></trkpt><trkpt lat="45.66051" lon="9.9620817"><ele>190.0</ele><time>2026-04-26T08:41:01.056Z</time></trkpt><trkpt lat="45.6604417" lon="9.9622017"><ele>190.0</ele><time>2026-04-26T08:41:02.056Z</time></trkpt><trkpt lat="45.6603767" lon="9.9623083"><ele>190.0</ele><time>2026-04-26T08:41:03.056Z</time></trkpt><trkpt lat="45.6603117" lon="9.9624117"><ele>190.0</ele><time>2026-04-26T08:41:04.056Z</time></trkpt><trkpt lat="45.6602483" lon="9.962515"><ele>190.0</ele><time>2026-04-26T08:41:05.056Z</time></trkpt><trkpt lat="45.6601817" lon="9.9626217"><ele>189.6</ele><time>2026-04-26T08:41:06.056Z</time></trkpt><trkpt lat="45.6601117" lon="9.9627317"><ele>189.2</ele><time>2026-04-26T08:41:07.056Z</time></trkpt><trkpt lat="45.6600467" lon="9.9628467"><ele>188.8</ele><time>2026-04-26T08:41:08.056Z</time></trkpt><trkpt lat="45.6599783" lon="9.962955"><ele>188.4</ele><time>2026-04-26T08:41:09.056Z</time></trkpt><trkpt lat="45.659915" lon="9.9630617"><ele>188.0</ele><time>2026-04-26T08:41:10.056Z</time></trkpt><trkpt lat="45.6598533" lon="9.96316"><ele>188.0</ele><time>2026-04-26T08:41:11.056Z</time></trkpt><trkpt lat="45.659795" lon="9.96326"><ele>188.0</ele><time>2026-04-26T08:41:12.055Z</time></trkpt><trkpt lat="45.6597383" lon="9.9633583"><ele>188.0</ele><time>2026-04-26T08:41:13.056Z</time></trkpt><trkpt lat="45.6596783" lon="9.9634533"><ele>188.0</ele><time>2026-04-26T08:41:14.056Z</time></trkpt><trkpt lat="45.6596167" lon="9.96355"><ele>188.0</ele><time>2026-04-26T08:41:15.056Z</time></trkpt><trkpt lat="45.659555" lon="9.963655"><ele>187.8</ele><time>2026-04-26T08:41:16.057Z</time></trkpt><trkpt lat="45.65949" lon="9.9637667"><ele>187.60000000000002</ele><time>2026-04-26T08:41:17.054Z</time></trkpt><trkpt lat="45.65942" lon="9.9638833"><ele>187.39999999999998</ele><time>2026-04-26T08:41:18.053Z</time></trkpt><trkpt lat="45.659355" lon="9.9639933"><ele>187.2</ele><time>2026-04-26T08:41:19.053Z</time></trkpt><trkpt lat="45.6592983" lon="9.964095"><ele>187.0</ele><time>2026-04-26T08:41:20.056Z</time></trkpt><trkpt lat="45.659245" lon="9.9641883"><ele>187.14285714285714</ele><time>2026-04-26T08:41:21.052Z</time></trkpt><trkpt lat="45.659195" lon="9.964275"><ele>187.2857142857143</ele><time>2026-04-26T08:41:22.054Z</time></trkpt><trkpt lat="45.659145" lon="9.9643533"><ele>187.42857142857144</ele><time>2026-04-26T08:41:23.054Z</time></trkpt><trkpt lat="45.659095" lon="9.9644283"><ele>187.57142857142856</ele><time>2026-04-26T08:41:24.056Z</time></trkpt><trkpt lat="45.6590417" lon="9.964495"><ele>187.71428571428572</ele><time>2026-04-26T08:41:25.054Z</time></trkpt><trkpt lat="45.6589867" lon="9.96455"><ele>187.85714285714286</ele><time>2026-04-26T08:41:26.056Z</time></trkpt><trkpt lat="45.6589283" lon="9.9645933"><ele>188.0</ele><time>2026-04-26T08:41:27.053Z</time></trkpt><trkpt lat="45.658815" lon="9.964645"><ele>188.0</ele><time>2026-04-26T08:41:29.053Z</time></trkpt><trkpt lat="45.658695" lon="9.9646767"><ele>188.0</ele><time>2026-04-26T08:41:31.053Z</time></trkpt><trkpt lat="45.6585917" lon="9.96477"><ele>188.0</ele><time>2026-04-26T08:41:33.056Z</time></trkpt><trkpt lat="45.6585717" lon="9.9648617"><ele>188.0</ele><time>2026-04-26T08:41:34.056Z</time></trkpt><trkpt lat="45.6585767" lon="9.9649583"><ele>188.0</ele><time>2026-04-26T08:41:35.056Z</time></trkpt><trkpt lat="45.65858" lon="9.96506"><ele>188.16666666666666</ele><time>2026-04-26T08:41:36.06Z</time></trkpt><trkpt lat="45.6585667" lon="9.96516"><ele>188.33333333333331</ele><time>2026-04-26T08:41:37.056Z</time></trkpt><trkpt lat="45.6585417" lon="9.965265"><ele>188.5</ele><time>2026-04-26T08:41:38.056Z</time></trkpt><trkpt lat="45.6585017" lon="9.96538"><ele>188.66666666666666</ele><time>2026-04-26T08:41:39.056Z</time></trkpt><trkpt lat="45.6584433" lon="9.965495"><ele>188.83333333333334</ele><time>2026-04-26T08:41:40.057Z</time></trkpt><trkpt lat="45.6583867" lon="9.9656117"><ele>189.0</ele><time>2026-04-26T08:41:41.056Z</time></trkpt><trkpt lat="45.65833" lon="9.9657233"><ele>189.0</ele><time>2026-04-26T08:41:42.055Z</time></trkpt><trkpt lat="45.65828" lon="9.9658417"><ele>189.0</ele><time>2026-04-26T08:41:43.055Z</time></trkpt><trkpt lat="45.6582317" lon="9.9659667"><ele>189.0</ele><time>2026-04-26T08:41:44.056Z</time></trkpt><trkpt lat="45.65818" lon="9.9661017"><ele>189.0</ele><time>2026-04-26T08:41:45.056Z</time></trkpt><trkpt lat="45.6581367" lon="9.96624"><ele>189.0</ele><time>2026-04-26T08:41:46.056Z</time></trkpt><trkpt lat="45.6581017" lon="9.9663883"><ele>189.25</ele><time>2026-04-26T08:41:47.054Z</time></trkpt><trkpt lat="45.6580733" lon="9.9665483"><ele>189.5</ele><time>2026-04-26T08:41:48.053Z</time></trkpt><trkpt lat="45.65805" lon="9.9667233"><ele>189.75</ele><time>2026-04-26T08:41:49.054Z</time></trkpt><trkpt lat="45.65803" lon="9.9669033"><ele>190.0</ele><time>2026-04-26T08:41:50.055Z</time></trkpt><trkpt lat="45.6580217" lon="9.967075"><ele>189.8</ele><time>2026-04-26T08:41:51.053Z</time></trkpt><trkpt lat="45.6580233" lon="9.967225"><ele>189.6</ele><time>2026-04-26T08:41:52.054Z</time></trkpt><trkpt lat="45.6580317" lon="9.9673667"><ele>189.39999999999998</ele><time>2026-04-26T08:41:53.053Z</time></trkpt><trkpt lat="45.658045" lon="9.9674983"><ele>189.2</ele><time>2026-04-26T08:41:54.057Z</time></trkpt><trkpt lat="45.6580633" lon="9.96763"><ele>189.0</ele><time>2026-04-26T08:41:55.056Z</time></trkpt><trkpt lat="45.658095" lon="9.9677567"><ele>189.0</ele><time>2026-04-26T08:41:56.056Z</time></trkpt><trkpt lat="45.658135" lon="9.9678867"><ele>189.0</ele><time>2026-04-26T08:41:57.056Z</time></trkpt><trkpt lat="45.6581817" lon="9.9680233"><ele>189.0</ele><time>2026-04-26T08:41:58.056Z</time></trkpt><trkpt lat="45.6582417" lon="9.9681717"><ele>189.0</ele><time>2026-04-26T08:41:59.056Z</time></trkpt><trkpt lat="45.658315" lon="9.9683383"><ele>190.0</ele><time>2026-04-26T08:42:00.053Z</time></trkpt><trkpt lat="45.6584033" lon="9.96851"><ele>191.0</ele><time>2026-04-26T08:42:01.056Z</time></trkpt><trkpt lat="45.6585" lon="9.9686733"><ele>192.0</ele><time>2026-04-26T08:42:02.056Z</time></trkpt><trkpt lat="45.658605" lon="9.96883"><ele>191.5</ele><time>2026-04-26T08:42:03.056Z</time></trkpt><trkpt lat="45.6587117" lon="9.968975"><ele>191.0</ele><time>2026-04-26T08:42:04.056Z</time></trkpt><trkpt lat="45.65881" lon="9.9691067"><ele>190.5</ele><time>2026-04-26T08:42:05.056Z</time></trkpt><trkpt lat="45.6588983" lon="9.9692283"><ele>190.0</ele><time>2026-04-26T08:42:06.056Z</time></trkpt><trkpt lat="45.658985" lon="9.9693433"><ele>191.0</ele><time>2026-04-26T08:42:07.057Z</time></trkpt><trkpt lat="45.659065" lon="9.969455"><ele>192.0</ele><time>2026-04-26T08:42:08.056Z</time></trkpt><trkpt lat="45.6591467" lon="9.9695667"><ele>193.0</ele><time>2026-04-26T08:42:09.057Z</time></trkpt><trkpt lat="45.6592317" lon="9.969685"><ele>194.0</ele><time>2026-04-26T08:42:10.058Z</time></trkpt><trkpt lat="45.65932" lon="9.9698083"><ele>194.0</ele><time>2026-04-26T08:42:11.055Z</time></trkpt><trkpt lat="45.6594117" lon="9.969935"><ele>194.0</ele><time>2026-04-26T08:42:12.054Z</time></trkpt><trkpt lat="45.6595" lon="9.9700617"><ele>194.0</ele><time>2026-04-26T08:42:13.054Z</time></trkpt><trkpt lat="45.65958" lon="9.9701783"><ele>194.0</ele><time>2026-04-26T08:42:14.056Z</time></trkpt><trkpt lat="45.6596533" lon="9.9702817"><ele>193.2</ele><time>2026-04-26T08:42:15.056Z</time></trkpt><trkpt lat="45.6597183" lon="9.9703733"><ele>192.39999999999998</ele><time>2026-04-26T08:42:16.056Z</time></trkpt><trkpt lat="45.6597783" lon="9.9704633"><ele>191.6</ele><time>2026-04-26T08:42:17.057Z</time></trkpt><trkpt lat="45.65984" lon="9.9705467"><ele>190.8</ele><time>2026-04-26T08:42:18.054Z</time></trkpt><trkpt lat="45.6599067" lon="9.9706317"><ele>190.0</ele><time>2026-04-26T08:42:19.054Z</time></trkpt><trkpt lat="45.65998" lon="9.970725"><ele>190.0</ele><time>2026-04-26T08:42:20.054Z</time></trkpt><trkpt lat="45.66006" lon="9.9708267"><ele>190.0</ele><time>2026-04-26T08:42:21.054Z</time></trkpt><trkpt lat="45.6601433" lon="9.9709367"><ele>190.0</ele><time>2026-04-26T08:42:22.053Z</time></trkpt><trkpt lat="45.6602233" lon="9.97105"><ele>190.0</ele><time>2026-04-26T08:42:23.056Z</time></trkpt><trkpt lat="45.6603" lon="9.9711567"><ele>190.0</ele><time>2026-04-26T08:42:24.053Z</time></trkpt><trkpt lat="45.66037" lon="9.97126"><ele>189.8</ele><time>2026-04-26T08:42:25.056Z</time></trkpt><trkpt lat="45.660445" lon="9.9713583"><ele>189.6</ele><time>2026-04-26T08:42:26.053Z</time></trkpt><trkpt lat="45.6605233" lon="9.9714617"><ele>189.39999999999998</ele><time>2026-04-26T08:42:27.056Z</time></trkpt><trkpt lat="45.66061" lon="9.9715733"><ele>189.2</ele><time>2026-04-26T08:42:28.054Z</time></trkpt><trkpt lat="45.660695" lon="9.9716983"><ele>189.0</ele><time>2026-04-26T08:42:29.054Z</time></trkpt><trkpt lat="45.660775" lon="9.9718367"><ele>189.0</ele><time>2026-04-26T08:42:30.056Z</time></trkpt><trkpt lat="45.6608483" lon="9.9719783"><ele>189.0</ele><time>2026-04-26T08:42:31.053Z</time></trkpt><trkpt lat="45.6609167" lon="9.97212"><ele>189.0</ele><time>2026-04-26T08:42:32.056Z</time></trkpt><trkpt lat="45.66098" lon="9.9722717"><ele>189.0</ele><time>2026-04-26T08:42:33.053Z</time></trkpt><trkpt lat="45.6610367" lon="9.9724267"><ele>189.75</ele><time>2026-04-26T08:42:34.053Z</time></trkpt><trkpt lat="45.661095" lon="9.9725917"><ele>190.5</ele><time>2026-04-26T08:42:35.057Z</time></trkpt><trkpt lat="45.6611533" lon="9.9727683"><ele>191.25</ele><time>2026-04-26T08:42:36.056Z</time></trkpt><trkpt lat="45.6612017" lon="9.97297"><ele>192.0</ele><time>2026-04-26T08:42:37.056Z</time></trkpt><trkpt lat="45.6612567" lon="9.97318"><ele>190.33333333333334</ele><time>2026-04-26T08:42:38.057Z</time></trkpt><trkpt lat="45.6613167" lon="9.97339"><ele>188.66666666666669</ele><time>2026-04-26T08:42:39.057Z</time></trkpt><trkpt lat="45.6613783" lon="9.9736083"><ele>187.0</ele><time>2026-04-26T08:42:40.055Z</time></trkpt><trkpt lat="45.6614367" lon="9.973835"><ele>187.0</ele><time>2026-04-26T08:42:41.056Z</time></trkpt><trkpt lat="45.6614983" lon="9.9740583"><ele>187.0</ele><time>2026-04-26T08:42:42.056Z</time></trkpt><trkpt lat="45.6615533" lon="9.9742767"><ele>187.0</ele><time>2026-04-26T08:42:43.053Z</time></trkpt><trkpt lat="45.6616017" lon="9.97449"><ele>188.33333333333334</ele><time>2026-04-26T08:42:44.054Z</time></trkpt><trkpt lat="45.66165" lon="9.9747"><ele>189.66666666666666</ele><time>2026-04-26T08:42:45.056Z</time></trkpt><trkpt lat="45.6617" lon="9.9749067"><ele>191.0</ele><time>2026-04-26T08:42:46.056Z</time></trkpt><trkpt lat="45.6617517" lon="9.9751167"><ele>192.0</ele><time>2026-04-26T08:42:47.056Z</time></trkpt><trkpt lat="45.6618117" lon="9.9753317"><ele>193.0</ele><time>2026-04-26T08:42:48.057Z</time></trkpt><trkpt lat="45.6618767" lon="9.97556"><ele>194.0</ele><time>2026-04-26T08:42:49.056Z</time></trkpt><trkpt lat="45.6619417" lon="9.9757883"><ele>191.0</ele><time>2026-04-26T08:42:50.056Z</time></trkpt><trkpt lat="45.662" lon="9.97602"><ele>188.0</ele><time>2026-04-26T08:42:51.056Z</time></trkpt><trkpt lat="45.6620583" lon="9.97625"><ele>185.0</ele><time>2026-04-26T08:42:52.056Z</time></trkpt><trkpt lat="45.6621183" lon="9.9764783"><ele>187.0</ele><time>2026-04-26T08:42:53.056Z</time></trkpt><trkpt lat="45.6621783" lon="9.9767033"><ele>189.0</ele><time>2026-04-26T08:42:54.057Z</time></trkpt><trkpt lat="45.6622417" lon="9.9769233"><ele>191.0</ele><time>2026-04-26T08:42:55.056Z</time></trkpt><trkpt lat="45.6623083" lon="9.97714"><ele>191.0</ele><time>2026-04-26T08:42:56.056Z</time></trkpt><trkpt lat="45.66238" lon="9.9773517"><ele>191.0</ele><time>2026-04-26T08:42:57.056Z</time></trkpt><trkpt lat="45.6624567" lon="9.9775617"><ele>191.0</ele><time>2026-04-26T08:42:58.056Z</time></trkpt><trkpt lat="45.66253" lon="9.9777817"><ele>194.66666666666666</ele><time>2026-04-26T08:42:59.056Z</time></trkpt><trkpt lat="45.662605" lon="9.9780017"><ele>198.33333333333331</ele><time>2026-04-26T08:43:00.056Z</time></trkpt><trkpt lat="45.6626767" lon="9.9782233"><ele>202.0</ele><time>2026-04-26T08:43:01.057Z</time></trkpt><trkpt lat="45.662745" lon="9.9784467"><ele>197.33333333333331</ele><time>2026-04-26T08:43:02.056Z</time></trkpt><trkpt lat="45.6628233" lon="9.9786667"><ele>192.66666666666666</ele><time>2026-04-26T08:43:03.057Z</time></trkpt><trkpt lat="45.662905" lon="9.9788883"><ele>188.0</ele><time>2026-04-26T08:43:04.056Z</time></trkpt><trkpt lat="45.6629867" lon="9.9791117"><ele>188.66666666666666</ele><time>2026-04-26T08:43:05.056Z</time></trkpt><trkpt lat="45.6630717" lon="9.97934"><ele>189.33333333333334</ele><time>2026-04-26T08:43:06.056Z</time></trkpt><trkpt lat="45.6631533" lon="9.9795717"><ele>190.0</ele><time>2026-04-26T08:43:07.056Z</time></trkpt><trkpt lat="45.6632383" lon="9.9798033"><ele>191.0</ele><time>2026-04-26T08:43:08.056Z</time></trkpt><trkpt lat="45.663325" lon="9.9800367"><ele>192.0</ele><time>2026-04-26T08:43:09.056Z</time></trkpt><trkpt lat="45.66341" lon="9.9802683"><ele>193.0</ele><time>2026-04-26T08:43:10.056Z</time></trkpt><trkpt lat="45.6634883" lon="9.9804833"><ele>193.0</ele><time>2026-04-26T08:43:11.056Z</time></trkpt><trkpt lat="45.6635517" lon="9.9806817"><ele>193.0</ele><time>2026-04-26T08:43:12.056Z</time></trkpt><trkpt lat="45.6636017" lon="9.98086"><ele>193.0</ele><time>2026-04-26T08:43:13.056Z</time></trkpt><trkpt lat="45.663625" lon="9.9810283"><ele>193.0</ele><time>2026-04-26T08:43:14.056Z</time></trkpt><trkpt lat="45.6636333" lon="9.98118"><ele>193.49999999999997</ele><time>2026-04-26T08:43:15.056Z</time></trkpt><trkpt lat="45.6636217" lon="9.9813083"><ele>194.0</ele><time>2026-04-26T08:43:16.057Z</time></trkpt><trkpt lat="45.6635917" lon="9.9814233"><ele>194.5</ele><time>2026-04-26T08:43:17.056Z</time></trkpt><trkpt lat="45.6635667" lon="9.9815367"><ele>195.0</ele><time>2026-04-26T08:43:18.057Z</time></trkpt><trkpt lat="45.6635583" lon="9.9816517"><ele>195.49999999999997</ele><time>2026-04-26T08:43:19.056Z</time></trkpt><trkpt lat="45.6635783" lon="9.9817467"><ele>196.0</ele><time>2026-04-26T08:43:20.056Z</time></trkpt><trkpt lat="45.6636033" lon="9.9818417"><ele>194.0</ele><time>2026-04-26T08:43:21.056Z</time></trkpt><trkpt lat="45.6637133" lon="9.9818933"><ele>192.0</ele><time>2026-04-26T08:43:22.057Z</time></trkpt><trkpt lat="45.6638033" lon="9.98198"><ele>190.0</ele><time>2026-04-26T08:43:23.053Z</time></trkpt><trkpt lat="45.6638883" lon="9.9821017"><ele>188.0</ele><time>2026-04-26T08:43:24.056Z</time></trkpt><trkpt lat="45.66395" lon="9.9822667"><ele>188.0</ele><time>2026-04-26T08:43:25.056Z</time></trkpt><trkpt lat="45.6639967" lon="9.9824783"><ele>188.0</ele><time>2026-04-26T08:43:26.056Z</time></trkpt><trkpt lat="45.6640383" lon="9.9827033"><ele>188.0</ele><time>2026-04-26T08:43:27.056Z</time></trkpt><trkpt lat="45.6640783" lon="9.982935"><ele>188.66666666666666</ele><time>2026-04-26T08:43:28.056Z</time></trkpt><trkpt lat="45.6641183" lon="9.98317"><ele>189.33333333333334</ele><time>2026-04-26T08:43:29.056Z</time></trkpt><trkpt lat="45.6641617" lon="9.9834133"><ele>190.0</ele><time>2026-04-26T08:43:30.056Z</time></trkpt><trkpt lat="45.664205" lon="9.9836583"><ele>190.66666666666669</ele><time>2026-04-26T08:43:31.053Z</time></trkpt><trkpt lat="45.6642533" lon="9.9838983"><ele>191.33333333333334</ele><time>2026-04-26T08:43:32.054Z</time></trkpt><trkpt lat="45.6642983" lon="9.9841417"><ele>192.0</ele><time>2026-04-26T08:43:33.053Z</time></trkpt><trkpt lat="45.66434" lon="9.9843817"><ele>191.0</ele><time>2026-04-26T08:43:34.053Z</time></trkpt><trkpt lat="45.6643817" lon="9.98462"><ele>190.0</ele><time>2026-04-26T08:43:35.054Z</time></trkpt><trkpt lat="45.664425" lon="9.9848533"><ele>189.0</ele><time>2026-04-26T08:43:36.053Z</time></trkpt><trkpt lat="45.6644683" lon="9.985085"><ele>189.0</ele><time>2026-04-26T08:43:37.053Z</time></trkpt><trkpt lat="45.66451" lon="9.9853117"><ele>189.0</ele><time>2026-04-26T08:43:38.054Z</time></trkpt><trkpt lat="45.6645517" lon="9.98554"><ele>189.0</ele><time>2026-04-26T08:43:39.053Z</time></trkpt><trkpt lat="45.6645883" lon="9.9857667"><ele>189.0</ele><time>2026-04-26T08:43:40.054Z</time></trkpt><trkpt lat="45.6646267" lon="9.985995"><ele>189.0</ele><time>2026-04-26T08:43:41.057Z</time></trkpt><trkpt lat="45.6646633" lon="9.98622"><ele>189.0</ele><time>2026-04-26T08:43:42.057Z</time></trkpt><trkpt lat="45.6646967" lon="9.9864317"><ele>189.0</ele><time>2026-04-26T08:43:43.056Z</time></trkpt><trkpt lat="45.6647317" lon="9.9866217"><ele>189.0</ele><time>2026-04-26T08:43:44.056Z</time></trkpt><trkpt lat="45.66476" lon="9.9868"><ele>189.0</ele><time>2026-04-26T08:43:45.053Z</time></trkpt><trkpt lat="45.6647883" lon="9.98697"><ele>189.0</ele><time>2026-04-26T08:43:46.056Z</time></trkpt><trkpt lat="45.664815" lon="9.9871367"><ele>188.75</ele><time>2026-04-26T08:43:47.056Z</time></trkpt><trkpt lat="45.664845" lon="9.9873067"><ele>188.5</ele><time>2026-04-26T08:43:48.056Z</time></trkpt><trkpt lat="45.6648767" lon="9.9874817"><ele>188.25</ele><time>2026-04-26T08:43:49.056Z</time></trkpt><trkpt lat="45.6649083" lon="9.9876633"><ele>188.0</ele><time>2026-04-26T08:43:50.056Z</time></trkpt><trkpt lat="45.66494" lon="9.9878517"><ele>188.5</ele><time>2026-04-26T08:43:51.056Z</time></trkpt><trkpt lat="45.6649717" lon="9.9880467"><ele>189.0</ele><time>2026-04-26T08:43:52.056Z</time></trkpt><trkpt lat="45.665005" lon="9.98825"><ele>189.5</ele><time>2026-04-26T08:43:53.057Z</time></trkpt><trkpt lat="45.66504" lon="9.9884533"><ele>190.0</ele><time>2026-04-26T08:43:54.056Z</time></trkpt><trkpt lat="45.6650733" lon="9.9886567"><ele>190.0</ele><time>2026-04-26T08:43:55.056Z</time></trkpt><trkpt lat="45.6651067" lon="9.9888583"><ele>190.0</ele><time>2026-04-26T08:43:56.056Z</time></trkpt><trkpt lat="45.6651417" lon="9.9890567"><ele>190.0</ele><time>2026-04-26T08:43:57.056Z</time></trkpt><trkpt lat="45.6651767" lon="9.9892567"><ele>190.0</ele><time>2026-04-26T08:43:58.056Z</time></trkpt><trkpt lat="45.66521" lon="9.9894567"><ele>189.75</ele><time>2026-04-26T08:43:59.053Z</time></trkpt><trkpt lat="45.665245" lon="9.9896567"><ele>189.5</ele><time>2026-04-26T08:44:00.056Z</time></trkpt><trkpt lat="45.66528" lon="9.98986"><ele>189.25</ele><time>2026-04-26T08:44:01.057Z</time></trkpt><trkpt lat="45.6653167" lon="9.990065"><ele>189.0</ele><time>2026-04-26T08:44:02.057Z</time></trkpt><trkpt lat="45.6653533" lon="9.990265"><ele>189.0</ele><time>2026-04-26T08:44:03.057Z</time></trkpt><trkpt lat="45.6653867" lon="9.990465"><ele>189.0</ele><time>2026-04-26T08:44:04.056Z</time></trkpt><trkpt lat="45.6654083" lon="9.990675"><ele>189.0</ele><time>2026-04-26T08:44:05.057Z</time></trkpt><trkpt lat="45.665415" lon="9.99089"><ele>189.0</ele><time>2026-04-26T08:44:06.056Z</time></trkpt><trkpt lat="45.665415" lon="9.99111"><ele>188.33333333333334</ele><time>2026-04-26T08:44:07.053Z</time></trkpt><trkpt lat="45.6654083" lon="9.9913367"><ele>187.66666666666669</ele><time>2026-04-26T08:44:08.054Z</time></trkpt><trkpt lat="45.66539" lon="9.9915633"><ele>187.0</ele><time>2026-04-26T08:44:09.054Z</time></trkpt><trkpt lat="45.6653733" lon="9.9917883"><ele>186.66666666666669</ele><time>2026-04-26T08:44:10.056Z</time></trkpt><trkpt lat="45.6653417" lon="9.992025"><ele>186.33333333333334</ele><time>2026-04-26T08:44:11.058Z</time></trkpt><trkpt lat="45.6653183" lon="9.9922683"><ele>186.0</ele><time>2026-04-26T08:44:12.056Z</time></trkpt><trkpt lat="45.6652917" lon="9.9925233"><ele>189.66666666666669</ele><time>2026-04-26T08:44:13.056Z</time></trkpt><trkpt lat="45.66527" lon="9.9927567"><ele>193.33333333333334</ele><time>2026-04-26T08:44:14.053Z</time></trkpt><trkpt lat="45.6652417" lon="9.992985"><ele>197.0</ele><time>2026-04-26T08:44:15.053Z</time></trkpt><trkpt lat="45.6652167" lon="9.9931967"><ele>196.0</ele><time>2026-04-26T08:44:16.056Z</time></trkpt><trkpt lat="45.665195" lon="9.9934033"><ele>195.0</ele><time>2026-04-26T08:44:17.055Z</time></trkpt><trkpt lat="45.66517" lon="9.9936"><ele>194.0</ele><time>2026-04-26T08:44:18.057Z</time></trkpt><trkpt lat="45.6651433" lon="9.99378"><ele>193.0</ele><time>2026-04-26T08:44:19.055Z</time></trkpt><trkpt lat="45.665115" lon="9.9939617"><ele>193.0</ele><time>2026-04-26T08:44:20.056Z</time></trkpt><trkpt lat="45.6650883" lon="9.99415"><ele>193.0</ele><time>2026-04-26T08:44:21.056Z</time></trkpt><trkpt lat="45.6650633" lon="9.9943417"><ele>193.0</ele><time>2026-04-26T08:44:22.056Z</time></trkpt><trkpt lat="45.66504" lon="9.9945333"><ele>193.0</ele><time>2026-04-26T08:44:23.055Z</time></trkpt><trkpt lat="45.6650117" lon="9.9947267"><ele>192.5</ele><time>2026-04-26T08:44:24.053Z</time></trkpt><trkpt lat="45.6649867" lon="9.9949167"><ele>192.0</ele><time>2026-04-26T08:44:25.057Z</time></trkpt><trkpt lat="45.6649633" lon="9.995105"><ele>191.5</ele><time>2026-04-26T08:44:26.056Z</time></trkpt><trkpt lat="45.6649367" lon="9.9952983"><ele>191.0</ele><time>2026-04-26T08:44:27.056Z</time></trkpt><trkpt lat="45.66491" lon="9.99549"><ele>190.75</ele><time>2026-04-26T08:44:28.054Z</time></trkpt><trkpt lat="45.664885" lon="9.99568"><ele>190.5</ele><time>2026-04-26T08:44:29.053Z</time></trkpt><trkpt lat="45.6648583" lon="9.9958683"><ele>190.25</ele><time>2026-04-26T08:44:30.053Z</time></trkpt><trkpt lat="45.6648333" lon="9.99605"><ele>190.0</ele><time>2026-04-26T08:44:31.053Z</time></trkpt><trkpt lat="45.66481" lon="9.9962283"><ele>189.5</ele><time>2026-04-26T08:44:32.054Z</time></trkpt><trkpt lat="45.6647833" lon="9.9964033"><ele>189.0</ele><time>2026-04-26T08:44:33.053Z</time></trkpt><trkpt lat="45.664755" lon="9.99658"><ele>188.5</ele><time>2026-04-26T08:44:34.053Z</time></trkpt><trkpt lat="45.6647183" lon="9.9967483"><ele>188.0</ele><time>2026-04-26T08:44:35.055Z</time></trkpt><trkpt lat="45.6646783" lon="9.99692"><ele>188.0</ele><time>2026-04-26T08:44:36.053Z</time></trkpt><trkpt lat="45.664625" lon="9.99709"><ele>188.0</ele><time>2026-04-26T08:44:37.054Z</time></trkpt><trkpt lat="45.66456" lon="9.9972533"><ele>188.0</ele><time>2026-04-26T08:44:38.054Z</time></trkpt><trkpt lat="45.6644933" lon="9.9974167"><ele>188.0</ele><time>2026-04-26T08:44:39.054Z</time></trkpt><trkpt lat="45.6644233" lon="9.9975767"><ele>188.0</ele><time>2026-04-26T08:44:40.053Z</time></trkpt><trkpt lat="45.6643467" lon="9.9977267"><ele>188.0</ele><time>2026-04-26T08:44:41.055Z</time></trkpt><trkpt lat="45.6642717" lon="9.9978717"><ele>188.0</ele><time>2026-04-26T08:44:42.053Z</time></trkpt><trkpt lat="45.66419" lon="9.998005"><ele>188.0</ele><time>2026-04-26T08:44:43.053Z</time></trkpt><trkpt lat="45.6640983" lon="9.9981283"><ele>188.0</ele><time>2026-04-26T08:44:44.053Z</time></trkpt><trkpt lat="45.6639983" lon="9.99825"><ele>188.0</ele><time>2026-04-26T08:44:45.057Z</time></trkpt><trkpt lat="45.6638883" lon="9.9983667"><ele>188.0</ele><time>2026-04-26T08:44:46.057Z</time></trkpt><trkpt lat="45.6637767" lon="9.998485"><ele>188.0</ele><time>2026-04-26T08:44:47.057Z</time></trkpt><trkpt lat="45.6636667" lon="9.9986067"><ele>188.25</ele><time>2026-04-26T08:44:48.056Z</time></trkpt><trkpt lat="45.6635533" lon="9.9987233"><ele>188.5</ele><time>2026-04-26T08:44:49.057Z</time></trkpt><trkpt lat="45.6634417" lon="9.9988317"><ele>188.75</ele><time>2026-04-26T08:44:50.057Z</time></trkpt><trkpt lat="45.6633417" lon="9.99893"><ele>189.0</ele><time>2026-04-26T08:44:51.056Z</time></trkpt><trkpt lat="45.66325" lon="9.9990283"><ele>189.0</ele><time>2026-04-26T08:44:52.056Z</time></trkpt><trkpt lat="45.6631633" lon="9.9991183"><ele>189.0</ele><time>2026-04-26T08:44:53.056Z</time></trkpt><trkpt lat="45.66308" lon="9.9992083"><ele>189.0</ele><time>2026-04-26T08:44:54.057Z</time></trkpt><trkpt lat="45.6629967" lon="9.9992967"><ele>189.0</ele><time>2026-04-26T08:44:55.056Z</time></trkpt><trkpt lat="45.662915" lon="9.9993817"><ele>189.0</ele><time>2026-04-26T08:44:56.057Z</time></trkpt><trkpt lat="45.6628333" lon="9.99947"><ele>189.6</ele><time>2026-04-26T08:44:57.056Z</time></trkpt><trkpt lat="45.6627483" lon="9.9995583"><ele>190.2</ele><time>2026-04-26T08:44:58.057Z</time></trkpt><trkpt lat="45.6626617" lon="9.99965"><ele>190.79999999999998</ele><time>2026-04-26T08:44:59.056Z</time></trkpt><trkpt lat="45.6625733" lon="9.9997433"><ele>191.39999999999998</ele><time>2026-04-26T08:45:00.056Z</time></trkpt><trkpt lat="45.6624833" lon="9.9998417"><ele>192.0</ele><time>2026-04-26T08:45:01.057Z</time></trkpt><trkpt lat="45.662395" lon="9.9999417"><ele>192.0</ele><time>2026-04-26T08:45:02.057Z</time></trkpt><trkpt lat="45.6623117" lon="10.0000383"><ele>192.0</ele><time>2026-04-26T08:45:03.057Z</time></trkpt><trkpt lat="45.6622483" lon="10.0001067"><ele>192.0</ele><time>2026-04-26T08:45:04.056Z</time></trkpt><trkpt lat="45.6621783" lon="10.00017"><ele>192.0</ele><time>2026-04-26T08:45:06.056Z</time></trkpt><trkpt lat="45.66211" lon="10.000215"><ele>192.0</ele><time>2026-04-26T08:45:09.056Z</time></trkpt><trkpt lat="45.6620167" lon="10.0003333"><ele>192.8</ele><time>2026-04-26T08:45:11.056Z</time></trkpt><trkpt lat="45.6619483" lon="10.0004167"><ele>193.6</ele><time>2026-04-26T08:45:12.056Z</time></trkpt><trkpt lat="45.6618717" lon="10.0005017"><ele>194.4</ele><time>2026-04-26T08:45:13.056Z</time></trkpt><trkpt lat="45.6617917" lon="10.00059"><ele>195.20000000000002</ele><time>2026-04-26T08:45:14.056Z</time></trkpt><trkpt lat="45.6617083" lon="10.0006817"><ele>196.0</ele><time>2026-04-26T08:45:15.056Z</time></trkpt><trkpt lat="45.6616267" lon="10.00077"><ele>195.8</ele><time>2026-04-26T08:45:16.058Z</time></trkpt><trkpt lat="45.6615517" lon="10.0008583"><ele>195.60000000000002</ele><time>2026-04-26T08:45:17.054Z</time></trkpt><trkpt lat="45.6614783" lon="10.0009517"><ele>195.4</ele><time>2026-04-26T08:45:18.056Z</time></trkpt><trkpt lat="45.66141" lon="10.00104"><ele>195.2</ele><time>2026-04-26T08:45:19.054Z</time></trkpt><trkpt lat="45.661345" lon="10.00113"><ele>195.0</ele><time>2026-04-26T08:45:20.057Z</time></trkpt><trkpt lat="45.6612817" lon="10.0012233"><ele>195.0</ele><time>2026-04-26T08:45:21.057Z</time></trkpt><trkpt lat="45.6612167" lon="10.0013233"><ele>195.0</ele><time>2026-04-26T08:45:22.056Z</time></trkpt><trkpt lat="45.6611467" lon="10.00143"><ele>195.0</ele><time>2026-04-26T08:45:23.056Z</time></trkpt><trkpt lat="45.66108" lon="10.0015367"><ele>195.0</ele><time>2026-04-26T08:45:24.056Z</time></trkpt><trkpt lat="45.6610133" lon="10.0016467"><ele>195.0</ele><time>2026-04-26T08:45:25.056Z</time></trkpt><trkpt lat="45.660945" lon="10.0017667"><ele>194.75</ele><time>2026-04-26T08:45:26.057Z</time></trkpt><trkpt lat="45.6608683" lon="10.0018967"><ele>194.5</ele><time>2026-04-26T08:45:27.056Z</time></trkpt><trkpt lat="45.6607867" lon="10.002045"><ele>194.25</ele><time>2026-04-26T08:45:28.057Z</time></trkpt><trkpt lat="45.6607033" lon="10.002205"><ele>194.0</ele><time>2026-04-26T08:45:29.056Z</time></trkpt><trkpt lat="45.660615" lon="10.0023683"><ele>194.0</ele><time>2026-04-26T08:45:30.056Z</time></trkpt><trkpt lat="45.6605167" lon="10.0025317"><ele>194.0</ele><time>2026-04-26T08:45:31.056Z</time></trkpt><trkpt lat="45.660405" lon="10.002695"><ele>194.0</ele><time>2026-04-26T08:45:32.057Z</time></trkpt><trkpt lat="45.660285" lon="10.002855"><ele>194.33333333333334</ele><time>2026-04-26T08:45:33.056Z</time></trkpt><trkpt lat="45.6601633" lon="10.0030167"><ele>194.66666666666669</ele><time>2026-04-26T08:45:34.056Z</time></trkpt><trkpt lat="45.6600383" lon="10.003175"><ele>195.0</ele><time>2026-04-26T08:45:35.057Z</time></trkpt><trkpt lat="45.659915" lon="10.0033333"><ele>194.0</ele><time>2026-04-26T08:45:36.056Z</time></trkpt><trkpt lat="45.659785" lon="10.0034867"><ele>193.0</ele><time>2026-04-26T08:45:37.056Z</time></trkpt><trkpt lat="45.65966" lon="10.0036417"><ele>192.0</ele><time>2026-04-26T08:45:38.057Z</time></trkpt><trkpt lat="45.6595383" lon="10.0038"><ele>192.0</ele><time>2026-04-26T08:45:39.054Z</time></trkpt><trkpt lat="45.65942" lon="10.003955"><ele>192.0</ele><time>2026-04-26T08:45:40.056Z</time></trkpt><trkpt lat="45.6593" lon="10.0041067"><ele>192.0</ele><time>2026-04-26T08:45:41.057Z</time></trkpt><trkpt lat="45.6591833" lon="10.0042667"><ele>191.66666666666666</ele><time>2026-04-26T08:45:42.056Z</time></trkpt><trkpt lat="45.6590683" lon="10.0044333"><ele>191.33333333333331</ele><time>2026-04-26T08:45:43.053Z</time></trkpt><trkpt lat="45.658955" lon="10.0046117"><ele>191.0</ele><time>2026-04-26T08:45:44.056Z</time></trkpt><trkpt lat="45.6588417" lon="10.0048017"><ele>191.0</ele><time>2026-04-26T08:45:45.056Z</time></trkpt><trkpt lat="45.6587383" lon="10.0050033"><ele>191.0</ele><time>2026-04-26T08:45:46.056Z</time></trkpt><trkpt lat="45.6586317" lon="10.0052117"><ele>191.0</ele><time>2026-04-26T08:45:47.054Z</time></trkpt><trkpt lat="45.6585317" lon="10.0054283"><ele>191.0</ele><time>2026-04-26T08:45:48.053Z</time></trkpt><trkpt lat="45.6584333" lon="10.00565"><ele>191.0</ele><time>2026-04-26T08:45:49.053Z</time></trkpt><trkpt lat="45.6583367" lon="10.0058733"><ele>191.0</ele><time>2026-04-26T08:45:50.054Z</time></trkpt><trkpt lat="45.65824" lon="10.0060967"><ele>191.33333333333331</ele><time>2026-04-26T08:45:51.053Z</time></trkpt><trkpt lat="45.658135" lon="10.006315"><ele>191.66666666666666</ele><time>2026-04-26T08:45:52.053Z</time></trkpt><trkpt lat="45.65803" lon="10.006535"><ele>192.0</ele><time>2026-04-26T08:45:53.054Z</time></trkpt><trkpt lat="45.6579217" lon="10.00675"><ele>191.66666666666666</ele><time>2026-04-26T08:45:54.056Z</time></trkpt><trkpt lat="45.6578067" lon="10.006955"><ele>191.33333333333331</ele><time>2026-04-26T08:45:55.056Z</time></trkpt><trkpt lat="45.657685" lon="10.0071467"><ele>191.0</ele><time>2026-04-26T08:45:56.056Z</time></trkpt><trkpt lat="45.6575483" lon="10.0073283"><ele>192.66666666666666</ele><time>2026-04-26T08:45:57.057Z</time></trkpt><trkpt lat="45.657405" lon="10.0075017"><ele>194.33333333333331</ele><time>2026-04-26T08:45:58.056Z</time></trkpt><trkpt lat="45.6572533" lon="10.0076667"><ele>196.0</ele><time>2026-04-26T08:45:59.057Z</time></trkpt><trkpt lat="45.6570933" lon="10.0078183"><ele>195.0</ele><time>2026-04-26T08:46:00.056Z</time></trkpt><trkpt lat="45.6569283" lon="10.0079633"><ele>194.0</ele><time>2026-04-26T08:46:01.056Z</time></trkpt><trkpt lat="45.6567633" lon="10.0081033"><ele>193.0</ele><time>2026-04-26T08:46:02.057Z</time></trkpt><trkpt lat="45.6565967" lon="10.0082467"><ele>193.33333333333331</ele><time>2026-04-26T08:46:03.056Z</time></trkpt><trkpt lat="45.6564283" lon="10.0083917"><ele>193.66666666666669</ele><time>2026-04-26T08:46:04.058Z</time></trkpt><trkpt lat="45.6562583" lon="10.0085383"><ele>194.0</ele><time>2026-04-26T08:46:05.056Z</time></trkpt><trkpt lat="45.6560917" lon="10.00868"><ele>194.0</ele><time>2026-04-26T08:46:06.056Z</time></trkpt><trkpt lat="45.6559283" lon="10.0088217"><ele>194.0</ele><time>2026-04-26T08:46:07.057Z</time></trkpt><trkpt lat="45.6557733" lon="10.0089717"><ele>194.0</ele><time>2026-04-26T08:46:08.057Z</time></trkpt><trkpt lat="45.6556267" lon="10.0091333"><ele>194.66666666666669</ele><time>2026-04-26T08:46:09.056Z</time></trkpt><trkpt lat="45.65549" lon="10.009315"><ele>195.33333333333331</ele><time>2026-04-26T08:46:10.056Z</time></trkpt><trkpt lat="45.655375" lon="10.00952"><ele>196.0</ele><time>2026-04-26T08:46:11.056Z</time></trkpt><trkpt lat="45.6552767" lon="10.0097417"><ele>195.33333333333331</ele><time>2026-04-26T08:46:12.058Z</time></trkpt><trkpt lat="45.6551983" lon="10.0099817"><ele>194.66666666666669</ele><time>2026-04-26T08:46:13.056Z</time></trkpt><trkpt lat="45.6551383" lon="10.0102367"><ele>194.0</ele><time>2026-04-26T08:46:14.057Z</time></trkpt><trkpt lat="45.6550933" lon="10.01051"><ele>194.0</ele><time>2026-04-26T08:46:15.056Z</time></trkpt><trkpt lat="45.655045" lon="10.0108"><ele>194.0</ele><time>2026-04-26T08:46:16.056Z</time></trkpt><trkpt lat="45.6550017" lon="10.0110967"><ele>194.0</ele><time>2026-04-26T08:46:17.054Z</time></trkpt><trkpt lat="45.65496" lon="10.0113833"><ele>193.0</ele><time>2026-04-26T08:46:18.053Z</time></trkpt><trkpt lat="45.6549183" lon="10.0116617"><ele>192.0</ele><time>2026-04-26T08:46:19.054Z</time></trkpt><trkpt lat="45.6548817" lon="10.01193"><ele>191.0</ele><time>2026-04-26T08:46:20.054Z</time></trkpt><trkpt lat="45.6548433" lon="10.01219"><ele>191.0</ele><time>2026-04-26T08:46:21.053Z</time></trkpt><trkpt lat="45.6548033" lon="10.012445"><ele>191.0</ele><time>2026-04-26T08:46:22.054Z</time></trkpt><trkpt lat="45.654765" lon="10.0126917"><ele>191.0</ele><time>2026-04-26T08:46:23.054Z</time></trkpt><trkpt lat="45.6547267" lon="10.0129383"><ele>190.66666666666666</ele><time>2026-04-26T08:46:24.058Z</time></trkpt><trkpt lat="45.6546867" lon="10.0131967"><ele>190.33333333333334</ele><time>2026-04-26T08:46:25.056Z</time></trkpt><trkpt lat="45.6546467" lon="10.0134633"><ele>190.0</ele><time>2026-04-26T08:46:26.057Z</time></trkpt><trkpt lat="45.6546033" lon="10.0137467"><ele>189.33333333333334</ele><time>2026-04-26T08:46:27.056Z</time></trkpt><trkpt lat="45.6545617" lon="10.0140267"><ele>188.66666666666666</ele><time>2026-04-26T08:46:28.056Z</time></trkpt><trkpt lat="45.6545183" lon="10.0142983"><ele>188.0</ele><time>2026-04-26T08:46:29.056Z</time></trkpt><trkpt lat="45.65448" lon="10.014565"><ele>188.66666666666666</ele><time>2026-04-26T08:46:30.056Z</time></trkpt><trkpt lat="45.654445" lon="10.0148267"><ele>189.33333333333334</ele><time>2026-04-26T08:46:31.056Z</time></trkpt><trkpt lat="45.6544083" lon="10.01508"><ele>190.0</ele><time>2026-04-26T08:46:32.057Z</time></trkpt><trkpt lat="45.6543717" lon="10.0153267"><ele>190.0</ele><time>2026-04-26T08:46:33.058Z</time></trkpt><trkpt lat="45.6543333" lon="10.0155733"><ele>190.0</ele><time>2026-04-26T08:46:34.056Z</time></trkpt><trkpt lat="45.6542917" lon="10.015825"><ele>190.0</ele><time>2026-04-26T08:46:35.056Z</time></trkpt><trkpt lat="45.654255" lon="10.0160883"><ele>189.33333333333334</ele><time>2026-04-26T08:46:36.057Z</time></trkpt><trkpt lat="45.6542167" lon="10.0163583"><ele>188.66666666666666</ele><time>2026-04-26T08:46:37.056Z</time></trkpt><trkpt lat="45.6541783" lon="10.0166517"><ele>188.0</ele><time>2026-04-26T08:46:38.058Z</time></trkpt><trkpt lat="45.6541317" lon="10.016945"><ele>187.66666666666666</ele><time>2026-04-26T08:46:39.056Z</time></trkpt><trkpt lat="45.654075" lon="10.017225"><ele>187.33333333333334</ele><time>2026-04-26T08:46:40.056Z</time></trkpt><trkpt lat="45.65401" lon="10.0174967"><ele>187.0</ele><time>2026-04-26T08:46:41.056Z</time></trkpt><trkpt lat="45.653935" lon="10.0177467"><ele>187.0</ele><time>2026-04-26T08:46:42.057Z</time></trkpt><trkpt lat="45.653845" lon="10.0179767"><ele>187.0</ele><time>2026-04-26T08:46:43.056Z</time></trkpt><trkpt lat="45.6537383" lon="10.0181967"><ele>187.0</ele><time>2026-04-26T08:46:44.057Z</time></trkpt><trkpt lat="45.6536233" lon="10.01841"><ele>187.33333333333334</ele><time>2026-04-26T08:46:45.057Z</time></trkpt><trkpt lat="45.6535067" lon="10.0186167"><ele>187.66666666666666</ele><time>2026-04-26T08:46:46.056Z</time></trkpt><trkpt lat="45.653395" lon="10.0188217"><ele>188.0</ele><time>2026-04-26T08:46:47.053Z</time></trkpt><trkpt lat="45.65329" lon="10.01902"><ele>188.33333333333331</ele><time>2026-04-26T08:46:48.055Z</time></trkpt><trkpt lat="45.6531883" lon="10.019215"><ele>188.66666666666666</ele><time>2026-04-26T08:46:49.053Z</time></trkpt><trkpt lat="45.653085" lon="10.0194083"><ele>189.0</ele><time>2026-04-26T08:46:50.054Z</time></trkpt><trkpt lat="45.6529867" lon="10.019595"><ele>189.0</ele><time>2026-04-26T08:46:51.054Z</time></trkpt><trkpt lat="45.6528933" lon="10.0197717"><ele>189.0</ele><time>2026-04-26T08:46:52.054Z</time></trkpt><trkpt lat="45.6528033" lon="10.01994"><ele>189.0</ele><time>2026-04-26T08:46:53.055Z</time></trkpt><trkpt lat="45.6527167" lon="10.0200983"><ele>189.0</ele><time>2026-04-26T08:46:54.057Z</time></trkpt><trkpt lat="45.6526333" lon="10.02026"><ele>189.0</ele><time>2026-04-26T08:46:55.057Z</time></trkpt><trkpt lat="45.652545" lon="10.0204267"><ele>189.0</ele><time>2026-04-26T08:46:56.057Z</time></trkpt><trkpt lat="45.6524567" lon="10.0205883"><ele>189.0</ele><time>2026-04-26T08:46:57.056Z</time></trkpt><trkpt lat="45.6523733" lon="10.0207433"><ele>189.0</ele><time>2026-04-26T08:46:58.056Z</time></trkpt><trkpt lat="45.6522967" lon="10.020885"><ele>189.0</ele><time>2026-04-26T08:46:59.056Z</time></trkpt><trkpt lat="45.652225" lon="10.02102"><ele>189.0</ele><time>2026-04-26T08:47:00.056Z</time></trkpt><trkpt lat="45.6521533" lon="10.0211517"><ele>189.0</ele><time>2026-04-26T08:47:01.057Z</time></trkpt><trkpt lat="45.6520867" lon="10.0212783"><ele>189.0</ele><time>2026-04-26T08:47:02.058Z</time></trkpt><trkpt lat="45.6520233" lon="10.0213983"><ele>189.0</ele><time>2026-04-26T08:47:03.057Z</time></trkpt><trkpt lat="45.65196" lon="10.0215083"><ele>189.0</ele><time>2026-04-26T08:47:04.056Z</time></trkpt><trkpt lat="45.6519067" lon="10.021605"><ele>189.0</ele><time>2026-04-26T08:47:05.057Z</time></trkpt><trkpt lat="45.6518633" lon="10.0217117"><ele>189.0</ele><time>2026-04-26T08:47:06.058Z</time></trkpt><trkpt lat="45.6518133" lon="10.0218017"><ele>189.0</ele><time>2026-04-26T08:47:07.056Z</time></trkpt><trkpt lat="45.651755" lon="10.0218633"><ele>189.0</ele><time>2026-04-26T08:47:08.056Z</time></trkpt><trkpt lat="45.651685" lon="10.0218983"><ele>189.16666666666666</ele><time>2026-04-26T08:47:09.056Z</time></trkpt><trkpt lat="45.6516083" lon="10.0219117"><ele>189.33333333333334</ele><time>2026-04-26T08:47:10.057Z</time></trkpt><trkpt lat="45.6515333" lon="10.0219133"><ele>189.5</ele><time>2026-04-26T08:47:11.056Z</time></trkpt><trkpt lat="45.6514567" lon="10.0219233"><ele>189.66666666666669</ele><time>2026-04-26T08:47:12.056Z</time></trkpt><trkpt lat="45.6513867" lon="10.0219533"><ele>189.83333333333334</ele><time>2026-04-26T08:47:13.056Z</time></trkpt><trkpt lat="45.65133" lon="10.0220017"><ele>190.0</ele><time>2026-04-26T08:47:14.057Z</time></trkpt><trkpt lat="45.6512867" lon="10.02217"><ele>190.0</ele><time>2026-04-26T08:47:16.056Z</time></trkpt><trkpt lat="45.6513083" lon="10.0222783"><ele>190.0</ele><time>2026-04-26T08:47:17.054Z</time></trkpt><trkpt lat="45.65137" lon="10.0223933"><ele>190.0</ele><time>2026-04-26T08:47:18.054Z</time></trkpt><trkpt lat="45.651425" lon="10.0225117"><ele>190.0</ele><time>2026-04-26T08:47:19.054Z</time></trkpt><trkpt lat="45.6514817" lon="10.0226633"><ele>190.0</ele><time>2026-04-26T08:47:20.054Z</time></trkpt><trkpt lat="45.6515167" lon="10.022825"><ele>189.25</ele><time>2026-04-26T08:47:21.053Z</time></trkpt><trkpt lat="45.6515383" lon="10.0230083"><ele>188.5</ele><time>2026-04-26T08:47:22.053Z</time></trkpt><trkpt lat="45.6515583" lon="10.023215"><ele>187.75</ele><time>2026-04-26T08:47:23.054Z</time></trkpt><trkpt lat="45.6515767" lon="10.0234367"><ele>187.0</ele><time>2026-04-26T08:47:24.058Z</time></trkpt><trkpt lat="45.6515917" lon="10.0236733"><ele>187.0</ele><time>2026-04-26T08:47:25.056Z</time></trkpt><trkpt lat="45.6516217" lon="10.0239117"><ele>187.0</ele><time>2026-04-26T08:47:26.058Z</time></trkpt><trkpt lat="45.65168" lon="10.0241483"><ele>187.0</ele><time>2026-04-26T08:47:27.056Z</time></trkpt><trkpt lat="45.651755" lon="10.02437"><ele>187.33333333333334</ele><time>2026-04-26T08:47:28.056Z</time></trkpt><trkpt lat="45.651835" lon="10.0245833"><ele>187.66666666666666</ele><time>2026-04-26T08:47:29.057Z</time></trkpt><trkpt lat="45.6519067" lon="10.02479"><ele>188.0</ele><time>2026-04-26T08:47:30.056Z</time></trkpt><trkpt lat="45.6519767" lon="10.0249817"><ele>188.5</ele><time>2026-04-26T08:47:31.057Z</time></trkpt><trkpt lat="45.652045" lon="10.025165"><ele>189.0</ele><time>2026-04-26T08:47:32.057Z</time></trkpt><trkpt lat="45.6521117" lon="10.0253517"><ele>189.5</ele><time>2026-04-26T08:47:33.056Z</time></trkpt><trkpt lat="45.65218" lon="10.0255383"><ele>190.0</ele><time>2026-04-26T08:47:34.057Z</time></trkpt><trkpt lat="45.6522483" lon="10.0257267"><ele>189.33333333333334</ele><time>2026-04-26T08:47:35.058Z</time></trkpt><trkpt lat="45.65232" lon="10.02592"><ele>188.66666666666666</ele><time>2026-04-26T08:47:36.056Z</time></trkpt><trkpt lat="45.6523883" lon="10.0261183"><ele>188.0</ele><time>2026-04-26T08:47:37.057Z</time></trkpt><trkpt lat="45.6524567" lon="10.02631"><ele>188.0</ele><time>2026-04-26T08:47:38.057Z</time></trkpt><trkpt lat="45.6525283" lon="10.0265083"><ele>188.0</ele><time>2026-04-26T08:47:39.056Z</time></trkpt><trkpt lat="45.6525983" lon="10.0267033"><ele>188.0</ele><time>2026-04-26T08:47:40.057Z</time></trkpt><trkpt lat="45.6526667" lon="10.026895"><ele>187.75</ele><time>2026-04-26T08:47:41.056Z</time></trkpt><trkpt lat="45.6527317" lon="10.027075"><ele>187.5</ele><time>2026-04-26T08:47:42.058Z</time></trkpt><trkpt lat="45.652795" lon="10.0272567"><ele>187.25</ele><time>2026-04-26T08:47:43.057Z</time></trkpt><trkpt lat="45.6528617" lon="10.02744"><ele>187.0</ele><time>2026-04-26T08:47:44.057Z</time></trkpt><trkpt lat="45.6529267" lon="10.0276233"><ele>187.75</ele><time>2026-04-26T08:47:45.056Z</time></trkpt><trkpt lat="45.6529917" lon="10.0278033"><ele>188.5</ele><time>2026-04-26T08:47:46.058Z</time></trkpt><trkpt lat="45.65306" lon="10.0279917"><ele>189.25</ele><time>2026-04-26T08:47:47.054Z</time></trkpt><trkpt lat="45.6531283" lon="10.0281733"><ele>190.0</ele><time>2026-04-26T08:47:48.054Z</time></trkpt><trkpt lat="45.6531967" lon="10.028355"><ele>190.0</ele><time>2026-04-26T08:47:49.055Z</time></trkpt><trkpt lat="45.6532633" lon="10.0285417"><ele>190.0</ele><time>2026-04-26T08:47:50.054Z</time></trkpt><trkpt lat="45.65333" lon="10.0287267"><ele>190.0</ele><time>2026-04-26T08:47:51.054Z</time></trkpt><trkpt lat="45.6533967" lon="10.0289183"><ele>190.0</ele><time>2026-04-26T08:47:52.053Z</time></trkpt><trkpt lat="45.6534667" lon="10.0291067"><ele>190.66666666666669</ele><time>2026-04-26T08:47:53.055Z</time></trkpt><trkpt lat="45.6535383" lon="10.0292983"><ele>191.33333333333334</ele><time>2026-04-26T08:47:54.057Z</time></trkpt><trkpt lat="45.653605" lon="10.0294883"><ele>192.0</ele><time>2026-04-26T08:47:55.056Z</time></trkpt><trkpt lat="45.653675" lon="10.02968"><ele>192.0</ele><time>2026-04-26T08:47:56.057Z</time></trkpt><trkpt lat="45.65374" lon="10.0298767"><ele>192.0</ele><time>2026-04-26T08:47:57.056Z</time></trkpt><trkpt lat="45.6538083" lon="10.0300733"><ele>192.0</ele><time>2026-04-26T08:47:58.056Z</time></trkpt><trkpt lat="45.6538683" lon="10.0302867"><ele>190.66666666666666</ele><time>2026-04-26T08:47:59.057Z</time></trkpt><trkpt lat="45.6539167" lon="10.03051"><ele>189.33333333333331</ele><time>2026-04-26T08:48:00.056Z</time></trkpt><trkpt lat="45.653955" lon="10.0307383"><ele>188.0</ele><time>2026-04-26T08:48:01.057Z</time></trkpt><trkpt lat="45.6539917" lon="10.03096"><ele>187.5</ele><time>2026-04-26T08:48:02.057Z</time></trkpt><trkpt lat="45.6540267" lon="10.0311717"><ele>187.0</ele><time>2026-04-26T08:48:03.056Z</time></trkpt><trkpt lat="45.6540617" lon="10.0313733"><ele>186.5</ele><time>2026-04-26T08:48:04.056Z</time></trkpt><trkpt lat="45.654095" lon="10.03157"><ele>186.0</ele><time>2026-04-26T08:48:05.054Z</time></trkpt><trkpt lat="45.6541317" lon="10.0317667"><ele>186.0</ele><time>2026-04-26T08:48:06.057Z</time></trkpt><trkpt lat="45.6541667" lon="10.0319683"><ele>186.0</ele><time>2026-04-26T08:48:07.059Z</time></trkpt><trkpt lat="45.6542" lon="10.0321733"><ele>186.0</ele><time>2026-04-26T08:48:08.057Z</time></trkpt><trkpt lat="45.6542333" lon="10.0323817"><ele>186.0</ele><time>2026-04-26T08:48:09.056Z</time></trkpt><trkpt lat="45.6542733" lon="10.0325883"><ele>186.0</ele><time>2026-04-26T08:48:10.056Z</time></trkpt><trkpt lat="45.6543167" lon="10.03279"><ele>186.0</ele><time>2026-04-26T08:48:11.056Z</time></trkpt><trkpt lat="45.65437" lon="10.0329767"><ele>186.0</ele><time>2026-04-26T08:48:12.057Z</time></trkpt><trkpt lat="45.654435" lon="10.03315"><ele>186.0</ele><time>2026-04-26T08:48:13.056Z</time></trkpt><trkpt lat="45.654505" lon="10.0333133"><ele>186.0</ele><time>2026-04-26T08:48:14.057Z</time></trkpt><trkpt lat="45.6545767" lon="10.033465"><ele>186.0</ele><time>2026-04-26T08:48:15.057Z</time></trkpt><trkpt lat="45.65465" lon="10.03361"><ele>186.0</ele><time>2026-04-26T08:48:16.055Z</time></trkpt><trkpt lat="45.6547217" lon="10.0337517"><ele>186.0</ele><time>2026-04-26T08:48:17.055Z</time></trkpt><trkpt lat="45.6547867" lon="10.0339"><ele>186.0</ele><time>2026-04-26T08:48:18.054Z</time></trkpt><trkpt lat="45.65485" lon="10.0340467"><ele>186.0</ele><time>2026-04-26T08:48:19.054Z</time></trkpt><trkpt lat="45.6549133" lon="10.0342017"><ele>186.0</ele><time>2026-04-26T08:48:20.055Z</time></trkpt><trkpt lat="45.6549733" lon="10.0343667"><ele>186.0</ele><time>2026-04-26T08:48:21.053Z</time></trkpt><trkpt lat="45.6550217" lon="10.0345467"><ele>185.75</ele><time>2026-04-26T08:48:22.054Z</time></trkpt><trkpt lat="45.655065" lon="10.0347317"><ele>185.5</ele><time>2026-04-26T08:48:23.054Z</time></trkpt><trkpt lat="45.6551" lon="10.0349117"><ele>185.25</ele><time>2026-04-26T08:48:24.054Z</time></trkpt><trkpt lat="45.65513" lon="10.03509"><ele>185.0</ele><time>2026-04-26T08:48:25.059Z</time></trkpt><trkpt lat="45.6551533" lon="10.03525"><ele>185.0</ele><time>2026-04-26T08:48:26.057Z</time></trkpt><trkpt lat="45.6551733" lon="10.0353883"><ele>185.0</ele><time>2026-04-26T08:48:27.054Z</time></trkpt><trkpt lat="45.65518" lon="10.0355117"><ele>185.0</ele><time>2026-04-26T08:48:28.054Z</time></trkpt><trkpt lat="45.6551783" lon="10.0356333"><ele>185.0</ele><time>2026-04-26T08:48:29.056Z</time></trkpt><trkpt lat="45.6551717" lon="10.03577"><ele>185.0</ele><time>2026-04-26T08:48:30.053Z</time></trkpt><trkpt lat="45.655165" lon="10.03593"><ele>185.0</ele><time>2026-04-26T08:48:31.056Z</time></trkpt><trkpt lat="45.65516" lon="10.0361017"><ele>185.0</ele><time>2026-04-26T08:48:32.058Z</time></trkpt><trkpt lat="45.655145" lon="10.0362783"><ele>185.0</ele><time>2026-04-26T08:48:33.056Z</time></trkpt><trkpt lat="45.6551117" lon="10.036475"><ele>185.0</ele><time>2026-04-26T08:48:34.056Z</time></trkpt><trkpt lat="45.65506" lon="10.0366883"><ele>185.33333333333331</ele><time>2026-04-26T08:48:35.054Z</time></trkpt><trkpt lat="45.654995" lon="10.036905"><ele>185.66666666666666</ele><time>2026-04-26T08:48:36.057Z</time></trkpt><trkpt lat="45.654925" lon="10.0371217"><ele>186.0</ele><time>2026-04-26T08:48:37.055Z</time></trkpt><trkpt lat="45.6548533" lon="10.0373233"><ele>186.0</ele><time>2026-04-26T08:48:38.055Z</time></trkpt><trkpt lat="45.65478" lon="10.0375133"><ele>186.0</ele><time>2026-04-26T08:48:39.057Z</time></trkpt><trkpt lat="45.6547067" lon="10.037685"><ele>186.0</ele><time>2026-04-26T08:48:40.057Z</time></trkpt><trkpt lat="45.6546283" lon="10.0378467"><ele>186.0</ele><time>2026-04-26T08:48:41.054Z</time></trkpt><trkpt lat="45.65455" lon="10.0379967"><ele>186.0</ele><time>2026-04-26T08:48:42.055Z</time></trkpt><trkpt lat="45.6544717" lon="10.0381367"><ele>186.0</ele><time>2026-04-26T08:48:43.057Z</time></trkpt><trkpt lat="45.6543933" lon="10.03827"><ele>186.0</ele><time>2026-04-26T08:48:44.057Z</time></trkpt><trkpt lat="45.6543117" lon="10.0383933"><ele>186.0</ele><time>2026-04-26T08:48:45.057Z</time></trkpt><trkpt lat="45.6542267" lon="10.0385033"><ele>186.0</ele><time>2026-04-26T08:48:46.056Z</time></trkpt><trkpt lat="45.654135" lon="10.0386167"><ele>186.0</ele><time>2026-04-26T08:48:47.055Z</time></trkpt><trkpt lat="45.654035" lon="10.0387367"><ele>186.0</ele><time>2026-04-26T08:48:48.054Z</time></trkpt><trkpt lat="45.653935" lon="10.03885"><ele>186.0</ele><time>2026-04-26T08:48:49.055Z</time></trkpt><trkpt lat="45.6538333" lon="10.0389517"><ele>186.0</ele><time>2026-04-26T08:48:50.054Z</time></trkpt><trkpt lat="45.6537317" lon="10.0390433"><ele>186.0</ele><time>2026-04-26T08:48:51.053Z</time></trkpt><trkpt lat="45.6536283" lon="10.0391283"><ele>186.0</ele><time>2026-04-26T08:48:52.053Z</time></trkpt><trkpt lat="45.6535167" lon="10.0392133"><ele>186.0</ele><time>2026-04-26T08:48:53.054Z</time></trkpt><trkpt lat="45.6534" lon="10.03929"><ele>185.75</ele><time>2026-04-26T08:48:54.057Z</time></trkpt><trkpt lat="45.6532833" lon="10.0393667"><ele>185.5</ele><time>2026-04-26T08:48:55.056Z</time></trkpt><trkpt lat="45.65317" lon="10.03945"><ele>185.25</ele><time>2026-04-26T08:48:56.057Z</time></trkpt><trkpt lat="45.653055" lon="10.0395267"><ele>185.0</ele><time>2026-04-26T08:48:57.056Z</time></trkpt><trkpt lat="45.652935" lon="10.03961"><ele>185.0</ele><time>2026-04-26T08:48:58.054Z</time></trkpt><trkpt lat="45.6528117" lon="10.0396967"><ele>185.0</ele><time>2026-04-26T08:48:59.057Z</time></trkpt><trkpt lat="45.6526867" lon="10.0397783"><ele>185.0</ele><time>2026-04-26T08:49:00.056Z</time></trkpt><trkpt lat="45.6525633" lon="10.0398633"><ele>185.0</ele><time>2026-04-26T08:49:01.054Z</time></trkpt><trkpt lat="45.65244" lon="10.0399483"><ele>185.25</ele><time>2026-04-26T08:49:02.057Z</time></trkpt><trkpt lat="45.6523217" lon="10.0400333"><ele>185.5</ele><time>2026-04-26T08:49:03.056Z</time></trkpt><trkpt lat="45.65221" lon="10.0401117"><ele>185.75</ele><time>2026-04-26T08:49:04.056Z</time></trkpt><trkpt lat="45.6521033" lon="10.0401817"><ele>186.0</ele><time>2026-04-26T08:49:05.057Z</time></trkpt><trkpt lat="45.651995" lon="10.04026"><ele>186.25</ele><time>2026-04-26T08:49:06.056Z</time></trkpt><trkpt lat="45.65188" lon="10.0403433"><ele>186.5</ele><time>2026-04-26T08:49:07.053Z</time></trkpt><trkpt lat="45.65176" lon="10.04043"><ele>186.75</ele><time>2026-04-26T08:49:08.057Z</time></trkpt><trkpt lat="45.6516433" lon="10.04051"><ele>187.0</ele><time>2026-04-26T08:49:09.056Z</time></trkpt><trkpt lat="45.6515267" lon="10.0405783"><ele>187.0</ele><time>2026-04-26T08:49:10.056Z</time></trkpt><trkpt lat="45.6514133" lon="10.04065"><ele>187.0</ele><time>2026-04-26T08:49:11.056Z</time></trkpt><trkpt lat="45.651295" lon="10.04072"><ele>187.0</ele><time>2026-04-26T08:49:12.056Z</time></trkpt><trkpt lat="45.6511783" lon="10.0407967"><ele>187.0</ele><time>2026-04-26T08:49:13.056Z</time></trkpt><trkpt lat="45.6510667" lon="10.0408783"><ele>186.39999999999998</ele><time>2026-04-26T08:49:14.057Z</time></trkpt><trkpt lat="45.6509617" lon="10.0409517"><ele>185.79999999999998</ele><time>2026-04-26T08:49:15.056Z</time></trkpt><trkpt lat="45.65087" lon="10.04102"><ele>185.2</ele><time>2026-04-26T08:49:16.056Z</time></trkpt><trkpt lat="45.6507933" lon="10.0410783"><ele>184.6</ele><time>2026-04-26T08:49:17.054Z</time></trkpt><trkpt lat="45.65072" lon="10.0411367"><ele>184.0</ele><time>2026-04-26T08:49:18.056Z</time></trkpt><trkpt lat="45.65064" lon="10.0412083"><ele>184.0</ele><time>2026-04-26T08:49:19.054Z</time></trkpt><trkpt lat="45.65056" lon="10.0412967"><ele>184.0</ele><time>2026-04-26T08:49:20.055Z</time></trkpt><trkpt lat="45.6504767" lon="10.0413883"><ele>184.0</ele><time>2026-04-26T08:49:21.054Z</time></trkpt><trkpt lat="45.650405" lon="10.0414983"><ele>184.0</ele><time>2026-04-26T08:49:22.055Z</time></trkpt><trkpt lat="45.6503567" lon="10.041625"><ele>184.0</ele><time>2026-04-26T08:49:23.054Z</time></trkpt><trkpt lat="45.6503433" lon="10.04177"><ele>183.6</ele><time>2026-04-26T08:49:24.057Z</time></trkpt><trkpt lat="45.650355" lon="10.0419133"><ele>183.2</ele><time>2026-04-26T08:49:25.056Z</time></trkpt><trkpt lat="45.6503883" lon="10.042055"><ele>182.79999999999998</ele><time>2026-04-26T08:49:26.056Z</time></trkpt><trkpt lat="45.65044" lon="10.042175"><ele>182.39999999999998</ele><time>2026-04-26T08:49:27.057Z</time></trkpt><trkpt lat="45.65051" lon="10.042275"><ele>182.0</ele><time>2026-04-26T08:49:28.056Z</time></trkpt><trkpt lat="45.65059" lon="10.0423483"><ele>182.0</ele><time>2026-04-26T08:49:29.057Z</time></trkpt><trkpt lat="45.650675" lon="10.0423867"><ele>182.0</ele><time>2026-04-26T08:49:30.056Z</time></trkpt><trkpt lat="45.6507667" lon="10.0424017"><ele>182.0</ele><time>2026-04-26T08:49:31.056Z</time></trkpt><trkpt lat="45.6508583" lon="10.0423983"><ele>182.0</ele><time>2026-04-26T08:49:32.057Z</time></trkpt><trkpt lat="45.6509617" lon="10.0423833"><ele>182.0</ele><time>2026-04-26T08:49:33.057Z</time></trkpt><trkpt lat="45.651075" lon="10.042375"><ele>182.5</ele><time>2026-04-26T08:49:34.056Z</time></trkpt><trkpt lat="45.651195" lon="10.0423983"><ele>183.0</ele><time>2026-04-26T08:49:35.057Z</time></trkpt><trkpt lat="45.65132" lon="10.0424533"><ele>183.5</ele><time>2026-04-26T08:49:36.057Z</time></trkpt><trkpt lat="45.65144" lon="10.0425433"><ele>184.0</ele><time>2026-04-26T08:49:37.056Z</time></trkpt><trkpt lat="45.6515567" lon="10.0426533"><ele>184.33333333333334</ele><time>2026-04-26T08:49:38.058Z</time></trkpt><trkpt lat="45.6516767" lon="10.0427783"><ele>184.66666666666666</ele><time>2026-04-26T08:49:39.053Z</time></trkpt><trkpt lat="45.6517983" lon="10.0429083"><ele>185.0</ele><time>2026-04-26T08:49:40.058Z</time></trkpt><trkpt lat="45.6519233" lon="10.0430367"><ele>185.66666666666666</ele><time>2026-04-26T08:49:41.057Z</time></trkpt><trkpt lat="45.6520517" lon="10.0431617"><ele>186.33333333333334</ele><time>2026-04-26T08:49:42.057Z</time></trkpt><trkpt lat="45.652175" lon="10.0432917"><ele>187.0</ele><time>2026-04-26T08:49:43.056Z</time></trkpt><trkpt lat="45.6522917" lon="10.0434233"><ele>186.0</ele><time>2026-04-26T08:49:44.054Z</time></trkpt><trkpt lat="45.652405" lon="10.0435467"><ele>185.0</ele><time>2026-04-26T08:49:45.054Z</time></trkpt><trkpt lat="45.6525167" lon="10.04367"><ele>184.0</ele><time>2026-04-26T08:49:46.057Z</time></trkpt><trkpt lat="45.6526217" lon="10.04378"><ele>183.0</ele><time>2026-04-26T08:49:47.056Z</time></trkpt><trkpt lat="45.6527233" lon="10.0438867"><ele>183.0</ele><time>2026-04-26T08:49:48.054Z</time></trkpt><trkpt lat="45.65282" lon="10.04399"><ele>183.0</ele><time>2026-04-26T08:49:49.054Z</time></trkpt><trkpt lat="45.65291" lon="10.04409"><ele>183.0</ele><time>2026-04-26T08:49:50.054Z</time></trkpt><trkpt lat="45.6529917" lon="10.0441833"><ele>183.0</ele><time>2026-04-26T08:49:51.054Z</time></trkpt><trkpt lat="45.653065" lon="10.0442717"><ele>183.0</ele><time>2026-04-26T08:49:52.055Z</time></trkpt><trkpt lat="45.6531367" lon="10.0443533"><ele>183.0</ele><time>2026-04-26T08:49:53.057Z</time></trkpt><trkpt lat="45.653205" lon="10.0444317"><ele>183.0</ele><time>2026-04-26T08:49:54.054Z</time></trkpt><trkpt lat="45.6532717" lon="10.04451"><ele>183.0</ele><time>2026-04-26T08:49:55.058Z</time></trkpt><trkpt lat="45.6533367" lon="10.044595"><ele>183.0</ele><time>2026-04-26T08:49:56.057Z</time></trkpt><trkpt lat="45.653405" lon="10.0446733"><ele>183.0</ele><time>2026-04-26T08:49:57.054Z</time></trkpt><trkpt lat="45.6534733" lon="10.04475"><ele>183.0</ele><time>2026-04-26T08:49:58.054Z</time></trkpt><trkpt lat="45.6535383" lon="10.0448233"><ele>183.0</ele><time>2026-04-26T08:49:59.055Z</time></trkpt><trkpt lat="45.6536017" lon="10.0448767"><ele>183.0</ele><time>2026-04-26T08:50:00.055Z</time></trkpt><trkpt lat="45.6536967" lon="10.0449633"><ele>183.0</ele><time>2026-04-26T08:50:02.054Z</time></trkpt><trkpt lat="45.6537767" lon="10.0450733"><ele>183.0</ele><time>2026-04-26T08:50:04.057Z</time></trkpt><trkpt lat="45.6538283" lon="10.0451317"><ele>183.0</ele><time>2026-04-26T08:50:05.056Z</time></trkpt><trkpt lat="45.653895" lon="10.045195"><ele>183.0</ele><time>2026-04-26T08:50:06.053Z</time></trkpt><trkpt lat="45.6539683" lon="10.04526"><ele>183.60000000000002</ele><time>2026-04-26T08:50:07.057Z</time></trkpt><trkpt lat="45.654045" lon="10.0453283"><ele>184.20000000000002</ele><time>2026-04-26T08:50:08.055Z</time></trkpt><trkpt lat="45.6541183" lon="10.045395"><ele>184.8</ele><time>2026-04-26T08:50:09.057Z</time></trkpt><trkpt lat="45.654195" lon="10.04546"><ele>185.4</ele><time>2026-04-26T08:50:10.055Z</time></trkpt><trkpt lat="45.6542833" lon="10.0455317"><ele>186.0</ele><time>2026-04-26T08:50:11.057Z</time></trkpt><trkpt lat="45.6543767" lon="10.045615"><ele>186.25</ele><time>2026-04-26T08:50:12.053Z</time></trkpt><trkpt lat="45.6544767" lon="10.0457067"><ele>186.5</ele><time>2026-04-26T08:50:13.054Z</time></trkpt><trkpt lat="45.65458" lon="10.0458017"><ele>186.75</ele><time>2026-04-26T08:50:14.055Z</time></trkpt><trkpt lat="45.654685" lon="10.045895"><ele>187.0</ele><time>2026-04-26T08:50:15.055Z</time></trkpt><trkpt lat="45.6547933" lon="10.04599"><ele>187.0</ele><time>2026-04-26T08:50:16.054Z</time></trkpt><trkpt lat="45.6549017" lon="10.046085"><ele>187.0</ele><time>2026-04-26T08:50:17.054Z</time></trkpt><trkpt lat="45.65501" lon="10.0461767"><ele>187.0</ele><time>2026-04-26T08:50:18.054Z</time></trkpt></trkseg></trk></gpx>